﻿<?xml version="1.0" encoding="utf-8"?><gpx creator="Garmin Desktop App" version="1.1" xsi:schemaLocation="http://www.topografix.com/GPX/1/1 http://www.topografix.com/GPX/1/1/gpx.xsd http://www.garmin.com/xmlschemas/WaypointExtension/v1 http://www8.garmin.com/xmlschemas/WaypointExtensionv1.xsd http://www.garmin.com/xmlschemas/TrackPointExtension/v1 http://www.garmin.com/xmlschemas/TrackPointExtensionv1.xsd http://www.garmin.com/xmlschemas/GpxExtensions/v3 http://www8.garmin.com/xmlschemas/GpxExtensionsv3.xsd http://www.garmin.com/xmlschemas/ActivityExtension/v1 http://www8.garmin.com/xmlschemas/ActivityExtensionv1.xsd http://www.garmin.com/xmlschemas/AdventuresExtensions/v1 http://www8.garmin.com/xmlschemas/AdventuresExtensionv1.xsd http://www.garmin.com/xmlschemas/PressureExtension/v1 http://www.garmin.com/xmlschemas/PressureExtensionv1.xsd http://www.garmin.com/xmlschemas/TripExtensions/v1 http://www.garmin.com/xmlschemas/TripExtensionsv1.xsd http://www.garmin.com/xmlschemas/TripMetaDataExtensions/v1 http://www.garmin.com/xmlschemas/TripMetaDataExtensionsv1.xsd http://www.garmin.com/xmlschemas/ViaPointTransportationModeExtensions/v1 http://www.garmin.com/xmlschemas/ViaPointTransportationModeExtensionsv1.xsd http://www.garmin.com/xmlschemas/CreationTimeExtension/v1 http://www.garmin.com/xmlschemas/CreationTimeExtensionsv1.xsd http://www.garmin.com/xmlschemas/AccelerationExtension/v1 http://www.garmin.com/xmlschemas/AccelerationExtensionv1.xsd http://www.garmin.com/xmlschemas/PowerExtension/v1 http://www.garmin.com/xmlschemas/PowerExtensionv1.xsd http://www.garmin.com/xmlschemas/VideoExtension/v1 http://www.garmin.com/xmlschemas/VideoExtensionv1.xsd" xmlns="http://www.topografix.com/GPX/1/1" xmlns:xsi="http://www.w3.org/2001/XMLSchema-instance" xmlns:wptx1="http://www.garmin.com/xmlschemas/WaypointExtension/v1" xmlns:gpxtrx="http://www.garmin.com/xmlschemas/GpxExtensions/v3" xmlns:gpxtpx="http://www.garmin.com/xmlschemas/TrackPointExtension/v1" xmlns:gpxx="http://www.garmin.com/xmlschemas/GpxExtensions/v3" xmlns:trp="http://www.garmin.com/xmlschemas/TripExtensions/v1" xmlns:adv="http://www.garmin.com/xmlschemas/AdventuresExtensions/v1" xmlns:prs="http://www.garmin.com/xmlschemas/PressureExtension/v1" xmlns:tmd="http://www.garmin.com/xmlschemas/TripMetaDataExtensions/v1" xmlns:vptm="http://www.garmin.com/xmlschemas/ViaPointTransportationModeExtensions/v1" xmlns:ctx="http://www.garmin.com/xmlschemas/CreationTimeExtension/v1" xmlns:gpxacc="http://www.garmin.com/xmlschemas/AccelerationExtension/v1" xmlns:gpxpx="http://www.garmin.com/xmlschemas/PowerExtension/v1" xmlns:vidx1="http://www.garmin.com/xmlschemas/VideoExtension/v1">

  <metadata>
    <link href="http://www.garmin.com">
      <text>Garmin International</text>
    </link>
    <time>2023-08-18T17:49:15Z</time>
    <bounds maxlat="57.650278983637691" maxlon="-2.20483398064971" minlat="56.721268985420465" minlon="-3.668262977153063" />
  </metadata>

  <trk>
    <name>Track vom: 2023-08-18 08:09</name>
    <extensions>
      <gpxx:TrackExtension>
        <gpxx:DisplayColor>DarkGray</gpxx:DisplayColor>
      </gpxx:TrackExtension>
    </extensions>
    <trkseg>
      <trkpt lat="56.731576966121793" lon="-2.65791499055922">
        <ele>28.98</ele>
        <time>2023-08-18T07:09:20Z</time>
      </trkpt>
      <trkpt lat="56.731759021058679" lon="-2.657994031906128">
        <ele>70.790000000000006</ele>
        <time>2023-08-18T07:09:51Z</time>
      </trkpt>
      <trkpt lat="56.73176203854382" lon="-2.658026972785592">
        <ele>81.849999999999994</ele>
        <time>2023-08-18T07:10:32Z</time>
      </trkpt>
      <trkpt lat="56.73167796805501" lon="-2.658306006342173">
        <ele>79.930000000000007</ele>
        <time>2023-08-18T07:10:35Z</time>
      </trkpt>
      <trkpt lat="56.731681991368532" lon="-2.658311035484076">
        <ele>79.450000000000003</ele>
        <time>2023-08-18T07:10:36Z</time>
      </trkpt>
      <trkpt lat="56.731671011075377" lon="-2.658297037705779">
        <ele>77.519999999999996</ele>
        <time>2023-08-18T07:10:39Z</time>
      </trkpt>
      <trkpt lat="56.731646033003926" lon="-2.658263007178903">
        <ele>76.560000000000002</ele>
        <time>2023-08-18T07:10:40Z</time>
      </trkpt>
      <trkpt lat="56.731361970305443" lon="-2.657872997224331">
        <ele>74.159999999999997</ele>
        <time>2023-08-18T07:10:44Z</time>
      </trkpt>
      <trkpt lat="56.731158038601279" lon="-2.657584995031357">
        <ele>69.829999999999998</ele>
        <time>2023-08-18T07:10:47Z</time>
      </trkpt>
      <trkpt lat="56.731098024174571" lon="-2.657500002533197">
        <ele>67.430000000000007</ele>
        <time>2023-08-18T07:10:49Z</time>
      </trkpt>
      <trkpt lat="56.730854026973248" lon="-2.657229015603662">
        <ele>65.030000000000001</ele>
        <time>2023-08-18T07:10:52Z</time>
      </trkpt>
      <trkpt lat="56.730799963697791" lon="-2.657172018662095">
        <ele>64.069999999999993</ele>
        <time>2023-08-18T07:10:53Z</time>
      </trkpt>
      <trkpt lat="56.730596031993628" lon="-2.65694503672421">
        <ele>60.700000000000003</ele>
        <time>2023-08-18T07:10:57Z</time>
      </trkpt>
      <trkpt lat="56.730535011738539" lon="-2.656910000368953">
        <ele>59.740000000000002</ele>
        <time>2023-08-18T07:10:58Z</time>
      </trkpt>
      <trkpt lat="56.730478014796972" lon="-2.656910000368953">
        <ele>58.780000000000001</ele>
        <time>2023-08-18T07:10:59Z</time>
      </trkpt>
      <trkpt lat="56.730399979278445" lon="-2.656928021460772">
        <ele>57.82</ele>
        <time>2023-08-18T07:11:00Z</time>
      </trkpt>
      <trkpt lat="56.730343988165259" lon="-2.65699096955359">
        <ele>57.340000000000003</ele>
        <time>2023-08-18T07:11:01Z</time>
      </trkpt>
      <trkpt lat="56.730272993445396" lon="-2.657069005072117">
        <ele>56.859999999999999</ele>
        <time>2023-08-18T07:11:02Z</time>
      </trkpt>
      <trkpt lat="56.730194035917521" lon="-2.657156009227037">
        <ele>58.299999999999997</ele>
        <time>2023-08-18T07:11:03Z</time>
      </trkpt>
      <trkpt lat="56.730124969035387" lon="-2.657232033088803">
        <ele>60.219999999999999</ele>
        <time>2023-08-18T07:11:04Z</time>
      </trkpt>
      <trkpt lat="56.730079958215356" lon="-2.657282995060086">
        <ele>61.659999999999997</ele>
        <time>2023-08-18T07:11:05Z</time>
      </trkpt>
      <trkpt lat="56.73004399985075" lon="-2.657322976738215">
        <ele>63.100000000000001</ele>
        <time>2023-08-18T07:11:06Z</time>
      </trkpt>
      <trkpt lat="56.730005024001002" lon="-2.657348960638046">
        <ele>70.790000000000006</ele>
        <time>2023-08-18T07:11:14Z</time>
      </trkpt>
      <trkpt lat="56.729993959888816" lon="-2.657316019758582">
        <ele>71.760000000000005</ele>
        <time>2023-08-18T07:11:15Z</time>
      </trkpt>
      <trkpt lat="56.729946015402675" lon="-2.657173024490476">
        <ele>72.239999999999995</ele>
        <time>2023-08-18T07:11:16Z</time>
      </trkpt>
      <trkpt lat="56.729725990444422" lon="-2.656272975727916">
        <ele>76.560000000000002</ele>
        <time>2023-08-18T07:11:24Z</time>
      </trkpt>
      <trkpt lat="56.729697994887829" lon="-2.656150013208389">
        <ele>77.040000000000006</ele>
        <time>2023-08-18T07:11:26Z</time>
      </trkpt>
      <trkpt lat="56.729320976883173" lon="-2.654328038915992">
        <ele>72.239999999999995</ele>
        <time>2023-08-18T07:11:39Z</time>
      </trkpt>
      <trkpt lat="56.729229027405381" lon="-2.653761003166437">
        <ele>70.790000000000006</ele>
        <time>2023-08-18T07:11:44Z</time>
      </trkpt>
      <trkpt lat="56.729202037677169" lon="-2.653611972928047">
        <ele>70.310000000000002</ele>
        <time>2023-08-18T07:11:45Z</time>
      </trkpt>
      <trkpt lat="56.729063987731934" lon="-2.652859026566148">
        <ele>68.870000000000005</ele>
        <time>2023-08-18T07:11:50Z</time>
      </trkpt>
      <trkpt lat="56.729020988568664" lon="-2.652689963579178">
        <ele>67.909999999999997</ele>
        <time>2023-08-18T07:11:51Z</time>
      </trkpt>
      <trkpt lat="56.728911017999053" lon="-2.652395004406571">
        <ele>65.510000000000005</ele>
        <time>2023-08-18T07:11:53Z</time>
      </trkpt>
      <trkpt lat="56.728220013901591" lon="-2.650865977630019">
        <ele>57.82</ele>
        <time>2023-08-18T07:12:05Z</time>
      </trkpt>
      <trkpt lat="56.728085987269878" lon="-2.650472028180957">
        <ele>57.82</ele>
        <time>2023-08-18T07:12:08Z</time>
      </trkpt>
      <trkpt lat="56.728052962571383" lon="-2.650343030691147">
        <ele>57.82</ele>
        <time>2023-08-18T07:12:09Z</time>
      </trkpt>
      <trkpt lat="56.728017004206777" lon="-2.650204980745912">
        <ele>57.82</ele>
        <time>2023-08-18T07:12:10Z</time>
      </trkpt>
      <trkpt lat="56.727710980921984" lon="-2.648403039202094">
        <ele>58.299999999999997</ele>
        <time>2023-08-18T07:12:22Z</time>
      </trkpt>
      <trkpt lat="56.72768197953701" lon="-2.648078994825482">
        <ele>58.780000000000001</ele>
        <time>2023-08-18T07:12:24Z</time>
      </trkpt>
      <trkpt lat="56.727545019239187" lon="-2.646211003884673">
        <ele>60.700000000000003</ele>
        <time>2023-08-18T07:12:36Z</time>
      </trkpt>
      <trkpt lat="56.72750897705555" lon="-2.645719991996884">
        <ele>61.18</ele>
        <time>2023-08-18T07:12:40Z</time>
      </trkpt>
      <trkpt lat="56.727489028126001" lon="-2.645460991188884">
        <ele>61.18</ele>
        <time>2023-08-18T07:12:42Z</time>
      </trkpt>
      <trkpt lat="56.727418033406138" lon="-2.643789974972606">
        <ele>61.659999999999997</ele>
        <time>2023-08-18T07:12:53Z</time>
      </trkpt>
      <trkpt lat="56.72742398455739" lon="-2.643173988908529">
        <ele>61.659999999999997</ele>
        <time>2023-08-18T07:12:57Z</time>
      </trkpt>
      <trkpt lat="56.727425996214151" lon="-2.643019007518888">
        <ele>62.140000000000001</ele>
        <time>2023-08-18T07:12:58Z</time>
      </trkpt>
      <trkpt lat="56.727456003427505" lon="-2.641187980771065">
        <ele>56.859999999999999</ele>
        <time>2023-08-18T07:13:10Z</time>
      </trkpt>
      <trkpt lat="56.727475030347705" lon="-2.639404982328415">
        <ele>50.130000000000003</ele>
        <time>2023-08-18T07:13:20Z</time>
      </trkpt>
      <trkpt lat="56.727428007870913" lon="-2.639003992080689">
        <ele>49.649999999999999</ele>
        <time>2023-08-18T07:13:22Z</time>
      </trkpt>
      <trkpt lat="56.727136988192797" lon="-2.636705003678799">
        <ele>47.719999999999999</ele>
        <time>2023-08-18T07:13:32Z</time>
      </trkpt>
      <trkpt lat="56.726852003484964" lon="-2.634338960051537">
        <ele>42.920000000000002</ele>
        <time>2023-08-18T07:13:41Z</time>
      </trkpt>
      <trkpt lat="56.72682099044323" lon="-2.634082976728678">
        <ele>42.439999999999998</ele>
        <time>2023-08-18T07:13:42Z</time>
      </trkpt>
      <trkpt lat="56.72634900547564" lon="-2.63172497972846">
        <ele>38.109999999999999</ele>
        <time>2023-08-18T07:13:52Z</time>
      </trkpt>
      <trkpt lat="56.725800996646285" lon="-2.629407970234752">
        <ele>34.740000000000002</ele>
        <time>2023-08-18T07:14:00Z</time>
      </trkpt>
      <trkpt lat="56.725135976448655" lon="-2.626626016572118">
        <ele>33.299999999999997</ele>
        <time>2023-08-18T07:14:09Z</time>
      </trkpt>
      <trkpt lat="56.724503980949521" lon="-2.623997032642365">
        <ele>34.259999999999998</ele>
        <time>2023-08-18T07:14:18Z</time>
      </trkpt>
      <trkpt lat="56.723645003512502" lon="-2.620435981079936">
        <ele>37.149999999999999</ele>
        <time>2023-08-18T07:14:30Z</time>
      </trkpt>
      <trkpt lat="56.722582010552287" lon="-2.616031039506197">
        <ele>38.109999999999999</ele>
        <time>2023-08-18T07:14:44Z</time>
      </trkpt>
      <trkpt lat="56.722015980631113" lon="-2.613645968958736">
        <ele>36.670000000000002</ele>
        <time>2023-08-18T07:14:53Z</time>
      </trkpt>
      <trkpt lat="56.72166402451694" lon="-2.611750988289714">
        <ele>36.189999999999998</ele>
        <time>2023-08-18T07:15:01Z</time>
      </trkpt>
      <trkpt lat="56.721581965684891" lon="-2.608032021671534">
        <ele>29.940000000000001</ele>
        <time>2023-08-18T07:15:14Z</time>
      </trkpt>
      <trkpt lat="56.721510970965028" lon="-2.6052310410887">
        <ele>27.050000000000001</ele>
        <time>2023-08-18T07:15:23Z</time>
      </trkpt>
      <trkpt lat="56.721414998173714" lon="-2.60093598626554">
        <ele>21.77</ele>
        <time>2023-08-18T07:15:34Z</time>
      </trkpt>
      <trkpt lat="56.721334028989077" lon="-2.597714988514781">
        <ele>19.359999999999999</ele>
        <time>2023-08-18T07:15:43Z</time>
      </trkpt>
      <trkpt lat="56.721268985420465" lon="-2.593869036063552">
        <ele>16.48</ele>
        <time>2023-08-18T07:15:55Z</time>
      </trkpt>
      <trkpt lat="56.72136495821178" lon="-2.589521007612348">
        <ele>17.440000000000001</ele>
        <time>2023-08-18T07:16:08Z</time>
      </trkpt>
      <trkpt lat="56.721539972350001" lon="-2.584320036694408">
        <ele>19.84</ele>
        <time>2023-08-18T07:16:24Z</time>
      </trkpt>
      <trkpt lat="56.721796039491892" lon="-2.581810997799039">
        <ele>21.77</ele>
        <time>2023-08-18T07:16:33Z</time>
      </trkpt>
      <trkpt lat="56.721853036433458" lon="-2.581331972032785">
        <ele>21.77</ele>
        <time>2023-08-18T07:16:35Z</time>
      </trkpt>
      <trkpt lat="56.72187902033329" lon="-2.581085041165352">
        <ele>21.77</ele>
        <time>2023-08-18T07:16:36Z</time>
      </trkpt>
      <trkpt lat="56.721897963434458" lon="-2.580826040357351">
        <ele>21.77</ele>
        <time>2023-08-18T07:16:37Z</time>
      </trkpt>
      <trkpt lat="56.722049005329609" lon="-2.577691962942481">
        <ele>23.690000000000001</ele>
        <time>2023-08-18T07:16:48Z</time>
      </trkpt>
      <trkpt lat="56.722412025555968" lon="-2.574184974655509">
        <ele>21.77</ele>
        <time>2023-08-18T07:16:59Z</time>
      </trkpt>
      <trkpt lat="56.722823996096849" lon="-2.570165013894439">
        <ele>18.399999999999999</ele>
        <time>2023-08-18T07:17:12Z</time>
      </trkpt>
      <trkpt lat="56.723367981612682" lon="-2.566523998975754">
        <ele>18.879999999999999</ele>
        <time>2023-08-18T07:17:25Z</time>
      </trkpt>
      <trkpt lat="56.724149007350206" lon="-2.562954984605312">
        <ele>18.399999999999999</ele>
        <time>2023-08-18T07:17:38Z</time>
      </trkpt>
      <trkpt lat="56.724530970677733" lon="-2.560018971562386">
        <ele>20.32</ele>
        <time>2023-08-18T07:17:48Z</time>
      </trkpt>
      <trkpt lat="56.724556032568216" lon="-2.556411987170577">
        <ele>20.32</ele>
        <time>2023-08-18T07:17:58Z</time>
      </trkpt>
      <trkpt lat="56.724538011476398" lon="-2.554326988756657">
        <ele>20.32</ele>
        <time>2023-08-18T07:18:04Z</time>
      </trkpt>
      <trkpt lat="56.724130986258388" lon="-2.550989985466003">
        <ele>16</ele>
        <time>2023-08-18T07:18:14Z</time>
      </trkpt>
      <trkpt lat="56.723949015140533" lon="-2.547941990196705">
        <ele>12.630000000000001</ele>
        <time>2023-08-18T07:18:23Z</time>
      </trkpt>
      <trkpt lat="56.723892018198967" lon="-2.544185975566506">
        <ele>10.710000000000001</ele>
        <time>2023-08-18T07:18:34Z</time>
      </trkpt>
      <trkpt lat="56.724152024835348" lon="-2.542305998504162">
        <ele>13.6</ele>
        <time>2023-08-18T07:18:41Z</time>
      </trkpt>
      <trkpt lat="56.724786031991243" lon="-2.539827972650528">
        <ele>18.399999999999999</ele>
        <time>2023-08-18T07:18:51Z</time>
      </trkpt>
      <trkpt lat="56.725942986086011" lon="-2.535307025536895">
        <ele>18.879999999999999</ele>
        <time>2023-08-18T07:19:08Z</time>
      </trkpt>
      <trkpt lat="56.72624196857214" lon="-2.53413699567318">
        <ele>17.440000000000001</ele>
        <time>2023-08-18T07:19:12Z</time>
      </trkpt>
      <trkpt lat="56.726313969120383" lon="-2.53385603427887">
        <ele>17.440000000000001</ele>
        <time>2023-08-18T07:19:13Z</time>
      </trkpt>
      <trkpt lat="56.726393010467291" lon="-2.533547999337316">
        <ele>16.960000000000001</ele>
        <time>2023-08-18T07:19:14Z</time>
      </trkpt>
      <trkpt lat="56.726981000974774" lon="-2.531080031767488">
        <ele>16.48</ele>
        <time>2023-08-18T07:19:22Z</time>
      </trkpt>
      <trkpt lat="56.727437982335687" lon="-2.527902033179998">
        <ele>16.48</ele>
        <time>2023-08-18T07:19:32Z</time>
      </trkpt>
      <trkpt lat="56.727692959830165" lon="-2.523986008018255">
        <ele>18.399999999999999</ele>
        <time>2023-08-18T07:19:44Z</time>
      </trkpt>
      <trkpt lat="56.727824974805117" lon="-2.520505003631115">
        <ele>16</ele>
        <time>2023-08-18T07:19:56Z</time>
      </trkpt>
      <trkpt lat="56.727549964562058" lon="-2.517571002244949">
        <ele>13.119999999999999</ele>
        <time>2023-08-18T07:20:04Z</time>
      </trkpt>
      <trkpt lat="56.727006984874606" lon="-2.513143010437489">
        <ele>12.15</ele>
        <time>2023-08-18T07:20:18Z</time>
      </trkpt>
      <trkpt lat="56.726399967446923" lon="-2.509382972493768">
        <ele>11.67</ele>
        <time>2023-08-18T07:20:30Z</time>
      </trkpt>
      <trkpt lat="56.72559798695147" lon="-2.50545303337276">
        <ele>12.15</ele>
        <time>2023-08-18T07:20:43Z</time>
      </trkpt>
      <trkpt lat="56.724443966522813" lon="-2.500750031322241">
        <ele>12.15</ele>
        <time>2023-08-18T07:20:59Z</time>
      </trkpt>
      <trkpt lat="56.723782969638705" lon="-2.497199960052967">
        <ele>13.119999999999999</ele>
        <time>2023-08-18T07:21:11Z</time>
      </trkpt>
      <trkpt lat="56.723481975495815" lon="-2.494357991963625">
        <ele>12.630000000000001</ele>
        <time>2023-08-18T07:21:22Z</time>
      </trkpt>
      <trkpt lat="56.723393965512514" lon="-2.49350898899138">
        <ele>13.119999999999999</ele>
        <time>2023-08-18T07:21:25Z</time>
      </trkpt>
      <trkpt lat="56.723366975784302" lon="-2.490827031433582">
        <ele>13.6</ele>
        <time>2023-08-18T07:21:34Z</time>
      </trkpt>
      <trkpt lat="56.723319031298161" lon="-2.488356968387961">
        <ele>14.56</ele>
        <time>2023-08-18T07:21:43Z</time>
      </trkpt>
      <trkpt lat="56.723250970244408" lon="-2.487812982872129">
        <ele>14.56</ele>
        <time>2023-08-18T07:21:45Z</time>
      </trkpt>
      <trkpt lat="56.722777979448438" lon="-2.485656989738345">
        <ele>12.15</ele>
        <time>2023-08-18T07:21:54Z</time>
      </trkpt>
      <trkpt lat="56.72224598005414" lon="-2.483392031863332">
        <ele>8.789999999999999</ele>
        <time>2023-08-18T07:22:05Z</time>
      </trkpt>
      <trkpt lat="56.722077000886202" lon="-2.48250899836421">
        <ele>8.789999999999999</ele>
        <time>2023-08-18T07:22:10Z</time>
      </trkpt>
      <trkpt lat="56.722071971744299" lon="-2.482320992276073">
        <ele>8.789999999999999</ele>
        <time>2023-08-18T07:22:11Z</time>
      </trkpt>
      <trkpt lat="56.722074989229441" lon="-2.482113037258387">
        <ele>8.789999999999999</ele>
        <time>2023-08-18T07:22:12Z</time>
      </trkpt>
      <trkpt lat="56.722141038626432" lon="-2.479852018877864">
        <ele>7.35</ele>
        <time>2023-08-18T07:22:22Z</time>
      </trkpt>
      <trkpt lat="56.722155036404729" lon="-2.477311966940761">
        <ele>7.35</ele>
        <time>2023-08-18T07:22:33Z</time>
      </trkpt>
      <trkpt lat="56.722155958414078" lon="-2.476381994783878">
        <ele>7.83</ele>
        <time>2023-08-18T07:22:37Z</time>
      </trkpt>
      <trkpt lat="56.722156964242458" lon="-2.47462397441268">
        <ele>10.23</ele>
        <time>2023-08-18T07:22:46Z</time>
      </trkpt>
      <trkpt lat="56.722143972292542" lon="-2.474471004679799">
        <ele>10.23</ele>
        <time>2023-08-18T07:22:47Z</time>
      </trkpt>
      <trkpt lat="56.722056968137622" lon="-2.474080994725227">
        <ele>10.710000000000001</ele>
        <time>2023-08-18T07:22:50Z</time>
      </trkpt>
      <trkpt lat="56.722090998664498" lon="-2.473941016942263">
        <ele>10.710000000000001</ele>
        <time>2023-08-18T07:22:51Z</time>
      </trkpt>
      <trkpt lat="56.722219996154308" lon="-2.472279975190759">
        <ele>9.75</ele>
        <time>2023-08-18T07:23:00Z</time>
      </trkpt>
      <trkpt lat="56.722247991710901" lon="-2.46976800262928">
        <ele>8.789999999999999</ele>
        <time>2023-08-18T07:23:15Z</time>
      </trkpt>
      <trkpt lat="56.72228797338903" lon="-2.468379959464073">
        <ele>8.310000000000001</ele>
        <time>2023-08-18T07:23:25Z</time>
      </trkpt>
      <trkpt lat="56.722298031672835" lon="-2.468287004157901">
        <ele>7.83</ele>
        <time>2023-08-18T07:23:26Z</time>
      </trkpt>
      <trkpt lat="56.722320998087525" lon="-2.468188013881445">
        <ele>7.35</ele>
        <time>2023-08-18T07:23:27Z</time>
      </trkpt>
      <trkpt lat="56.722368020564318" lon="-2.468119030818343">
        <ele>6.87</ele>
        <time>2023-08-18T07:23:28Z</time>
      </trkpt>
      <trkpt lat="56.722433986142278" lon="-2.46806999668479">
        <ele>6.39</ele>
        <time>2023-08-18T07:23:29Z</time>
      </trkpt>
      <trkpt lat="56.722490983083844" lon="-2.468053987249732">
        <ele>5.91</ele>
        <time>2023-08-18T07:23:30Z</time>
      </trkpt>
      <trkpt lat="56.722533982247114" lon="-2.468040995299816">
        <ele>5.91</ele>
        <time>2023-08-18T07:23:31Z</time>
      </trkpt>
      <trkpt lat="56.722568012773991" lon="-2.468031020835042">
        <ele>5.42</ele>
        <time>2023-08-18T07:23:32Z</time>
      </trkpt>
      <trkpt lat="56.722598019987345" lon="-2.468021968379617">
        <ele>4.94</ele>
        <time>2023-08-18T07:23:33Z</time>
      </trkpt>
      <trkpt lat="56.722626015543938" lon="-2.468014005571604">
        <ele>4.94</ele>
        <time>2023-08-18T07:23:34Z</time>
      </trkpt>
      <trkpt lat="56.722588967531919" lon="-2.468463024124503">
        <ele>4.46</ele>
        <time>2023-08-18T07:23:40Z</time>
      </trkpt>
      <trkpt lat="56.722640013322234" lon="-2.468633009120822">
        <ele>3.5</ele>
        <time>2023-08-18T07:23:45Z</time>
      </trkpt>
      <trkpt lat="56.722664991393685" lon="-2.468635020777583">
        <ele>3.5</ele>
        <time>2023-08-18T07:23:59Z</time>
      </trkpt>
      <trkpt lat="56.722664991393685" lon="-2.468635020777583">
        <ele>3.5</ele>
        <time>2023-08-18T07:24:04Z</time>
      </trkpt>
    </trkseg>
  </trk>

  <trk>
    <name>Track vom: 2023-08-18 09:03</name>
    <extensions>
      <gpxx:TrackExtension>
        <gpxx:DisplayColor>DarkGray</gpxx:DisplayColor>
      </gpxx:TrackExtension>
    </extensions>
    <trkseg>
      <trkpt lat="56.722615035250783" lon="-2.468646001070738">
        <ele>-8.51</ele>
        <time>2023-08-18T08:03:37Z</time>
      </trkpt>
      <trkpt lat="56.722613023594022" lon="-2.468655975535512">
        <ele>-8.51</ele>
        <time>2023-08-18T08:04:18Z</time>
      </trkpt>
      <trkpt lat="56.72261000610888" lon="-2.468653041869402">
        <ele>-7.55</ele>
        <time>2023-08-18T08:04:59Z</time>
      </trkpt>
      <trkpt lat="56.722687035799026" lon="-2.468541981652379">
        <ele>-3.71</ele>
        <time>2023-08-18T08:05:07Z</time>
      </trkpt>
      <trkpt lat="56.72269600443542" lon="-2.468374008312821">
        <ele>-1.79</ele>
        <time>2023-08-18T08:05:11Z</time>
      </trkpt>
      <trkpt lat="56.722756018862128" lon="-2.467976035550237">
        <ele>0.62</ele>
        <time>2023-08-18T08:05:17Z</time>
      </trkpt>
      <trkpt lat="56.722664991393685" lon="-2.468002019450069">
        <ele>0.62</ele>
        <time>2023-08-18T08:05:18Z</time>
      </trkpt>
      <trkpt lat="56.722631966695189" lon="-2.468011993914843">
        <ele>1.1</ele>
        <time>2023-08-18T08:05:19Z</time>
      </trkpt>
      <trkpt lat="56.722548985853791" lon="-2.468036971986294">
        <ele>0.62</ele>
        <time>2023-08-18T08:05:21Z</time>
      </trkpt>
      <trkpt lat="56.722500035539269" lon="-2.46805096976459">
        <ele>0.14</ele>
        <time>2023-08-18T08:05:22Z</time>
      </trkpt>
      <trkpt lat="56.722381012514234" lon="-2.468067985028029">
        <ele>0.14</ele>
        <time>2023-08-18T08:05:23Z</time>
      </trkpt>
      <trkpt lat="56.722338013350964" lon="-2.468003025278449">
        <ele>0.14</ele>
        <time>2023-08-18T08:05:24Z</time>
      </trkpt>
      <trkpt lat="56.722297025844455" lon="-2.467817030847073">
        <ele>0.14</ele>
        <time>2023-08-18T08:05:25Z</time>
      </trkpt>
      <trkpt lat="56.722290990874171" lon="-2.467703958973289">
        <ele>0.62</ele>
        <time>2023-08-18T08:05:26Z</time>
      </trkpt>
      <trkpt lat="56.722284033894539" lon="-2.467574961483479">
        <ele>0.62</ele>
        <time>2023-08-18T08:05:27Z</time>
      </trkpt>
      <trkpt lat="56.722284033894539" lon="-2.46744797565043">
        <ele>0.62</ele>
        <time>2023-08-18T08:05:28Z</time>
      </trkpt>
      <trkpt lat="56.722284033894539" lon="-2.467317972332239">
        <ele>0.62</ele>
        <time>2023-08-18T08:05:29Z</time>
      </trkpt>
      <trkpt lat="56.722284033894539" lon="-2.466748002916575">
        <ele>2.06</ele>
        <time>2023-08-18T08:05:34Z</time>
      </trkpt>
      <trkpt lat="56.722285039722919" lon="-2.466671979054809">
        <ele>2.06</ele>
        <time>2023-08-18T08:05:35Z</time>
      </trkpt>
      <trkpt lat="56.722286967560649" lon="-2.46661095879972">
        <ele>2.54</ele>
        <time>2023-08-18T08:05:36Z</time>
      </trkpt>
      <trkpt lat="56.72228797338903" lon="-2.46656795963645">
        <ele>3.02</ele>
        <time>2023-08-18T08:05:37Z</time>
      </trkpt>
      <trkpt lat="56.72228897921741" lon="-2.466538958251476">
        <ele>3.5</ele>
        <time>2023-08-18T08:05:38Z</time>
      </trkpt>
      <trkpt lat="56.72228897921741" lon="-2.466538958251476">
        <ele>3.98</ele>
        <time>2023-08-18T08:05:52Z</time>
      </trkpt>
      <trkpt lat="56.722293002530932" lon="-2.466412978246808">
        <ele>5.42</ele>
        <time>2023-08-18T08:06:38Z</time>
      </trkpt>
      <trkpt lat="56.722296020016074" lon="-2.466319017112255">
        <ele>5.42</ele>
        <time>2023-08-18T08:06:39Z</time>
      </trkpt>
      <trkpt lat="56.722298031672835" lon="-2.466217009350658">
        <ele>5.91</ele>
        <time>2023-08-18T08:06:40Z</time>
      </trkpt>
      <trkpt lat="56.722346981987357" lon="-2.46596697717905">
        <ele>5.91</ele>
        <time>2023-08-18T08:06:41Z</time>
      </trkpt>
      <trkpt lat="56.722386963665485" lon="-2.465952979400754">
        <ele>5.91</ele>
        <time>2023-08-18T08:06:42Z</time>
      </trkpt>
      <trkpt lat="56.722425017505884" lon="-2.465940993279219">
        <ele>5.91</ele>
        <time>2023-08-18T08:06:43Z</time>
      </trkpt>
      <trkpt lat="56.722454018890858" lon="-2.465931018814445">
        <ele>5.91</ele>
        <time>2023-08-18T08:06:44Z</time>
      </trkpt>
      <trkpt lat="56.722477991133928" lon="-2.4659229721874">
        <ele>5.91</ele>
        <time>2023-08-18T08:06:45Z</time>
      </trkpt>
      <trkpt lat="56.722770016640425" lon="-2.465840997174382">
        <ele>3.98</ele>
        <time>2023-08-18T08:06:56Z</time>
      </trkpt>
      <trkpt lat="56.72334099188447" lon="-2.46568601578474">
        <ele>3.5</ele>
        <time>2023-08-18T08:07:07Z</time>
      </trkpt>
      <trkpt lat="56.723398994654417" lon="-2.465670006349683">
        <ele>3.5</ele>
        <time>2023-08-18T08:07:08Z</time>
      </trkpt>
      <trkpt lat="56.72344702295959" lon="-2.465656008571386">
        <ele>3.98</ele>
        <time>2023-08-18T08:07:09Z</time>
      </trkpt>
      <trkpt lat="56.72349002212286" lon="-2.465644022449851">
        <ele>3.98</ele>
        <time>2023-08-18T08:07:10Z</time>
      </trkpt>
      <trkpt lat="56.723521035164595" lon="-2.465635975822806">
        <ele>3.98</ele>
        <time>2023-08-18T08:07:11Z</time>
      </trkpt>
      <trkpt lat="56.723593035712838" lon="-2.465615021064878">
        <ele>3.98</ele>
        <time>2023-08-18T08:07:12Z</time>
      </trkpt>
      <trkpt lat="56.723593035712838" lon="-2.465615021064878">
        <ele>3.5</ele>
        <time>2023-08-18T08:07:13Z</time>
      </trkpt>
      <trkpt lat="56.723593035712838" lon="-2.465615021064878">
        <ele>3.5</ele>
        <time>2023-08-18T08:07:14Z</time>
      </trkpt>
      <trkpt lat="56.723527992144227" lon="-2.465632958337665">
        <ele>3.02</ele>
        <time>2023-08-18T08:07:15Z</time>
      </trkpt>
      <trkpt lat="56.723527992144227" lon="-2.465632958337665">
        <ele>2.54</ele>
        <time>2023-08-18T08:07:16Z</time>
      </trkpt>
    </trkseg>
  </trk>

  <trk>
    <name>Track vom: 2023-08-18 09:10</name>
    <extensions>
      <gpxx:TrackExtension>
        <gpxx:DisplayColor>DarkGray</gpxx:DisplayColor>
      </gpxx:TrackExtension>
    </extensions>
    <trkseg>
      <trkpt lat="56.723513994365931" lon="-2.465741001069546">
        <ele>5.91</ele>
        <time>2023-08-18T08:10:50Z</time>
      </trkpt>
      <trkpt lat="56.723359012976289" lon="-2.465693978592753">
        <ele>6.39</ele>
        <time>2023-08-18T08:11:16Z</time>
      </trkpt>
      <trkpt lat="56.723408969119191" lon="-2.46564201079309">
        <ele>-1.3</ele>
        <time>2023-08-18T08:11:54Z</time>
      </trkpt>
      <trkpt lat="56.723387008532882" lon="-2.465572021901608">
        <ele>-6.11</ele>
        <time>2023-08-18T08:12:40Z</time>
      </trkpt>
      <trkpt lat="56.723392037674785" lon="-2.465570010244846">
        <ele>-6.11</ele>
        <time>2023-08-18T08:13:25Z</time>
      </trkpt>
      <trkpt lat="56.723390026018023" lon="-2.465572021901608">
        <ele>-6.11</ele>
        <time>2023-08-18T08:13:56Z</time>
      </trkpt>
      <trkpt lat="56.723336968570948" lon="-2.465687021613121">
        <ele>-6.11</ele>
        <time>2023-08-18T08:13:59Z</time>
      </trkpt>
      <trkpt lat="56.723308973014355" lon="-2.465694984421134">
        <ele>-5.15</ele>
        <time>2023-08-18T08:14:00Z</time>
      </trkpt>
      <trkpt lat="56.723286006599665" lon="-2.465701019391418">
        <ele>-4.19</ele>
        <time>2023-08-18T08:14:01Z</time>
      </trkpt>
      <trkpt lat="56.723286006599665" lon="-2.465701019391418">
        <ele>-3.23</ele>
        <time>2023-08-18T08:14:14Z</time>
      </trkpt>
      <trkpt lat="56.723248958587646" lon="-2.465711999684572">
        <ele>-3.23</ele>
        <time>2023-08-18T08:14:20Z</time>
      </trkpt>
      <trkpt lat="56.723286006599665" lon="-2.465702025219798">
        <ele>-2.75</ele>
        <time>2023-08-18T08:14:22Z</time>
      </trkpt>
      <trkpt lat="56.723324982449412" lon="-2.465690961107612">
        <ele>-2.75</ele>
        <time>2023-08-18T08:14:23Z</time>
      </trkpt>
      <trkpt lat="56.723375022411346" lon="-2.465676041319966">
        <ele>-1.79</ele>
        <time>2023-08-18T08:14:24Z</time>
      </trkpt>
      <trkpt lat="56.723438976332545" lon="-2.465659026056528">
        <ele>-1.3</ele>
        <time>2023-08-18T08:14:25Z</time>
      </trkpt>
      <trkpt lat="56.723505025729537" lon="-2.465639999136329">
        <ele>-0.34</ele>
        <time>2023-08-18T08:14:26Z</time>
      </trkpt>
      <trkpt lat="56.724066026508808" lon="-2.465472025796771">
        <ele>4.46</ele>
        <time>2023-08-18T08:14:34Z</time>
      </trkpt>
      <trkpt lat="56.724142972379923" lon="-2.465446041896939">
        <ele>4.46</ele>
        <time>2023-08-18T08:14:35Z</time>
      </trkpt>
      <trkpt lat="56.724227964878082" lon="-2.465418968349695">
        <ele>4.46</ele>
        <time>2023-08-18T08:14:36Z</time>
      </trkpt>
      <trkpt lat="56.724319998174906" lon="-2.465398013591766">
        <ele>4.94</ele>
        <time>2023-08-18T08:14:37Z</time>
      </trkpt>
      <trkpt lat="56.724414965137839" lon="-2.465375969186425">
        <ele>4.94</ele>
        <time>2023-08-18T08:14:38Z</time>
      </trkpt>
      <trkpt lat="56.725590024143457" lon="-2.465022001415491">
        <ele>8.789999999999999</ele>
        <time>2023-08-18T08:14:49Z</time>
      </trkpt>
      <trkpt lat="56.726867007091641" lon="-2.464520009234548">
        <ele>9.27</ele>
        <time>2023-08-18T08:15:02Z</time>
      </trkpt>
      <trkpt lat="56.728133009746671" lon="-2.464300990104675">
        <ele>10.23</ele>
        <time>2023-08-18T08:15:13Z</time>
      </trkpt>
      <trkpt lat="56.729148980230093" lon="-2.464677002280951">
        <ele>12.15</ele>
        <time>2023-08-18T08:15:23Z</time>
      </trkpt>
      <trkpt lat="56.729744011536241" lon="-2.465238003060222">
        <ele>11.67</ele>
        <time>2023-08-18T08:15:31Z</time>
      </trkpt>
      <trkpt lat="56.729794973507524" lon="-2.465290976688266">
        <ele>12.15</ele>
        <time>2023-08-18T08:15:32Z</time>
      </trkpt>
      <trkpt lat="56.729840990155935" lon="-2.465339004993439">
        <ele>12.15</ele>
        <time>2023-08-18T08:15:33Z</time>
      </trkpt>
      <trkpt lat="56.729877032339573" lon="-2.465375969186425">
        <ele>12.15</ele>
        <time>2023-08-18T08:15:34Z</time>
      </trkpt>
      <trkpt lat="56.729902010411024" lon="-2.465316960588098">
        <ele>11.67</ele>
        <time>2023-08-18T08:15:35Z</time>
      </trkpt>
      <trkpt lat="56.729918019846082" lon="-2.465269016101956">
        <ele>11.67</ele>
        <time>2023-08-18T08:15:36Z</time>
      </trkpt>
      <trkpt lat="56.729933023452759" lon="-2.465228028595448">
        <ele>12.15</ele>
        <time>2023-08-18T08:15:37Z</time>
      </trkpt>
      <trkpt lat="56.729933023452759" lon="-2.465228028595448">
        <ele>12.15</ele>
        <time>2023-08-18T08:15:38Z</time>
      </trkpt>
      <trkpt lat="56.729945009574294" lon="-2.465190980583429">
        <ele>12.15</ele>
        <time>2023-08-18T08:15:46Z</time>
      </trkpt>
      <trkpt lat="56.729873009026051" lon="-2.465372029691935">
        <ele>11.67</ele>
        <time>2023-08-18T08:15:47Z</time>
      </trkpt>
      <trkpt lat="56.729853982105851" lon="-2.465351996943355">
        <ele>11.67</ele>
        <time>2023-08-18T08:15:48Z</time>
      </trkpt>
      <trkpt lat="56.729926988482475" lon="-2.465244960039854">
        <ele>11.67</ele>
        <time>2023-08-18T08:15:49Z</time>
      </trkpt>
      <trkpt lat="56.729810982942581" lon="-2.465306986123323">
        <ele>11.19</ele>
        <time>2023-08-18T08:15:50Z</time>
      </trkpt>
      <trkpt lat="56.729768989607692" lon="-2.465263986960053">
        <ele>11.19</ele>
        <time>2023-08-18T08:15:51Z</time>
      </trkpt>
      <trkpt lat="56.729708975180984" lon="-2.465201960876584">
        <ele>11.19</ele>
        <time>2023-08-18T08:15:52Z</time>
      </trkpt>
      <trkpt lat="56.729637980461121" lon="-2.465128032490611">
        <ele>11.19</ele>
        <time>2023-08-18T08:15:53Z</time>
      </trkpt>
      <trkpt lat="56.729560028761625" lon="-2.465047985315323">
        <ele>11.19</ele>
        <time>2023-08-18T08:15:54Z</time>
      </trkpt>
      <trkpt lat="56.72862796112895" lon="-2.464383970946074">
        <ele>10.23</ele>
        <time>2023-08-18T08:16:03Z</time>
      </trkpt>
      <trkpt lat="56.727511994540691" lon="-2.464419007301331">
        <ele>8.310000000000001</ele>
        <time>2023-08-18T08:16:12Z</time>
      </trkpt>
      <trkpt lat="56.727232038974762" lon="-2.464478015899658">
        <ele>7.83</ele>
        <time>2023-08-18T08:16:17Z</time>
      </trkpt>
      <trkpt lat="56.727126007899642" lon="-2.464478015899658">
        <ele>7.83</ele>
        <time>2023-08-18T08:16:23Z</time>
      </trkpt>
      <trkpt lat="56.727083008736372" lon="-2.464478015899658">
        <ele>8.310000000000001</ele>
        <time>2023-08-18T08:16:24Z</time>
      </trkpt>
      <trkpt lat="56.727045038715005" lon="-2.464478015899658">
        <ele>8.310000000000001</ele>
        <time>2023-08-18T08:16:25Z</time>
      </trkpt>
      <trkpt lat="56.727019976824522" lon="-2.464478015899658">
        <ele>8.310000000000001</ele>
        <time>2023-08-18T08:16:26Z</time>
      </trkpt>
      <trkpt lat="56.727026011794806" lon="-2.464327979832888">
        <ele>8.789999999999999</ele>
        <time>2023-08-18T08:16:27Z</time>
      </trkpt>
      <trkpt lat="56.727070016786456" lon="-2.464257990941405">
        <ele>9.27</ele>
        <time>2023-08-18T08:16:28Z</time>
      </trkpt>
      <trkpt lat="56.727111004292965" lon="-2.464191019535065">
        <ele>9.27</ele>
        <time>2023-08-18T08:16:29Z</time>
      </trkpt>
      <trkpt lat="56.727162972092628" lon="-2.464108038693667">
        <ele>9.75</ele>
        <time>2023-08-18T08:16:30Z</time>
      </trkpt>
      <trkpt lat="56.727222986519337" lon="-2.46401097625494">
        <ele>9.75</ele>
        <time>2023-08-18T08:16:31Z</time>
      </trkpt>
      <trkpt lat="56.727291969582438" lon="-2.463899999856949">
        <ele>10.23</ele>
        <time>2023-08-18T08:16:32Z</time>
      </trkpt>
      <trkpt lat="56.727366987615824" lon="-2.463778965175152">
        <ele>9.75</ele>
        <time>2023-08-18T08:16:33Z</time>
      </trkpt>
      <trkpt lat="56.728095961734653" lon="-2.462608013302088">
        <ele>9.75</ele>
        <time>2023-08-18T08:16:42Z</time>
      </trkpt>
      <trkpt lat="56.729059964418411" lon="-2.461045039817691">
        <ele>10.23</ele>
        <time>2023-08-18T08:16:53Z</time>
      </trkpt>
      <trkpt lat="56.729918019846082" lon="-2.459633024409413">
        <ele>11.19</ele>
        <time>2023-08-18T08:17:03Z</time>
      </trkpt>
      <trkpt lat="56.731028035283089" lon="-2.458290997892618">
        <ele>13.119999999999999</ele>
        <time>2023-08-18T08:17:13Z</time>
      </trkpt>
      <trkpt lat="56.732094967737794" lon="-2.457643998786807">
        <ele>15.52</ele>
        <time>2023-08-18T08:17:21Z</time>
      </trkpt>
      <trkpt lat="56.734158005565405" lon="-2.456547981128097">
        <ele>17.920000000000002</ele>
        <time>2023-08-18T08:17:33Z</time>
      </trkpt>
      <trkpt lat="56.736503010615706" lon="-2.455332018435001">
        <ele>17.920000000000002</ele>
        <time>2023-08-18T08:17:47Z</time>
      </trkpt>
      <trkpt lat="56.738075036555529" lon="-2.454525008797646">
        <ele>16.48</ele>
        <time>2023-08-18T08:17:56Z</time>
      </trkpt>
      <trkpt lat="56.739939004182816" lon="-2.453959984704852">
        <ele>18.399999999999999</ele>
        <time>2023-08-18T08:18:06Z</time>
      </trkpt>
      <trkpt lat="56.742432033643126" lon="-2.453307034447789">
        <ele>22.25</ele>
        <time>2023-08-18T08:18:19Z</time>
      </trkpt>
      <trkpt lat="56.744800005108118" lon="-2.452691970393062">
        <ele>27.050000000000001</ele>
        <time>2023-08-18T08:18:32Z</time>
      </trkpt>
      <trkpt lat="56.745093958452344" lon="-2.452632961794734">
        <ele>27.530000000000001</ele>
        <time>2023-08-18T08:18:34Z</time>
      </trkpt>
      <trkpt lat="56.745242988690734" lon="-2.452675038948655">
        <ele>28.02</ele>
        <time>2023-08-18T08:18:35Z</time>
      </trkpt>
      <trkpt lat="56.745393024757504" lon="-2.452717032283545">
        <ele>28.5</ele>
        <time>2023-08-18T08:18:36Z</time>
      </trkpt>
      <trkpt lat="56.745544988662004" lon="-2.452760031446815">
        <ele>28.5</ele>
        <time>2023-08-18T08:18:37Z</time>
      </trkpt>
      <trkpt lat="56.745691001415253" lon="-2.452832031995058">
        <ele>28.98</ele>
        <time>2023-08-18T08:18:38Z</time>
      </trkpt>
      <trkpt lat="56.745831985026598" lon="-2.45294502004981">
        <ele>28.98</ele>
        <time>2023-08-18T08:18:39Z</time>
      </trkpt>
      <trkpt lat="56.745973974466324" lon="-2.453069994226098">
        <ele>28.98</ele>
        <time>2023-08-18T08:18:40Z</time>
      </trkpt>
      <trkpt lat="56.746100960299373" lon="-2.453239979222417">
        <ele>29.460000000000001</ele>
        <time>2023-08-18T08:18:41Z</time>
      </trkpt>
      <trkpt lat="56.74671501852572" lon="-2.45397599413991">
        <ele>30.899999999999999</ele>
        <time>2023-08-18T08:18:46Z</time>
      </trkpt>
      <trkpt lat="56.746828006580472" lon="-2.45404003188014">
        <ele>31.379999999999999</ele>
        <time>2023-08-18T08:18:47Z</time>
      </trkpt>
      <trkpt lat="56.746940994635224" lon="-2.45406299829483">
        <ele>31.379999999999999</ele>
        <time>2023-08-18T08:18:48Z</time>
      </trkpt>
      <trkpt lat="56.747045014053583" lon="-2.454035002738237">
        <ele>31.859999999999999</ele>
        <time>2023-08-18T08:18:49Z</time>
      </trkpt>
      <trkpt lat="56.747156996279955" lon="-2.453970964998007">
        <ele>31.859999999999999</ele>
        <time>2023-08-18T08:18:50Z</time>
      </trkpt>
      <trkpt lat="56.747281970456243" lon="-2.453898964449763">
        <ele>31.859999999999999</ele>
        <time>2023-08-18T08:18:51Z</time>
      </trkpt>
      <trkpt lat="56.747392024844885" lon="-2.453770972788334">
        <ele>32.340000000000003</ele>
        <time>2023-08-18T08:18:52Z</time>
      </trkpt>
      <trkpt lat="56.747513981536031" lon="-2.453626971691847">
        <ele>32.340000000000003</ele>
        <time>2023-08-18T08:18:53Z</time>
      </trkpt>
      <trkpt lat="56.748457029461861" lon="-2.452531959861517">
        <ele>35.710000000000001</ele>
        <time>2023-08-18T08:19:00Z</time>
      </trkpt>
      <trkpt lat="56.748586026951671" lon="-2.452406985685229">
        <ele>36.189999999999998</ele>
        <time>2023-08-18T08:19:01Z</time>
      </trkpt>
      <trkpt lat="56.748713012784719" lon="-2.452285028994083">
        <ele>36.670000000000002</ele>
        <time>2023-08-18T08:19:02Z</time>
      </trkpt>
      <trkpt lat="56.749480962753296" lon="-2.45159100741148">
        <ele>38.590000000000003</ele>
        <time>2023-08-18T08:19:09Z</time>
      </trkpt>
      <trkpt lat="56.749782962724566" lon="-2.45133301243186">
        <ele>39.549999999999997</ele>
        <time>2023-08-18T08:19:13Z</time>
      </trkpt>
      <trkpt lat="56.749977003782988" lon="-2.451251037418842">
        <ele>39.07</ele>
        <time>2023-08-18T08:19:16Z</time>
      </trkpt>
      <trkpt lat="56.750008016824722" lon="-2.451238967478275">
        <ele>38.109999999999999</ele>
        <time>2023-08-18T08:19:17Z</time>
      </trkpt>
      <trkpt lat="56.750058978796005" lon="-2.451350027695298">
        <ele>37.630000000000003</ele>
        <time>2023-08-18T08:19:18Z</time>
      </trkpt>
      <trkpt lat="56.75011295825243" lon="-2.451467961072922">
        <ele>37.149999999999999</ele>
        <time>2023-08-18T08:19:19Z</time>
      </trkpt>
      <trkpt lat="56.750170039013028" lon="-2.451590001583099">
        <ele>36.670000000000002</ele>
        <time>2023-08-18T08:19:20Z</time>
      </trkpt>
      <trkpt lat="56.750227035954595" lon="-2.451711958274245">
        <ele>36.670000000000002</ele>
        <time>2023-08-18T08:19:21Z</time>
      </trkpt>
      <trkpt lat="56.75101300701499" lon="-2.453409964218736">
        <ele>35.229999999999997</ele>
        <time>2023-08-18T08:19:33Z</time>
      </trkpt>
      <trkpt lat="56.751302015036345" lon="-2.453939029946923">
        <ele>34.740000000000002</ele>
        <time>2023-08-18T08:19:37Z</time>
      </trkpt>
      <trkpt lat="56.75138097256422" lon="-2.454027961939573">
        <ele>34.740000000000002</ele>
        <time>2023-08-18T08:19:38Z</time>
      </trkpt>
      <trkpt lat="56.751461019739509" lon="-2.454043971374631">
        <ele>34.740000000000002</ele>
        <time>2023-08-18T08:19:39Z</time>
      </trkpt>
      <trkpt lat="56.751517010852695" lon="-2.454035002738237">
        <ele>34.259999999999998</ele>
        <time>2023-08-18T08:19:40Z</time>
      </trkpt>
      <trkpt lat="56.751594040542841" lon="-2.45399703271687">
        <ele>33.780000000000001</ele>
        <time>2023-08-18T08:19:41Z</time>
      </trkpt>
      <trkpt lat="56.751660006120801" lon="-2.453964008018374">
        <ele>33.780000000000001</ele>
        <time>2023-08-18T08:19:42Z</time>
      </trkpt>
      <trkpt lat="56.751734018325806" lon="-2.453852025792003">
        <ele>33.780000000000001</ele>
        <time>2023-08-18T08:19:43Z</time>
      </trkpt>
      <trkpt lat="56.751809036359191" lon="-2.453739959746599">
        <ele>33.780000000000001</ele>
        <time>2023-08-18T08:19:44Z</time>
      </trkpt>
      <trkpt lat="56.75189302302897" lon="-2.45363300666213">
        <ele>33.780000000000001</ele>
        <time>2023-08-18T08:19:45Z</time>
      </trkpt>
      <trkpt lat="56.752778990194201" lon="-2.45223599486053">
        <ele>37.149999999999999</ele>
        <time>2023-08-18T08:19:54Z</time>
      </trkpt>
      <trkpt lat="56.753020975738764" lon="-2.451919997110963">
        <ele>38.109999999999999</ele>
        <time>2023-08-18T08:19:56Z</time>
      </trkpt>
      <trkpt lat="56.753142010420561" lon="-2.451773984357715">
        <ele>38.590000000000003</ele>
        <time>2023-08-18T08:19:57Z</time>
      </trkpt>
      <trkpt lat="56.753288023173809" lon="-2.451674994081259">
        <ele>39.07</ele>
        <time>2023-08-18T08:19:58Z</time>
      </trkpt>
      <trkpt lat="56.753445016220212" lon="-2.451568963006139">
        <ele>40.030000000000001</ele>
        <time>2023-08-18T08:19:59Z</time>
      </trkpt>
      <trkpt lat="56.753607960417867" lon="-2.451458992436528">
        <ele>40.990000000000002</ele>
        <time>2023-08-18T08:20:00Z</time>
      </trkpt>
      <trkpt lat="56.753773000091314" lon="-2.451347010210156">
        <ele>42.439999999999998</ele>
        <time>2023-08-18T08:20:01Z</time>
      </trkpt>
      <trkpt lat="56.75481797195971" lon="-2.450206987559795">
        <ele>51.090000000000003</ele>
        <time>2023-08-18T08:20:08Z</time>
      </trkpt>
      <trkpt lat="56.756075005978346" lon="-2.448415020480752">
        <ele>56.859999999999999</ele>
        <time>2023-08-18T08:20:18Z</time>
      </trkpt>
      <trkpt lat="56.756767015904188" lon="-2.447440959513187">
        <ele>58.299999999999997</ele>
        <time>2023-08-18T08:20:23Z</time>
      </trkpt>
      <trkpt lat="56.758354967460036" lon="-2.446075966581702">
        <ele>58.780000000000001</ele>
        <time>2023-08-18T08:20:34Z</time>
      </trkpt>
      <trkpt lat="56.759081007912755" lon="-2.445512032136321">
        <ele>60.700000000000003</ele>
        <time>2023-08-18T08:20:39Z</time>
      </trkpt>
      <trkpt lat="56.759208999574184" lon="-2.445336012169719">
        <ele>60.700000000000003</ele>
        <time>2023-08-18T08:20:40Z</time>
      </trkpt>
      <trkpt lat="56.759335985407233" lon="-2.445159992203116">
        <ele>61.18</ele>
        <time>2023-08-18T08:20:41Z</time>
      </trkpt>
      <trkpt lat="56.759451990947127" lon="-2.444956982508302">
        <ele>61.659999999999997</ele>
        <time>2023-08-18T08:20:42Z</time>
      </trkpt>
      <trkpt lat="56.75956598483026" lon="-2.444745004177094">
        <ele>61.659999999999997</ele>
        <time>2023-08-18T08:20:43Z</time>
      </trkpt>
      <trkpt lat="56.760787982493639" lon="-2.442436963319778">
        <ele>65.989999999999995</ele>
        <time>2023-08-18T08:20:53Z</time>
      </trkpt>
      <trkpt lat="56.762260012328625" lon="-2.439788030460477">
        <ele>71.269999999999996</ele>
        <time>2023-08-18T08:21:05Z</time>
      </trkpt>
      <trkpt lat="56.762407030910254" lon="-2.439656015485525">
        <ele>71.760000000000005</ele>
        <time>2023-08-18T08:21:06Z</time>
      </trkpt>
      <trkpt lat="56.762560000643134" lon="-2.439543027430773">
        <ele>72.239999999999995</ele>
        <time>2023-08-18T08:21:07Z</time>
      </trkpt>
      <trkpt lat="56.762720011174679" lon="-2.439457029104233">
        <ele>72.719999999999999</ele>
        <time>2023-08-18T08:21:08Z</time>
      </trkpt>
      <trkpt lat="56.762888990342617" lon="-2.439382011070848">
        <ele>73.200000000000003</ele>
        <time>2023-08-18T08:21:09Z</time>
      </trkpt>
      <trkpt lat="56.7630660161376" lon="-2.439338006079197">
        <ele>73.680000000000007</ele>
        <time>2023-08-18T08:21:10Z</time>
      </trkpt>
      <trkpt lat="56.763608995825052" lon="-2.439205991104245">
        <ele>75.599999999999994</ele>
        <time>2023-08-18T08:21:13Z</time>
      </trkpt>
      <trkpt lat="56.763806976377964" lon="-2.439157040789723">
        <ele>77.040000000000006</ele>
        <time>2023-08-18T08:21:14Z</time>
      </trkpt>
      <trkpt lat="56.76416203379631" lon="-2.438970040529966">
        <ele>79.930000000000007</ele>
        <time>2023-08-18T08:21:16Z</time>
      </trkpt>
      <trkpt lat="56.764317015185952" lon="-2.438797960057855">
        <ele>80.890000000000001</ele>
        <time>2023-08-18T08:21:17Z</time>
      </trkpt>
      <trkpt lat="56.764475014060736" lon="-2.438620012253523">
        <ele>81.849999999999994</ele>
        <time>2023-08-18T08:21:18Z</time>
      </trkpt>
      <trkpt lat="56.766003035008907" lon="-2.436526967212558">
        <ele>87.620000000000005</ele>
        <time>2023-08-18T08:21:28Z</time>
      </trkpt>
      <trkpt lat="56.767801037058234" lon="-2.433921033516526">
        <ele>90.019999999999996</ele>
        <time>2023-08-18T08:21:40Z</time>
      </trkpt>
      <trkpt lat="56.768966037780046" lon="-2.431986993178725">
        <ele>92.420000000000002</ele>
        <time>2023-08-18T08:21:48Z</time>
      </trkpt>
      <trkpt lat="56.770108994096518" lon="-2.42903396487236">
        <ele>95.310000000000002</ele>
        <time>2023-08-18T08:21:58Z</time>
      </trkpt>
      <trkpt lat="56.770850960165262" lon="-2.426834972575307">
        <ele>94.829999999999998</ele>
        <time>2023-08-18T08:22:06Z</time>
      </trkpt>
      <trkpt lat="56.77155202254653" lon="-2.424732958897948">
        <ele>92.420000000000002</ele>
        <time>2023-08-18T08:22:16Z</time>
      </trkpt>
      <trkpt lat="56.772616021335125" lon="-2.421608017757535">
        <ele>87.140000000000001</ele>
        <time>2023-08-18T08:22:33Z</time>
      </trkpt>
      <trkpt lat="56.773525960743427" lon="-2.418942991644144">
        <ele>85.209999999999994</ele>
        <time>2023-08-18T08:22:48Z</time>
      </trkpt>
      <trkpt lat="56.774349985644221" lon="-2.416951032355428">
        <ele>85.689999999999998</ele>
        <time>2023-08-18T08:23:01Z</time>
      </trkpt>
      <trkpt lat="56.775236958637834" lon="-2.415477996692061">
        <ele>84.25</ele>
        <time>2023-08-18T08:23:12Z</time>
      </trkpt>
      <trkpt lat="56.775336032733321" lon="-2.415422005578876">
        <ele>84.25</ele>
        <time>2023-08-18T08:23:13Z</time>
      </trkpt>
      <trkpt lat="56.775436028838158" lon="-2.41536601446569">
        <ele>84.25</ele>
        <time>2023-08-18T08:23:14Z</time>
      </trkpt>
      <trkpt lat="56.775534013286233" lon="-2.415314968675375">
        <ele>84.25</ele>
        <time>2023-08-18T08:23:15Z</time>
      </trkpt>
      <trkpt lat="56.775636021047831" lon="-2.415285967290402">
        <ele>84.25</ele>
        <time>2023-08-18T08:23:16Z</time>
      </trkpt>
      <trkpt lat="56.775740962475538" lon="-2.415255960077047">
        <ele>84.730000000000004</ele>
        <time>2023-08-18T08:23:17Z</time>
      </trkpt>
      <trkpt lat="56.775839030742645" lon="-2.415227964520454">
        <ele>85.209999999999994</ele>
        <time>2023-08-18T08:23:18Z</time>
      </trkpt>
      <trkpt lat="56.775941038504243" lon="-2.415198041126132">
        <ele>85.689999999999998</ele>
        <time>2023-08-18T08:23:19Z</time>
      </trkpt>
      <trkpt lat="56.776050003245473" lon="-2.415111036971211">
        <ele>86.180000000000007</ele>
        <time>2023-08-18T08:23:20Z</time>
      </trkpt>
      <trkpt lat="56.776154022663832" lon="-2.415007017552853">
        <ele>86.659999999999997</ele>
        <time>2023-08-18T08:23:21Z</time>
      </trkpt>
      <trkpt lat="56.776258964091539" lon="-2.414901992306113">
        <ele>87.140000000000001</ele>
        <time>2023-08-18T08:23:22Z</time>
      </trkpt>
      <trkpt lat="56.776368012651801" lon="-2.414783975109458">
        <ele>87.140000000000001</ele>
        <time>2023-08-18T08:23:23Z</time>
      </trkpt>
      <trkpt lat="56.776458034291863" lon="-2.414622036740184">
        <ele>87.620000000000005</ele>
        <time>2023-08-18T08:23:24Z</time>
      </trkpt>
      <trkpt lat="56.776551995426416" lon="-2.414452973753214">
        <ele>87.620000000000005</ele>
        <time>2023-08-18T08:23:25Z</time>
      </trkpt>
      <trkpt lat="56.776638999581337" lon="-2.414264967665076">
        <ele>87.620000000000005</ele>
        <time>2023-08-18T08:23:26Z</time>
      </trkpt>
      <trkpt lat="56.776724997907877" lon="-2.414072016254067">
        <ele>87.140000000000001</ele>
        <time>2023-08-18T08:23:27Z</time>
      </trkpt>
      <trkpt lat="56.777235036715865" lon="-2.412076033651829">
        <ele>85.209999999999994</ele>
        <time>2023-08-18T08:23:35Z</time>
      </trkpt>
      <trkpt lat="56.777601996436715" lon="-2.410984039306641">
        <ele>82.810000000000002</ele>
        <time>2023-08-18T08:23:39Z</time>
      </trkpt>
      <trkpt lat="56.777749015018344" lon="-2.410778012126684">
        <ele>82.329999999999998</ele>
        <time>2023-08-18T08:23:40Z</time>
      </trkpt>
      <trkpt lat="56.777894021943212" lon="-2.41057500243187">
        <ele>81.370000000000005</ele>
        <time>2023-08-18T08:23:41Z</time>
      </trkpt>
      <trkpt lat="56.779190031811595" lon="-2.408752022311091">
        <ele>78.969999999999999</ele>
        <time>2023-08-18T08:23:50Z</time>
      </trkpt>
      <trkpt lat="56.779294973239303" lon="-2.408472988754511">
        <ele>78.480000000000004</ele>
        <time>2023-08-18T08:23:51Z</time>
      </trkpt>
      <trkpt lat="56.779376026242971" lon="-2.408204013481736">
        <ele>78</ele>
        <time>2023-08-18T08:23:52Z</time>
      </trkpt>
      <trkpt lat="56.779699986800551" lon="-2.407034989446402">
        <ele>74.159999999999997</ele>
        <time>2023-08-18T08:23:58Z</time>
      </trkpt>
      <trkpt lat="56.779752960428596" lon="-2.406846983358264">
        <ele>73.200000000000003</ele>
        <time>2023-08-18T08:24:00Z</time>
      </trkpt>
      <trkpt lat="56.780144982039928" lon="-2.405605036765337">
        <ele>70.310000000000002</ele>
        <time>2023-08-18T08:24:08Z</time>
      </trkpt>
      <trkpt lat="56.780701959505677" lon="-2.403711983934045">
        <ele>69.349999999999994</ele>
        <time>2023-08-18T08:24:16Z</time>
      </trkpt>
      <trkpt lat="56.781592033803463" lon="-2.40032603032887">
        <ele>68.390000000000001</ele>
        <time>2023-08-18T08:24:30Z</time>
      </trkpt>
      <trkpt lat="56.782483030110598" lon="-2.396934041753411">
        <ele>67.430000000000007</ele>
        <time>2023-08-18T08:24:44Z</time>
      </trkpt>
      <trkpt lat="56.782753011211753" lon="-2.395907007157803">
        <ele>67.430000000000007</ele>
        <time>2023-08-18T08:24:51Z</time>
      </trkpt>
      <trkpt lat="56.782771032303572" lon="-2.395839029923081">
        <ele>67.430000000000007</ele>
        <time>2023-08-18T08:24:52Z</time>
      </trkpt>
      <trkpt lat="56.782785030081868" lon="-2.395786978304386">
        <ele>67.430000000000007</ele>
        <time>2023-08-18T08:24:53Z</time>
      </trkpt>
      <trkpt lat="56.782733984291553" lon="-2.395689999684691">
        <ele>67.430000000000007</ele>
        <time>2023-08-18T08:24:54Z</time>
      </trkpt>
      <trkpt lat="56.78270498290658" lon="-2.395662004128099">
        <ele>66.950000000000003</ele>
        <time>2023-08-18T08:24:55Z</time>
      </trkpt>
      <trkpt lat="56.782669024541974" lon="-2.395626967772842">
        <ele>66.950000000000003</ele>
        <time>2023-08-18T08:24:56Z</time>
      </trkpt>
      <trkpt lat="56.782624013721943" lon="-2.395582962781191">
        <ele>66.950000000000003</ele>
        <time>2023-08-18T08:24:57Z</time>
      </trkpt>
      <trkpt lat="56.782568022608757" lon="-2.395528983324766">
        <ele>66.950000000000003</ele>
        <time>2023-08-18T08:24:58Z</time>
      </trkpt>
      <trkpt lat="56.782038034871221" lon="-2.395006958395243">
        <ele>65.030000000000001</ele>
        <time>2023-08-18T08:25:06Z</time>
      </trkpt>
      <trkpt lat="56.782004004344344" lon="-2.394926995038986">
        <ele>65.030000000000001</ele>
        <time>2023-08-18T08:25:07Z</time>
      </trkpt>
      <trkpt lat="56.781979026272893" lon="-2.394868992269039">
        <ele>65.030000000000001</ele>
        <time>2023-08-18T08:25:08Z</time>
      </trkpt>
      <trkpt lat="56.781987994909286" lon="-2.394776036962867">
        <ele>65.030000000000001</ele>
        <time>2023-08-18T08:25:09Z</time>
      </trkpt>
      <trkpt lat="56.782000986859202" lon="-2.39463304169476">
        <ele>65.030000000000001</ele>
        <time>2023-08-18T08:25:10Z</time>
      </trkpt>
      <trkpt lat="56.782013978809118" lon="-2.394585013389587">
        <ele>65.030000000000001</ele>
        <time>2023-08-18T08:25:11Z</time>
      </trkpt>
      <trkpt lat="56.782045997679234" lon="-2.394471019506455">
        <ele>65.030000000000001</ele>
        <time>2023-08-18T08:25:12Z</time>
      </trkpt>
      <trkpt lat="56.782079022377729" lon="-2.394351996481419">
        <ele>65.030000000000001</ele>
        <time>2023-08-18T08:25:13Z</time>
      </trkpt>
      <trkpt lat="56.782111963257194" lon="-2.394231967628002">
        <ele>65.030000000000001</ele>
        <time>2023-08-18T08:25:14Z</time>
      </trkpt>
      <trkpt lat="56.782174995169044" lon="-2.394005991518498">
        <ele>64.549999999999997</ele>
        <time>2023-08-18T08:25:16Z</time>
      </trkpt>
      <trkpt lat="56.782203996554017" lon="-2.393899960443378">
        <ele>64.549999999999997</ele>
        <time>2023-08-18T08:25:17Z</time>
      </trkpt>
      <trkpt lat="56.782214976847172" lon="-2.393803987652063">
        <ele>64.069999999999993</ele>
        <time>2023-08-18T08:25:18Z</time>
      </trkpt>
      <trkpt lat="56.782214976847172" lon="-2.393696028739214">
        <ele>63.579999999999998</ele>
        <time>2023-08-18T08:25:19Z</time>
      </trkpt>
      <trkpt lat="56.782212965190411" lon="-2.393597960472107">
        <ele>63.579999999999998</ele>
        <time>2023-08-18T08:25:20Z</time>
      </trkpt>
      <trkpt lat="56.782169966027141" lon="-2.393498970195651">
        <ele>63.100000000000001</ele>
        <time>2023-08-18T08:25:21Z</time>
      </trkpt>
      <trkpt lat="56.782117998227477" lon="-2.393415989354253">
        <ele>62.619999999999997</ele>
        <time>2023-08-18T08:25:22Z</time>
      </trkpt>
      <trkpt lat="56.782043986022472" lon="-2.393330996856093">
        <ele>62.140000000000001</ele>
        <time>2023-08-18T08:25:23Z</time>
      </trkpt>
      <trkpt lat="56.781963016837835" lon="-2.393238041549921">
        <ele>61.659999999999997</ele>
        <time>2023-08-18T08:25:24Z</time>
      </trkpt>
      <trkpt lat="56.781876012682915" lon="-2.393138967454433">
        <ele>60.700000000000003</ele>
        <time>2023-08-18T08:25:25Z</time>
      </trkpt>
      <trkpt lat="56.780761973932385" lon="-2.391929039731622">
        <ele>52.049999999999997</ele>
        <time>2023-08-18T08:25:36Z</time>
      </trkpt>
      <trkpt lat="56.779973991215229" lon="-2.391112977638841">
        <ele>50.130000000000003</ele>
        <time>2023-08-18T08:25:46Z</time>
      </trkpt>
      <trkpt lat="56.77965103648603" lon="-2.390708969905973">
        <ele>50.609999999999999</ele>
        <time>2023-08-18T08:25:55Z</time>
      </trkpt>
      <trkpt lat="56.779623962938786" lon="-2.390675023198128">
        <ele>50.609999999999999</ele>
        <time>2023-08-18T08:26:22Z</time>
      </trkpt>
      <trkpt lat="56.779536036774516" lon="-2.390503026545048">
        <ele>50.609999999999999</ele>
        <time>2023-08-18T08:26:25Z</time>
      </trkpt>
      <trkpt lat="56.779511980712414" lon="-2.390448963269591">
        <ele>51.090000000000003</ele>
        <time>2023-08-18T08:26:26Z</time>
      </trkpt>
      <trkpt lat="56.779536958783865" lon="-2.390320971608162">
        <ele>51.090000000000003</ele>
        <time>2023-08-18T08:26:27Z</time>
      </trkpt>
      <trkpt lat="56.77956897765398" lon="-2.390160961076617">
        <ele>51.57</ele>
        <time>2023-08-18T08:26:28Z</time>
      </trkpt>
      <trkpt lat="56.779602002352476" lon="-2.389990976080298">
        <ele>51.57</ele>
        <time>2023-08-18T08:26:29Z</time>
      </trkpt>
      <trkpt lat="56.779637038707733" lon="-2.389816967770457">
        <ele>52.049999999999997</ele>
        <time>2023-08-18T08:26:30Z</time>
      </trkpt>
      <trkpt lat="56.779897967353463" lon="-2.388495979830623">
        <ele>52.049999999999997</ele>
        <time>2023-08-18T08:26:38Z</time>
      </trkpt>
      <trkpt lat="56.779877012595534" lon="-2.388353990390897">
        <ele>51.57</ele>
        <time>2023-08-18T08:26:39Z</time>
      </trkpt>
      <trkpt lat="56.779855974018574" lon="-2.388219963759184">
        <ele>51.57</ele>
        <time>2023-08-18T08:26:40Z</time>
      </trkpt>
      <trkpt lat="56.779833007603884" lon="-2.388066994026303">
        <ele>51.090000000000003</ele>
        <time>2023-08-18T08:26:41Z</time>
      </trkpt>
      <trkpt lat="56.77978003397584" lon="-2.387917041778565">
        <ele>51.090000000000003</ele>
        <time>2023-08-18T08:26:42Z</time>
      </trkpt>
      <trkpt lat="56.779721025377512" lon="-2.387753007933497">
        <ele>51.090000000000003</ele>
        <time>2023-08-18T08:26:43Z</time>
      </trkpt>
      <trkpt lat="56.779075032100081" lon="-2.385946959257126">
        <ele>50.130000000000003</ele>
        <time>2023-08-18T08:26:54Z</time>
      </trkpt>
      <trkpt lat="56.778520988300443" lon="-2.384396977722645">
        <ele>46.280000000000001</ele>
        <time>2023-08-18T08:27:05Z</time>
      </trkpt>
      <trkpt lat="56.777839036658406" lon="-2.382489005103707">
        <ele>40.509999999999998</ele>
        <time>2023-08-18T08:27:17Z</time>
      </trkpt>
      <trkpt lat="56.777722025290132" lon="-2.382163032889366">
        <ele>37.630000000000003</ele>
        <time>2023-08-18T08:27:22Z</time>
      </trkpt>
      <trkpt lat="56.777722025290132" lon="-2.382163032889366">
        <ele>37.630000000000003</ele>
        <time>2023-08-18T08:28:01Z</time>
      </trkpt>
      <trkpt lat="56.777722025290132" lon="-2.382163032889366">
        <ele>34.259999999999998</ele>
        <time>2023-08-18T08:28:15Z</time>
      </trkpt>
      <trkpt lat="56.77769998088479" lon="-2.382100000977516">
        <ele>33.780000000000001</ele>
        <time>2023-08-18T08:28:34Z</time>
      </trkpt>
      <trkpt lat="56.777906008064747" lon="-2.382677011191845">
        <ele>32.82</ele>
        <time>2023-08-18T08:28:39Z</time>
      </trkpt>
      <trkpt lat="56.778397019952536" lon="-2.384048961102963">
        <ele>35.229999999999997</ele>
        <time>2023-08-18T08:28:45Z</time>
      </trkpt>
      <trkpt lat="56.778916027396917" lon="-2.385502969846129">
        <ele>39.07</ele>
        <time>2023-08-18T08:28:53Z</time>
      </trkpt>
      <trkpt lat="56.779618011787534" lon="-2.387466011568904">
        <ele>44.359999999999999</ele>
        <time>2023-08-18T08:29:06Z</time>
      </trkpt>
      <trkpt lat="56.77984700538218" lon="-2.388157015666366">
        <ele>44.359999999999999</ele>
        <time>2023-08-18T08:29:11Z</time>
      </trkpt>
      <trkpt lat="56.77986703813076" lon="-2.388288024812937">
        <ele>44.359999999999999</ele>
        <time>2023-08-18T08:29:12Z</time>
      </trkpt>
      <trkpt lat="56.779884975403547" lon="-2.388414004817605">
        <ele>44.359999999999999</ele>
        <time>2023-08-18T08:29:13Z</time>
      </trkpt>
      <trkpt lat="56.779885981231928" lon="-2.388557000085712">
        <ele>43.880000000000003</ele>
        <time>2023-08-18T08:29:14Z</time>
      </trkpt>
      <trkpt lat="56.779858991503716" lon="-2.388691026717424">
        <ele>43.880000000000003</ele>
        <time>2023-08-18T08:29:15Z</time>
      </trkpt>
      <trkpt lat="56.779832001775503" lon="-2.388829998672009">
        <ele>43.399999999999999</ele>
        <time>2023-08-18T08:29:16Z</time>
      </trkpt>
      <trkpt lat="56.77980300039053" lon="-2.388975005596876">
        <ele>43.399999999999999</ele>
        <time>2023-08-18T08:29:17Z</time>
      </trkpt>
      <trkpt lat="56.779553974047303" lon="-2.390236984938383">
        <ele>42.920000000000002</ele>
        <time>2023-08-18T08:29:26Z</time>
      </trkpt>
      <trkpt lat="56.779532013460994" lon="-2.390344021841884">
        <ele>42.439999999999998</ele>
        <time>2023-08-18T08:29:27Z</time>
      </trkpt>
      <trkpt lat="56.779511980712414" lon="-2.390450974926353">
        <ele>42.439999999999998</ele>
        <time>2023-08-18T08:29:28Z</time>
      </trkpt>
      <trkpt lat="56.779548022896051" lon="-2.39053001627326">
        <ele>42.439999999999998</ele>
        <time>2023-08-18T08:29:29Z</time>
      </trkpt>
      <trkpt lat="56.779586998745799" lon="-2.390619032084942">
        <ele>42.920000000000002</ele>
        <time>2023-08-18T08:29:30Z</time>
      </trkpt>
      <trkpt lat="56.779647013172507" lon="-2.390704024583101">
        <ele>42.920000000000002</ele>
        <time>2023-08-18T08:29:31Z</time>
      </trkpt>
      <trkpt lat="56.779726976528764" lon="-2.390804020687938">
        <ele>43.399999999999999</ele>
        <time>2023-08-18T08:29:32Z</time>
      </trkpt>
      <trkpt lat="56.780719980597496" lon="-2.391889980062842">
        <ele>46.280000000000001</ele>
        <time>2023-08-18T08:29:42Z</time>
      </trkpt>
      <trkpt lat="56.782020013779402" lon="-2.393304007127881">
        <ele>51.090000000000003</ele>
        <time>2023-08-18T08:29:56Z</time>
      </trkpt>
      <trkpt lat="56.782136019319296" lon="-2.393436022102833">
        <ele>52.049999999999997</ele>
        <time>2023-08-18T08:29:58Z</time>
      </trkpt>
      <trkpt lat="56.782173989340663" lon="-2.393507016822696">
        <ele>53.009999999999998</ele>
        <time>2023-08-18T08:29:59Z</time>
      </trkpt>
      <trkpt lat="56.782211037352681" lon="-2.393592009320855">
        <ele>53.490000000000002</ele>
        <time>2023-08-18T08:30:00Z</time>
      </trkpt>
      <trkpt lat="56.782214976847172" lon="-2.393668033182621">
        <ele>53.490000000000002</ele>
        <time>2023-08-18T08:30:01Z</time>
      </trkpt>
      <trkpt lat="56.782214976847172" lon="-2.393783032894135">
        <ele>53.969999999999999</ele>
        <time>2023-08-18T08:30:02Z</time>
      </trkpt>
      <trkpt lat="56.782208019867539" lon="-2.393888980150223">
        <ele>54.450000000000003</ele>
        <time>2023-08-18T08:30:03Z</time>
      </trkpt>
      <trkpt lat="56.782171977683902" lon="-2.394015965983272">
        <ele>54.93</ele>
        <time>2023-08-18T08:30:04Z</time>
      </trkpt>
      <trkpt lat="56.782133001834154" lon="-2.394158961251378">
        <ele>55.409999999999997</ele>
        <time>2023-08-18T08:30:05Z</time>
      </trkpt>
      <trkpt lat="56.782012972980738" lon="-2.394588030874729">
        <ele>56.369999999999997</ele>
        <time>2023-08-18T08:30:08Z</time>
      </trkpt>
      <trkpt lat="56.78199402987957" lon="-2.394711999222636">
        <ele>56.859999999999999</ele>
        <time>2023-08-18T08:30:09Z</time>
      </trkpt>
      <trkpt lat="56.781982965767384" lon="-2.39482699893415">
        <ele>57.82</ele>
        <time>2023-08-18T08:30:10Z</time>
      </trkpt>
      <trkpt lat="56.782001992687583" lon="-2.394921965897083">
        <ele>58.299999999999997</ele>
        <time>2023-08-18T08:30:11Z</time>
      </trkpt>
      <trkpt lat="56.782034011557698" lon="-2.394997989758849">
        <ele>58.780000000000001</ele>
        <time>2023-08-18T08:30:12Z</time>
      </trkpt>
      <trkpt lat="56.782079022377729" lon="-2.395053980872035">
        <ele>59.259999999999998</ele>
        <time>2023-08-18T08:30:13Z</time>
      </trkpt>
      <trkpt lat="56.782144987955689" lon="-2.395118018612266">
        <ele>59.740000000000002</ele>
        <time>2023-08-18T08:30:14Z</time>
      </trkpt>
      <trkpt lat="56.782217994332314" lon="-2.395189013332129">
        <ele>60.700000000000003</ele>
        <time>2023-08-18T08:30:15Z</time>
      </trkpt>
      <trkpt lat="56.782294018194079" lon="-2.395263025537133">
        <ele>61.18</ele>
        <time>2023-08-18T08:30:16Z</time>
      </trkpt>
      <trkpt lat="56.782366018742323" lon="-2.395332008600235">
        <ele>61.659999999999997</ele>
        <time>2023-08-18T08:30:17Z</time>
      </trkpt>
      <trkpt lat="56.782432990148664" lon="-2.395396968349814">
        <ele>61.659999999999997</ele>
        <time>2023-08-18T08:30:18Z</time>
      </trkpt>
      <trkpt lat="56.782753011211753" lon="-2.395709026604891">
        <ele>64.069999999999993</ele>
        <time>2023-08-18T08:30:25Z</time>
      </trkpt>
      <trkpt lat="56.782782012596726" lon="-2.395796030759811">
        <ele>64.549999999999997</ele>
        <time>2023-08-18T08:30:26Z</time>
      </trkpt>
      <trkpt lat="56.782760974019766" lon="-2.395876999944449">
        <ele>64.549999999999997</ele>
        <time>2023-08-18T08:30:27Z</time>
      </trkpt>
      <trkpt lat="56.782729960978031" lon="-2.395993005484343">
        <ele>64.549999999999997</ele>
        <time>2023-08-18T08:30:28Z</time>
      </trkpt>
      <trkpt lat="56.782691990956664" lon="-2.396140024065971">
        <ele>64.069999999999993</ele>
        <time>2023-08-18T08:30:29Z</time>
      </trkpt>
      <trkpt lat="56.782645974308252" lon="-2.396313026547432">
        <ele>64.069999999999993</ele>
        <time>2023-08-18T08:30:30Z</time>
      </trkpt>
      <trkpt lat="56.782240960747004" lon="-2.39785797894001">
        <ele>61.659999999999997</ele>
        <time>2023-08-18T08:30:36Z</time>
      </trkpt>
      <trkpt lat="56.781262960284948" lon="-2.401578035205603">
        <ele>56.859999999999999</ele>
        <time>2023-08-18T08:30:47Z</time>
      </trkpt>
      <trkpt lat="56.780428038910031" lon="-2.404673974961042">
        <ele>56.369999999999997</ele>
        <time>2023-08-18T08:30:57Z</time>
      </trkpt>
      <trkpt lat="56.779363034293056" lon="-2.408251035958529">
        <ele>57.82</ele>
        <time>2023-08-18T08:31:10Z</time>
      </trkpt>
      <trkpt lat="56.779157007113099" lon="-2.408813964575529">
        <ele>59.259999999999998</ele>
        <time>2023-08-18T08:31:12Z</time>
      </trkpt>
      <trkpt lat="56.77902901545167" lon="-2.409048993140459">
        <ele>60.219999999999999</ele>
        <time>2023-08-18T08:31:13Z</time>
      </trkpt>
      <trkpt lat="56.778910998255014" lon="-2.409267006441951">
        <ele>60.700000000000003</ele>
        <time>2023-08-18T08:31:14Z</time>
      </trkpt>
      <trkpt lat="56.77767600864172" lon="-2.410880019888282">
        <ele>63.579999999999998</ele>
        <time>2023-08-18T08:31:22Z</time>
      </trkpt>
      <trkpt lat="56.777558997273445" lon="-2.411100966855884">
        <ele>64.069999999999993</ele>
        <time>2023-08-18T08:31:23Z</time>
      </trkpt>
      <trkpt lat="56.777464030310512" lon="-2.411361979320645">
        <ele>64.069999999999993</ele>
        <time>2023-08-18T08:31:24Z</time>
      </trkpt>
      <trkpt lat="56.777366967871785" lon="-2.411626009270549">
        <ele>64.549999999999997</ele>
        <time>2023-08-18T08:31:25Z</time>
      </trkpt>
      <trkpt lat="56.777273006737232" lon="-2.411895990371704">
        <ele>64.549999999999997</ele>
        <time>2023-08-18T08:31:26Z</time>
      </trkpt>
      <trkpt lat="56.777210980653763" lon="-2.412186004221439">
        <ele>65.030000000000001</ele>
        <time>2023-08-18T08:31:27Z</time>
      </trkpt>
      <trkpt lat="56.777149038389325" lon="-2.412478029727936">
        <ele>65.510000000000005</ele>
        <time>2023-08-18T08:31:28Z</time>
      </trkpt>
      <trkpt lat="56.776856007054448" lon="-2.413694998249412">
        <ele>67.909999999999997</ele>
        <time>2023-08-18T08:31:33Z</time>
      </trkpt>
      <trkpt lat="56.776445964351296" lon="-2.414645003154874">
        <ele>70.790000000000006</ele>
        <time>2023-08-18T08:31:39Z</time>
      </trkpt>
      <trkpt lat="56.776373963803053" lon="-2.414772994816303">
        <ele>71.269999999999996</ele>
        <time>2023-08-18T08:31:40Z</time>
      </trkpt>
      <trkpt lat="56.776032987982035" lon="-2.415127968415618">
        <ele>72.239999999999995</ele>
        <time>2023-08-18T08:31:45Z</time>
      </trkpt>
      <trkpt lat="56.775970039889216" lon="-2.415189994499087">
        <ele>72.239999999999995</ele>
        <time>2023-08-18T08:31:46Z</time>
      </trkpt>
      <trkpt lat="56.775562008842826" lon="-2.415307005867362">
        <ele>73.200000000000003</ele>
        <time>2023-08-18T08:31:53Z</time>
      </trkpt>
      <trkpt lat="56.775507023558021" lon="-2.415276998654008">
        <ele>73.200000000000003</ele>
        <time>2023-08-18T08:31:54Z</time>
      </trkpt>
      <trkpt lat="56.775481961667538" lon="-2.41519401781261">
        <ele>73.200000000000003</ele>
        <time>2023-08-18T08:31:55Z</time>
      </trkpt>
      <trkpt lat="56.775452038273215" lon="-2.415098967030644">
        <ele>73.680000000000007</ele>
        <time>2023-08-18T08:31:56Z</time>
      </trkpt>
      <trkpt lat="56.775418007746339" lon="-2.414988996461034">
        <ele>73.200000000000003</ele>
        <time>2023-08-18T08:31:57Z</time>
      </trkpt>
      <trkpt lat="56.775006037205458" lon="-2.413673959672451">
        <ele>75.599999999999994</ele>
        <time>2023-08-18T08:32:07Z</time>
      </trkpt>
      <trkpt lat="56.77496999502182" lon="-2.413558037951589">
        <ele>75.599999999999994</ele>
        <time>2023-08-18T08:32:08Z</time>
      </trkpt>
      <trkpt lat="56.774893971160054" lon="-2.413314040750265">
        <ele>75.120000000000005</ele>
        <time>2023-08-18T08:32:10Z</time>
      </trkpt>
      <trkpt lat="56.77481803111732" lon="-2.413216978311539">
        <ele>75.120000000000005</ele>
        <time>2023-08-18T08:32:11Z</time>
      </trkpt>
      <trkpt lat="56.77473396062851" lon="-2.413156041875482">
        <ele>75.599999999999994</ele>
        <time>2023-08-18T08:32:12Z</time>
      </trkpt>
      <trkpt lat="56.774340011179447" lon="-2.412871979176998">
        <ele>75.120000000000005</ele>
        <time>2023-08-18T08:32:18Z</time>
      </trkpt>
      <trkpt lat="56.774298017844558" lon="-2.412826968356967">
        <ele>75.120000000000005</ele>
        <time>2023-08-18T08:32:19Z</time>
      </trkpt>
      <trkpt lat="56.7743010353297" lon="-2.412698976695538">
        <ele>75.120000000000005</ele>
        <time>2023-08-18T08:32:20Z</time>
      </trkpt>
      <trkpt lat="56.774275973439217" lon="-2.412585988640785">
        <ele>75.120000000000005</ele>
        <time>2023-08-18T08:32:21Z</time>
      </trkpt>
      <trkpt lat="56.774249989539385" lon="-2.41246797144413">
        <ele>75.120000000000005</ele>
        <time>2023-08-18T08:32:22Z</time>
      </trkpt>
      <trkpt lat="56.774115962907672" lon="-2.411873023957014">
        <ele>76.560000000000002</ele>
        <time>2023-08-18T08:32:27Z</time>
      </trkpt>
      <trkpt lat="56.773962993174791" lon="-2.411416964605451">
        <ele>78.969999999999999</ele>
        <time>2023-08-18T08:32:32Z</time>
      </trkpt>
      <trkpt lat="56.773929968476295" lon="-2.411344964057207">
        <ele>79.450000000000003</ele>
        <time>2023-08-18T08:32:33Z</time>
      </trkpt>
      <trkpt lat="56.773899039253592" lon="-2.411259971559048">
        <ele>80.409999999999997</ele>
        <time>2023-08-18T08:32:34Z</time>
      </trkpt>
      <trkpt lat="56.77372301928699" lon="-2.410615989938378">
        <ele>83.290000000000006</ele>
        <time>2023-08-18T08:32:41Z</time>
      </trkpt>
      <trkpt lat="56.773683037608862" lon="-2.410503001883626">
        <ele>83.290000000000006</ele>
        <time>2023-08-18T08:32:42Z</time>
      </trkpt>
      <trkpt lat="56.773214992135763" lon="-2.409182013943791">
        <ele>84.730000000000004</ele>
        <time>2023-08-18T08:32:52Z</time>
      </trkpt>
      <trkpt lat="56.772838979959488" lon="-2.408122960478067">
        <ele>83.290000000000006</ele>
        <time>2023-08-18T08:33:02Z</time>
      </trkpt>
      <trkpt lat="56.772686010226607" lon="-2.407691963016987">
        <ele>80.409999999999997</ele>
        <time>2023-08-18T08:33:12Z</time>
      </trkpt>
      <trkpt lat="56.77279899828136" lon="-2.40763102658093">
        <ele>78.480000000000004</ele>
        <time>2023-08-18T08:33:20Z</time>
      </trkpt>
      <trkpt lat="56.772707970812917" lon="-2.407752983272076">
        <ele>78.480000000000004</ele>
        <time>2023-08-18T08:33:24Z</time>
      </trkpt>
      <trkpt lat="56.772716017439961" lon="-2.407777039334178">
        <ele>78.480000000000004</ele>
        <time>2023-08-18T08:33:25Z</time>
      </trkpt>
      <trkpt lat="56.772721968591213" lon="-2.407792964950204">
        <ele>78.480000000000004</ele>
        <time>2023-08-18T08:33:26Z</time>
      </trkpt>
      <trkpt lat="56.772730015218258" lon="-2.407691963016987">
        <ele>70.790000000000006</ele>
        <time>2023-08-18T08:41:23Z</time>
      </trkpt>
      <trkpt lat="56.772788017988205" lon="-2.407645024359226">
        <ele>72.719999999999999</ele>
        <time>2023-08-18T08:42:05Z</time>
      </trkpt>
      <trkpt lat="56.772805033251643" lon="-2.407630020752549">
        <ele>74.159999999999997</ele>
        <time>2023-08-18T08:42:57Z</time>
      </trkpt>
      <trkpt lat="56.772803021594882" lon="-2.407628009095788">
        <ele>74.159999999999997</ele>
        <time>2023-08-18T08:43:43Z</time>
      </trkpt>
      <trkpt lat="56.772807966917753" lon="-2.407650975510478">
        <ele>74.159999999999997</ele>
        <time>2023-08-18T08:44:00Z</time>
      </trkpt>
      <trkpt lat="56.772726997733116" lon="-2.407806040719152">
        <ele>73.680000000000007</ele>
        <time>2023-08-18T08:44:02Z</time>
      </trkpt>
      <trkpt lat="56.77273697219789" lon="-2.407834036275744">
        <ele>73.200000000000003</ele>
        <time>2023-08-18T08:44:03Z</time>
      </trkpt>
      <trkpt lat="56.772749964147806" lon="-2.407871000468731">
        <ele>72.719999999999999</ele>
        <time>2023-08-18T08:44:04Z</time>
      </trkpt>
      <trkpt lat="56.772766979411244" lon="-2.407920034602284">
        <ele>72.239999999999995</ele>
        <time>2023-08-18T08:44:05Z</time>
      </trkpt>
      <trkpt lat="56.772787012159824" lon="-2.40797602571547">
        <ele>72.239999999999995</ele>
        <time>2023-08-18T08:44:06Z</time>
      </trkpt>
      <trkpt lat="56.772806039080024" lon="-2.408031011000276">
        <ele>72.239999999999995</ele>
        <time>2023-08-18T08:44:07Z</time>
      </trkpt>
      <trkpt lat="56.772824982181191" lon="-2.408082978799939">
        <ele>72.239999999999995</ele>
        <time>2023-08-18T08:44:08Z</time>
      </trkpt>
      <trkpt lat="56.77284300327301" lon="-2.408134024590254">
        <ele>72.239999999999995</ele>
        <time>2023-08-18T08:44:09Z</time>
      </trkpt>
      <trkpt lat="56.773165035992861" lon="-2.409042958170176">
        <ele>74.159999999999997</ele>
        <time>2023-08-18T08:44:21Z</time>
      </trkpt>
      <trkpt lat="56.773720001801848" lon="-2.410608027130365">
        <ele>76.560000000000002</ele>
        <time>2023-08-18T08:44:33Z</time>
      </trkpt>
      <trkpt lat="56.77385101094842" lon="-2.411081017926335">
        <ele>77.040000000000006</ele>
        <time>2023-08-18T08:44:39Z</time>
      </trkpt>
      <trkpt lat="56.773870037868619" lon="-2.411150000989437">
        <ele>77.040000000000006</ele>
        <time>2023-08-18T08:44:40Z</time>
      </trkpt>
      <trkpt lat="56.774102970957756" lon="-2.411810997873545">
        <ele>75.599999999999994</ele>
        <time>2023-08-18T08:44:47Z</time>
      </trkpt>
      <trkpt lat="56.774321990087628" lon="-2.412790004163981">
        <ele>72.719999999999999</ele>
        <time>2023-08-18T08:44:55Z</time>
      </trkpt>
      <trkpt lat="56.774340011179447" lon="-2.412871979176998">
        <ele>72.719999999999999</ele>
        <time>2023-08-18T08:44:56Z</time>
      </trkpt>
      <trkpt lat="56.774433972314" lon="-2.412940040230751">
        <ele>72.239999999999995</ele>
        <time>2023-08-18T08:44:57Z</time>
      </trkpt>
      <trkpt lat="56.774503039196134" lon="-2.412988990545273">
        <ele>72.239999999999995</ele>
        <time>2023-08-18T08:44:58Z</time>
      </trkpt>
      <trkpt lat="56.774574033915997" lon="-2.413040036335588">
        <ele>72.239999999999995</ele>
        <time>2023-08-18T08:44:59Z</time>
      </trkpt>
      <trkpt lat="56.774704959243536" lon="-2.413135003298521">
        <ele>72.239999999999995</ele>
        <time>2023-08-18T08:45:01Z</time>
      </trkpt>
      <trkpt lat="56.774765979498625" lon="-2.413179008290172">
        <ele>71.760000000000005</ele>
        <time>2023-08-18T08:45:02Z</time>
      </trkpt>
      <trkpt lat="56.774825993925333" lon="-2.413222007453442">
        <ele>71.760000000000005</ele>
        <time>2023-08-18T08:45:03Z</time>
      </trkpt>
      <trkpt lat="56.774877039715648" lon="-2.413258971646428">
        <ele>71.760000000000005</ele>
        <time>2023-08-18T08:45:04Z</time>
      </trkpt>
      <trkpt lat="56.774924984201789" lon="-2.413414036855102">
        <ele>71.269999999999996</ele>
        <time>2023-08-18T08:45:05Z</time>
      </trkpt>
      <trkpt lat="56.774959014728665" lon="-2.413523001596332">
        <ele>71.269999999999996</ele>
        <time>2023-08-18T08:45:06Z</time>
      </trkpt>
      <trkpt lat="56.774994973093271" lon="-2.413635989651084">
        <ele>71.269999999999996</ele>
        <time>2023-08-18T08:45:07Z</time>
      </trkpt>
      <trkpt lat="56.775160012766719" lon="-2.41416597738862">
        <ele>71.269999999999996</ele>
        <time>2023-08-18T08:45:11Z</time>
      </trkpt>
      <trkpt lat="56.775335026904941" lon="-2.41472396068275">
        <ele>71.269999999999996</ele>
        <time>2023-08-18T08:45:15Z</time>
      </trkpt>
      <trkpt lat="56.775426976382732" lon="-2.415019003674388">
        <ele>70.790000000000006</ele>
        <time>2023-08-18T08:45:18Z</time>
      </trkpt>
      <trkpt lat="56.775449020788074" lon="-2.41508899256587">
        <ele>70.790000000000006</ele>
        <time>2023-08-18T08:45:19Z</time>
      </trkpt>
      <trkpt lat="56.775466036051512" lon="-2.415142972022295">
        <ele>71.269999999999996</ele>
        <time>2023-08-18T08:45:20Z</time>
      </trkpt>
      <trkpt lat="56.775476010516286" lon="-2.415175996720791">
        <ele>71.269999999999996</ele>
        <time>2023-08-18T08:45:21Z</time>
      </trkpt>
      <trkpt lat="56.77550601772964" lon="-2.415270041674376">
        <ele>70.790000000000006</ele>
        <time>2023-08-18T08:45:30Z</time>
      </trkpt>
      <trkpt lat="56.775538036599755" lon="-2.415313962846994">
        <ele>70.790000000000006</ele>
        <time>2023-08-18T08:45:31Z</time>
      </trkpt>
      <trkpt lat="56.775593021884561" lon="-2.415298037230969">
        <ele>70.790000000000006</ele>
        <time>2023-08-18T08:45:32Z</time>
      </trkpt>
      <trkpt lat="56.775944977998734" lon="-2.415198041126132">
        <ele>71.269999999999996</ele>
        <time>2023-08-18T08:45:36Z</time>
      </trkpt>
      <trkpt lat="56.77604497410357" lon="-2.415115982294083">
        <ele>71.269999999999996</ele>
        <time>2023-08-18T08:45:37Z</time>
      </trkpt>
      <trkpt lat="56.776148993521929" lon="-2.415011962875724">
        <ele>71.269999999999996</ele>
        <time>2023-08-18T08:45:38Z</time>
      </trkpt>
      <trkpt lat="56.776258964091539" lon="-2.414901992306113">
        <ele>71.269999999999996</ele>
        <time>2023-08-18T08:45:39Z</time>
      </trkpt>
      <trkpt lat="56.776368012651801" lon="-2.414783975109458">
        <ele>71.269999999999996</ele>
        <time>2023-08-18T08:45:40Z</time>
      </trkpt>
      <trkpt lat="56.776464991271496" lon="-2.414609966799617">
        <ele>70.790000000000006</ele>
        <time>2023-08-18T08:45:41Z</time>
      </trkpt>
      <trkpt lat="56.776564987376332" lon="-2.414429001510143">
        <ele>70.790000000000006</ele>
        <time>2023-08-18T08:45:42Z</time>
      </trkpt>
      <trkpt lat="56.776657020673156" lon="-2.414226997643709">
        <ele>70.310000000000002</ele>
        <time>2023-08-18T08:45:43Z</time>
      </trkpt>
      <trkpt lat="56.776748970150948" lon="-2.414015019312501">
        <ele>70.790000000000006</ele>
        <time>2023-08-18T08:45:44Z</time>
      </trkpt>
      <trkpt lat="56.777212992310524" lon="-2.412178041413426">
        <ele>71.269999999999996</ele>
        <time>2023-08-18T08:45:52Z</time>
      </trkpt>
      <trkpt lat="56.777577018365264" lon="-2.411053022369742">
        <ele>69.349999999999994</ele>
        <time>2023-08-18T08:45:57Z</time>
      </trkpt>
      <trkpt lat="56.777685983106494" lon="-2.410866022109985">
        <ele>68.870000000000005</ele>
        <time>2023-08-18T08:45:58Z</time>
      </trkpt>
      <trkpt lat="56.777810035273433" lon="-2.410693019628525">
        <ele>68.390000000000001</ele>
        <time>2023-08-18T08:45:59Z</time>
      </trkpt>
      <trkpt lat="56.778924996033311" lon="-2.409241022542119">
        <ele>66.950000000000003</ele>
        <time>2023-08-18T08:46:08Z</time>
      </trkpt>
      <trkpt lat="56.779234036803246" lon="-2.408635010942817">
        <ele>66.469999999999999</ele>
        <time>2023-08-18T08:46:11Z</time>
      </trkpt>
      <trkpt lat="56.779319029301405" lon="-2.408409034833312">
        <ele>66.469999999999999</ele>
        <time>2023-08-18T08:46:12Z</time>
      </trkpt>
      <trkpt lat="56.780134001746774" lon="-2.405640995129943">
        <ele>60.700000000000003</ele>
        <time>2023-08-18T08:46:22Z</time>
      </trkpt>
      <trkpt lat="56.780909998342395" lon="-2.402919977903366">
        <ele>59.740000000000002</ele>
        <time>2023-08-18T08:46:32Z</time>
      </trkpt>
      <trkpt lat="56.781495977193117" lon="-2.400689972564578">
        <ele>58.780000000000001</ele>
        <time>2023-08-18T08:46:38Z</time>
      </trkpt>
      <trkpt lat="56.782613033428788" lon="-2.3964390065521">
        <ele>59.259999999999998</ele>
        <time>2023-08-18T08:46:49Z</time>
      </trkpt>
      <trkpt lat="56.783830001950264" lon="-2.392711993306875">
        <ele>63.100000000000001</ele>
        <time>2023-08-18T08:47:00Z</time>
      </trkpt>
      <trkpt lat="56.785263977944851" lon="-2.389619993045926">
        <ele>63.100000000000001</ele>
        <time>2023-08-18T08:47:11Z</time>
      </trkpt>
      <trkpt lat="56.786194033920765" lon="-2.386998971924186">
        <ele>65.030000000000001</ele>
        <time>2023-08-18T08:47:19Z</time>
      </trkpt>
      <trkpt lat="56.787262978032231" lon="-2.383513022214174">
        <ele>65.030000000000001</ele>
        <time>2023-08-18T08:47:30Z</time>
      </trkpt>
      <trkpt lat="56.788435019552708" lon="-2.379432041198015">
        <ele>63.579999999999998</ele>
        <time>2023-08-18T08:47:43Z</time>
      </trkpt>
      <trkpt lat="56.78927899338305" lon="-2.375690024346113">
        <ele>63.100000000000001</ele>
        <time>2023-08-18T08:47:55Z</time>
      </trkpt>
      <trkpt lat="56.789306988939643" lon="-2.375377966091037">
        <ele>63.100000000000001</ele>
        <time>2023-08-18T08:47:56Z</time>
      </trkpt>
      <trkpt lat="56.789333978667855" lon="-2.37506196834147">
        <ele>63.100000000000001</ele>
        <time>2023-08-18T08:47:57Z</time>
      </trkpt>
      <trkpt lat="56.789584010839462" lon="-2.371220961213112">
        <ele>62.140000000000001</ele>
        <time>2023-08-18T08:48:08Z</time>
      </trkpt>
      <trkpt lat="56.790004028007388" lon="-2.368983998894692">
        <ele>61.659999999999997</ele>
        <time>2023-08-18T08:48:15Z</time>
      </trkpt>
      <trkpt lat="56.790957972407341" lon="-2.365835001692176">
        <ele>62.619999999999997</ele>
        <time>2023-08-18T08:48:26Z</time>
      </trkpt>
      <trkpt lat="56.792034041136503" lon="-2.362036993727088">
        <ele>66.469999999999999</ele>
        <time>2023-08-18T08:48:38Z</time>
      </trkpt>
      <trkpt lat="56.793009024113417" lon="-2.357232989743352">
        <ele>68.870000000000005</ele>
        <time>2023-08-18T08:48:51Z</time>
      </trkpt>
      <trkpt lat="56.793691981583834" lon="-2.352892002090812">
        <ele>68.870000000000005</ele>
        <time>2023-08-18T08:49:03Z</time>
      </trkpt>
      <trkpt lat="56.794145023450255" lon="-2.348263012245297">
        <ele>72.719999999999999</ele>
        <time>2023-08-18T08:49:16Z</time>
      </trkpt>
      <trkpt lat="56.794717004522681" lon="-2.34437900595367">
        <ele>68.870000000000005</ele>
        <time>2023-08-18T08:49:29Z</time>
      </trkpt>
      <trkpt lat="56.795520996674895" lon="-2.341955965384841">
        <ele>65.510000000000005</ele>
        <time>2023-08-18T08:49:37Z</time>
      </trkpt>
      <trkpt lat="56.797227971255779" lon="-2.338516032323241">
        <ele>61.18</ele>
        <time>2023-08-18T08:49:50Z</time>
      </trkpt>
      <trkpt lat="56.798985991626978" lon="-2.335213981568813">
        <ele>58.299999999999997</ele>
        <time>2023-08-18T08:50:03Z</time>
      </trkpt>
      <trkpt lat="56.800448969006538" lon="-2.332794964313507">
        <ele>55.409999999999997</ele>
        <time>2023-08-18T08:50:14Z</time>
      </trkpt>
      <trkpt lat="56.801402997225523" lon="-2.330754976719618">
        <ele>51.57</ele>
        <time>2023-08-18T08:50:23Z</time>
      </trkpt>
      <trkpt lat="56.801510034129024" lon="-2.330567976459861">
        <ele>51.090000000000003</ele>
        <time>2023-08-18T08:50:24Z</time>
      </trkpt>
      <trkpt lat="56.801634002476931" lon="-2.330420035868883">
        <ele>51.090000000000003</ele>
        <time>2023-08-18T08:50:25Z</time>
      </trkpt>
      <trkpt lat="56.801767023280263" lon="-2.330280980095267">
        <ele>50.609999999999999</ele>
        <time>2023-08-18T08:50:26Z</time>
      </trkpt>
      <trkpt lat="56.802842002362013" lon="-2.329166019335389">
        <ele>47.719999999999999</ele>
        <time>2023-08-18T08:50:34Z</time>
      </trkpt>
      <trkpt lat="56.80296597070992" lon="-2.329026041552424">
        <ele>47.719999999999999</ele>
        <time>2023-08-18T08:50:35Z</time>
      </trkpt>
      <trkpt lat="56.803080970421433" lon="-2.328865025192499">
        <ele>48.200000000000003</ele>
        <time>2023-08-18T08:50:36Z</time>
      </trkpt>
      <trkpt lat="56.80318096652627" lon="-2.328646006062627">
        <ele>48.200000000000003</ele>
        <time>2023-08-18T08:50:37Z</time>
      </trkpt>
      <trkpt lat="56.803285991773009" lon="-2.328418018296361">
        <ele>48.200000000000003</ele>
        <time>2023-08-18T08:50:38Z</time>
      </trkpt>
      <trkpt lat="56.804562974721193" lon="-2.325684009119868">
        <ele>50.609999999999999</ele>
        <time>2023-08-18T08:50:50Z</time>
      </trkpt>
      <trkpt lat="56.805855967104435" lon="-2.323341015726328">
        <ele>49.159999999999997</ele>
        <time>2023-08-18T08:51:00Z</time>
      </trkpt>
      <trkpt lat="56.806978974491358" lon="-2.321350984275341">
        <ele>45.799999999999997</ele>
        <time>2023-08-18T08:51:08Z</time>
      </trkpt>
      <trkpt lat="56.808361988514662" lon="-2.319284006953239">
        <ele>40.990000000000002</ele>
        <time>2023-08-18T08:51:17Z</time>
      </trkpt>
      <trkpt lat="56.810413040220737" lon="-2.317163972184062">
        <ele>36.189999999999998</ele>
        <time>2023-08-18T08:51:29Z</time>
      </trkpt>
      <trkpt lat="56.811851039528847" lon="-2.315499996766448">
        <ele>33.299999999999997</ele>
        <time>2023-08-18T08:51:38Z</time>
      </trkpt>
      <trkpt lat="56.811998980119824" lon="-2.315247030928731">
        <ele>32.82</ele>
        <time>2023-08-18T08:51:39Z</time>
      </trkpt>
      <trkpt lat="56.812152033671737" lon="-2.314985012635589">
        <ele>32.82</ele>
        <time>2023-08-18T08:51:40Z</time>
      </trkpt>
      <trkpt lat="56.813423987478018" lon="-2.3120660148561">
        <ele>31.379999999999999</ele>
        <time>2023-08-18T08:51:50Z</time>
      </trkpt>
      <trkpt lat="56.814572978764772" lon="-2.310312017798424">
        <ele>31.379999999999999</ele>
        <time>2023-08-18T08:51:58Z</time>
      </trkpt>
      <trkpt lat="56.816560998558998" lon="-2.30819801799953">
        <ele>32.82</ele>
        <time>2023-08-18T08:52:10Z</time>
      </trkpt>
      <trkpt lat="56.816702987998724" lon="-2.307947985827923">
        <ele>32.82</ele>
        <time>2023-08-18T08:52:11Z</time>
      </trkpt>
      <trkpt lat="56.818001009523869" lon="-2.305452022701502">
        <ele>33.780000000000001</ele>
        <time>2023-08-18T08:52:21Z</time>
      </trkpt>
      <trkpt lat="56.818310972303152" lon="-2.305047009140253">
        <ele>34.259999999999998</ele>
        <time>2023-08-18T08:52:23Z</time>
      </trkpt>
      <trkpt lat="56.818475006148219" lon="-2.304862020537257">
        <ele>34.259999999999998</ele>
        <time>2023-08-18T08:52:24Z</time>
      </trkpt>
      <trkpt lat="56.820441987365484" lon="-2.302753971889615">
        <ele>39.549999999999997</ele>
        <time>2023-08-18T08:52:36Z</time>
      </trkpt>
      <trkpt lat="56.820580037310719" lon="-2.302519027143717">
        <ele>40.030000000000001</ele>
        <time>2023-08-18T08:52:37Z</time>
      </trkpt>
      <trkpt lat="56.820684978738427" lon="-2.302235970273614">
        <ele>40.030000000000001</ele>
        <time>2023-08-18T08:52:38Z</time>
      </trkpt>
      <trkpt lat="56.821841010823846" lon="-2.299139024689794">
        <ele>40.990000000000002</ele>
        <time>2023-08-18T08:52:49Z</time>
      </trkpt>
      <trkpt lat="56.823062002658844" lon="-2.296777004376054">
        <ele>39.549999999999997</ele>
        <time>2023-08-18T08:52:59Z</time>
      </trkpt>
      <trkpt lat="56.824366981163621" lon="-2.295042034238577">
        <ele>42.439999999999998</ele>
        <time>2023-08-18T08:53:08Z</time>
      </trkpt>
      <trkpt lat="56.826117038726807" lon="-2.293917015194893">
        <ele>49.649999999999999</ele>
        <time>2023-08-18T08:53:18Z</time>
      </trkpt>
      <trkpt lat="56.828156020492315" lon="-2.292661992833018">
        <ele>57.82</ele>
        <time>2023-08-18T08:53:29Z</time>
      </trkpt>
      <trkpt lat="56.83046598918736" lon="-2.290552016347647">
        <ele>59.259999999999998</ele>
        <time>2023-08-18T08:53:42Z</time>
      </trkpt>
      <trkpt lat="56.8323980178684" lon="-2.288450002670288">
        <ele>53.969999999999999</ele>
        <time>2023-08-18T08:53:53Z</time>
      </trkpt>
      <trkpt lat="56.834302973002195" lon="-2.28617599233985">
        <ele>48.200000000000003</ele>
        <time>2023-08-18T08:54:04Z</time>
      </trkpt>
      <trkpt lat="56.835694033652544" lon="-2.285243002697825">
        <ele>46.759999999999998</ele>
        <time>2023-08-18T08:54:11Z</time>
      </trkpt>
      <trkpt lat="56.836908990517259" lon="-2.284792978316546">
        <ele>45.32</ele>
        <time>2023-08-18T08:54:18Z</time>
      </trkpt>
      <trkpt lat="56.838031997904181" lon="-2.284425012767315">
        <ele>43.399999999999999</ele>
        <time>2023-08-18T08:54:27Z</time>
      </trkpt>
      <trkpt lat="56.839271010830998" lon="-2.284019999206066">
        <ele>41.950000000000003</ele>
        <time>2023-08-18T08:54:38Z</time>
      </trkpt>
      <trkpt lat="56.840876983478665" lon="-2.28359998203814">
        <ele>41.469999999999999</ele>
        <time>2023-08-18T08:54:53Z</time>
      </trkpt>
      <trkpt lat="56.841349974274635" lon="-2.283433014526963">
        <ele>40.509999999999998</ele>
        <time>2023-08-18T08:54:58Z</time>
      </trkpt>
      <trkpt lat="56.842415984719992" lon="-2.282715020701289">
        <ele>37.149999999999999</ele>
        <time>2023-08-18T08:55:08Z</time>
      </trkpt>
      <trkpt lat="56.84277699328959" lon="-2.282471023499966">
        <ele>35.710000000000001</ele>
        <time>2023-08-18T08:55:12Z</time>
      </trkpt>
      <trkpt lat="56.842873971909285" lon="-2.282405979931355">
        <ele>35.710000000000001</ele>
        <time>2023-08-18T08:55:13Z</time>
      </trkpt>
      <trkpt lat="56.843263981863856" lon="-2.282033991068602">
        <ele>34.740000000000002</ele>
        <time>2023-08-18T08:55:17Z</time>
      </trkpt>
      <trkpt lat="56.843355009332299" lon="-2.281927959993482">
        <ele>34.740000000000002</ele>
        <time>2023-08-18T08:55:18Z</time>
      </trkpt>
      <trkpt lat="56.843672012910247" lon="-2.281403001397848">
        <ele>34.259999999999998</ele>
        <time>2023-08-18T08:55:22Z</time>
      </trkpt>
      <trkpt lat="56.844290010631084" lon="-2.280447967350483">
        <ele>35.710000000000001</ele>
        <time>2023-08-18T08:55:30Z</time>
      </trkpt>
      <trkpt lat="56.845017978921533" lon="-2.279292019084096">
        <ele>36.189999999999998</ele>
        <time>2023-08-18T08:55:40Z</time>
      </trkpt>
      <trkpt lat="56.84507698751986" lon="-2.279182970523834">
        <ele>35.710000000000001</ele>
        <time>2023-08-18T08:55:41Z</time>
      </trkpt>
      <trkpt lat="56.845359038561583" lon="-2.278662035241723">
        <ele>33.299999999999997</ele>
        <time>2023-08-18T08:55:48Z</time>
      </trkpt>
      <trkpt lat="56.845488036051393" lon="-2.278423989191651">
        <ele>32.82</ele>
        <time>2023-08-18T08:55:51Z</time>
      </trkpt>
      <trkpt lat="56.846035961061716" lon="-2.277357978746295">
        <ele>30.420000000000002</ele>
        <time>2023-08-18T08:56:00Z</time>
      </trkpt>
      <trkpt lat="56.846206029877067" lon="-2.277167038992047">
        <ele>30.420000000000002</ele>
        <time>2023-08-18T08:56:02Z</time>
      </trkpt>
      <trkpt lat="56.846302002668381" lon="-2.277086991816759">
        <ele>29.940000000000001</ele>
        <time>2023-08-18T08:56:03Z</time>
      </trkpt>
      <trkpt lat="56.846408033743501" lon="-2.277029994875193">
        <ele>29.940000000000001</ele>
        <time>2023-08-18T08:56:04Z</time>
      </trkpt>
      <trkpt lat="56.846521021798253" lon="-2.276998981833458">
        <ele>30.420000000000002</ele>
        <time>2023-08-18T08:56:05Z</time>
      </trkpt>
      <trkpt lat="56.846636021509767" lon="-2.276967968791723">
        <ele>30.420000000000002</ele>
        <time>2023-08-18T08:56:06Z</time>
      </trkpt>
      <trkpt lat="56.846749009564519" lon="-2.27693703956902">
        <ele>30.899999999999999</ele>
        <time>2023-08-18T08:56:07Z</time>
      </trkpt>
      <trkpt lat="56.846855962648988" lon="-2.276934022083879">
        <ele>30.899999999999999</ele>
        <time>2023-08-18T08:56:08Z</time>
      </trkpt>
      <trkpt lat="56.846962999552488" lon="-2.276992024853826">
        <ele>30.899999999999999</ele>
        <time>2023-08-18T08:56:09Z</time>
      </trkpt>
      <trkpt lat="56.84707397595048" lon="-2.277052961289883">
        <ele>30.420000000000002</ele>
        <time>2023-08-18T08:56:10Z</time>
      </trkpt>
      <trkpt lat="56.847191993147135" lon="-2.277116999030113">
        <ele>30.420000000000002</ele>
        <time>2023-08-18T08:56:11Z</time>
      </trkpt>
      <trkpt lat="56.847311016172171" lon="-2.277193022891879">
        <ele>29.940000000000001</ele>
        <time>2023-08-18T08:56:12Z</time>
      </trkpt>
      <trkpt lat="56.847419980913401" lon="-2.277337023988366">
        <ele>29.940000000000001</ele>
        <time>2023-08-18T08:56:13Z</time>
      </trkpt>
      <trkpt lat="56.847532968968153" lon="-2.277485970407724">
        <ele>29.940000000000001</ele>
        <time>2023-08-18T08:56:14Z</time>
      </trkpt>
      <trkpt lat="56.848825039342046" lon="-2.278988007456064">
        <ele>28.98</ele>
        <time>2023-08-18T08:56:24Z</time>
      </trkpt>
      <trkpt lat="56.848979014903307" lon="-2.279062019661069">
        <ele>29.460000000000001</ele>
        <time>2023-08-18T08:56:25Z</time>
      </trkpt>
      <trkpt lat="56.849138019606471" lon="-2.279137959703803">
        <ele>29.940000000000001</ele>
        <time>2023-08-18T08:56:26Z</time>
      </trkpt>
      <trkpt lat="56.849291995167732" lon="-2.279212977737188">
        <ele>30.420000000000002</ele>
        <time>2023-08-18T08:56:27Z</time>
      </trkpt>
      <trkpt lat="56.849473966285586" lon="-2.279205014929175">
        <ele>30.899999999999999</ele>
        <time>2023-08-18T08:56:28Z</time>
      </trkpt>
      <trkpt lat="56.849648980423808" lon="-2.279197974130511">
        <ele>31.379999999999999</ele>
        <time>2023-08-18T08:56:29Z</time>
      </trkpt>
      <trkpt lat="56.849827012047172" lon="-2.279191017150879">
        <ele>32.340000000000003</ele>
        <time>2023-08-18T08:56:30Z</time>
      </trkpt>
      <trkpt lat="56.850001020357013" lon="-2.279094960540533">
        <ele>32.82</ele>
        <time>2023-08-18T08:56:31Z</time>
      </trkpt>
      <trkpt lat="56.850179973989725" lon="-2.278993958607316">
        <ele>34.259999999999998</ele>
        <time>2023-08-18T08:56:32Z</time>
      </trkpt>
      <trkpt lat="56.850364962592721" lon="-2.27889102883637">
        <ele>35.229999999999997</ele>
        <time>2023-08-18T08:56:33Z</time>
      </trkpt>
      <trkpt lat="56.850526984781027" lon="-2.278717020526528">
        <ele>36.670000000000002</ele>
        <time>2023-08-18T08:56:34Z</time>
      </trkpt>
      <trkpt lat="56.850686995312572" lon="-2.278524991124868">
        <ele>37.630000000000003</ele>
        <time>2023-08-18T08:56:35Z</time>
      </trkpt>
      <trkpt lat="56.850835019722581" lon="-2.278297003358603">
        <ele>39.07</ele>
        <time>2023-08-18T08:56:36Z</time>
      </trkpt>
      <trkpt lat="56.850971980020404" lon="-2.278056023642421">
        <ele>40.030000000000001</ele>
        <time>2023-08-18T08:56:37Z</time>
      </trkpt>
      <trkpt lat="56.851097038015723" lon="-2.277787970378995">
        <ele>41.469999999999999</ele>
        <time>2023-08-18T08:56:38Z</time>
      </trkpt>
      <trkpt lat="56.852780962362885" lon="-2.274458007887006">
        <ele>54.450000000000003</ele>
        <time>2023-08-18T08:56:51Z</time>
      </trkpt>
      <trkpt lat="56.854687007144094" lon="-2.271052021533251">
        <ele>65.989999999999995</ele>
        <time>2023-08-18T08:57:05Z</time>
      </trkpt>
      <trkpt lat="56.854834025725722" lon="-2.270862003788352">
        <ele>66.950000000000003</ele>
        <time>2023-08-18T08:57:06Z</time>
      </trkpt>
      <trkpt lat="56.854999987408519" lon="-2.270702999085188">
        <ele>67.430000000000007</ele>
        <time>2023-08-18T08:57:07Z</time>
      </trkpt>
      <trkpt lat="56.855167960748076" lon="-2.270542988553643">
        <ele>67.909999999999997</ele>
        <time>2023-08-18T08:57:08Z</time>
      </trkpt>
      <trkpt lat="56.856878958642483" lon="-2.269444959238172">
        <ele>73.200000000000003</ele>
        <time>2023-08-18T08:57:17Z</time>
      </trkpt>
      <trkpt lat="56.858216039836407" lon="-2.268250035122037">
        <ele>77.519999999999996</ele>
        <time>2023-08-18T08:57:24Z</time>
      </trkpt>
      <trkpt lat="56.859699971973896" lon="-2.267202967777848">
        <ele>81.370000000000005</ele>
        <time>2023-08-18T08:57:32Z</time>
      </trkpt>
      <trkpt lat="56.861002016812563" lon="-2.267139013856649">
        <ele>83.769999999999996</ele>
        <time>2023-08-18T08:57:38Z</time>
      </trkpt>
      <trkpt lat="56.86239399947226" lon="-2.267805961892009">
        <ele>85.689999999999998</ele>
        <time>2023-08-18T08:57:44Z</time>
      </trkpt>
      <trkpt lat="56.864095022901893" lon="-2.268583970144391">
        <ele>88.579999999999998</ele>
        <time>2023-08-18T08:57:52Z</time>
      </trkpt>
      <trkpt lat="56.865774001926184" lon="-2.268480034545064">
        <ele>93.390000000000001</ele>
        <time>2023-08-18T08:58:00Z</time>
      </trkpt>
      <trkpt lat="56.868269965052605" lon="-2.267866982147098">
        <ele>102.52</ele>
        <time>2023-08-18T08:58:12Z</time>
      </trkpt>
      <trkpt lat="56.870546992868185" lon="-2.266816981136799">
        <ele>108.29000000000001</ele>
        <time>2023-08-18T08:58:23Z</time>
      </trkpt>
      <trkpt lat="56.872498970478773" lon="-2.265104977414012">
        <ele>110.69</ele>
        <time>2023-08-18T08:58:33Z</time>
      </trkpt>
      <trkpt lat="56.874399986118078" lon="-2.262496026232839">
        <ele>115.98</ele>
        <time>2023-08-18T08:58:44Z</time>
      </trkpt>
      <trkpt lat="56.876842975616455" lon="-2.258759960532188">
        <ele>121.73999999999999</ele>
        <time>2023-08-18T08:58:59Z</time>
      </trkpt>
      <trkpt lat="56.877889037132263" lon="-2.257255995646119">
        <ele>122.22</ele>
        <time>2023-08-18T08:59:07Z</time>
      </trkpt>
      <trkpt lat="56.879051020368934" lon="-2.256446974352002">
        <ele>119.81999999999999</ele>
        <time>2023-08-18T08:59:16Z</time>
      </trkpt>
      <trkpt lat="56.880459012463689" lon="-2.256352007389069">
        <ele>118.38</ele>
        <time>2023-08-18T08:59:25Z</time>
      </trkpt>
      <trkpt lat="56.881788969039917" lon="-2.256129970774055">
        <ele>116.94</ele>
        <time>2023-08-18T08:59:33Z</time>
      </trkpt>
      <trkpt lat="56.881936993449926" lon="-2.256007008254528">
        <ele>116.45999999999999</ele>
        <time>2023-08-18T08:59:34Z</time>
      </trkpt>
      <trkpt lat="56.883128983899951" lon="-2.25480898283422">
        <ele>111.17</ele>
        <time>2023-08-18T08:59:43Z</time>
      </trkpt>
      <trkpt lat="56.883243983611465" lon="-2.254601027816534">
        <ele>110.69</ele>
        <time>2023-08-18T08:59:44Z</time>
      </trkpt>
      <trkpt lat="56.883359989151359" lon="-2.254391983151436">
        <ele>110.20999999999999</ele>
        <time>2023-08-18T08:59:45Z</time>
      </trkpt>
      <trkpt lat="56.884209997951984" lon="-2.252814006060362">
        <ele>107.81</ele>
        <time>2023-08-18T08:59:52Z</time>
      </trkpt>
      <trkpt lat="56.885701976716518" lon="-2.250289963558316">
        <ele>104.44</ele>
        <time>2023-08-18T09:00:03Z</time>
      </trkpt>
      <trkpt lat="56.887241983786225" lon="-2.248416021466255">
        <ele>102.04000000000001</ele>
        <time>2023-08-18T09:00:12Z</time>
      </trkpt>
      <trkpt lat="56.889956966042519" lon="-2.245259983465076">
        <ele>99.150000000000006</ele>
        <time>2023-08-18T09:00:26Z</time>
      </trkpt>
      <trkpt lat="56.891486998647451" lon="-2.242480041459203">
        <ele>98.189999999999998</ele>
        <time>2023-08-18T09:00:35Z</time>
      </trkpt>
      <trkpt lat="56.89298702403903" lon="-2.239741003140807">
        <ele>95.310000000000002</ele>
        <time>2023-08-18T09:00:45Z</time>
      </trkpt>
      <trkpt lat="56.894599031656981" lon="-2.237959010526538">
        <ele>92.900000000000006</ele>
        <time>2023-08-18T09:00:54Z</time>
      </trkpt>
      <trkpt lat="56.896438021212816" lon="-2.236859975382686">
        <ele>88.579999999999998</ele>
        <time>2023-08-18T09:01:03Z</time>
      </trkpt>
      <trkpt lat="56.898901965469122" lon="-2.235452989116311">
        <ele>82.329999999999998</ele>
        <time>2023-08-18T09:01:15Z</time>
      </trkpt>
      <trkpt lat="56.901641003787518" lon="-2.23323698155582">
        <ele>73.200000000000003</ele>
        <time>2023-08-18T09:01:29Z</time>
      </trkpt>
      <trkpt lat="56.903664981946349" lon="-2.230827016755939">
        <ele>68.390000000000001</ele>
        <time>2023-08-18T09:01:40Z</time>
      </trkpt>
      <trkpt lat="56.90581301227212" lon="-2.227551033720374">
        <ele>69.829999999999998</ele>
        <time>2023-08-18T09:01:53Z</time>
      </trkpt>
      <trkpt lat="56.907643033191562" lon="-2.223519003018737">
        <ele>75.120000000000005</ele>
        <time>2023-08-18T09:02:06Z</time>
      </trkpt>
      <trkpt lat="56.909266021102667" lon="-2.220564968883991">
        <ele>76.560000000000002</ele>
        <time>2023-08-18T09:02:17Z</time>
      </trkpt>
      <trkpt lat="56.911112973466516" lon="-2.218616008758545">
        <ele>72.239999999999995</ele>
        <time>2023-08-18T09:02:27Z</time>
      </trkpt>
      <trkpt lat="56.91322797909379" lon="-2.216733014211059">
        <ele>67.430000000000007</ele>
        <time>2023-08-18T09:02:38Z</time>
      </trkpt>
      <trkpt lat="56.9160629902035" lon="-2.213369021192193">
        <ele>74.640000000000001</ele>
        <time>2023-08-18T09:02:53Z</time>
      </trkpt>
      <trkpt lat="56.917620012536645" lon="-2.212103018537164">
        <ele>76.560000000000002</ele>
        <time>2023-08-18T09:03:01Z</time>
      </trkpt>
      <trkpt lat="56.919791009277105" lon="-2.210541972890496">
        <ele>71.269999999999996</ele>
        <time>2023-08-18T09:03:12Z</time>
      </trkpt>
      <trkpt lat="56.919946996495128" lon="-2.210309039801359">
        <ele>70.790000000000006</ele>
        <time>2023-08-18T09:03:13Z</time>
      </trkpt>
      <trkpt lat="56.920103989541531" lon="-2.210074011236429">
        <ele>70.310000000000002</ele>
        <time>2023-08-18T09:03:14Z</time>
      </trkpt>
      <trkpt lat="56.922006011009216" lon="-2.206953009590507">
        <ele>69.349999999999994</ele>
        <time>2023-08-18T09:03:26Z</time>
      </trkpt>
      <trkpt lat="56.923455996438861" lon="-2.205324992537499">
        <ele>69.349999999999994</ele>
        <time>2023-08-18T09:03:34Z</time>
      </trkpt>
      <trkpt lat="56.924817971885204" lon="-2.20483398064971">
        <ele>69.349999999999994</ele>
        <time>2023-08-18T09:03:40Z</time>
      </trkpt>
      <trkpt lat="56.926249014213681" lon="-2.205208986997604">
        <ele>68.390000000000001</ele>
        <time>2023-08-18T09:03:46Z</time>
      </trkpt>
      <trkpt lat="56.928361002355814" lon="-2.2063800226897">
        <ele>68.390000000000001</ele>
        <time>2023-08-18T09:03:56Z</time>
      </trkpt>
      <trkpt lat="56.930800974369049" lon="-2.207687012851238">
        <ele>71.269999999999996</ele>
        <time>2023-08-18T09:04:08Z</time>
      </trkpt>
      <trkpt lat="56.932571986690164" lon="-2.20805699005723">
        <ele>74.159999999999997</ele>
        <time>2023-08-18T09:04:16Z</time>
      </trkpt>
      <trkpt lat="56.934747006744146" lon="-2.207586010918021">
        <ele>76.079999999999998</ele>
        <time>2023-08-18T09:04:25Z</time>
      </trkpt>
      <trkpt lat="56.937196031212807" lon="-2.206878997385502">
        <ele>78.969999999999999</ele>
        <time>2023-08-18T09:04:36Z</time>
      </trkpt>
      <trkpt lat="56.939271977171302" lon="-2.206997014582157">
        <ele>77.519999999999996</ele>
        <time>2023-08-18T09:04:46Z</time>
      </trkpt>
      <trkpt lat="56.940960008651018" lon="-2.207307983189821">
        <ele>74.159999999999997</ele>
        <time>2023-08-18T09:04:56Z</time>
      </trkpt>
      <trkpt lat="56.941865002736449" lon="-2.207737974822521">
        <ele>71.760000000000005</ele>
        <time>2023-08-18T09:05:04Z</time>
      </trkpt>
      <trkpt lat="56.941915964707732" lon="-2.207768987864256">
        <ele>72.239999999999995</ele>
        <time>2023-08-18T09:05:05Z</time>
      </trkpt>
      <trkpt lat="56.941997017711401" lon="-2.207696987316012">
        <ele>72.239999999999995</ele>
        <time>2023-08-18T09:05:06Z</time>
      </trkpt>
      <trkpt lat="56.942021995782852" lon="-2.207607971504331">
        <ele>72.239999999999995</ele>
        <time>2023-08-18T09:05:07Z</time>
      </trkpt>
      <trkpt lat="56.942054014652967" lon="-2.207493977621198">
        <ele>72.719999999999999</ele>
        <time>2023-08-18T09:05:08Z</time>
      </trkpt>
      <trkpt lat="56.942088967189193" lon="-2.20736900344491">
        <ele>72.719999999999999</ele>
        <time>2023-08-18T09:05:09Z</time>
      </trkpt>
      <trkpt lat="56.942153004929423" lon="-2.207245035097003">
        <ele>72.719999999999999</ele>
        <time>2023-08-18T09:05:10Z</time>
      </trkpt>
      <trkpt lat="56.942234979942441" lon="-2.207198012620211">
        <ele>72.719999999999999</ele>
        <time>2023-08-18T09:05:11Z</time>
      </trkpt>
      <trkpt lat="56.942332964390516" lon="-2.20717404037714">
        <ele>72.719999999999999</ele>
        <time>2023-08-18T09:05:12Z</time>
      </trkpt>
      <trkpt lat="56.942441007122397" lon="-2.207163982093334">
        <ele>72.239999999999995</ele>
        <time>2023-08-18T09:05:13Z</time>
      </trkpt>
      <trkpt lat="56.942685004323721" lon="-2.207143027335405">
        <ele>70.790000000000006</ele>
        <time>2023-08-18T09:05:15Z</time>
      </trkpt>
      <trkpt lat="56.942820036783814" lon="-2.207160964608192">
        <ele>70.310000000000002</ele>
        <time>2023-08-18T09:05:16Z</time>
      </trkpt>
      <trkpt lat="56.943819997832179" lon="-2.207544017583132">
        <ele>68.870000000000005</ele>
        <time>2023-08-18T09:05:23Z</time>
      </trkpt>
      <trkpt lat="56.943962993100286" lon="-2.207533037289977">
        <ele>68.870000000000005</ele>
        <time>2023-08-18T09:05:24Z</time>
      </trkpt>
      <trkpt lat="56.94410003721714" lon="-2.207460030913353">
        <ele>68.390000000000001</ele>
        <time>2023-08-18T09:05:25Z</time>
      </trkpt>
      <trkpt lat="56.944235991686583" lon="-2.207387024536729">
        <ele>68.390000000000001</ele>
        <time>2023-08-18T09:05:26Z</time>
      </trkpt>
      <trkpt lat="56.944355014711618" lon="-2.207268001511693">
        <ele>68.390000000000001</ele>
        <time>2023-08-18T09:05:27Z</time>
      </trkpt>
      <trkpt lat="56.94446599110961" lon="-2.207142021507025">
        <ele>68.390000000000001</ele>
        <time>2023-08-18T09:05:28Z</time>
      </trkpt>
      <trkpt lat="56.944566993042827" lon="-2.207028027623892">
        <ele>67.909999999999997</ele>
        <time>2023-08-18T09:05:29Z</time>
      </trkpt>
      <trkpt lat="56.945033026859164" lon="-2.206498039886355">
        <ele>67.909999999999997</ele>
        <time>2023-08-18T09:05:36Z</time>
      </trkpt>
      <trkpt lat="56.945150960236788" lon="-2.206221017986536">
        <ele>66.469999999999999</ele>
        <time>2023-08-18T09:05:43Z</time>
      </trkpt>
      <trkpt lat="56.945091029629111" lon="-2.205896973609924">
        <ele>65.030000000000001</ele>
        <time>2023-08-18T09:05:51Z</time>
      </trkpt>
      <trkpt lat="56.945007964968681" lon="-2.20528501085937">
        <ele>64.069999999999993</ele>
        <time>2023-08-18T09:06:01Z</time>
      </trkpt>
      <trkpt lat="56.945019029080868" lon="-2.205237988382578">
        <ele>64.069999999999993</ele>
        <time>2023-08-18T09:06:13Z</time>
      </trkpt>
      <trkpt lat="56.945236958563328" lon="-2.205074038356543">
        <ele>63.100000000000001</ele>
        <time>2023-08-18T09:06:25Z</time>
      </trkpt>
      <trkpt lat="56.945256991311908" lon="-2.205146038904786">
        <ele>60.219999999999999</ele>
        <time>2023-08-18T09:06:37Z</time>
      </trkpt>
      <trkpt lat="56.945256991311908" lon="-2.205146038904786">
        <ele>60.219999999999999</ele>
        <time>2023-08-18T09:06:39Z</time>
      </trkpt>
      <trkpt lat="56.945069991052151" lon="-2.20522097311914">
        <ele>60.219999999999999</ele>
        <time>2023-08-18T09:06:47Z</time>
      </trkpt>
      <trkpt lat="56.9450259860605" lon="-2.205577958375216">
        <ele>60.700000000000003</ele>
        <time>2023-08-18T09:06:52Z</time>
      </trkpt>
      <trkpt lat="56.945166969671845" lon="-2.206344986334443">
        <ele>61.659999999999997</ele>
        <time>2023-08-18T09:07:02Z</time>
      </trkpt>
      <trkpt lat="56.945177027955651" lon="-2.206333000212908">
        <ele>61.659999999999997</ele>
        <time>2023-08-18T09:07:03Z</time>
      </trkpt>
      <trkpt lat="56.945190019905567" lon="-2.206319002434611">
        <ele>62.140000000000001</ele>
        <time>2023-08-18T09:07:04Z</time>
      </trkpt>
      <trkpt lat="56.945210974663496" lon="-2.206295030191541">
        <ele>62.619999999999997</ele>
        <time>2023-08-18T09:07:05Z</time>
      </trkpt>
      <trkpt lat="56.94524098187685" lon="-2.206260999664664">
        <ele>62.619999999999997</ele>
        <time>2023-08-18T09:07:06Z</time>
      </trkpt>
      <trkpt lat="56.945276018232107" lon="-2.206221017986536">
        <ele>63.100000000000001</ele>
        <time>2023-08-18T09:07:07Z</time>
      </trkpt>
      <trkpt lat="56.945409039035439" lon="-2.2061019949615">
        <ele>64.069999999999993</ele>
        <time>2023-08-18T09:07:15Z</time>
      </trkpt>
      <trkpt lat="56.94543301127851" lon="-2.206090008839965">
        <ele>64.549999999999997</ele>
        <time>2023-08-18T09:07:17Z</time>
      </trkpt>
      <trkpt lat="56.945444997400045" lon="-2.206083973869681">
        <ele>64.549999999999997</ele>
        <time>2023-08-18T09:07:18Z</time>
      </trkpt>
      <trkpt lat="56.945357993245125" lon="-2.206127978861332">
        <ele>65.030000000000001</ele>
        <time>2023-08-18T09:07:19Z</time>
      </trkpt>
      <trkpt lat="56.945425970479846" lon="-2.205936033278704">
        <ele>65.030000000000001</ele>
        <time>2023-08-18T09:07:20Z</time>
      </trkpt>
      <trkpt lat="56.945376014336944" lon="-2.20573402941227">
        <ele>65.989999999999995</ele>
        <time>2023-08-18T09:07:32Z</time>
      </trkpt>
      <trkpt lat="56.945372996851802" lon="-2.205725982785225">
        <ele>65.989999999999995</ele>
        <time>2023-08-18T09:33:15Z</time>
      </trkpt>
      <trkpt lat="56.945367967709899" lon="-2.205746015533805">
        <ele>70.790000000000006</ele>
        <time>2023-08-18T09:33:50Z</time>
      </trkpt>
      <trkpt lat="56.94536897353828" lon="-2.205717014148831">
        <ele>69.829999999999998</ele>
        <time>2023-08-18T09:34:33Z</time>
      </trkpt>
      <trkpt lat="56.945364028215408" lon="-2.20573503524065">
        <ele>69.349999999999994</ele>
        <time>2023-08-18T09:35:23Z</time>
      </trkpt>
      <trkpt lat="56.945364028215408" lon="-2.20573696307838">
        <ele>69.349999999999994</ele>
        <time>2023-08-18T09:36:10Z</time>
      </trkpt>
      <trkpt lat="56.945364028215408" lon="-2.20573503524065">
        <ele>69.349999999999994</ele>
        <time>2023-08-18T09:36:56Z</time>
      </trkpt>
      <trkpt lat="56.945366961881518" lon="-2.20573796890676">
        <ele>69.349999999999994</ele>
        <time>2023-08-18T09:37:46Z</time>
      </trkpt>
      <trkpt lat="56.945367967709899" lon="-2.205738974735141">
        <ele>69.349999999999994</ele>
        <time>2023-08-18T09:38:41Z</time>
      </trkpt>
      <trkpt lat="56.945343995466828" lon="-2.20577803440392">
        <ele>68.870000000000005</ele>
        <time>2023-08-18T09:38:49Z</time>
      </trkpt>
      <trkpt lat="56.945228995755315" lon="-2.206274997442961">
        <ele>67.909999999999997</ele>
        <time>2023-08-18T09:38:59Z</time>
      </trkpt>
      <trkpt lat="56.945198988541961" lon="-2.206308022141457">
        <ele>66.950000000000003</ele>
        <time>2023-08-18T09:39:04Z</time>
      </trkpt>
      <trkpt lat="56.945181973278522" lon="-2.206327971071005">
        <ele>66.469999999999999</ele>
        <time>2023-08-18T09:39:05Z</time>
      </trkpt>
      <trkpt lat="56.94515397772193" lon="-2.20635998994112">
        <ele>66.469999999999999</ele>
        <time>2023-08-18T09:39:06Z</time>
      </trkpt>
      <trkpt lat="56.945106033235788" lon="-2.206414975225925">
        <ele>66.469999999999999</ele>
        <time>2023-08-18T09:39:07Z</time>
      </trkpt>
      <trkpt lat="56.945062028244138" lon="-2.206464009359479">
        <ele>66.469999999999999</ele>
        <time>2023-08-18T09:39:08Z</time>
      </trkpt>
      <trkpt lat="56.945021962746978" lon="-2.206510026007891">
        <ele>65.989999999999995</ele>
        <time>2023-08-18T09:39:09Z</time>
      </trkpt>
      <trkpt lat="56.944930013269186" lon="-2.206613961607218">
        <ele>65.510000000000005</ele>
        <time>2023-08-18T09:39:11Z</time>
      </trkpt>
      <trkpt lat="56.94463798776269" lon="-2.206946974620223">
        <ele>63.100000000000001</ele>
        <time>2023-08-18T09:39:17Z</time>
      </trkpt>
      <trkpt lat="56.944574033841491" lon="-2.207018975168467">
        <ele>63.100000000000001</ele>
        <time>2023-08-18T09:39:18Z</time>
      </trkpt>
      <trkpt lat="56.944290976971388" lon="-2.207341007888317">
        <ele>62.619999999999997</ele>
        <time>2023-08-18T09:39:21Z</time>
      </trkpt>
      <trkpt lat="56.944172037765384" lon="-2.207420971244574">
        <ele>62.619999999999997</ele>
        <time>2023-08-18T09:39:22Z</time>
      </trkpt>
      <trkpt lat="56.944052008911967" lon="-2.207485008984804">
        <ele>62.619999999999997</ele>
        <time>2023-08-18T09:39:23Z</time>
      </trkpt>
      <trkpt lat="56.943934997543693" lon="-2.207544017583132">
        <ele>62.619999999999997</ele>
        <time>2023-08-18T09:39:24Z</time>
      </trkpt>
      <trkpt lat="56.943819997832179" lon="-2.207544017583132">
        <ele>63.100000000000001</ele>
        <time>2023-08-18T09:39:25Z</time>
      </trkpt>
      <trkpt lat="56.943706003949046" lon="-2.207544017583132">
        <ele>63.100000000000001</ele>
        <time>2023-08-18T09:39:26Z</time>
      </trkpt>
      <trkpt lat="56.943584969267249" lon="-2.207491965964437">
        <ele>63.100000000000001</ele>
        <time>2023-08-18T09:39:27Z</time>
      </trkpt>
      <trkpt lat="56.943459995090961" lon="-2.207437986508012">
        <ele>63.579999999999998</ele>
        <time>2023-08-18T09:39:28Z</time>
      </trkpt>
      <trkpt lat="56.942346962168813" lon="-2.207172028720379">
        <ele>65.510000000000005</ele>
        <time>2023-08-18T09:39:37Z</time>
      </trkpt>
      <trkpt lat="56.942256018519402" lon="-2.207186026498675">
        <ele>65.989999999999995</ele>
        <time>2023-08-18T09:39:38Z</time>
      </trkpt>
      <trkpt lat="56.942183012142777" lon="-2.207228019833565">
        <ele>66.950000000000003</ele>
        <time>2023-08-18T09:39:39Z</time>
      </trkpt>
      <trkpt lat="56.942118974402547" lon="-2.207263978198171">
        <ele>67.430000000000007</ele>
        <time>2023-08-18T09:39:40Z</time>
      </trkpt>
      <trkpt lat="56.942090978845954" lon="-2.207361962646246">
        <ele>67.909999999999997</ele>
        <time>2023-08-18T09:39:41Z</time>
      </trkpt>
      <trkpt lat="56.942069018259645" lon="-2.207439998164773">
        <ele>68.390000000000001</ele>
        <time>2023-08-18T09:39:42Z</time>
      </trkpt>
      <trkpt lat="56.942048985511065" lon="-2.207510992884636">
        <ele>68.870000000000005</ele>
        <time>2023-08-18T09:39:43Z</time>
      </trkpt>
      <trkpt lat="56.941990982741117" lon="-2.207717020064592">
        <ele>70.310000000000002</ele>
        <time>2023-08-18T09:39:47Z</time>
      </trkpt>
      <trkpt lat="56.941999029368162" lon="-2.207823973149061">
        <ele>70.790000000000006</ele>
        <time>2023-08-18T09:39:48Z</time>
      </trkpt>
      <trkpt lat="56.942049991339445" lon="-2.207860015332699">
        <ele>71.269999999999996</ele>
        <time>2023-08-18T09:39:49Z</time>
      </trkpt>
      <trkpt lat="56.942118974402547" lon="-2.207908965647221">
        <ele>71.760000000000005</ele>
        <time>2023-08-18T09:39:50Z</time>
      </trkpt>
      <trkpt lat="56.942203966900706" lon="-2.207968980073929">
        <ele>72.239999999999995</ele>
        <time>2023-08-18T09:39:51Z</time>
      </trkpt>
      <trkpt lat="56.942305974662304" lon="-2.208041986450553">
        <ele>72.719999999999999</ele>
        <time>2023-08-18T09:39:52Z</time>
      </trkpt>
      <trkpt lat="56.943226978182793" lon="-2.208904987201095">
        <ele>73.680000000000007</ele>
        <time>2023-08-18T09:39:59Z</time>
      </trkpt>
      <trkpt lat="56.944566993042827" lon="-2.210987973958254">
        <ele>78</ele>
        <time>2023-08-18T09:40:10Z</time>
      </trkpt>
      <trkpt lat="56.945511968806386" lon="-2.213416965678334">
        <ele>83.290000000000006</ele>
        <time>2023-08-18T09:40:19Z</time>
      </trkpt>
      <trkpt lat="56.946951979771256" lon="-2.217786032706499">
        <ele>90.019999999999996</ele>
        <time>2023-08-18T09:40:34Z</time>
      </trkpt>
      <trkpt lat="56.948147993534803" lon="-2.221482032909989">
        <ele>82.810000000000002</ele>
        <time>2023-08-18T09:40:46Z</time>
      </trkpt>
      <trkpt lat="56.949268989264965" lon="-2.225023973733187">
        <ele>71.269999999999996</ele>
        <time>2023-08-18T09:40:59Z</time>
      </trkpt>
      <trkpt lat="56.949521033093333" lon="-2.225831989198923">
        <ele>67.909999999999997</ele>
        <time>2023-08-18T09:41:04Z</time>
      </trkpt>
      <trkpt lat="56.949569983407855" lon="-2.225986970588565">
        <ele>65.989999999999995</ele>
        <time>2023-08-18T09:41:11Z</time>
      </trkpt>
      <trkpt lat="56.949693029746413" lon="-2.2260179836303">
        <ele>65.510000000000005</ele>
        <time>2023-08-18T09:41:15Z</time>
      </trkpt>
      <trkpt lat="56.949711972847581" lon="-2.225999040529132">
        <ele>65.510000000000005</ele>
        <time>2023-08-18T09:41:16Z</time>
      </trkpt>
      <trkpt lat="56.949756983667612" lon="-2.225955035537481">
        <ele>65.030000000000001</ele>
        <time>2023-08-18T09:41:17Z</time>
      </trkpt>
      <trkpt lat="56.94979403167963" lon="-2.225914970040321">
        <ele>65.030000000000001</ele>
        <time>2023-08-18T09:41:18Z</time>
      </trkpt>
      <trkpt lat="56.949857985600829" lon="-2.22584598697722">
        <ele>65.030000000000001</ele>
        <time>2023-08-18T09:41:19Z</time>
      </trkpt>
      <trkpt lat="56.949935015290976" lon="-2.225765017792583">
        <ele>65.030000000000001</ele>
        <time>2023-08-18T09:41:20Z</time>
      </trkpt>
      <trkpt lat="56.950025036931038" lon="-2.225668961182237">
        <ele>64.549999999999997</ele>
        <time>2023-08-18T09:41:21Z</time>
      </trkpt>
      <trkpt lat="56.950913015753031" lon="-2.224717028439045">
        <ele>60.700000000000003</ele>
        <time>2023-08-18T09:41:28Z</time>
      </trkpt>
      <trkpt lat="56.951761012896895" lon="-2.223889986053109">
        <ele>54.450000000000003</ele>
        <time>2023-08-18T09:41:35Z</time>
      </trkpt>
      <trkpt lat="56.951879030093551" lon="-2.22380499355495">
        <ele>53.490000000000002</ele>
        <time>2023-08-18T09:41:36Z</time>
      </trkpt>
      <trkpt lat="56.952251018956304" lon="-2.223537024110556">
        <ele>51.090000000000003</ele>
        <time>2023-08-18T09:41:39Z</time>
      </trkpt>
      <trkpt lat="56.952375993132591" lon="-2.223448008298874">
        <ele>50.609999999999999</ele>
        <time>2023-08-18T09:41:40Z</time>
      </trkpt>
      <trkpt lat="56.952494010329247" lon="-2.223363015800715">
        <ele>49.649999999999999</ele>
        <time>2023-08-18T09:41:41Z</time>
      </trkpt>
      <trkpt lat="56.952608004212379" lon="-2.22329000942409">
        <ele>49.159999999999997</ele>
        <time>2023-08-18T09:41:42Z</time>
      </trkpt>
      <trkpt lat="56.952723003923893" lon="-2.223264025524259">
        <ele>48.68</ele>
        <time>2023-08-18T09:41:43Z</time>
      </trkpt>
      <trkpt lat="56.952834986150265" lon="-2.22324701026082">
        <ele>48.200000000000003</ele>
        <time>2023-08-18T09:41:44Z</time>
      </trkpt>
      <trkpt lat="56.952945040538907" lon="-2.223238041624427">
        <ele>47.719999999999999</ele>
        <time>2023-08-18T09:41:45Z</time>
      </trkpt>
      <trkpt lat="56.953052999451756" lon="-2.223214991390705">
        <ele>47.719999999999999</ele>
        <time>2023-08-18T09:41:46Z</time>
      </trkpt>
      <trkpt lat="56.953144026920199" lon="-2.223112983629108">
        <ele>47.240000000000002</ele>
        <time>2023-08-18T09:41:47Z</time>
      </trkpt>
      <trkpt lat="56.953230025246739" lon="-2.222987003624439">
        <ele>47.240000000000002</ele>
        <time>2023-08-18T09:41:48Z</time>
      </trkpt>
      <trkpt lat="56.953295990824699" lon="-2.22281701862812">
        <ele>46.759999999999998</ele>
        <time>2023-08-18T09:41:49Z</time>
      </trkpt>
      <trkpt lat="56.953348964452744" lon="-2.222605040296912">
        <ele>46.759999999999998</ele>
        <time>2023-08-18T09:41:50Z</time>
      </trkpt>
      <trkpt lat="56.953392969444394" lon="-2.222384009510279">
        <ele>46.280000000000001</ele>
        <time>2023-08-18T09:41:51Z</time>
      </trkpt>
      <trkpt lat="56.953526996076107" lon="-2.221715971827507">
        <ele>45.32</ele>
        <time>2023-08-18T09:41:54Z</time>
      </trkpt>
      <trkpt lat="56.953567983582616" lon="-2.221512040123344">
        <ele>44.840000000000003</ele>
        <time>2023-08-18T09:41:55Z</time>
      </trkpt>
      <trkpt lat="56.953625986352563" lon="-2.2213139757514">
        <ele>44.359999999999999</ele>
        <time>2023-08-18T09:41:56Z</time>
      </trkpt>
      <trkpt lat="56.953712990507483" lon="-2.221160000190139">
        <ele>44.359999999999999</ele>
        <time>2023-08-18T09:41:57Z</time>
      </trkpt>
      <trkpt lat="56.953806029632688" lon="-2.220998983830214">
        <ele>43.880000000000003</ele>
        <time>2023-08-18T09:41:58Z</time>
      </trkpt>
      <trkpt lat="56.953903008252382" lon="-2.220827993005514">
        <ele>43.399999999999999</ele>
        <time>2023-08-18T09:41:59Z</time>
      </trkpt>
      <trkpt lat="56.95400501601398" lon="-2.220649961382151">
        <ele>42.920000000000002</ele>
        <time>2023-08-18T09:42:00Z</time>
      </trkpt>
      <trkpt lat="56.954110041260719" lon="-2.220456004142761">
        <ele>42.920000000000002</ele>
        <time>2023-08-18T09:42:01Z</time>
      </trkpt>
      <trkpt lat="56.955127017572522" lon="-2.218567980453372">
        <ele>40.030000000000001</ele>
        <time>2023-08-18T09:42:12Z</time>
      </trkpt>
      <trkpt lat="56.955233970656991" lon="-2.218461027368903">
        <ele>39.549999999999997</ele>
        <time>2023-08-18T09:42:13Z</time>
      </trkpt>
      <trkpt lat="56.955342013388872" lon="-2.218354996293783">
        <ele>39.549999999999997</ele>
        <time>2023-08-18T09:42:14Z</time>
      </trkpt>
      <trkpt lat="56.955658011138439" lon="-2.218207977712154">
        <ele>38.109999999999999</ele>
        <time>2023-08-18T09:42:17Z</time>
      </trkpt>
      <trkpt lat="56.955759013071656" lon="-2.218207977712154">
        <ele>37.630000000000003</ele>
        <time>2023-08-18T09:42:18Z</time>
      </trkpt>
      <trkpt lat="56.955855991691351" lon="-2.218247959390283">
        <ele>37.149999999999999</ele>
        <time>2023-08-18T09:42:19Z</time>
      </trkpt>
      <trkpt lat="56.955950036644936" lon="-2.21832700073719">
        <ele>36.670000000000002</ele>
        <time>2023-08-18T09:42:20Z</time>
      </trkpt>
      <trkpt lat="56.956065036356449" lon="-2.218422973528504">
        <ele>36.189999999999998</ele>
        <time>2023-08-18T09:42:21Z</time>
      </trkpt>
      <trkpt lat="56.956143993884325" lon="-2.218535039573908">
        <ele>35.710000000000001</ele>
        <time>2023-08-18T09:42:22Z</time>
      </trkpt>
      <trkpt lat="56.956224041059613" lon="-2.218650039285421">
        <ele>34.740000000000002</ele>
        <time>2023-08-18T09:42:23Z</time>
      </trkpt>
      <trkpt lat="56.956302998587489" lon="-2.218762021511793">
        <ele>34.259999999999998</ele>
        <time>2023-08-18T09:42:24Z</time>
      </trkpt>
      <trkpt lat="56.956366030499339" lon="-2.218851959332824">
        <ele>33.780000000000001</ele>
        <time>2023-08-18T09:42:25Z</time>
      </trkpt>
      <trkpt lat="56.956469966098666" lon="-2.218891019001603">
        <ele>33.299999999999997</ele>
        <time>2023-08-18T09:42:26Z</time>
      </trkpt>
      <trkpt lat="56.95654297247529" lon="-2.218914991244674">
        <ele>32.82</ele>
        <time>2023-08-18T09:42:27Z</time>
      </trkpt>
      <trkpt lat="56.956652021035552" lon="-2.218878027051687">
        <ele>32.340000000000003</ele>
        <time>2023-08-18T09:42:28Z</time>
      </trkpt>
      <trkpt lat="56.956740031018853" lon="-2.218835027888417">
        <ele>32.340000000000003</ele>
        <time>2023-08-18T09:42:29Z</time>
      </trkpt>
      <trkpt lat="56.956822006031871" lon="-2.218689015135169">
        <ele>31.859999999999999</ele>
        <time>2023-08-18T09:42:30Z</time>
      </trkpt>
      <trkpt lat="56.956909010186791" lon="-2.218535961583257">
        <ele>31.379999999999999</ele>
        <time>2023-08-18T09:42:31Z</time>
      </trkpt>
      <trkpt lat="56.956999031826854" lon="-2.218375029042363">
        <ele>30.899999999999999</ele>
        <time>2023-08-18T09:42:32Z</time>
      </trkpt>
      <trkpt lat="56.957091987133026" lon="-2.218209989368916">
        <ele>29.940000000000001</ele>
        <time>2023-08-18T09:42:33Z</time>
      </trkpt>
      <trkpt lat="56.957183014601469" lon="-2.21804897300899">
        <ele>28.98</ele>
        <time>2023-08-18T09:42:34Z</time>
      </trkpt>
      <trkpt lat="56.957273036241531" lon="-2.217888962477446">
        <ele>28.5</ele>
        <time>2023-08-18T09:42:35Z</time>
      </trkpt>
      <trkpt lat="56.957355011254549" lon="-2.21774403937161">
        <ele>27.530000000000001</ele>
        <time>2023-08-18T09:42:36Z</time>
      </trkpt>
      <trkpt lat="56.957444027066231" lon="-2.217613030225039">
        <ele>26.57</ele>
        <time>2023-08-18T09:42:37Z</time>
      </trkpt>
      <trkpt lat="56.957555003464222" lon="-2.217476991936564">
        <ele>25.609999999999999</ele>
        <time>2023-08-18T09:42:38Z</time>
      </trkpt>
      <trkpt lat="56.95813000202179" lon="-2.216776013374329">
        <ele>20.32</ele>
        <time>2023-08-18T09:42:43Z</time>
      </trkpt>
      <trkpt lat="56.958376010879874" lon="-2.216475019231439">
        <ele>17.920000000000002</ele>
        <time>2023-08-18T09:42:45Z</time>
      </trkpt>
      <trkpt lat="56.95849402807653" lon="-2.216331018134952">
        <ele>16.48</ele>
        <time>2023-08-18T09:42:46Z</time>
      </trkpt>
      <trkpt lat="56.959067014977336" lon="-2.215639008209109">
        <ele>10.710000000000001</ele>
        <time>2023-08-18T09:42:51Z</time>
      </trkpt>
      <trkpt lat="56.959168016910553" lon="-2.215555021539331">
        <ele>9.27</ele>
        <time>2023-08-18T09:42:52Z</time>
      </trkpt>
      <trkpt lat="56.959268013015389" lon="-2.215471034869552">
        <ele>8.310000000000001</ele>
        <time>2023-08-18T09:42:53Z</time>
      </trkpt>
      <trkpt lat="56.959546962752938" lon="-2.215239023789764">
        <ele>5.42</ele>
        <time>2023-08-18T09:42:56Z</time>
      </trkpt>
      <trkpt lat="56.959954993799329" lon="-2.215039031580091">
        <ele>2.54</ele>
        <time>2023-08-18T09:43:00Z</time>
      </trkpt>
      <trkpt lat="56.960055995732546" lon="-2.214989997446537">
        <ele>2.06</ele>
        <time>2023-08-18T09:43:01Z</time>
      </trkpt>
      <trkpt lat="56.960160015150905" lon="-2.214885978028178">
        <ele>1.58</ele>
        <time>2023-08-18T09:43:02Z</time>
      </trkpt>
      <trkpt lat="56.960261017084122" lon="-2.214784976094961">
        <ele>1.58</ele>
        <time>2023-08-18T09:43:03Z</time>
      </trkpt>
      <trkpt lat="56.960378028452396" lon="-2.214667964726687">
        <ele>1.1</ele>
        <time>2023-08-18T09:43:04Z</time>
      </trkpt>
      <trkpt lat="56.960443994030356" lon="-2.214548019692302">
        <ele>1.1</ele>
        <time>2023-08-18T09:43:05Z</time>
      </trkpt>
      <trkpt lat="56.960519012063742" lon="-2.214408963918686">
        <ele>0.62</ele>
        <time>2023-08-18T09:43:06Z</time>
      </trkpt>
      <trkpt lat="56.960749011486769" lon="-2.213989030569792">
        <ele>0.14</ele>
        <time>2023-08-18T09:43:09Z</time>
      </trkpt>
      <trkpt lat="56.960887983441353" lon="-2.213733969256282">
        <ele>0.14</ele>
        <time>2023-08-18T09:43:11Z</time>
      </trkpt>
      <trkpt lat="56.960931988433003" lon="-2.213563984259963">
        <ele>-0.34</ele>
        <time>2023-08-18T09:43:12Z</time>
      </trkpt>
      <trkpt lat="56.960972975939512" lon="-2.213398022577167">
        <ele>-0.34</ele>
        <time>2023-08-18T09:43:13Z</time>
      </trkpt>
      <trkpt lat="56.96105201728642" lon="-2.213073978200555">
        <ele>-0.82</ele>
        <time>2023-08-18T09:43:15Z</time>
      </trkpt>
      <trkpt lat="56.961084958165884" lon="-2.212938023731113">
        <ele>-1.3</ele>
        <time>2023-08-18T09:43:16Z</time>
      </trkpt>
      <trkpt lat="56.961137009784579" lon="-2.21282402984798">
        <ele>-1.79</ele>
        <time>2023-08-18T09:43:17Z</time>
      </trkpt>
      <trkpt lat="56.961210016161203" lon="-2.212776001542807">
        <ele>-2.27</ele>
        <time>2023-08-18T09:43:18Z</time>
      </trkpt>
      <trkpt lat="56.961300959810615" lon="-2.212714981287718">
        <ele>-2.75</ele>
        <time>2023-08-18T09:43:19Z</time>
      </trkpt>
      <trkpt lat="56.961644031107426" lon="-2.212486993521452">
        <ele>-3.71</ele>
        <time>2023-08-18T09:43:23Z</time>
      </trkpt>
      <trkpt lat="56.961712008342147" lon="-2.212423961609602">
        <ele>-4.19</ele>
        <time>2023-08-18T09:43:24Z</time>
      </trkpt>
      <trkpt lat="56.961770011112094" lon="-2.212342992424965">
        <ele>-4.67</ele>
        <time>2023-08-18T09:43:25Z</time>
      </trkpt>
      <trkpt lat="56.961802029982209" lon="-2.212233021855354">
        <ele>-4.67</ele>
        <time>2023-08-18T09:43:26Z</time>
      </trkpt>
      <trkpt lat="56.961814016103745" lon="-2.212115004658699">
        <ele>-4.67</ele>
        <time>2023-08-18T09:43:27Z</time>
      </trkpt>
      <trkpt lat="56.961809992790222" lon="-2.212006961926818">
        <ele>-5.15</ele>
        <time>2023-08-18T09:43:28Z</time>
      </trkpt>
      <trkpt lat="56.96180303581059" lon="-2.211892968043685">
        <ele>-5.15</ele>
        <time>2023-08-18T09:43:29Z</time>
      </trkpt>
      <trkpt lat="56.961794989183545" lon="-2.211784003302455">
        <ele>-5.15</ele>
        <time>2023-08-18T09:43:30Z</time>
      </trkpt>
      <trkpt lat="56.961781997233629" lon="-2.211575964465737">
        <ele>-5.15</ele>
        <time>2023-08-18T09:43:32Z</time>
      </trkpt>
      <trkpt lat="56.961775962263346" lon="-2.211491977795959">
        <ele>-5.15</ele>
        <time>2023-08-18T09:43:33Z</time>
      </trkpt>
      <trkpt lat="56.961732963100076" lon="-2.210799967870116">
        <ele>-6.11</ele>
        <time>2023-08-18T09:43:44Z</time>
      </trkpt>
      <trkpt lat="56.961678983643651" lon="-2.210070993751288">
        <ele>-5.63</ele>
        <time>2023-08-18T09:43:54Z</time>
      </trkpt>
      <trkpt lat="56.961648976430297" lon="-2.209729012101889">
        <ele>-5.15</ele>
        <time>2023-08-18T09:43:58Z</time>
      </trkpt>
      <trkpt lat="56.961601031944156" lon="-2.208819994702935">
        <ele>-5.15</ele>
        <time>2023-08-18T09:44:06Z</time>
      </trkpt>
      <trkpt lat="56.961625004187226" lon="-2.208698038011789">
        <ele>-4.67</ele>
        <time>2023-08-18T09:44:07Z</time>
      </trkpt>
      <trkpt lat="56.961665991693735" lon="-2.20861597917974">
        <ele>-4.19</ele>
        <time>2023-08-18T09:44:08Z</time>
      </trkpt>
      <trkpt lat="56.961712008342147" lon="-2.2085299808532">
        <ele>-4.19</ele>
        <time>2023-08-18T09:44:09Z</time>
      </trkpt>
      <trkpt lat="56.961754001677036" lon="-2.208514977246523">
        <ele>-3.71</ele>
        <time>2023-08-18T09:44:10Z</time>
      </trkpt>
      <trkpt lat="56.961787026375532" lon="-2.208502991124988">
        <ele>-3.71</ele>
        <time>2023-08-18T09:44:11Z</time>
      </trkpt>
      <trkpt lat="56.961812004446983" lon="-2.208493016660214">
        <ele>-3.71</ele>
        <time>2023-08-18T09:44:12Z</time>
      </trkpt>
      <trkpt lat="56.961828013882041" lon="-2.208487987518311">
        <ele>-3.71</ele>
        <time>2023-08-18T09:44:13Z</time>
      </trkpt>
      <trkpt lat="56.961834970861673" lon="-2.208484970033169">
        <ele>-3.71</ele>
        <time>2023-08-18T09:44:18Z</time>
      </trkpt>
      <trkpt lat="56.961861960589886" lon="-2.208474995568395">
        <ele>-3.23</ele>
        <time>2023-08-18T09:44:19Z</time>
      </trkpt>
      <trkpt lat="56.962151974439621" lon="-2.208381034433842">
        <ele>-2.75</ele>
        <time>2023-08-18T09:44:25Z</time>
      </trkpt>
      <trkpt lat="56.96219296194613" lon="-2.208367958664894">
        <ele>-2.75</ele>
        <time>2023-08-18T09:44:26Z</time>
      </trkpt>
      <trkpt lat="56.96253402158618" lon="-2.208272991701961">
        <ele>-1.79</ele>
        <time>2023-08-18T09:44:33Z</time>
      </trkpt>
      <trkpt lat="56.962592024356127" lon="-2.208256982266903">
        <ele>-1.3</ele>
        <time>2023-08-18T09:44:34Z</time>
      </trkpt>
      <trkpt lat="56.962895030155778" lon="-2.208176013082266">
        <ele>-0.34</ele>
        <time>2023-08-18T09:44:40Z</time>
      </trkpt>
      <trkpt lat="56.963028972968459" lon="-2.208147011697292">
        <ele>0.14</ele>
        <time>2023-08-18T09:44:43Z</time>
      </trkpt>
      <trkpt lat="56.963070966303349" lon="-2.208147011697292">
        <ele>0.14</ele>
        <time>2023-08-18T09:44:44Z</time>
      </trkpt>
      <trkpt lat="56.963124023750424" lon="-2.208152040839195">
        <ele>0.62</ele>
        <time>2023-08-18T09:44:51Z</time>
      </trkpt>
      <trkpt lat="56.963341031223536" lon="-2.208170983940363">
        <ele>-0.34</ele>
        <time>2023-08-18T09:45:00Z</time>
      </trkpt>
      <trkpt lat="56.963591985404491" lon="-2.208193028345704">
        <ele>0.14</ele>
        <time>2023-08-18T09:45:05Z</time>
      </trkpt>
      <trkpt lat="56.963640013709664" lon="-2.208196967840195">
        <ele>0.14</ele>
        <time>2023-08-18T09:45:06Z</time>
      </trkpt>
      <trkpt lat="56.963763982057571" lon="-2.208322025835514">
        <ele>0.14</ele>
        <time>2023-08-18T09:45:07Z</time>
      </trkpt>
      <trkpt lat="56.96376096457243" lon="-2.208396038040519">
        <ele>0.62</ele>
        <time>2023-08-18T09:45:08Z</time>
      </trkpt>
      <trkpt lat="56.96375803090632" lon="-2.208474995568395">
        <ele>0.62</ele>
        <time>2023-08-18T09:45:09Z</time>
      </trkpt>
      <trkpt lat="56.963755013421178" lon="-2.208561999723315">
        <ele>0.62</ele>
        <time>2023-08-18T09:45:10Z</time>
      </trkpt>
      <trkpt lat="56.963750990107656" lon="-2.208655960857868">
        <ele>1.1</ele>
        <time>2023-08-18T09:45:11Z</time>
      </trkpt>
      <trkpt lat="56.963747972622514" lon="-2.208748999983072">
        <ele>1.1</ele>
        <time>2023-08-18T09:45:12Z</time>
      </trkpt>
      <trkpt lat="56.963744033128023" lon="-2.208839021623135">
        <ele>1.1</ele>
        <time>2023-08-18T09:45:13Z</time>
      </trkpt>
      <trkpt lat="56.963726012036204" lon="-2.209317041561008">
        <ele>1.58</ele>
        <time>2023-08-18T09:45:18Z</time>
      </trkpt>
      <trkpt lat="56.963724000379443" lon="-2.20940999686718">
        <ele>1.58</ele>
        <time>2023-08-18T09:45:19Z</time>
      </trkpt>
      <trkpt lat="56.963721988722682" lon="-2.209501024335623">
        <ele>1.58</ele>
        <time>2023-08-18T09:45:20Z</time>
      </trkpt>
      <trkpt lat="56.96371897123754" lon="-2.20968802459538">
        <ele>2.06</ele>
        <time>2023-08-18T09:45:22Z</time>
      </trkpt>
      <trkpt lat="56.963716959580779" lon="-2.209776034578681">
        <ele>2.54</ele>
        <time>2023-08-18T09:45:23Z</time>
      </trkpt>
      <trkpt lat="56.963708996772766" lon="-2.210170989856124">
        <ele>3.5</ele>
        <time>2023-08-18T09:45:29Z</time>
      </trkpt>
      <trkpt lat="56.963690975680947" lon="-2.211109008640051">
        <ele>4.46</ele>
        <time>2023-08-18T09:45:38Z</time>
      </trkpt>
      <trkpt lat="56.96367496624589" lon="-2.212054990231991">
        <ele>5.91</ele>
        <time>2023-08-18T09:45:49Z</time>
      </trkpt>
      <trkpt lat="56.963669015094638" lon="-2.212487999349833">
        <ele>5.91</ele>
        <time>2023-08-18T09:45:55Z</time>
      </trkpt>
      <trkpt lat="56.963665997609496" lon="-2.212653961032629">
        <ele>5.91</ele>
        <time>2023-08-18T09:45:57Z</time>
      </trkpt>
      <trkpt lat="56.963664991781116" lon="-2.21273903734982">
        <ele>5.91</ele>
        <time>2023-08-18T09:45:58Z</time>
      </trkpt>
      <trkpt lat="56.963662980124354" lon="-2.212902987375855">
        <ele>5.91</ele>
        <time>2023-08-18T09:46:00Z</time>
      </trkpt>
      <trkpt lat="56.963660968467593" lon="-2.212994014844298">
        <ele>5.91</ele>
        <time>2023-08-18T09:46:01Z</time>
      </trkpt>
      <trkpt lat="56.963687958195806" lon="-2.21299896016717">
        <ele>5.91</ele>
        <time>2023-08-18T09:46:02Z</time>
      </trkpt>
      <trkpt lat="56.963726012036204" lon="-2.213006000965834">
        <ele>5.91</ele>
        <time>2023-08-18T09:46:03Z</time>
      </trkpt>
      <trkpt lat="56.963779991492629" lon="-2.213014969602227">
        <ele>5.91</ele>
        <time>2023-08-18T09:46:04Z</time>
      </trkpt>
      <trkpt lat="56.963842017576098" lon="-2.213026033714414">
        <ele>5.91</ele>
        <time>2023-08-18T09:46:05Z</time>
      </trkpt>
      <trkpt lat="56.963904965668917" lon="-2.213038019835949">
        <ele>5.91</ele>
        <time>2023-08-18T09:46:06Z</time>
      </trkpt>
      <trkpt lat="56.964101018384099" lon="-2.213071966543794">
        <ele>7.35</ele>
        <time>2023-08-18T09:46:09Z</time>
      </trkpt>
      <trkpt lat="56.964173018932343" lon="-2.21308495849371">
        <ele>7.83</ele>
        <time>2023-08-18T09:46:10Z</time>
      </trkpt>
      <trkpt lat="56.964262034744024" lon="-2.213100967928767">
        <ele>8.310000000000001</ele>
        <time>2023-08-18T09:46:11Z</time>
      </trkpt>
      <trkpt lat="56.964902998879552" lon="-2.21385701559484">
        <ele>11.67</ele>
        <time>2023-08-18T09:46:19Z</time>
      </trkpt>
      <trkpt lat="56.965055968612432" lon="-2.213960029184818">
        <ele>12.15</ele>
        <time>2023-08-18T09:46:20Z</time>
      </trkpt>
      <trkpt lat="56.965111037716269" lon="-2.213981989771128">
        <ele>12.630000000000001</ele>
        <time>2023-08-18T09:46:21Z</time>
      </trkpt>
      <trkpt lat="56.965446984395385" lon="-2.214116016402841">
        <ele>14.08</ele>
        <time>2023-08-18T09:46:24Z</time>
      </trkpt>
      <trkpt lat="56.965806987136602" lon="-2.214260017499328">
        <ele>16.48</ele>
        <time>2023-08-18T09:46:27Z</time>
      </trkpt>
      <trkpt lat="56.965901032090187" lon="-2.214370993897319">
        <ele>16.960000000000001</ele>
        <time>2023-08-18T09:46:28Z</time>
      </trkpt>
      <trkpt lat="56.966001028195024" lon="-2.214486999437213">
        <ele>17.440000000000001</ele>
        <time>2023-08-18T09:46:29Z</time>
      </trkpt>
      <trkpt lat="56.966104041785002" lon="-2.21460803411901">
        <ele>17.920000000000002</ele>
        <time>2023-08-18T09:46:30Z</time>
      </trkpt>
      <trkpt lat="56.966201020404696" lon="-2.214723033830524">
        <ele>18.399999999999999</ele>
        <time>2023-08-18T09:46:31Z</time>
      </trkpt>
      <trkpt lat="56.966301016509533" lon="-2.214839039370418">
        <ele>18.879999999999999</ele>
        <time>2023-08-18T09:46:32Z</time>
      </trkpt>
      <trkpt lat="56.966911973431706" lon="-2.215931033715606">
        <ele>22.73</ele>
        <time>2023-08-18T09:46:40Z</time>
      </trkpt>
      <trkpt lat="56.966966958716512" lon="-2.216101018711925">
        <ele>22.73</ele>
        <time>2023-08-18T09:46:41Z</time>
      </trkpt>
      <trkpt lat="56.967510022222996" lon="-2.217485038563609">
        <ele>24.170000000000002</ele>
        <time>2023-08-18T09:46:50Z</time>
      </trkpt>
      <trkpt lat="56.967686964198947" lon="-2.217802964150906">
        <ele>25.129999999999999</ele>
        <time>2023-08-18T09:46:54Z</time>
      </trkpt>
      <trkpt lat="56.967711020261049" lon="-2.217847974970937">
        <ele>25.609999999999999</ele>
        <time>2023-08-18T09:47:01Z</time>
      </trkpt>
      <trkpt lat="56.967711020261049" lon="-2.217847974970937">
        <ele>25.609999999999999</ele>
        <time>2023-08-18T09:47:46Z</time>
      </trkpt>
      <trkpt lat="56.967711020261049" lon="-2.217847974970937">
        <ele>25.609999999999999</ele>
        <time>2023-08-18T09:48:20Z</time>
      </trkpt>
      <trkpt lat="56.967934984713793" lon="-2.218252988532186">
        <ele>25.609999999999999</ele>
        <time>2023-08-18T09:48:28Z</time>
      </trkpt>
      <trkpt lat="56.968098012730479" lon="-2.218550965189934">
        <ele>25.129999999999999</ele>
        <time>2023-08-18T09:48:31Z</time>
      </trkpt>
      <trkpt lat="56.968154003843665" lon="-2.218652972951531">
        <ele>25.609999999999999</ele>
        <time>2023-08-18T09:48:32Z</time>
      </trkpt>
      <trkpt lat="56.96820798330009" lon="-2.218751963227987">
        <ele>25.129999999999999</ele>
        <time>2023-08-18T09:48:33Z</time>
      </trkpt>
      <trkpt lat="56.968259029090405" lon="-2.218847014009953">
        <ele>25.129999999999999</ele>
        <time>2023-08-18T09:48:34Z</time>
      </trkpt>
      <trkpt lat="56.968307979404926" lon="-2.218937035650015">
        <ele>25.609999999999999</ele>
        <time>2023-08-18T09:48:35Z</time>
      </trkpt>
      <trkpt lat="56.968592964112759" lon="-2.21944103948772">
        <ele>25.609999999999999</ele>
        <time>2023-08-18T09:48:40Z</time>
      </trkpt>
      <trkpt lat="56.968719027936459" lon="-2.21965704113245">
        <ele>25.129999999999999</ele>
        <time>2023-08-18T09:48:42Z</time>
      </trkpt>
      <trkpt lat="56.968785999342799" lon="-2.219777991995215">
        <ele>25.129999999999999</ele>
        <time>2023-08-18T09:48:43Z</time>
      </trkpt>
      <trkpt lat="56.968854982405901" lon="-2.219902966171503">
        <ele>24.649999999999999</ele>
        <time>2023-08-18T09:48:44Z</time>
      </trkpt>
      <trkpt lat="56.969629973173141" lon="-2.221262007951737">
        <ele>23.210000000000001</ele>
        <time>2023-08-18T09:48:54Z</time>
      </trkpt>
      <trkpt lat="56.96971395984292" lon="-2.221403997391462">
        <ele>23.210000000000001</ele>
        <time>2023-08-18T09:48:55Z</time>
      </trkpt>
      <trkpt lat="56.97039901278913" lon="-2.222606968134642">
        <ele>25.609999999999999</ele>
        <time>2023-08-18T09:49:05Z</time>
      </trkpt>
      <trkpt lat="56.971155982464552" lon="-2.223918987438083">
        <ele>28.5</ele>
        <time>2023-08-18T09:49:16Z</time>
      </trkpt>
      <trkpt lat="56.972070029005408" lon="-2.225552033632994">
        <ele>30.420000000000002</ele>
        <time>2023-08-18T09:49:26Z</time>
      </trkpt>
      <trkpt lat="56.972459033131599" lon="-2.226298023015261">
        <ele>31.379999999999999</ele>
        <time>2023-08-18T09:49:30Z</time>
      </trkpt>
      <trkpt lat="56.972517035901546" lon="-2.22651201300323">
        <ele>31.379999999999999</ele>
        <time>2023-08-18T09:49:31Z</time>
      </trkpt>
      <trkpt lat="56.973081976175308" lon="-2.228611009195447">
        <ele>31.859999999999999</ele>
        <time>2023-08-18T09:49:41Z</time>
      </trkpt>
      <trkpt lat="56.973338965326548" lon="-2.229623962193728">
        <ele>29.940000000000001</ele>
        <time>2023-08-18T09:49:48Z</time>
      </trkpt>
      <trkpt lat="56.973678013309836" lon="-2.230871021747589">
        <ele>30.420000000000002</ele>
        <time>2023-08-18T09:49:55Z</time>
      </trkpt>
      <trkpt lat="56.974444035440683" lon="-2.233549039810896">
        <ele>34.259999999999998</ele>
        <time>2023-08-18T09:50:07Z</time>
      </trkpt>
      <trkpt lat="56.974929012358189" lon="-2.235795976594091">
        <ele>32.82</ele>
        <time>2023-08-18T09:50:15Z</time>
      </trkpt>
      <trkpt lat="56.975100003182888" lon="-2.236665012314916">
        <ele>33.299999999999997</ele>
        <time>2023-08-18T09:50:21Z</time>
      </trkpt>
      <trkpt lat="56.975149037316442" lon="-2.236912027001381">
        <ele>33.299999999999997</ele>
        <time>2023-08-18T09:50:23Z</time>
      </trkpt>
      <trkpt lat="56.975176027044654" lon="-2.23704001866281">
        <ele>33.299999999999997</ele>
        <time>2023-08-18T09:50:24Z</time>
      </trkpt>
      <trkpt lat="56.975476015359163" lon="-2.236857041716576">
        <ele>34.259999999999998</ele>
        <time>2023-08-18T09:50:28Z</time>
      </trkpt>
      <trkpt lat="56.975303012877703" lon="-2.236671969294548">
        <ele>34.740000000000002</ele>
        <time>2023-08-18T09:50:33Z</time>
      </trkpt>
      <trkpt lat="56.975139984861016" lon="-2.236869027838111">
        <ele>35.229999999999997</ele>
        <time>2023-08-18T09:50:34Z</time>
      </trkpt>
      <trkpt lat="56.975161023437977" lon="-2.23697698675096">
        <ele>35.229999999999997</ele>
        <time>2023-08-18T09:50:35Z</time>
      </trkpt>
      <trkpt lat="56.975193964317441" lon="-2.237111013382673">
        <ele>35.229999999999997</ele>
        <time>2023-08-18T09:50:36Z</time>
      </trkpt>
      <trkpt lat="56.975226989015937" lon="-2.237243028357625">
        <ele>35.710000000000001</ele>
        <time>2023-08-18T09:50:37Z</time>
      </trkpt>
      <trkpt lat="56.975337965413928" lon="-2.237692968919873">
        <ele>36.670000000000002</ele>
        <time>2023-08-18T09:50:40Z</time>
      </trkpt>
      <trkpt lat="56.975382976233959" lon="-2.237875023856759">
        <ele>36.670000000000002</ele>
        <time>2023-08-18T09:50:41Z</time>
      </trkpt>
      <trkpt lat="56.975431004539132" lon="-2.23807099275291">
        <ele>37.149999999999999</ele>
        <time>2023-08-18T09:50:42Z</time>
      </trkpt>
      <trkpt lat="56.975480960682034" lon="-2.238272996619344">
        <ele>37.630000000000003</ele>
        <time>2023-08-18T09:50:43Z</time>
      </trkpt>
      <trkpt lat="56.97553301230073" lon="-2.238484974950552">
        <ele>38.109999999999999</ele>
        <time>2023-08-18T09:50:44Z</time>
      </trkpt>
      <trkpt lat="56.976098958402872" lon="-2.240680027753115">
        <ele>41.950000000000003</ele>
        <time>2023-08-18T09:50:54Z</time>
      </trkpt>
      <trkpt lat="56.97645896114409" lon="-2.241920968517661">
        <ele>46.280000000000001</ele>
        <time>2023-08-18T09:51:02Z</time>
      </trkpt>
      <trkpt lat="56.976539008319378" lon="-2.242048038169742">
        <ele>46.280000000000001</ele>
        <time>2023-08-18T09:51:03Z</time>
      </trkpt>
      <trkpt lat="56.97662802413106" lon="-2.242147028446198">
        <ele>46.280000000000001</ele>
        <time>2023-08-18T09:51:04Z</time>
      </trkpt>
      <trkpt lat="56.977695962414145" lon="-2.242878014221788">
        <ele>50.609999999999999</ele>
        <time>2023-08-18T09:51:12Z</time>
      </trkpt>
      <trkpt lat="56.978370035067201" lon="-2.243311023339629">
        <ele>54.450000000000003</ele>
        <time>2023-08-18T09:51:17Z</time>
      </trkpt>
      <trkpt lat="56.978638004511595" lon="-2.243515038862824">
        <ele>55.890000000000001</ele>
        <time>2023-08-18T09:51:19Z</time>
      </trkpt>
      <trkpt lat="56.978770019486547" lon="-2.243668008595705">
        <ele>56.859999999999999</ele>
        <time>2023-08-18T09:51:20Z</time>
      </trkpt>
      <trkpt lat="56.980047002434731" lon="-2.245544968172908">
        <ele>62.619999999999997</ele>
        <time>2023-08-18T09:51:30Z</time>
      </trkpt>
      <trkpt lat="56.980283036828041" lon="-2.246026005595923">
        <ele>63.100000000000001</ele>
        <time>2023-08-18T09:51:32Z</time>
      </trkpt>
      <trkpt lat="56.981169003993273" lon="-2.248292975127697">
        <ele>63.579999999999998</ele>
        <time>2023-08-18T09:51:40Z</time>
      </trkpt>
      <trkpt lat="56.982182040810585" lon="-2.250915002077818">
        <ele>62.619999999999997</ele>
        <time>2023-08-18T09:51:49Z</time>
      </trkpt>
      <trkpt lat="56.982835996896029" lon="-2.252606973052025">
        <ele>63.579999999999998</ele>
        <time>2023-08-18T09:51:55Z</time>
      </trkpt>
      <trkpt lat="56.983057027682662" lon="-2.253179037943482">
        <ele>63.579999999999998</ele>
        <time>2023-08-18T09:51:57Z</time>
      </trkpt>
      <trkpt lat="56.98397995904088" lon="-2.255500992760062">
        <ele>58.780000000000001</ele>
        <time>2023-08-18T09:52:05Z</time>
      </trkpt>
      <trkpt lat="56.985247973352671" lon="-2.258040960878134">
        <ele>52.530000000000001</ele>
        <time>2023-08-18T09:52:15Z</time>
      </trkpt>
      <trkpt lat="56.985724987462163" lon="-2.258897004649043">
        <ele>51.090000000000003</ele>
        <time>2023-08-18T09:52:19Z</time>
      </trkpt>
      <trkpt lat="56.985806040465832" lon="-2.259042011573911">
        <ele>50.609999999999999</ele>
        <time>2023-08-18T09:52:20Z</time>
      </trkpt>
      <trkpt lat="56.985830012708902" lon="-2.259282991290093">
        <ele>50.130000000000003</ele>
        <time>2023-08-18T09:52:21Z</time>
      </trkpt>
      <trkpt lat="56.985853984951973" lon="-2.259515002369881">
        <ele>49.159999999999997</ele>
        <time>2023-08-18T09:52:22Z</time>
      </trkpt>
      <trkpt lat="56.985878963023424" lon="-2.259758999571204">
        <ele>48.200000000000003</ele>
        <time>2023-08-18T09:52:23Z</time>
      </trkpt>
      <trkpt lat="56.985934032127261" lon="-2.260151021182537">
        <ele>46.759999999999998</ele>
        <time>2023-08-18T09:52:25Z</time>
      </trkpt>
      <trkpt lat="56.985984994098544" lon="-2.260293010622263">
        <ele>46.759999999999998</ele>
        <time>2023-08-18T09:52:26Z</time>
      </trkpt>
      <trkpt lat="56.986046014353633" lon="-2.260347995907068">
        <ele>46.280000000000001</ele>
        <time>2023-08-18T09:52:27Z</time>
      </trkpt>
      <trkpt lat="56.986135030165315" lon="-2.260383032262325">
        <ele>46.280000000000001</ele>
        <time>2023-08-18T09:52:28Z</time>
      </trkpt>
      <trkpt lat="56.986239971593022" lon="-2.260424019768834">
        <ele>45.799999999999997</ele>
        <time>2023-08-18T09:52:29Z</time>
      </trkpt>
      <trkpt lat="56.986363017931581" lon="-2.260471964254975">
        <ele>45.799999999999997</ele>
        <time>2023-08-18T09:52:30Z</time>
      </trkpt>
      <trkpt lat="56.986496038734913" lon="-2.260524015873671">
        <ele>45.799999999999997</ele>
        <time>2023-08-18T09:52:31Z</time>
      </trkpt>
      <trkpt lat="56.987172961235046" lon="-2.260755021125078">
        <ele>47.719999999999999</ele>
        <time>2023-08-18T09:52:36Z</time>
      </trkpt>
      <trkpt lat="56.987290978431702" lon="-2.260742029175162">
        <ele>48.200000000000003</ele>
        <time>2023-08-18T09:52:37Z</time>
      </trkpt>
      <trkpt lat="56.987396003678441" lon="-2.260655025020242">
        <ele>48.68</ele>
        <time>2023-08-18T09:52:38Z</time>
      </trkpt>
      <trkpt lat="56.987494993954897" lon="-2.260534996166825">
        <ele>49.159999999999997</ele>
        <time>2023-08-18T09:52:39Z</time>
      </trkpt>
      <trkpt lat="56.987592978402972" lon="-2.260414967313409">
        <ele>49.649999999999999</ele>
        <time>2023-08-18T09:52:40Z</time>
      </trkpt>
      <trkpt lat="56.987685011699796" lon="-2.260302985087037">
        <ele>50.609999999999999</ele>
        <time>2023-08-18T09:52:41Z</time>
      </trkpt>
      <trkpt lat="56.987766986712813" lon="-2.26020198315382">
        <ele>51.090000000000003</ele>
        <time>2023-08-18T09:52:42Z</time>
      </trkpt>
      <trkpt lat="56.987908976152539" lon="-2.26002898067236">
        <ele>51.57</ele>
        <time>2023-08-18T09:52:44Z</time>
      </trkpt>
      <trkpt lat="56.988014001399279" lon="-2.260036021471024">
        <ele>52.049999999999997</ele>
        <time>2023-08-18T09:52:45Z</time>
      </trkpt>
      <trkpt lat="56.988110980018973" lon="-2.260042978450656">
        <ele>52.530000000000001</ele>
        <time>2023-08-18T09:52:46Z</time>
      </trkpt>
      <trkpt lat="56.988227991387248" lon="-2.260051025077701">
        <ele>53.009999999999998</ele>
        <time>2023-08-18T09:52:47Z</time>
      </trkpt>
      <trkpt lat="56.988354977220297" lon="-2.2601149789989">
        <ele>53.009999999999998</ele>
        <time>2023-08-18T09:52:48Z</time>
      </trkpt>
      <trkpt lat="56.988480035215616" lon="-2.26017901673913">
        <ele>53.490000000000002</ele>
        <time>2023-08-18T09:52:49Z</time>
      </trkpt>
      <trkpt lat="56.989621985703707" lon="-2.261118963360786">
        <ele>58.299999999999997</ele>
        <time>2023-08-18T09:52:58Z</time>
      </trkpt>
      <trkpt lat="56.989727010950446" lon="-2.26127696223557">
        <ele>59.259999999999998</ele>
        <time>2023-08-18T09:52:59Z</time>
      </trkpt>
      <trkpt lat="56.989809991791844" lon="-2.261465974152088">
        <ele>60.700000000000003</ele>
        <time>2023-08-18T09:53:00Z</time>
      </trkpt>
      <trkpt lat="56.989893978461623" lon="-2.261690022423863">
        <ele>61.18</ele>
        <time>2023-08-18T09:53:01Z</time>
      </trkpt>
      <trkpt lat="56.989980982616544" lon="-2.261923039332032">
        <ele>62.619999999999997</ele>
        <time>2023-08-18T09:53:02Z</time>
      </trkpt>
      <trkpt lat="56.990056000649929" lon="-2.262182040140033">
        <ele>63.100000000000001</ele>
        <time>2023-08-18T09:53:03Z</time>
      </trkpt>
      <trkpt lat="56.990406028926373" lon="-2.263579973950982">
        <ele>66.469999999999999</ele>
        <time>2023-08-18T09:53:08Z</time>
      </trkpt>
      <trkpt lat="56.990494038909674" lon="-2.26381097920239">
        <ele>66.950000000000003</ele>
        <time>2023-08-18T09:53:09Z</time>
      </trkpt>
      <trkpt lat="56.990609960630536" lon="-2.264009965583682">
        <ele>67.430000000000007</ele>
        <time>2023-08-18T09:53:10Z</time>
      </trkpt>
      <trkpt lat="56.990979015827179" lon="-2.264641961082816">
        <ele>68.870000000000005</ele>
        <time>2023-08-18T09:53:13Z</time>
      </trkpt>
      <trkpt lat="56.991885015740991" lon="-2.26686199195683">
        <ele>71.760000000000005</ele>
        <time>2023-08-18T09:53:21Z</time>
      </trkpt>
      <trkpt lat="56.991952992975712" lon="-2.267109006643295">
        <ele>71.760000000000005</ele>
        <time>2023-08-18T09:53:22Z</time>
      </trkpt>
      <trkpt lat="56.992006972432137" lon="-2.267343029379845">
        <ele>71.760000000000005</ele>
        <time>2023-08-18T09:53:23Z</time>
      </trkpt>
      <trkpt lat="56.992006972432137" lon="-2.26757001131773">
        <ele>71.269999999999996</ele>
        <time>2023-08-18T09:53:24Z</time>
      </trkpt>
      <trkpt lat="56.992006972432137" lon="-2.267806967720389">
        <ele>71.269999999999996</ele>
        <time>2023-08-18T09:53:25Z</time>
      </trkpt>
      <trkpt lat="56.991990962997079" lon="-2.268070997670293">
        <ele>71.269999999999996</ele>
        <time>2023-08-18T09:53:26Z</time>
      </trkpt>
      <trkpt lat="56.991848973557353" lon="-2.26958803832531">
        <ele>68.390000000000001</ele>
        <time>2023-08-18T09:53:31Z</time>
      </trkpt>
      <trkpt lat="56.991663984954357" lon="-2.270864015445113">
        <ele>66.950000000000003</ele>
        <time>2023-08-18T09:53:35Z</time>
      </trkpt>
      <trkpt lat="56.991663984954357" lon="-2.271181019023061">
        <ele>66.950000000000003</ele>
        <time>2023-08-18T09:53:36Z</time>
      </trkpt>
      <trkpt lat="56.991677982732654" lon="-2.274347031489015">
        <ele>65.989999999999995</ele>
        <time>2023-08-18T09:53:46Z</time>
      </trkpt>
      <trkpt lat="56.991937989369035" lon="-2.27715203538537">
        <ele>72.239999999999995</ele>
        <time>2023-08-18T09:53:55Z</time>
      </trkpt>
      <trkpt lat="56.992841977626085" lon="-2.280404968187213">
        <ele>78.480000000000004</ele>
        <time>2023-08-18T09:54:05Z</time>
      </trkpt>
      <trkpt lat="56.993874041363597" lon="-2.282554004341364">
        <ele>80.890000000000001</ele>
        <time>2023-08-18T09:54:13Z</time>
      </trkpt>
      <trkpt lat="56.994874002411962" lon="-2.283755969256163">
        <ele>83.769999999999996</ele>
        <time>2023-08-18T09:54:20Z</time>
      </trkpt>
      <trkpt lat="56.995220007374883" lon="-2.28404900059104">
        <ele>84.730000000000004</ele>
        <time>2023-08-18T09:54:24Z</time>
      </trkpt>
      <trkpt lat="56.995275998488069" lon="-2.284096023067832">
        <ele>85.209999999999994</ele>
        <time>2023-08-18T09:54:25Z</time>
      </trkpt>
      <trkpt lat="56.995311034843326" lon="-2.284126030281186">
        <ele>85.689999999999998</ele>
        <time>2023-08-18T09:54:26Z</time>
      </trkpt>
      <trkpt lat="56.99534397572279" lon="-2.284214040264487">
        <ele>86.180000000000007</ele>
        <time>2023-08-18T09:54:27Z</time>
      </trkpt>
      <trkpt lat="56.995368031784892" lon="-2.284276988357306">
        <ele>86.180000000000007</ele>
        <time>2023-08-18T09:54:28Z</time>
      </trkpt>
      <trkpt lat="56.995375994592905" lon="-2.28432803414762">
        <ele>86.180000000000007</ele>
        <time>2023-08-18T09:54:29Z</time>
      </trkpt>
      <trkpt lat="56.995375994592905" lon="-2.284430041909218">
        <ele>86.659999999999997</ele>
        <time>2023-08-18T09:54:30Z</time>
      </trkpt>
      <trkpt lat="56.995372977107763" lon="-2.284518973901868">
        <ele>86.659999999999997</ele>
        <time>2023-08-18T09:54:31Z</time>
      </trkpt>
      <trkpt lat="56.995337018743157" lon="-2.284597009420395">
        <ele>86.659999999999997</ele>
        <time>2023-08-18T09:54:32Z</time>
      </trkpt>
      <trkpt lat="56.995269041508436" lon="-2.284748973324895">
        <ele>86.659999999999997</ele>
        <time>2023-08-18T09:54:33Z</time>
      </trkpt>
      <trkpt lat="56.995225958526134" lon="-2.284752996638417">
        <ele>86.659999999999997</ele>
        <time>2023-08-18T09:54:34Z</time>
      </trkpt>
      <trkpt lat="56.995119005441666" lon="-2.284763976931572">
        <ele>86.659999999999997</ele>
        <time>2023-08-18T09:54:35Z</time>
      </trkpt>
      <trkpt lat="56.994991013780236" lon="-2.284775963053107">
        <ele>87.140000000000001</ele>
        <time>2023-08-18T09:54:36Z</time>
      </trkpt>
      <trkpt lat="56.994159026071429" lon="-2.28516697883606">
        <ele>88.579999999999998</ele>
        <time>2023-08-18T09:54:42Z</time>
      </trkpt>
      <trkpt lat="56.994088031351566" lon="-2.285220958292484">
        <ele>89.060000000000002</ele>
        <time>2023-08-18T09:54:43Z</time>
      </trkpt>
      <trkpt lat="56.99398803524673" lon="-2.285365965217352">
        <ele>89.540000000000006</ele>
        <time>2023-08-18T09:54:44Z</time>
      </trkpt>
      <trkpt lat="56.993894996121526" lon="-2.285499991849065">
        <ele>90.019999999999996</ele>
        <time>2023-08-18T09:54:45Z</time>
      </trkpt>
      <trkpt lat="56.993854008615017" lon="-2.285634018480778">
        <ele>90.5</ele>
        <time>2023-08-18T09:54:46Z</time>
      </trkpt>
      <trkpt lat="56.993808997794986" lon="-2.285809032619">
        <ele>90.980000000000004</ele>
        <time>2023-08-18T09:54:47Z</time>
      </trkpt>
      <trkpt lat="56.993808997794986" lon="-2.286009024828672">
        <ele>91.459999999999994</ele>
        <time>2023-08-18T09:54:48Z</time>
      </trkpt>
      <trkpt lat="56.993817966431379" lon="-2.28621899150312">
        <ele>92.420000000000002</ele>
        <time>2023-08-18T09:54:49Z</time>
      </trkpt>
      <trkpt lat="56.993937995284796" lon="-2.287895958870649">
        <ele>96.75</ele>
        <time>2023-08-18T09:54:56Z</time>
      </trkpt>
      <trkpt lat="56.993931960314512" lon="-2.291507972404361">
        <ele>110.69</ele>
        <time>2023-08-18T09:55:08Z</time>
      </trkpt>
      <trkpt lat="56.994051989167929" lon="-2.294618999585509">
        <ele>119.81999999999999</ele>
        <time>2023-08-18T09:55:17Z</time>
      </trkpt>
      <trkpt lat="56.994145028293133" lon="-2.298638038337231">
        <ele>129.91999999999999</ele>
        <time>2023-08-18T09:55:28Z</time>
      </trkpt>
      <trkpt lat="56.994126001372933" lon="-2.298913970589638">
        <ele>130.88</ele>
        <time>2023-08-18T09:55:29Z</time>
      </trkpt>
      <trkpt lat="56.99407797306776" lon="-2.299155034124851">
        <ele>131.36000000000001</ele>
        <time>2023-08-18T09:55:30Z</time>
      </trkpt>
      <trkpt lat="56.993992980569601" lon="-2.299365000799298">
        <ele>132.31999999999999</ele>
        <time>2023-08-18T09:55:31Z</time>
      </trkpt>
      <trkpt lat="56.993885021656752" lon="-2.299588965252042">
        <ele>132.80000000000001</ele>
        <time>2023-08-18T09:55:32Z</time>
      </trkpt>
      <trkpt lat="56.993778990581632" lon="-2.299831034615636">
        <ele>133.28</ele>
        <time>2023-08-18T09:55:33Z</time>
      </trkpt>
      <trkpt lat="56.993683017790318" lon="-2.300094980746508">
        <ele>133.28</ele>
        <time>2023-08-18T09:55:34Z</time>
      </trkpt>
      <trkpt lat="56.993308011442423" lon="-2.302014017477632">
        <ele>136.63999999999999</ele>
        <time>2023-08-18T09:55:41Z</time>
      </trkpt>
      <trkpt lat="56.992870979011059" lon="-2.30445901863277">
        <ele>140.97</ele>
        <time>2023-08-18T09:55:50Z</time>
      </trkpt>
      <trkpt lat="56.991940001025796" lon="-2.306835958734155">
        <ele>143.37</ele>
        <time>2023-08-18T09:56:00Z</time>
      </trkpt>
      <trkpt lat="56.991202980279922" lon="-2.309174006804824">
        <ele>142.88999999999999</ele>
        <time>2023-08-18T09:56:08Z</time>
      </trkpt>
      <trkpt lat="56.990753039717674" lon="-2.310833958908916">
        <ele>141.93000000000001</ele>
        <time>2023-08-18T09:56:13Z</time>
      </trkpt>
      <trkpt lat="56.990700988098979" lon="-2.311158003285527">
        <ele>141.44999999999999</ele>
        <time>2023-08-18T09:56:14Z</time>
      </trkpt>
      <trkpt lat="56.990652959793806" lon="-2.311483975499868">
        <ele>140.97</ele>
        <time>2023-08-18T09:56:15Z</time>
      </trkpt>
      <trkpt lat="56.99063703417778" lon="-2.311795027926564">
        <ele>140.97</ele>
        <time>2023-08-18T09:56:16Z</time>
      </trkpt>
      <trkpt lat="56.990646002814174" lon="-2.312076995149255">
        <ele>140.49000000000001</ele>
        <time>2023-08-18T09:56:17Z</time>
      </trkpt>
      <trkpt lat="56.990670980885625" lon="-2.312313029542565">
        <ele>140.00999999999999</ele>
        <time>2023-08-18T09:56:18Z</time>
      </trkpt>
      <trkpt lat="56.990736024454236" lon="-2.31253900565207">
        <ele>139.53</ele>
        <time>2023-08-18T09:56:19Z</time>
      </trkpt>
      <trkpt lat="56.990810036659241" lon="-2.312775040045381">
        <ele>139.05000000000001</ele>
        <time>2023-08-18T09:56:20Z</time>
      </trkpt>
      <trkpt lat="56.990906009450555" lon="-2.313021970912814">
        <ele>138.56999999999999</ele>
        <time>2023-08-18T09:56:21Z</time>
      </trkpt>
      <trkpt lat="56.991809997707605" lon="-2.315416010096669">
        <ele>137.13</ele>
        <time>2023-08-18T09:56:29Z</time>
      </trkpt>
      <trkpt lat="56.991903958842158" lon="-2.315728990361095">
        <ele>136.63999999999999</ele>
        <time>2023-08-18T09:56:30Z</time>
      </trkpt>
      <trkpt lat="56.991973025724292" lon="-2.316056974232197">
        <ele>137.13</ele>
        <time>2023-08-18T09:56:31Z</time>
      </trkpt>
      <trkpt lat="56.992041002959013" lon="-2.316378001123667">
        <ele>137.13</ele>
        <time>2023-08-18T09:56:32Z</time>
      </trkpt>
      <trkpt lat="56.992074027657509" lon="-2.316720988601446">
        <ele>137.13</ele>
        <time>2023-08-18T09:56:33Z</time>
      </trkpt>
      <trkpt lat="56.992101017385721" lon="-2.317070011049509">
        <ele>136.63999999999999</ele>
        <time>2023-08-18T09:56:34Z</time>
      </trkpt>
      <trkpt lat="56.992419026792049" lon="-2.320797024294734">
        <ele>134.24000000000001</ele>
        <time>2023-08-18T09:56:45Z</time>
      </trkpt>
      <trkpt lat="56.992464959621429" lon="-2.321110004559159">
        <ele>134.24000000000001</ele>
        <time>2023-08-18T09:56:46Z</time>
      </trkpt>
      <trkpt lat="56.992539977654815" lon="-2.321406975388527">
        <ele>133.75999999999999</ele>
        <time>2023-08-18T09:56:47Z</time>
      </trkpt>
      <trkpt lat="56.992627987638116" lon="-2.321695983409882">
        <ele>133.75999999999999</ele>
        <time>2023-08-18T09:56:48Z</time>
      </trkpt>
      <trkpt lat="56.992735024541616" lon="-2.321955990046263">
        <ele>133.28</ele>
        <time>2023-08-18T09:56:49Z</time>
      </trkpt>
      <trkpt lat="56.992847006767988" lon="-2.322215996682644">
        <ele>133.28</ele>
        <time>2023-08-18T09:56:50Z</time>
      </trkpt>
      <trkpt lat="56.992980027571321" lon="-2.322457982227206">
        <ele>132.80000000000001</ele>
        <time>2023-08-18T09:56:51Z</time>
      </trkpt>
      <trkpt lat="56.993362996727228" lon="-2.32315300963819">
        <ele>132.80000000000001</ele>
        <time>2023-08-18T09:56:54Z</time>
      </trkpt>
      <trkpt lat="56.993483025580645" lon="-2.323372028768063">
        <ele>132.31999999999999</ele>
        <time>2023-08-18T09:56:55Z</time>
      </trkpt>
      <trkpt lat="56.993578998371959" lon="-2.323638992384076">
        <ele>132.80000000000001</ele>
        <time>2023-08-18T09:56:56Z</time>
      </trkpt>
      <trkpt lat="56.993658039718866" lon="-2.323931017890573">
        <ele>132.80000000000001</ele>
        <time>2023-08-18T09:56:57Z</time>
      </trkpt>
      <trkpt lat="56.993738003075123" lon="-2.32422798871994">
        <ele>133.28</ele>
        <time>2023-08-18T09:56:58Z</time>
      </trkpt>
      <trkpt lat="56.993830958381295" lon="-2.324573993682861">
        <ele>133.28</ele>
        <time>2023-08-18T09:56:59Z</time>
      </trkpt>
      <trkpt lat="56.993872029706836" lon="-2.32487297616899">
        <ele>133.28</ele>
        <time>2023-08-18T09:57:00Z</time>
      </trkpt>
      <trkpt lat="56.993917962536216" lon="-2.325209006667137">
        <ele>133.28</ele>
        <time>2023-08-18T09:57:01Z</time>
      </trkpt>
      <trkpt lat="56.99416296556592" lon="-2.327261986210942">
        <ele>135.19999999999999</ele>
        <time>2023-08-18T09:57:07Z</time>
      </trkpt>
      <trkpt lat="56.994446022436023" lon="-2.330446019768715">
        <ele>140.49000000000001</ele>
        <time>2023-08-18T09:57:16Z</time>
      </trkpt>
      <trkpt lat="56.994444010779262" lon="-2.330790013074875">
        <ele>140.97</ele>
        <time>2023-08-18T09:57:17Z</time>
      </trkpt>
      <trkpt lat="56.994425989687443" lon="-2.331131994724274">
        <ele>141.44999999999999</ele>
        <time>2023-08-18T09:57:18Z</time>
      </trkpt>
      <trkpt lat="56.994204958900809" lon="-2.335244994610548">
        <ele>144.34</ele>
        <time>2023-08-18T09:57:30Z</time>
      </trkpt>
      <trkpt lat="56.994133964180946" lon="-2.336436985060573">
        <ele>144.34</ele>
        <time>2023-08-18T09:57:34Z</time>
      </trkpt>
      <trkpt lat="56.994104040786624" lon="-2.336721969768405">
        <ele>144.34</ele>
        <time>2023-08-18T09:57:35Z</time>
      </trkpt>
      <trkpt lat="56.993485959246755" lon="-2.339306026697159">
        <ele>145.78</ele>
        <time>2023-08-18T09:57:44Z</time>
      </trkpt>
      <trkpt lat="56.99336601421237" lon="-2.340085040777922">
        <ele>145.30000000000001</ele>
        <time>2023-08-18T09:57:47Z</time>
      </trkpt>
      <trkpt lat="56.993378000333905" lon="-2.340321997180581">
        <ele>145.30000000000001</ele>
        <time>2023-08-18T09:57:48Z</time>
      </trkpt>
      <trkpt lat="56.99340901337564" lon="-2.340575968846679">
        <ele>144.81999999999999</ele>
        <time>2023-08-18T09:57:49Z</time>
      </trkpt>
      <trkpt lat="56.993458969518542" lon="-2.340843016281724">
        <ele>144.81999999999999</ele>
        <time>2023-08-18T09:57:50Z</time>
      </trkpt>
      <trkpt lat="56.993513032793999" lon="-2.341125989332795">
        <ele>144.81999999999999</ele>
        <time>2023-08-18T09:57:51Z</time>
      </trkpt>
      <trkpt lat="56.993575980886817" lon="-2.341408962383866">
        <ele>144.81999999999999</ele>
        <time>2023-08-18T09:57:52Z</time>
      </trkpt>
      <trkpt lat="56.994016030803323" lon="-2.342878980562091">
        <ele>143.37</ele>
        <time>2023-08-18T09:57:57Z</time>
      </trkpt>
      <trkpt lat="56.99409699998796" lon="-2.343193972483277">
        <ele>143.37</ele>
        <time>2023-08-18T09:57:58Z</time>
      </trkpt>
      <trkpt lat="56.994180986657739" lon="-2.343522040173411">
        <ele>143.37</ele>
        <time>2023-08-18T09:57:59Z</time>
      </trkpt>
      <trkpt lat="56.995167033746839" lon="-2.347056018188596">
        <ele>145.78</ele>
        <time>2023-08-18T09:58:10Z</time>
      </trkpt>
      <trkpt lat="56.99538798071444" lon="-2.347614001482725">
        <ele>146.25999999999999</ele>
        <time>2023-08-18T09:58:12Z</time>
      </trkpt>
      <trkpt lat="56.995510021224618" lon="-2.347875013947487">
        <ele>146.25999999999999</ele>
        <time>2023-08-18T09:58:13Z</time>
      </trkpt>
      <trkpt lat="56.996735958382487" lon="-2.349679972976446">
        <ele>150.58000000000001</ele>
        <time>2023-08-18T09:58:21Z</time>
      </trkpt>
      <trkpt lat="56.997751006856561" lon="-2.351166000589728">
        <ele>154.43000000000001</ele>
        <time>2023-08-18T09:58:28Z</time>
      </trkpt>
      <trkpt lat="56.998554999008775" lon="-2.353402962908149">
        <ele>159.72</ele>
        <time>2023-08-18T09:58:37Z</time>
      </trkpt>
      <trkpt lat="56.999408025294542" lon="-2.354902988299727">
        <ele>163.08000000000001</ele>
        <time>2023-08-18T09:58:43Z</time>
      </trkpt>
      <trkpt lat="57.00060898438096" lon="-2.356223976239562">
        <ele>166.44999999999999</ele>
        <time>2023-08-18T09:58:50Z</time>
      </trkpt>
      <trkpt lat="57.001978000625968" lon="-2.356808027252555">
        <ele>170.77000000000001</ele>
        <time>2023-08-18T09:58:57Z</time>
      </trkpt>
      <trkpt lat="57.003412982448936" lon="-2.357985014095902">
        <ele>175.09999999999999</ele>
        <time>2023-08-18T09:59:05Z</time>
      </trkpt>
      <trkpt lat="57.005970971658826" lon="-2.360495980829001">
        <ele>180.38</ele>
        <time>2023-08-18T09:59:19Z</time>
      </trkpt>
      <trkpt lat="57.008227966725826" lon="-2.362711988389492">
        <ele>189.03999999999999</ele>
        <time>2023-08-18T09:59:31Z</time>
      </trkpt>
      <trkpt lat="57.010053964331746" lon="-2.364561036229134">
        <ele>200.56999999999999</ele>
        <time>2023-08-18T09:59:42Z</time>
      </trkpt>
      <trkpt lat="57.011462962254882" lon="-2.3666160274297">
        <ele>208.25999999999999</ele>
        <time>2023-08-18T09:59:51Z</time>
      </trkpt>
      <trkpt lat="57.012845976278186" lon="-2.368391985073686">
        <ele>215.94999999999999</ele>
        <time>2023-08-18T09:59:59Z</time>
      </trkpt>
      <trkpt lat="57.014309037476778" lon="-2.3699039965868">
        <ele>225.09</ele>
        <time>2023-08-18T10:00:08Z</time>
      </trkpt>
      <trkpt lat="57.014441974461079" lon="-2.370103988796473">
        <ele>226.05000000000001</ele>
        <time>2023-08-18T10:00:09Z</time>
      </trkpt>
      <trkpt lat="57.014682032167912" lon="-2.370586032047868">
        <ele>228.44999999999999</ele>
        <time>2023-08-18T10:00:11Z</time>
      </trkpt>
      <trkpt lat="57.014790996909142" lon="-2.370866993442178">
        <ele>229.41</ele>
        <time>2023-08-18T10:00:12Z</time>
      </trkpt>
      <trkpt lat="57.015537992119789" lon="-2.373451972380281">
        <ele>233.25999999999999</ele>
        <time>2023-08-18T10:00:20Z</time>
      </trkpt>
      <trkpt lat="57.015599012374878" lon="-2.373727988451719">
        <ele>233.25999999999999</ele>
        <time>2023-08-18T10:00:21Z</time>
      </trkpt>
      <trkpt lat="57.015637988224626" lon="-2.374026970937848">
        <ele>233.25999999999999</ele>
        <time>2023-08-18T10:00:22Z</time>
      </trkpt>
      <trkpt lat="57.015675958245993" lon="-2.374326037243009">
        <ele>232.78</ele>
        <time>2023-08-18T10:00:23Z</time>
      </trkpt>
      <trkpt lat="57.015694985166192" lon="-2.37465200945735">
        <ele>232.30000000000001</ele>
        <time>2023-08-18T10:00:24Z</time>
      </trkpt>
      <trkpt lat="57.015714012086391" lon="-2.374985022470355">
        <ele>231.33000000000001</ele>
        <time>2023-08-18T10:00:25Z</time>
      </trkpt>
      <trkpt lat="57.016080971807241" lon="-2.377309994772077">
        <ele>225.09</ele>
        <time>2023-08-18T10:00:32Z</time>
      </trkpt>
      <trkpt lat="57.016798965632915" lon="-2.380276015028358">
        <ele>213.06999999999999</ele>
        <time>2023-08-18T10:00:41Z</time>
      </trkpt>
      <trkpt lat="57.017109012231231" lon="-2.381860027089715">
        <ele>206.81999999999999</ele>
        <time>2023-08-18T10:00:46Z</time>
      </trkpt>
      <trkpt lat="57.017145976424217" lon="-2.382154986262322">
        <ele>205.38</ele>
        <time>2023-08-18T10:00:47Z</time>
      </trkpt>
      <trkpt lat="57.017176989465952" lon="-2.384112998843193">
        <ele>196.72999999999999</ele>
        <time>2023-08-18T10:00:54Z</time>
      </trkpt>
      <trkpt lat="57.017147988080978" lon="-2.384391026571393">
        <ele>195.77000000000001</ele>
        <time>2023-08-18T10:00:55Z</time>
      </trkpt>
      <trkpt lat="57.017098031938076" lon="-2.384660001844168">
        <ele>194.80000000000001</ele>
        <time>2023-08-18T10:00:56Z</time>
      </trkpt>
      <trkpt lat="57.016539964824915" lon="-2.386760003864765">
        <ele>188.56</ele>
        <time>2023-08-18T10:01:02Z</time>
      </trkpt>
      <trkpt lat="57.015932025387883" lon="-2.389171980321407">
        <ele>184.22999999999999</ele>
        <time>2023-08-18T10:01:08Z</time>
      </trkpt>
      <trkpt lat="57.015356021001935" lon="-2.391981007531285">
        <ele>178.94</ele>
        <time>2023-08-18T10:01:17Z</time>
      </trkpt>
      <trkpt lat="57.015162985771894" lon="-2.393261007964611">
        <ele>180.87</ele>
        <time>2023-08-18T10:01:23Z</time>
      </trkpt>
      <trkpt lat="57.01517597772181" lon="-2.393406014889479">
        <ele>181.83000000000001</ele>
        <time>2023-08-18T10:01:24Z</time>
      </trkpt>
      <trkpt lat="57.01521503739059" lon="-2.393552027642727">
        <ele>182.31</ele>
        <time>2023-08-18T10:01:25Z</time>
      </trkpt>
      <trkpt lat="57.015262981876731" lon="-2.393684964627028">
        <ele>182.31</ele>
        <time>2023-08-18T10:01:26Z</time>
      </trkpt>
      <trkpt lat="57.015351997688413" lon="-2.393773980438709">
        <ele>182.31</ele>
        <time>2023-08-18T10:01:27Z</time>
      </trkpt>
      <trkpt lat="57.015468003228307" lon="-2.393827959895134">
        <ele>182.31</ele>
        <time>2023-08-18T10:01:28Z</time>
      </trkpt>
      <trkpt lat="57.015604041516781" lon="-2.393872970715165">
        <ele>182.31</ele>
        <time>2023-08-18T10:01:29Z</time>
      </trkpt>
      <trkpt lat="57.015762040391564" lon="-2.393885962665081">
        <ele>182.31</ele>
        <time>2023-08-18T10:01:30Z</time>
      </trkpt>
      <trkpt lat="57.015934959053993" lon="-2.393890991806984">
        <ele>181.83000000000001</ele>
        <time>2023-08-18T10:01:31Z</time>
      </trkpt>
      <trkpt lat="57.017313027754426" lon="-2.393884034827352">
        <ele>176.06</ele>
        <time>2023-08-18T10:01:39Z</time>
      </trkpt>
      <trkpt lat="57.017456023022532" lon="-2.39392502233386">
        <ele>175.58000000000001</ele>
        <time>2023-08-18T10:01:40Z</time>
      </trkpt>
      <trkpt lat="57.0176010299474" lon="-2.394046979025006">
        <ele>175.09999999999999</ele>
        <time>2023-08-18T10:01:41Z</time>
      </trkpt>
      <trkpt lat="57.017747964709997" lon="-2.394171031191945">
        <ele>174.62</ele>
        <time>2023-08-18T10:01:42Z</time>
      </trkpt>
      <trkpt lat="57.017894983291626" lon="-2.394294999539852">
        <ele>174.13999999999999</ele>
        <time>2023-08-18T10:01:43Z</time>
      </trkpt>
      <trkpt lat="57.019225023686886" lon="-2.395788989961147">
        <ele>167.41</ele>
        <time>2023-08-18T10:01:53Z</time>
      </trkpt>
      <trkpt lat="57.019323008134961" lon="-2.396007003262639">
        <ele>166.93000000000001</ele>
        <time>2023-08-18T10:01:54Z</time>
      </trkpt>
      <trkpt lat="57.01938696205616" lon="-2.396284025162458">
        <ele>165.96000000000001</ele>
        <time>2023-08-18T10:01:55Z</time>
      </trkpt>
      <trkpt lat="57.019453011453152" lon="-2.39656800404191">
        <ele>165.47999999999999</ele>
        <time>2023-08-18T10:01:56Z</time>
      </trkpt>
      <trkpt lat="57.019521994516253" lon="-2.396863969042897">
        <ele>164.52000000000001</ele>
        <time>2023-08-18T10:01:57Z</time>
      </trkpt>
      <trkpt lat="57.020076038315892" lon="-2.39938298240304">
        <ele>159.24000000000001</ele>
        <time>2023-08-18T10:02:04Z</time>
      </trkpt>
      <trkpt lat="57.020445009693503" lon="-2.40155297331512">
        <ele>153.94999999999999</ele>
        <time>2023-08-18T10:02:10Z</time>
      </trkpt>
      <trkpt lat="57.020604014396667" lon="-2.404009038582444">
        <ele>149.13999999999999</ele>
        <time>2023-08-18T10:02:17Z</time>
      </trkpt>
      <trkpt lat="57.02099896967411" lon="-2.406911021098495">
        <ele>142.41</ele>
        <time>2023-08-18T10:02:25Z</time>
      </trkpt>
      <trkpt lat="57.02103903517127" lon="-2.407878041267395">
        <ele>140.49000000000001</ele>
        <time>2023-08-18T10:02:28Z</time>
      </trkpt>
      <trkpt lat="57.02103903517127" lon="-2.408186998218298">
        <ele>139.53</ele>
        <time>2023-08-18T10:02:29Z</time>
      </trkpt>
      <trkpt lat="57.020899979397655" lon="-2.410244001075625">
        <ele>134.72</ele>
        <time>2023-08-18T10:02:36Z</time>
      </trkpt>
      <trkpt lat="57.0208889991045" lon="-2.410405017435551">
        <ele>134.24000000000001</ele>
        <time>2023-08-18T10:02:37Z</time>
      </trkpt>
      <trkpt lat="57.020937027409673" lon="-2.410568967461586">
        <ele>133.75999999999999</ele>
        <time>2023-08-18T10:02:38Z</time>
      </trkpt>
      <trkpt lat="57.020980026572943" lon="-2.410712968558073">
        <ele>132.80000000000001</ele>
        <time>2023-08-18T10:02:39Z</time>
      </trkpt>
      <trkpt lat="57.021034006029367" lon="-2.410799972712994">
        <ele>132.31999999999999</ele>
        <time>2023-08-18T10:02:40Z</time>
      </trkpt>
      <trkpt lat="57.021116986870766" lon="-2.410868033766747">
        <ele>131.84</ele>
        <time>2023-08-18T10:02:41Z</time>
      </trkpt>
      <trkpt lat="57.021206002682447" lon="-2.410941040143371">
        <ele>131.36000000000001</ele>
        <time>2023-08-18T10:02:42Z</time>
      </trkpt>
      <trkpt lat="57.021304992958903" lon="-2.410965012386441">
        <ele>130.88</ele>
        <time>2023-08-18T10:02:43Z</time>
      </trkpt>
      <trkpt lat="57.021420998498797" lon="-2.410968029871583">
        <ele>130.40000000000001</ele>
        <time>2023-08-18T10:02:44Z</time>
      </trkpt>
      <trkpt lat="57.02234803698957" lon="-2.41092000156641">
        <ele>125.11</ele>
        <time>2023-08-18T10:02:51Z</time>
      </trkpt>
      <trkpt lat="57.023224029690027" lon="-2.41059796884656">
        <ele>121.73999999999999</ele>
        <time>2023-08-18T10:02:57Z</time>
      </trkpt>
      <trkpt lat="57.02335998415947" lon="-2.41059796884656">
        <ele>120.78</ele>
        <time>2023-08-18T10:02:58Z</time>
      </trkpt>
      <trkpt lat="57.023490993306041" lon="-2.410613978281617">
        <ele>120.3</ele>
        <time>2023-08-18T10:02:59Z</time>
      </trkpt>
      <trkpt lat="57.023612027987838" lon="-2.410686984658241">
        <ele>120.3</ele>
        <time>2023-08-18T10:03:00Z</time>
      </trkpt>
      <trkpt lat="57.023717975243926" lon="-2.410772982984781">
        <ele>119.81999999999999</ele>
        <time>2023-08-18T10:03:01Z</time>
      </trkpt>
      <trkpt lat="57.023813026025891" lon="-2.410894017666578">
        <ele>119.34</ele>
        <time>2023-08-18T10:03:02Z</time>
      </trkpt>
      <trkpt lat="57.023867005482316" lon="-2.411056961864233">
        <ele>118.38</ele>
        <time>2023-08-18T10:03:03Z</time>
      </trkpt>
      <trkpt lat="57.023911010473967" lon="-2.411253014579415">
        <ele>117.90000000000001</ele>
        <time>2023-08-18T10:03:04Z</time>
      </trkpt>
      <trkpt lat="57.023944035172462" lon="-2.411473039537668">
        <ele>117.42</ele>
        <time>2023-08-18T10:03:05Z</time>
      </trkpt>
      <trkpt lat="57.024016035720706" lon="-2.411952987313271">
        <ele>116.45999999999999</ele>
        <time>2023-08-18T10:03:07Z</time>
      </trkpt>
      <trkpt lat="57.024076972156763" lon="-2.412182986736298">
        <ele>115.98</ele>
        <time>2023-08-18T10:03:08Z</time>
      </trkpt>
      <trkpt lat="57.024209992960095" lon="-2.412643991410732">
        <ele>114.53</ele>
        <time>2023-08-18T10:03:10Z</time>
      </trkpt>
      <trkpt lat="57.024285010993481" lon="-2.412859993055463">
        <ele>113.56999999999999</ele>
        <time>2023-08-18T10:03:11Z</time>
      </trkpt>
      <trkpt lat="57.024387018755078" lon="-2.413052022457123">
        <ele>112.61</ele>
        <time>2023-08-18T10:03:12Z</time>
      </trkpt>
      <trkpt lat="57.024856992065907" lon="-2.413940001279116">
        <ele>109.25</ele>
        <time>2023-08-18T10:03:17Z</time>
      </trkpt>
      <trkpt lat="57.024980960413814" lon="-2.414174024015665">
        <ele>108.29000000000001</ele>
        <time>2023-08-18T10:03:19Z</time>
      </trkpt>
      <trkpt lat="57.025029994547367" lon="-2.414266979321837">
        <ele>108.29000000000001</ele>
        <time>2023-08-18T10:03:20Z</time>
      </trkpt>
      <trkpt lat="57.025097971782088" lon="-2.414277037605643">
        <ele>107.81</ele>
        <time>2023-08-18T10:03:21Z</time>
      </trkpt>
      <trkpt lat="57.025191010907292" lon="-2.414282988756895">
        <ele>107.31999999999999</ele>
        <time>2023-08-18T10:03:22Z</time>
      </trkpt>
      <trkpt lat="57.025296958163381" lon="-2.414231020957232">
        <ele>107.31999999999999</ele>
        <time>2023-08-18T10:03:23Z</time>
      </trkpt>
      <trkpt lat="57.025417992845178" lon="-2.414170000702143">
        <ele>107.31999999999999</ele>
        <time>2023-08-18T10:03:24Z</time>
      </trkpt>
      <trkpt lat="57.026500012725592" lon="-2.413751995190978">
        <ele>107.81</ele>
        <time>2023-08-18T10:03:31Z</time>
      </trkpt>
      <trkpt lat="57.026989012956619" lon="-2.413567006587982">
        <ele>107.81</ele>
        <time>2023-08-18T10:03:34Z</time>
      </trkpt>
      <trkpt lat="57.027298975735903" lon="-2.413316974416375">
        <ele>107.31999999999999</ele>
        <time>2023-08-18T10:03:36Z</time>
      </trkpt>
      <trkpt lat="57.02815099619329" lon="-2.412693025544286">
        <ele>105.88</ele>
        <time>2023-08-18T10:03:42Z</time>
      </trkpt>
      <trkpt lat="57.029039980843663" lon="-2.412518011406064">
        <ele>103.95999999999999</ele>
        <time>2023-08-18T10:03:48Z</time>
      </trkpt>
      <trkpt lat="57.029166966676712" lon="-2.412558998912573">
        <ele>103.48</ele>
        <time>2023-08-18T10:03:49Z</time>
      </trkpt>
      <trkpt lat="57.029281966388226" lon="-2.412647008895874">
        <ele>103</ele>
        <time>2023-08-18T10:03:50Z</time>
      </trkpt>
      <trkpt lat="57.029396966099739" lon="-2.412735018879175">
        <ele>103</ele>
        <time>2023-08-18T10:03:51Z</time>
      </trkpt>
      <trkpt lat="57.029500985518098" lon="-2.412893017753959">
        <ele>103</ele>
        <time>2023-08-18T10:03:52Z</time>
      </trkpt>
      <trkpt lat="57.029608022421598" lon="-2.413064008578658">
        <ele>102.52</ele>
        <time>2023-08-18T10:03:53Z</time>
      </trkpt>
      <trkpt lat="57.029709024354815" lon="-2.413271041586995">
        <ele>103</ele>
        <time>2023-08-18T10:03:54Z</time>
      </trkpt>
      <trkpt lat="57.029812037944794" lon="-2.413488971069455">
        <ele>102.52</ele>
        <time>2023-08-18T10:03:55Z</time>
      </trkpt>
      <trkpt lat="57.030644025653601" lon="-2.415359979495406">
        <ele>108.29000000000001</ele>
        <time>2023-08-18T10:04:03Z</time>
      </trkpt>
      <trkpt lat="57.030718037858605" lon="-2.415627026930451">
        <ele>108.77</ele>
        <time>2023-08-18T10:04:04Z</time>
      </trkpt>
      <trkpt lat="57.031155992299318" lon="-2.418048977851868">
        <ele>113.56999999999999</ele>
        <time>2023-08-18T10:04:12Z</time>
      </trkpt>
      <trkpt lat="57.031287001445889" lon="-2.418746016919613">
        <ele>114.53</ele>
        <time>2023-08-18T10:04:15Z</time>
      </trkpt>
      <trkpt lat="57.03135397285223" lon="-2.418889012187719">
        <ele>114.53</ele>
        <time>2023-08-18T10:04:16Z</time>
      </trkpt>
      <trkpt lat="57.031423961743712" lon="-2.419003006070852">
        <ele>114.53</ele>
        <time>2023-08-18T10:04:17Z</time>
      </trkpt>
      <trkpt lat="57.031496968120337" lon="-2.419087998569012">
        <ele>114.53</ele>
        <time>2023-08-18T10:04:18Z</time>
      </trkpt>
      <trkpt lat="57.031598975881934" lon="-2.419138960540295">
        <ele>114.53</ele>
        <time>2023-08-18T10:04:19Z</time>
      </trkpt>
      <trkpt lat="57.031711963936687" lon="-2.419158993288875">
        <ele>115.01000000000001</ele>
        <time>2023-08-18T10:04:20Z</time>
      </trkpt>
      <trkpt lat="57.031840039417148" lon="-2.419158993288875">
        <ele>115.01000000000001</ele>
        <time>2023-08-18T10:04:21Z</time>
      </trkpt>
      <trkpt lat="57.031966019421816" lon="-2.419154969975352">
        <ele>115.01000000000001</ele>
        <time>2023-08-18T10:04:22Z</time>
      </trkpt>
      <trkpt lat="57.032074984163046" lon="-2.419060003012419">
        <ele>115.01000000000001</ele>
        <time>2023-08-18T10:04:23Z</time>
      </trkpt>
      <trkpt lat="57.032172968611121" lon="-2.418935028836131">
        <ele>115.5</ele>
        <time>2023-08-18T10:04:24Z</time>
      </trkpt>
      <trkpt lat="57.032268019393086" lon="-2.418759008869529">
        <ele>115.5</ele>
        <time>2023-08-18T10:04:25Z</time>
      </trkpt>
      <trkpt lat="57.032371032983065" lon="-2.418566979467869">
        <ele>115.98</ele>
        <time>2023-08-18T10:04:26Z</time>
      </trkpt>
      <trkpt lat="57.033283989876509" lon="-2.416649032384157">
        <ele>117.90000000000001</ele>
        <time>2023-08-18T10:04:34Z</time>
      </trkpt>
      <trkpt lat="57.033411981537938" lon="-2.416455997154117">
        <ele>118.38</ele>
        <time>2023-08-18T10:04:35Z</time>
      </trkpt>
      <trkpt lat="57.033546008169651" lon="-2.416282994672656">
        <ele>118.86</ele>
        <time>2023-08-18T10:04:36Z</time>
      </trkpt>
      <trkpt lat="57.033683974295855" lon="-2.416103035211563">
        <ele>119.34</ele>
        <time>2023-08-18T10:04:37Z</time>
      </trkpt>
      <trkpt lat="57.035214006900787" lon="-2.413990963250399">
        <ele>123.19</ele>
        <time>2023-08-18T10:04:47Z</time>
      </trkpt>
      <trkpt lat="57.035895958542824" lon="-2.412871979176998">
        <ele>124.63</ele>
        <time>2023-08-18T10:04:52Z</time>
      </trkpt>
      <trkpt lat="57.03603501431644" lon="-2.412758991122246">
        <ele>124.63</ele>
        <time>2023-08-18T10:04:53Z</time>
      </trkpt>
      <trkpt lat="57.036173986271024" lon="-2.412655977532268">
        <ele>124.63</ele>
        <time>2023-08-18T10:04:54Z</time>
      </trkpt>
      <trkpt lat="57.03631698153913" lon="-2.412550030276179">
        <ele>124.63</ele>
        <time>2023-08-18T10:04:55Z</time>
      </trkpt>
      <trkpt lat="57.036472968757153" lon="-2.412536032497883">
        <ele>124.15000000000001</ele>
        <time>2023-08-18T10:04:56Z</time>
      </trkpt>
      <trkpt lat="57.03661797568202" lon="-2.412523040547967">
        <ele>123.67</ele>
        <time>2023-08-18T10:04:57Z</time>
      </trkpt>
      <trkpt lat="57.036771029233932" lon="-2.412508958950639">
        <ele>123.67</ele>
        <time>2023-08-18T10:04:58Z</time>
      </trkpt>
      <trkpt lat="57.036913018673658" lon="-2.412582971155644">
        <ele>123.19</ele>
        <time>2023-08-18T10:04:59Z</time>
      </trkpt>
      <trkpt lat="57.037060959264636" lon="-2.412673998624086">
        <ele>122.70999999999999</ele>
        <time>2023-08-18T10:05:00Z</time>
      </trkpt>
      <trkpt lat="57.038131998851895" lon="-2.413603970780969">
        <ele>121.26000000000001</ele>
        <time>2023-08-18T10:05:07Z</time>
      </trkpt>
      <trkpt lat="57.039080997928977" lon="-2.415569024160504">
        <ele>121.73999999999999</ele>
        <time>2023-08-18T10:05:15Z</time>
      </trkpt>
      <trkpt lat="57.039571003988385" lon="-2.416960000991821">
        <ele>122.22</ele>
        <time>2023-08-18T10:05:20Z</time>
      </trkpt>
      <trkpt lat="57.039687009528279" lon="-2.417148007079959">
        <ele>121.73999999999999</ele>
        <time>2023-08-18T10:05:21Z</time>
      </trkpt>
      <trkpt lat="57.039804020896554" lon="-2.41727801039815">
        <ele>121.73999999999999</ele>
        <time>2023-08-18T10:05:22Z</time>
      </trkpt>
      <trkpt lat="57.03994701616466" lon="-2.417355040088296">
        <ele>121.26000000000001</ele>
        <time>2023-08-18T10:05:23Z</time>
      </trkpt>
      <trkpt lat="57.040091017261147" lon="-2.417423017323017">
        <ele>121.26000000000001</ele>
        <time>2023-08-18T10:05:24Z</time>
      </trkpt>
      <trkpt lat="57.040254967287183" lon="-2.417438020929694">
        <ele>121.26000000000001</ele>
        <time>2023-08-18T10:05:25Z</time>
      </trkpt>
      <trkpt lat="57.04200997017324" lon="-2.41751303896308">
        <ele>118.86</ele>
        <time>2023-08-18T10:05:34Z</time>
      </trkpt>
      <trkpt lat="57.044106032699347" lon="-2.417293014004827">
        <ele>110.20999999999999</ele>
        <time>2023-08-18T10:05:44Z</time>
      </trkpt>
      <trkpt lat="57.045539002865553" lon="-2.41616103798151">
        <ele>102.04000000000001</ele>
        <time>2023-08-18T10:05:51Z</time>
      </trkpt>
      <trkpt lat="57.046751026064157" lon="-2.414095988497138">
        <ele>90.980000000000004</ele>
        <time>2023-08-18T10:05:59Z</time>
      </trkpt>
      <trkpt lat="57.048019040375948" lon="-2.411625003442168">
        <ele>79.450000000000003</ele>
        <time>2023-08-18T10:06:09Z</time>
      </trkpt>
      <trkpt lat="57.049305997788906" lon="-2.410150961950421">
        <ele>70.310000000000002</ele>
        <time>2023-08-18T10:06:17Z</time>
      </trkpt>
      <trkpt lat="57.050869977101684" lon="-2.409405978396535">
        <ele>60.700000000000003</ele>
        <time>2023-08-18T10:06:25Z</time>
      </trkpt>
      <trkpt lat="57.052583992481232" lon="-2.409525001421571">
        <ele>48.68</ele>
        <time>2023-08-18T10:06:34Z</time>
      </trkpt>
      <trkpt lat="57.054527001455426" lon="-2.410109974443913">
        <ele>42.439999999999998</ele>
        <time>2023-08-18T10:06:44Z</time>
      </trkpt>
      <trkpt lat="57.055407017469406" lon="-2.410931987687945">
        <ele>41.469999999999999</ele>
        <time>2023-08-18T10:06:49Z</time>
      </trkpt>
      <trkpt lat="57.055542971938848" lon="-2.411082023754716">
        <ele>40.990000000000002</ele>
        <time>2023-08-18T10:06:50Z</time>
      </trkpt>
      <trkpt lat="57.056215032935143" lon="-2.411838993430138">
        <ele>40.990000000000002</ele>
        <time>2023-08-18T10:06:57Z</time>
      </trkpt>
      <trkpt lat="57.057124972343445" lon="-2.412883965298533">
        <ele>43.880000000000003</ele>
        <time>2023-08-18T10:07:08Z</time>
      </trkpt>
      <trkpt lat="57.057883031666279" lon="-2.413760963827372">
        <ele>45.32</ele>
        <time>2023-08-18T10:07:16Z</time>
      </trkpt>
      <trkpt lat="57.057975986972451" lon="-2.413871018216014">
        <ele>45.799999999999997</ele>
        <time>2023-08-18T10:07:17Z</time>
      </trkpt>
      <trkpt lat="57.058384018018842" lon="-2.41446596570313">
        <ele>47.240000000000002</ele>
        <time>2023-08-18T10:07:22Z</time>
      </trkpt>
      <trkpt lat="57.058937977999449" lon="-2.415038030594587">
        <ele>50.609999999999999</ele>
        <time>2023-08-18T10:07:29Z</time>
      </trkpt>
      <trkpt lat="57.058981982991099" lon="-2.415070971474052">
        <ele>51.090000000000003</ele>
        <time>2023-08-18T10:07:30Z</time>
      </trkpt>
      <trkpt lat="57.059009978547692" lon="-2.415092010051012">
        <ele>52.049999999999997</ele>
        <time>2023-08-18T10:07:31Z</time>
      </trkpt>
      <trkpt lat="57.059064041823149" lon="-2.415294013917446">
        <ele>53.009999999999998</ele>
        <time>2023-08-18T10:07:33Z</time>
      </trkpt>
      <trkpt lat="57.059053983539343" lon="-2.415365008637309">
        <ele>53.490000000000002</ele>
        <time>2023-08-18T10:07:34Z</time>
      </trkpt>
      <trkpt lat="57.059037974104285" lon="-2.415483025833964">
        <ele>53.490000000000002</ele>
        <time>2023-08-18T10:07:35Z</time>
      </trkpt>
      <trkpt lat="57.058953987434506" lon="-2.416003039106727">
        <ele>53.969999999999999</ele>
        <time>2023-08-18T10:07:38Z</time>
      </trkpt>
      <trkpt lat="57.058835970237851" lon="-2.416689014062285">
        <ele>53.969999999999999</ele>
        <time>2023-08-18T10:07:41Z</time>
      </trkpt>
      <trkpt lat="57.058794982731342" lon="-2.416928987950087">
        <ele>53.969999999999999</ele>
        <time>2023-08-18T10:07:42Z</time>
      </trkpt>
      <trkpt lat="57.05868199467659" lon="-2.417590990662575">
        <ele>53.969999999999999</ele>
        <time>2023-08-18T10:07:45Z</time>
      </trkpt>
      <trkpt lat="57.058609994128346" lon="-2.418015031144023">
        <ele>54.450000000000003</ele>
        <time>2023-08-18T10:07:47Z</time>
      </trkpt>
      <trkpt lat="57.058570012450218" lon="-2.418232960626483">
        <ele>54.450000000000003</ele>
        <time>2023-08-18T10:07:48Z</time>
      </trkpt>
      <trkpt lat="57.058422993868589" lon="-2.419378012418747">
        <ele>54.93</ele>
        <time>2023-08-18T10:07:53Z</time>
      </trkpt>
      <trkpt lat="57.058404972776771" lon="-2.41962100379169">
        <ele>54.93</ele>
        <time>2023-08-18T10:07:54Z</time>
      </trkpt>
      <trkpt lat="57.058387035503983" lon="-2.419865000993013">
        <ele>54.93</ele>
        <time>2023-08-18T10:07:55Z</time>
      </trkpt>
      <trkpt lat="57.058349987491965" lon="-2.420350983738899">
        <ele>54.93</ele>
        <time>2023-08-18T10:07:57Z</time>
      </trkpt>
      <trkpt lat="57.058332972228527" lon="-2.420576037839055">
        <ele>54.450000000000003</ele>
        <time>2023-08-18T10:07:58Z</time>
      </trkpt>
      <trkpt lat="57.058287961408496" lon="-2.420844007283449">
        <ele>53.969999999999999</ele>
        <time>2023-08-18T10:07:59Z</time>
      </trkpt>
      <trkpt lat="57.058245968073606" lon="-2.421097978949547">
        <ele>53.490000000000002</ele>
        <time>2023-08-18T10:08:00Z</time>
      </trkpt>
      <trkpt lat="57.058186959475279" lon="-2.421349016949534">
        <ele>53.009999999999998</ele>
        <time>2023-08-18T10:08:01Z</time>
      </trkpt>
      <trkpt lat="57.058115964755416" lon="-2.421592008322477">
        <ele>53.490000000000002</ele>
        <time>2023-08-18T10:08:02Z</time>
      </trkpt>
      <trkpt lat="57.058042958378792" lon="-2.421838017180562">
        <ele>53.009999999999998</ele>
        <time>2023-08-18T10:08:03Z</time>
      </trkpt>
      <trkpt lat="57.057954026386142" lon="-2.422073967754841">
        <ele>52.530000000000001</ele>
        <time>2023-08-18T10:08:04Z</time>
      </trkpt>
      <trkpt lat="57.05707099288702" lon="-2.424113033339381">
        <ele>53.969999999999999</ele>
        <time>2023-08-18T10:08:13Z</time>
      </trkpt>
      <trkpt lat="57.056926991790533" lon="-2.424619970843196">
        <ele>54.450000000000003</ele>
        <time>2023-08-18T10:08:15Z</time>
      </trkpt>
      <trkpt lat="57.056877035647631" lon="-2.424887018278241">
        <ele>54.450000000000003</ele>
        <time>2023-08-18T10:08:16Z</time>
      </trkpt>
      <trkpt lat="57.056604959070683" lon="-2.426686026155949">
        <ele>53.490000000000002</ele>
        <time>2023-08-18T10:08:24Z</time>
      </trkpt>
      <trkpt lat="57.056524995714426" lon="-2.428155038505793">
        <ele>53.009999999999998</ele>
        <time>2023-08-18T10:08:32Z</time>
      </trkpt>
      <trkpt lat="57.05646900460124" lon="-2.429376030340791">
        <ele>50.609999999999999</ele>
        <time>2023-08-18T10:08:38Z</time>
      </trkpt>
      <trkpt lat="57.05640597268939" lon="-2.430833978578448">
        <ele>48.68</ele>
        <time>2023-08-18T10:08:45Z</time>
      </trkpt>
      <trkpt lat="57.056200029328465" lon="-2.432680008932948">
        <ele>47.719999999999999</ele>
        <time>2023-08-18T10:08:52Z</time>
      </trkpt>
      <trkpt lat="57.055705999955535" lon="-2.435630019754171">
        <ele>47.240000000000002</ele>
        <time>2023-08-18T10:09:02Z</time>
      </trkpt>
      <trkpt lat="57.05563098192215" lon="-2.437247978523374">
        <ele>46.280000000000001</ele>
        <time>2023-08-18T10:09:07Z</time>
      </trkpt>
      <trkpt lat="57.055643973872066" lon="-2.437575962394476">
        <ele>45.799999999999997</ele>
        <time>2023-08-18T10:09:08Z</time>
      </trkpt>
      <trkpt lat="57.055732989683747" lon="-2.438559997826815">
        <ele>46.759999999999998</ele>
        <time>2023-08-18T10:09:11Z</time>
      </trkpt>
      <trkpt lat="57.055766014382243" lon="-2.438886975869536">
        <ele>46.759999999999998</ele>
        <time>2023-08-18T10:09:12Z</time>
      </trkpt>
      <trkpt lat="57.055858969688416" lon="-2.439805967733264">
        <ele>47.240000000000002</ele>
        <time>2023-08-18T10:09:15Z</time>
      </trkpt>
      <trkpt lat="57.055900041013956" lon="-2.440085001289845">
        <ele>47.719999999999999</ele>
        <time>2023-08-18T10:09:16Z</time>
      </trkpt>
      <trkpt lat="57.055943962186575" lon="-2.440362023189664">
        <ele>48.200000000000003</ele>
        <time>2023-08-18T10:09:17Z</time>
      </trkpt>
      <trkpt lat="57.05618703737855" lon="-2.441822988912463">
        <ele>49.649999999999999</ele>
        <time>2023-08-18T10:09:22Z</time>
      </trkpt>
      <trkpt lat="57.056248979642987" lon="-2.442101016640663">
        <ele>49.649999999999999</ele>
        <time>2023-08-18T10:09:23Z</time>
      </trkpt>
      <trkpt lat="57.056691041216254" lon="-2.444581976160407">
        <ele>49.649999999999999</ele>
        <time>2023-08-18T10:09:32Z</time>
      </trkpt>
      <trkpt lat="57.056847028434277" lon="-2.445969013497233">
        <ele>49.159999999999997</ele>
        <time>2023-08-18T10:09:37Z</time>
      </trkpt>
      <trkpt lat="57.056867983192205" lon="-2.446243017911911">
        <ele>48.68</ele>
        <time>2023-08-18T10:09:38Z</time>
      </trkpt>
      <trkpt lat="57.057067975401878" lon="-2.448370009660721">
        <ele>46.759999999999998</ele>
        <time>2023-08-18T10:09:45Z</time>
      </trkpt>
      <trkpt lat="57.05711399205029" lon="-2.44869003072381">
        <ele>46.759999999999998</ele>
        <time>2023-08-18T10:09:46Z</time>
      </trkpt>
      <trkpt lat="57.057568961754441" lon="-2.451400989666581">
        <ele>43.880000000000003</ele>
        <time>2023-08-18T10:09:55Z</time>
      </trkpt>
      <trkpt lat="57.058146977797151" lon="-2.454004995524883">
        <ele>45.32</ele>
        <time>2023-08-18T10:10:04Z</time>
      </trkpt>
      <trkpt lat="57.058613011613488" lon="-2.456347988918424">
        <ele>46.280000000000001</ele>
        <time>2023-08-18T10:10:12Z</time>
      </trkpt>
      <trkpt lat="57.059078039601445" lon="-2.459414005279541">
        <ele>51.57</ele>
        <time>2023-08-18T10:10:22Z</time>
      </trkpt>
      <trkpt lat="57.059265039861202" lon="-2.46070297434926">
        <ele>54.450000000000003</ele>
        <time>2023-08-18T10:10:28Z</time>
      </trkpt>
      <trkpt lat="57.059275014325976" lon="-2.460777992382646">
        <ele>54.450000000000003</ele>
        <time>2023-08-18T10:10:29Z</time>
      </trkpt>
      <trkpt lat="57.05928398296237" lon="-2.460835995152593">
        <ele>54.450000000000003</ele>
        <time>2023-08-18T10:10:30Z</time>
      </trkpt>
      <trkpt lat="57.059362018480897" lon="-2.46087396517396">
        <ele>54.93</ele>
        <time>2023-08-18T10:10:31Z</time>
      </trkpt>
      <trkpt lat="57.059409040957689" lon="-2.460827026516199">
        <ele>55.409999999999997</ele>
        <time>2023-08-18T10:10:32Z</time>
      </trkpt>
      <trkpt lat="57.059466037899256" lon="-2.460770029574633">
        <ele>55.890000000000001</ele>
        <time>2023-08-18T10:10:33Z</time>
      </trkpt>
      <trkpt lat="57.059516999870539" lon="-2.460665004327893">
        <ele>55.890000000000001</ele>
        <time>2023-08-18T10:10:34Z</time>
      </trkpt>
      <trkpt lat="57.059551030397415" lon="-2.460562996566296">
        <ele>56.369999999999997</ele>
        <time>2023-08-18T10:10:35Z</time>
      </trkpt>
      <trkpt lat="57.059587994590402" lon="-2.460450008511543">
        <ele>56.369999999999997</ele>
        <time>2023-08-18T10:10:36Z</time>
      </trkpt>
      <trkpt lat="57.05962898209691" lon="-2.460326962172985">
        <ele>56.859999999999999</ele>
        <time>2023-08-18T10:10:37Z</time>
      </trkpt>
      <trkpt lat="57.05967198126018" lon="-2.460196036845446">
        <ele>57.340000000000003</ele>
        <time>2023-08-18T10:10:38Z</time>
      </trkpt>
      <trkpt lat="57.059721015393734" lon="-2.460046000778675">
        <ele>57.340000000000003</ele>
        <time>2023-08-18T10:10:39Z</time>
      </trkpt>
      <trkpt lat="57.059956965968013" lon="-2.459329012781382">
        <ele>59.259999999999998</ele>
        <time>2023-08-18T10:10:43Z</time>
      </trkpt>
      <trkpt lat="57.060022009536624" lon="-2.459132960066199">
        <ele>59.259999999999998</ele>
        <time>2023-08-18T10:10:44Z</time>
      </trkpt>
      <trkpt lat="57.060091998428106" lon="-2.458951994776726">
        <ele>59.740000000000002</ele>
        <time>2023-08-18T10:10:45Z</time>
      </trkpt>
      <trkpt lat="57.060171961784363" lon="-2.458771029487252">
        <ele>59.740000000000002</ele>
        <time>2023-08-18T10:10:46Z</time>
      </trkpt>
      <trkpt lat="57.060257038101554" lon="-2.458581011742353">
        <ele>60.219999999999999</ele>
        <time>2023-08-18T10:10:47Z</time>
      </trkpt>
      <trkpt lat="57.060775039717555" lon="-2.457411987707019">
        <ele>63.579999999999998</ele>
        <time>2023-08-18T10:10:54Z</time>
      </trkpt>
      <trkpt lat="57.060839999467134" lon="-2.457265974953771">
        <ele>63.579999999999998</ele>
        <time>2023-08-18T10:10:55Z</time>
      </trkpt>
      <trkpt lat="57.0609160233289" lon="-2.45713597163558">
        <ele>64.069999999999993</ele>
        <time>2023-08-18T10:10:56Z</time>
      </trkpt>
      <trkpt lat="57.061003027483821" lon="-2.457061959430575">
        <ele>65.030000000000001</ele>
        <time>2023-08-18T10:10:57Z</time>
      </trkpt>
      <trkpt lat="57.061090031638741" lon="-2.456989036872983">
        <ele>65.510000000000005</ele>
        <time>2023-08-18T10:10:58Z</time>
      </trkpt>
      <trkpt lat="57.062022015452385" lon="-2.456200970336795">
        <ele>71.269999999999996</ele>
        <time>2023-08-18T10:11:07Z</time>
      </trkpt>
      <trkpt lat="57.062732968479395" lon="-2.455598982051015">
        <ele>76.079999999999998</ele>
        <time>2023-08-18T10:11:13Z</time>
      </trkpt>
      <trkpt lat="57.062854003161192" lon="-2.455497980117798">
        <ele>77.519999999999996</ele>
        <time>2023-08-18T10:11:14Z</time>
      </trkpt>
      <trkpt lat="57.062984006479383" lon="-2.4553959723562">
        <ele>78.480000000000004</ele>
        <time>2023-08-18T10:11:15Z</time>
      </trkpt>
      <trkpt lat="57.063119960948825" lon="-2.455350961536169">
        <ele>79.450000000000003</ele>
        <time>2023-08-18T10:11:16Z</time>
      </trkpt>
      <trkpt lat="57.063269997015595" lon="-2.455322965979576">
        <ele>80.890000000000001</ele>
        <time>2023-08-18T10:11:17Z</time>
      </trkpt>
      <trkpt lat="57.063410980626941" lon="-2.455347022041678">
        <ele>81.849999999999994</ele>
        <time>2023-08-18T10:11:18Z</time>
      </trkpt>
      <trkpt lat="57.063542995601892" lon="-2.455368982627988">
        <ele>82.810000000000002</ele>
        <time>2023-08-18T10:11:19Z</time>
      </trkpt>
      <trkpt lat="57.0636669639498" lon="-2.455389015376568">
        <ele>83.769999999999996</ele>
        <time>2023-08-18T10:11:20Z</time>
      </trkpt>
      <trkpt lat="57.063884977251291" lon="-2.455360013991594">
        <ele>85.209999999999994</ele>
        <time>2023-08-18T10:11:22Z</time>
      </trkpt>
      <trkpt lat="57.06396795809269" lon="-2.455280972644687">
        <ele>85.689999999999998</ele>
        <time>2023-08-18T10:11:23Z</time>
      </trkpt>
      <trkpt lat="57.064056973904371" lon="-2.455192040652037">
        <ele>86.659999999999997</ele>
        <time>2023-08-18T10:11:24Z</time>
      </trkpt>
      <trkpt lat="57.064125034958124" lon="-2.455081986263394">
        <ele>86.659999999999997</ele>
        <time>2023-08-18T10:11:25Z</time>
      </trkpt>
      <trkpt lat="57.064201980829239" lon="-2.454928010702133">
        <ele>87.140000000000001</ele>
        <time>2023-08-18T10:11:26Z</time>
      </trkpt>
      <trkpt lat="57.064376994967461" lon="-2.45457798242569">
        <ele>87.620000000000005</ele>
        <time>2023-08-18T10:11:28Z</time>
      </trkpt>
      <trkpt lat="57.064493000507355" lon="-2.454400034621358">
        <ele>88.099999999999994</ele>
        <time>2023-08-18T10:11:29Z</time>
      </trkpt>
      <trkpt lat="57.06461101770401" lon="-2.454236000776291">
        <ele>88.099999999999994</ele>
        <time>2023-08-18T10:11:30Z</time>
      </trkpt>
      <trkpt lat="57.064940007403493" lon="-2.453826041892171">
        <ele>89.540000000000006</ele>
        <time>2023-08-18T10:11:33Z</time>
      </trkpt>
      <trkpt lat="57.065045032650232" lon="-2.453712970018387">
        <ele>90.019999999999996</ele>
        <time>2023-08-18T10:11:34Z</time>
      </trkpt>
      <trkpt lat="57.065329011529684" lon="-2.453408036381006">
        <ele>91.459999999999994</ele>
        <time>2023-08-18T10:11:37Z</time>
      </trkpt>
      <trkpt lat="57.065409980714321" lon="-2.453299993649125">
        <ele>91.939999999999998</ele>
        <time>2023-08-18T10:11:38Z</time>
      </trkpt>
      <trkpt lat="57.065478041768074" lon="-2.453191028907895">
        <ele>92.420000000000002</ele>
        <time>2023-08-18T10:11:39Z</time>
      </trkpt>
      <trkpt lat="57.065526992082596" lon="-2.452977038919926">
        <ele>93.390000000000001</ele>
        <time>2023-08-18T10:11:40Z</time>
      </trkpt>
      <trkpt lat="57.065575020387769" lon="-2.45277201756835">
        <ele>93.870000000000005</ele>
        <time>2023-08-18T10:11:41Z</time>
      </trkpt>
      <trkpt lat="57.065760008990765" lon="-2.451802985742688">
        <ele>95.790000000000006</ele>
        <time>2023-08-18T10:11:45Z</time>
      </trkpt>
      <trkpt lat="57.065784987062216" lon="-2.451531998813152">
        <ele>96.269999999999996</ele>
        <time>2023-08-18T10:11:46Z</time>
      </trkpt>
      <trkpt lat="57.065808959305286" lon="-2.451271992176771">
        <ele>96.75</ele>
        <time>2023-08-18T10:11:47Z</time>
      </trkpt>
      <trkpt lat="57.065872997045517" lon="-2.450564978644252">
        <ele>98.670000000000002</ele>
        <time>2023-08-18T10:11:50Z</time>
      </trkpt>
      <trkpt lat="57.065893029794097" lon="-2.450340008363128">
        <ele>99.629999999999995</ele>
        <time>2023-08-18T10:11:51Z</time>
      </trkpt>
      <trkpt lat="57.065913984552026" lon="-2.450112020596862">
        <ele>100.59999999999999</ele>
        <time>2023-08-18T10:11:52Z</time>
      </trkpt>
      <trkpt lat="57.066338025033474" lon="-2.447743965312839">
        <ele>106.36</ele>
        <time>2023-08-18T10:12:02Z</time>
      </trkpt>
      <trkpt lat="57.066813027486205" lon="-2.44628400541842">
        <ele>107.31999999999999</ele>
        <time>2023-08-18T10:12:10Z</time>
      </trkpt>
      <trkpt lat="57.066853009164333" lon="-2.446160959079862">
        <ele>106.84</ele>
        <time>2023-08-18T10:12:11Z</time>
      </trkpt>
      <trkpt lat="57.066963985562325" lon="-2.445820989087224">
        <ele>106.36</ele>
        <time>2023-08-18T10:12:14Z</time>
      </trkpt>
      <trkpt lat="57.067002039402723" lon="-2.44570498354733">
        <ele>106.36</ele>
        <time>2023-08-18T10:12:15Z</time>
      </trkpt>
      <trkpt lat="57.06703900359571" lon="-2.445593001320958">
        <ele>106.36</ele>
        <time>2023-08-18T10:12:16Z</time>
      </trkpt>
      <trkpt lat="57.067246958613396" lon="-2.444624975323677">
        <ele>105.88</ele>
        <time>2023-08-18T10:12:27Z</time>
      </trkpt>
      <trkpt lat="57.067434964701533" lon="-2.443703971803188">
        <ele>103.48</ele>
        <time>2023-08-18T10:12:37Z</time>
      </trkpt>
      <trkpt lat="57.067474024370313" lon="-2.443514037877321">
        <ele>103.48</ele>
        <time>2023-08-18T10:12:39Z</time>
      </trkpt>
      <trkpt lat="57.067474024370313" lon="-2.443514037877321">
        <ele>103</ele>
        <time>2023-08-18T10:12:40Z</time>
      </trkpt>
      <trkpt lat="57.067461032420397" lon="-2.443632977083325">
        <ele>103.95999999999999</ele>
        <time>2023-08-18T10:12:49Z</time>
      </trkpt>
      <trkpt lat="57.067445022985339" lon="-2.443654015660286">
        <ele>103.95999999999999</ele>
        <time>2023-08-18T10:12:53Z</time>
      </trkpt>
      <trkpt lat="57.067434964701533" lon="-2.443701038137078">
        <ele>103.95999999999999</ele>
        <time>2023-08-18T10:12:54Z</time>
      </trkpt>
      <trkpt lat="57.067405041307211" lon="-2.443848978728056">
        <ele>103.48</ele>
        <time>2023-08-18T10:12:56Z</time>
      </trkpt>
      <trkpt lat="57.067378973588347" lon="-2.443978982046247">
        <ele>103.48</ele>
        <time>2023-08-18T10:12:57Z</time>
      </trkpt>
      <trkpt lat="57.067347038537264" lon="-2.44413597509265">
        <ele>103.95999999999999</ele>
        <time>2023-08-18T10:12:58Z</time>
      </trkpt>
      <trkpt lat="57.067020982503891" lon="-2.445645974949002">
        <ele>106.84</ele>
        <time>2023-08-18T10:13:07Z</time>
      </trkpt>
      <trkpt lat="57.06697697751224" lon="-2.445782013237476">
        <ele>106.84</ele>
        <time>2023-08-18T10:13:08Z</time>
      </trkpt>
      <trkpt lat="57.066934984177351" lon="-2.445912016555667">
        <ele>107.31999999999999</ele>
        <time>2023-08-18T10:13:09Z</time>
      </trkpt>
      <trkpt lat="57.066727029159665" lon="-2.446549041196704">
        <ele>108.29000000000001</ele>
        <time>2023-08-18T10:13:15Z</time>
      </trkpt>
      <trkpt lat="57.066616974771023" lon="-2.446884987875819">
        <ele>108.77</ele>
        <time>2023-08-18T10:13:22Z</time>
      </trkpt>
      <trkpt lat="57.066575987264514" lon="-2.447009962052107">
        <ele>107.81</ele>
        <time>2023-08-18T10:13:27Z</time>
      </trkpt>
      <trkpt lat="57.06656601279974" lon="-2.447039969265461">
        <ele>107.81</ele>
        <time>2023-08-18T10:13:28Z</time>
      </trkpt>
      <trkpt lat="57.066343976184726" lon="-2.447726028040052">
        <ele>108.77</ele>
        <time>2023-08-18T10:13:37Z</time>
      </trkpt>
      <trkpt lat="57.066318998113275" lon="-2.447800962254405">
        <ele>108.77</ele>
        <time>2023-08-18T10:13:38Z</time>
      </trkpt>
      <trkpt lat="57.066297037526965" lon="-2.4478720407933">
        <ele>108.77</ele>
        <time>2023-08-18T10:13:39Z</time>
      </trkpt>
      <trkpt lat="57.06626602448523" lon="-2.447968013584614">
        <ele>108.77</ele>
        <time>2023-08-18T10:13:47Z</time>
      </trkpt>
      <trkpt lat="57.06626602448523" lon="-2.447968013584614">
        <ele>108.77</ele>
        <time>2023-08-18T10:14:10Z</time>
      </trkpt>
      <trkpt lat="57.06626602448523" lon="-2.447968013584614">
        <ele>108.77</ele>
        <time>2023-08-18T10:15:03Z</time>
      </trkpt>
      <trkpt lat="57.06626602448523" lon="-2.447968013584614">
        <ele>109.25</ele>
        <time>2023-08-18T10:15:58Z</time>
      </trkpt>
      <trkpt lat="57.06626602448523" lon="-2.447968013584614">
        <ele>108.77</ele>
        <time>2023-08-18T10:16:45Z</time>
      </trkpt>
      <trkpt lat="57.06626602448523" lon="-2.447968013584614">
        <ele>108.77</ele>
        <time>2023-08-18T10:17:34Z</time>
      </trkpt>
      <trkpt lat="57.066242974251509" lon="-2.448036996647716">
        <ele>108.77</ele>
        <time>2023-08-18T10:18:13Z</time>
      </trkpt>
      <trkpt lat="57.066251020878553" lon="-2.448045965284109">
        <ele>118.86</ele>
        <time>2023-08-18T10:21:58Z</time>
      </trkpt>
      <trkpt lat="57.066199975088239" lon="-2.448113020509481">
        <ele>117.90000000000001</ele>
        <time>2023-08-18T10:22:37Z</time>
      </trkpt>
      <trkpt lat="57.06615898758173" lon="-2.448101034387946">
        <ele>116.94</ele>
        <time>2023-08-18T10:23:12Z</time>
      </trkpt>
      <trkpt lat="57.066195029765368" lon="-2.448091981932521">
        <ele>114.53</ele>
        <time>2023-08-18T10:23:32Z</time>
      </trkpt>
      <trkpt lat="57.066208021715283" lon="-2.448148978874087">
        <ele>114.53</ele>
        <time>2023-08-18T10:23:34Z</time>
      </trkpt>
      <trkpt lat="57.066201986745" lon="-2.448180997744203">
        <ele>114.53</ele>
        <time>2023-08-18T10:23:35Z</time>
      </trkpt>
      <trkpt lat="57.066062008962035" lon="-2.449035029858351">
        <ele>111.65000000000001</ele>
        <time>2023-08-18T10:23:42Z</time>
      </trkpt>
      <trkpt lat="57.065926976501942" lon="-2.449965002015233">
        <ele>109.25</ele>
        <time>2023-08-18T10:23:48Z</time>
      </trkpt>
      <trkpt lat="57.065742993727326" lon="-2.45199803262949">
        <ele>104.44</ele>
        <time>2023-08-18T10:24:01Z</time>
      </trkpt>
      <trkpt lat="57.065680967643857" lon="-2.452312018722296">
        <ele>102.52</ele>
        <time>2023-08-18T10:24:03Z</time>
      </trkpt>
      <trkpt lat="57.065446022897959" lon="-2.453242996707559">
        <ele>98.189999999999998</ele>
        <time>2023-08-18T10:24:09Z</time>
      </trkpt>
      <trkpt lat="57.065377961844206" lon="-2.45335103943944">
        <ele>97.230000000000004</ele>
        <time>2023-08-18T10:24:10Z</time>
      </trkpt>
      <trkpt lat="57.065300010144711" lon="-2.453438965603709">
        <ele>96.269999999999996</ele>
        <time>2023-08-18T10:24:11Z</time>
      </trkpt>
      <trkpt lat="57.065219040960073" lon="-2.45352596975863">
        <ele>95.790000000000006</ele>
        <time>2023-08-18T10:24:12Z</time>
      </trkpt>
      <trkpt lat="57.065136982128024" lon="-2.453613979741931">
        <ele>95.310000000000002</ele>
        <time>2023-08-18T10:24:13Z</time>
      </trkpt>
      <trkpt lat="57.065056012943387" lon="-2.453700983896852">
        <ele>94.349999999999994</ele>
        <time>2023-08-18T10:24:14Z</time>
      </trkpt>
      <trkpt lat="57.06428999081254" lon="-2.454751990735531">
        <ele>87.140000000000001</ele>
        <time>2023-08-18T10:24:23Z</time>
      </trkpt>
      <trkpt lat="57.064005006104708" lon="-2.4552440084517">
        <ele>84.25</ele>
        <time>2023-08-18T10:24:27Z</time>
      </trkpt>
      <trkpt lat="57.06392495892942" lon="-2.455323971807957">
        <ele>83.290000000000006</ele>
        <time>2023-08-18T10:24:28Z</time>
      </trkpt>
      <trkpt lat="57.06383996643126" lon="-2.45537300594151">
        <ele>82.810000000000002</ele>
        <time>2023-08-18T10:24:29Z</time>
      </trkpt>
      <trkpt lat="57.063740976154804" lon="-2.455401001498103">
        <ele>81.849999999999994</ele>
        <time>2023-08-18T10:24:30Z</time>
      </trkpt>
      <trkpt lat="57.063637962564826" lon="-2.455384992063046">
        <ele>80.890000000000001</ele>
        <time>2023-08-18T10:24:31Z</time>
      </trkpt>
      <trkpt lat="57.063524974510074" lon="-2.455365965142846">
        <ele>80.409999999999997</ele>
        <time>2023-08-18T10:24:32Z</time>
      </trkpt>
      <trkpt lat="57.063162960112095" lon="-2.455336041748524">
        <ele>78</ele>
        <time>2023-08-18T10:24:35Z</time>
      </trkpt>
      <trkpt lat="57.063045026734471" lon="-2.455376023426652">
        <ele>77.040000000000006</ele>
        <time>2023-08-18T10:24:36Z</time>
      </trkpt>
      <trkpt lat="57.062386041507125" lon="-2.455893019214273">
        <ele>71.760000000000005</ele>
        <time>2023-08-18T10:24:41Z</time>
      </trkpt>
      <trkpt lat="57.0613460149616" lon="-2.456772029399872">
        <ele>63.579999999999998</ele>
        <time>2023-08-18T10:24:49Z</time>
      </trkpt>
      <trkpt lat="57.060875035822392" lon="-2.457185005769134">
        <ele>59.740000000000002</ele>
        <time>2023-08-18T10:24:54Z</time>
      </trkpt>
      <trkpt lat="57.060802029445767" lon="-2.45735096745193">
        <ele>58.780000000000001</ele>
        <time>2023-08-18T10:24:55Z</time>
      </trkpt>
      <trkpt lat="57.060728017240763" lon="-2.457519024610519">
        <ele>58.299999999999997</ele>
        <time>2023-08-18T10:24:56Z</time>
      </trkpt>
      <trkpt lat="57.060654005035758" lon="-2.457684986293316">
        <ele>58.299999999999997</ele>
        <time>2023-08-18T10:24:57Z</time>
      </trkpt>
      <trkpt lat="57.060577981173992" lon="-2.457856982946396">
        <ele>57.82</ele>
        <time>2023-08-18T10:24:58Z</time>
      </trkpt>
      <trkpt lat="57.060500029474497" lon="-2.458033002912998">
        <ele>57.340000000000003</ele>
        <time>2023-08-18T10:24:59Z</time>
      </trkpt>
      <trkpt lat="57.060420988127589" lon="-2.458211034536362">
        <ele>56.859999999999999</ele>
        <time>2023-08-18T10:25:00Z</time>
      </trkpt>
      <trkpt lat="57.05982101149857" lon="-2.459744000807405">
        <ele>54.93</ele>
        <time>2023-08-18T10:25:09Z</time>
      </trkpt>
      <trkpt lat="57.059505013749003" lon="-2.46070297434926">
        <ele>53.009999999999998</ele>
        <time>2023-08-18T10:25:16Z</time>
      </trkpt>
      <trkpt lat="57.059464026242495" lon="-2.460771035403013">
        <ele>52.530000000000001</ele>
        <time>2023-08-18T10:25:17Z</time>
      </trkpt>
      <trkpt lat="57.05943301320076" lon="-2.460802970454097">
        <ele>52.530000000000001</ele>
        <time>2023-08-18T10:25:18Z</time>
      </trkpt>
      <trkpt lat="57.059407029300928" lon="-2.46082903817296">
        <ele>52.530000000000001</ele>
        <time>2023-08-18T10:25:19Z</time>
      </trkpt>
      <trkpt lat="57.059277025982738" lon="-2.46078603900969">
        <ele>52.049999999999997</ele>
        <time>2023-08-18T10:25:20Z</time>
      </trkpt>
      <trkpt lat="57.059269985184073" lon="-2.46074303984642">
        <ele>51.57</ele>
        <time>2023-08-18T10:25:21Z</time>
      </trkpt>
      <trkpt lat="57.059260010719299" lon="-2.460668021813035">
        <ele>51.090000000000003</ele>
        <time>2023-08-18T10:25:22Z</time>
      </trkpt>
      <trkpt lat="57.059244001284242" lon="-2.460557967424393">
        <ele>50.609999999999999</ele>
        <time>2023-08-18T10:25:23Z</time>
      </trkpt>
      <trkpt lat="57.059224974364042" lon="-2.460425030440092">
        <ele>50.130000000000003</ele>
        <time>2023-08-18T10:25:24Z</time>
      </trkpt>
      <trkpt lat="57.059000004082918" lon="-2.458901032805443">
        <ele>46.759999999999998</ele>
        <time>2023-08-18T10:25:32Z</time>
      </trkpt>
      <trkpt lat="57.058964967727661" lon="-2.458667010068893">
        <ele>46.280000000000001</ele>
        <time>2023-08-18T10:25:33Z</time>
      </trkpt>
      <trkpt lat="57.058715019375086" lon="-2.457018038257957">
        <ele>44.840000000000003</ele>
        <time>2023-08-18T10:25:39Z</time>
      </trkpt>
      <trkpt lat="57.058128034695983" lon="-2.453921008855104">
        <ele>36.189999999999998</ele>
        <time>2023-08-18T10:25:49Z</time>
      </trkpt>
      <trkpt lat="57.057666024193168" lon="-2.451885966584086">
        <ele>29.940000000000001</ele>
        <time>2023-08-18T10:25:56Z</time>
      </trkpt>
      <trkpt lat="57.057114997878671" lon="-2.448693970218301">
        <ele>23.210000000000001</ele>
        <time>2023-08-18T10:26:07Z</time>
      </trkpt>
      <trkpt lat="57.056930009275675" lon="-2.44708196260035">
        <ele>18.399999999999999</ele>
        <time>2023-08-18T10:26:13Z</time>
      </trkpt>
      <trkpt lat="57.05674896016717" lon="-2.444928986951709">
        <ele>11.19</ele>
        <time>2023-08-18T10:26:21Z</time>
      </trkpt>
      <trkpt lat="57.056521978229284" lon="-2.44355502538383">
        <ele>5.91</ele>
        <time>2023-08-18T10:26:27Z</time>
      </trkpt>
      <trkpt lat="57.056500017642975" lon="-2.44342602789402">
        <ele>4.94</ele>
        <time>2023-08-18T10:26:28Z</time>
      </trkpt>
      <trkpt lat="57.056480990722775" lon="-2.443309016525745">
        <ele>3.5</ele>
        <time>2023-08-18T10:26:29Z</time>
      </trkpt>
      <trkpt lat="57.056438997387886" lon="-2.443058984354138">
        <ele>2.54</ele>
        <time>2023-08-18T10:26:33Z</time>
      </trkpt>
      <trkpt lat="57.056438997387886" lon="-2.443058984354138">
        <ele>9.75</ele>
        <time>2023-08-18T10:26:41Z</time>
      </trkpt>
      <trkpt lat="57.056413013488054" lon="-2.442898973822594">
        <ele>11.19</ele>
        <time>2023-08-18T10:26:48Z</time>
      </trkpt>
      <trkpt lat="57.056403961032629" lon="-2.442843988537788">
        <ele>11.67</ele>
        <time>2023-08-18T10:26:49Z</time>
      </trkpt>
      <trkpt lat="57.056403961032629" lon="-2.442843988537788">
        <ele>13.6</ele>
        <time>2023-08-18T10:27:05Z</time>
      </trkpt>
      <trkpt lat="57.056379988789558" lon="-2.442698981612921">
        <ele>14.56</ele>
        <time>2023-08-18T10:27:08Z</time>
      </trkpt>
      <trkpt lat="57.056317962706089" lon="-2.442418020218611">
        <ele>16.960000000000001</ele>
        <time>2023-08-18T10:27:10Z</time>
      </trkpt>
      <trkpt lat="57.056050999090075" lon="-2.44104003533721">
        <ele>22.25</ele>
        <time>2023-08-18T10:27:16Z</time>
      </trkpt>
      <trkpt lat="57.055766014382243" lon="-2.438884964212775">
        <ele>26.57</ele>
        <time>2023-08-18T10:27:23Z</time>
      </trkpt>
      <trkpt lat="57.055640034377575" lon="-2.436291016638279">
        <ele>29.460000000000001</ele>
        <time>2023-08-18T10:27:31Z</time>
      </trkpt>
      <trkpt lat="57.055966006591916" lon="-2.434010971337557">
        <ele>33.299999999999997</ele>
        <time>2023-08-18T10:27:39Z</time>
      </trkpt>
      <trkpt lat="57.05631603486836" lon="-2.432019012048841">
        <ele>32.82</ele>
        <time>2023-08-18T10:27:47Z</time>
      </trkpt>
      <trkpt lat="57.05635903403163" lon="-2.431773003190756">
        <ele>32.82</ele>
        <time>2023-08-18T10:27:48Z</time>
      </trkpt>
      <trkpt lat="57.056371020153165" lon="-2.431523976847529">
        <ele>32.82</ele>
        <time>2023-08-18T10:27:49Z</time>
      </trkpt>
      <trkpt lat="57.056452995166183" lon="-2.429822031408548">
        <ele>33.299999999999997</ele>
        <time>2023-08-18T10:27:57Z</time>
      </trkpt>
      <trkpt lat="57.056497000157833" lon="-2.428684020414949">
        <ele>33.780000000000001</ele>
        <time>2023-08-18T10:28:02Z</time>
      </trkpt>
      <trkpt lat="57.056508986279368" lon="-2.428462989628315">
        <ele>33.780000000000001</ele>
        <time>2023-08-18T10:28:03Z</time>
      </trkpt>
      <trkpt lat="57.056565983220935" lon="-2.427403014153242">
        <ele>34.259999999999998</ele>
        <time>2023-08-18T10:28:08Z</time>
      </trkpt>
      <trkpt lat="57.05657503567636" lon="-2.427231017500162">
        <ele>34.259999999999998</ele>
        <time>2023-08-18T10:28:09Z</time>
      </trkpt>
      <trkpt lat="57.05657503567636" lon="-2.42722699418664">
        <ele>33.780000000000001</ele>
        <time>2023-08-18T10:28:10Z</time>
      </trkpt>
      <trkpt lat="57.056591967120767" lon="-2.426918959245086">
        <ele>34.259999999999998</ele>
        <time>2023-08-18T10:28:11Z</time>
      </trkpt>
      <trkpt lat="57.05659800209105" lon="-2.426811000332236">
        <ele>34.740000000000002</ele>
        <time>2023-08-18T10:28:12Z</time>
      </trkpt>
      <trkpt lat="57.056603031232953" lon="-2.426722990348935">
        <ele>34.740000000000002</ele>
        <time>2023-08-18T10:28:13Z</time>
      </trkpt>
      <trkpt lat="57.056628009304404" lon="-2.426472958177328">
        <ele>34.740000000000002</ele>
        <time>2023-08-18T10:28:14Z</time>
      </trkpt>
      <trkpt lat="57.056675031781197" lon="-2.426460972055793">
        <ele>34.740000000000002</ele>
        <time>2023-08-18T10:28:15Z</time>
      </trkpt>
      <trkpt lat="57.056720964610577" lon="-2.426448985934258">
        <ele>34.259999999999998</ele>
        <time>2023-08-18T10:28:16Z</time>
      </trkpt>
      <trkpt lat="57.056767987087369" lon="-2.426435993984342">
        <ele>34.259999999999998</ele>
        <time>2023-08-18T10:28:17Z</time>
      </trkpt>
      <trkpt lat="57.056820960715413" lon="-2.426421996206045">
        <ele>34.259999999999998</ele>
        <time>2023-08-18T10:28:18Z</time>
      </trkpt>
      <trkpt lat="57.056949958205223" lon="-2.426402969285846">
        <ele>33.780000000000001</ele>
        <time>2023-08-18T10:28:19Z</time>
      </trkpt>
      <trkpt lat="57.056993041187525" lon="-2.426446974277496">
        <ele>34.259999999999998</ele>
        <time>2023-08-18T10:28:20Z</time>
      </trkpt>
      <trkpt lat="57.057036040350795" lon="-2.426490979269147">
        <ele>34.259999999999998</ele>
        <time>2023-08-18T10:28:21Z</time>
      </trkpt>
      <trkpt lat="57.057080967351794" lon="-2.426536995917559">
        <ele>34.259999999999998</ele>
        <time>2023-08-18T10:28:22Z</time>
      </trkpt>
      <trkpt lat="57.057262016460299" lon="-2.426721984520555">
        <ele>34.740000000000002</ele>
        <time>2023-08-18T10:28:26Z</time>
      </trkpt>
      <trkpt lat="57.05739201977849" lon="-2.426855005323887">
        <ele>34.259999999999998</ele>
        <time>2023-08-18T10:28:29Z</time>
      </trkpt>
      <trkpt lat="57.057438036426902" lon="-2.426902027800679">
        <ele>34.740000000000002</ele>
        <time>2023-08-18T10:28:30Z</time>
      </trkpt>
      <trkpt lat="57.057723021134734" lon="-2.427192041650415">
        <ele>35.229999999999997</ele>
        <time>2023-08-18T10:28:39Z</time>
      </trkpt>
      <trkpt lat="57.057787980884314" lon="-2.427259013056755">
        <ele>34.740000000000002</ele>
        <time>2023-08-18T10:28:41Z</time>
      </trkpt>
      <trkpt lat="57.057828968390822" lon="-2.427302012220025">
        <ele>34.740000000000002</ele>
        <time>2023-08-18T10:28:42Z</time>
      </trkpt>
      <trkpt lat="57.057925025001168" lon="-2.42739899083972">
        <ele>33.780000000000001</ele>
        <time>2023-08-18T10:28:44Z</time>
      </trkpt>
      <trkpt lat="57.058207998052239" lon="-2.427532011643052">
        <ele>33.299999999999997</ele>
        <time>2023-08-18T10:28:51Z</time>
      </trkpt>
      <trkpt lat="57.058261977508664" lon="-2.427556989714503">
        <ele>33.299999999999997</ele>
        <time>2023-08-18T10:28:52Z</time>
      </trkpt>
      <trkpt lat="57.058379994705319" lon="-2.427611974999309">
        <ele>33.299999999999997</ele>
        <time>2023-08-18T10:28:54Z</time>
      </trkpt>
      <trkpt lat="57.058612005785108" lon="-2.42772102355957">
        <ele>34.259999999999998</ele>
        <time>2023-08-18T10:28:57Z</time>
      </trkpt>
      <trkpt lat="57.058688029646873" lon="-2.427887991070747">
        <ele>35.710000000000001</ele>
        <time>2023-08-18T10:28:59Z</time>
      </trkpt>
      <trkpt lat="57.058819960802794" lon="-2.428178004920483">
        <ele>37.149999999999999</ele>
        <time>2023-08-18T10:29:02Z</time>
      </trkpt>
      <trkpt lat="57.058918029069901" lon="-2.428390989080071">
        <ele>38.109999999999999</ele>
        <time>2023-08-18T10:29:04Z</time>
      </trkpt>
      <trkpt lat="57.058963961899281" lon="-2.428491991013289">
        <ele>38.109999999999999</ele>
        <time>2023-08-18T10:29:05Z</time>
      </trkpt>
      <trkpt lat="57.059061024338007" lon="-2.428703969344497">
        <ele>38.109999999999999</ele>
        <time>2023-08-18T10:29:07Z</time>
      </trkpt>
      <trkpt lat="57.059107962995768" lon="-2.428807988762856">
        <ele>38.109999999999999</ele>
        <time>2023-08-18T10:29:08Z</time>
      </trkpt>
      <trkpt lat="57.05915498547256" lon="-2.428908990696073">
        <ele>38.590000000000003</ele>
        <time>2023-08-18T10:29:09Z</time>
      </trkpt>
      <trkpt lat="57.059202007949352" lon="-2.429013010114431">
        <ele>38.590000000000003</ele>
        <time>2023-08-18T10:29:10Z</time>
      </trkpt>
      <trkpt lat="57.059306027367711" lon="-2.429345017299056">
        <ele>39.549999999999997</ele>
        <time>2023-08-18T10:29:12Z</time>
      </trkpt>
      <trkpt lat="57.059314996004105" lon="-2.429492035880685">
        <ele>39.549999999999997</ele>
        <time>2023-08-18T10:29:13Z</time>
      </trkpt>
      <trkpt lat="57.059333017095923" lon="-2.429771991446614">
        <ele>39.07</ele>
        <time>2023-08-18T10:29:15Z</time>
      </trkpt>
      <trkpt lat="57.059368975460529" lon="-2.430361993610859">
        <ele>38.109999999999999</ele>
        <time>2023-08-18T10:29:19Z</time>
      </trkpt>
      <trkpt lat="57.059527980163693" lon="-2.431692034006119">
        <ele>42.439999999999998</ele>
        <time>2023-08-18T10:29:29Z</time>
      </trkpt>
      <trkpt lat="57.059576008468866" lon="-2.431983975693584">
        <ele>43.399999999999999</ele>
        <time>2023-08-18T10:29:31Z</time>
      </trkpt>
      <trkpt lat="57.059621019288898" lon="-2.432259991765022">
        <ele>43.880000000000003</ele>
        <time>2023-08-18T10:29:33Z</time>
      </trkpt>
      <trkpt lat="57.059667035937309" lon="-2.432543970644474">
        <ele>44.359999999999999</ele>
        <time>2023-08-18T10:29:35Z</time>
      </trkpt>
      <trkpt lat="57.059726966544986" lon="-2.432914031669498">
        <ele>45.799999999999997</ele>
        <time>2023-08-18T10:29:38Z</time>
      </trkpt>
      <trkpt lat="57.059754962101579" lon="-2.433107988908887">
        <ele>45.799999999999997</ele>
        <time>2023-08-18T10:29:39Z</time>
      </trkpt>
      <trkpt lat="57.059773989021778" lon="-2.433244027197361">
        <ele>45.799999999999997</ele>
        <time>2023-08-18T10:29:40Z</time>
      </trkpt>
      <trkpt lat="57.059831991791725" lon="-2.433660021051765">
        <ele>44.840000000000003</ele>
        <time>2023-08-18T10:29:43Z</time>
      </trkpt>
      <trkpt lat="57.059850012883544" lon="-2.433787006884813">
        <ele>44.840000000000003</ele>
        <time>2023-08-18T10:29:44Z</time>
      </trkpt>
      <trkpt lat="57.059912038967013" lon="-2.434225967153907">
        <ele>43.880000000000003</ele>
        <time>2023-08-18T10:29:48Z</time>
      </trkpt>
      <trkpt lat="57.059943974018097" lon="-2.434456972405314">
        <ele>43.399999999999999</ele>
        <time>2023-08-18T10:29:50Z</time>
      </trkpt>
      <trkpt lat="57.059998959302902" lon="-2.434849999845028">
        <ele>41.950000000000003</ele>
        <time>2023-08-18T10:29:54Z</time>
      </trkpt>
      <trkpt lat="57.060040030628443" lon="-2.435140013694763">
        <ele>41.469999999999999</ele>
        <time>2023-08-18T10:29:57Z</time>
      </trkpt>
      <trkpt lat="57.060067020356655" lon="-2.435332965105772">
        <ele>40.990000000000002</ele>
        <time>2023-08-18T10:29:59Z</time>
      </trkpt>
      <trkpt lat="57.060070959851146" lon="-2.435662960633636">
        <ele>40.990000000000002</ele>
        <time>2023-08-18T10:30:03Z</time>
      </trkpt>
      <trkpt lat="57.060070959851146" lon="-2.435746025294066">
        <ele>40.509999999999998</ele>
        <time>2023-08-18T10:30:04Z</time>
      </trkpt>
      <trkpt lat="57.060070959851146" lon="-2.435833029448986">
        <ele>40.509999999999998</ele>
        <time>2023-08-18T10:30:05Z</time>
      </trkpt>
      <trkpt lat="57.060070959851146" lon="-2.435921961441636">
        <ele>40.509999999999998</ele>
        <time>2023-08-18T10:30:06Z</time>
      </trkpt>
      <trkpt lat="57.060070959851146" lon="-2.436007037758827">
        <ele>40.509999999999998</ele>
        <time>2023-08-18T10:30:07Z</time>
      </trkpt>
      <trkpt lat="57.060070959851146" lon="-2.436079038307071">
        <ele>40.509999999999998</ele>
        <time>2023-08-18T10:30:08Z</time>
      </trkpt>
      <trkpt lat="57.060070959851146" lon="-2.43657398968935">
        <ele>40.030000000000001</ele>
        <time>2023-08-18T10:30:15Z</time>
      </trkpt>
      <trkpt lat="57.060059979557991" lon="-2.43665898218751">
        <ele>39.549999999999997</ele>
        <time>2023-08-18T10:30:16Z</time>
      </trkpt>
      <trkpt lat="57.060039024800062" lon="-2.436759984120727">
        <ele>39.07</ele>
        <time>2023-08-18T10:30:17Z</time>
      </trkpt>
      <trkpt lat="57.06001597456634" lon="-2.436872972175479">
        <ele>38.590000000000003</ele>
        <time>2023-08-18T10:30:18Z</time>
      </trkpt>
      <trkpt lat="57.05999300815165" lon="-2.436983026564121">
        <ele>38.590000000000003</ele>
        <time>2023-08-18T10:30:19Z</time>
      </trkpt>
      <trkpt lat="57.059937017038465" lon="-2.437255019322038">
        <ele>38.590000000000003</ele>
        <time>2023-08-18T10:30:22Z</time>
      </trkpt>
      <trkpt lat="57.059916984289885" lon="-2.437349986284971">
        <ele>39.07</ele>
        <time>2023-08-18T10:30:23Z</time>
      </trkpt>
      <trkpt lat="57.059896029531956" lon="-2.437450988218188">
        <ele>39.549999999999997</ele>
        <time>2023-08-18T10:30:24Z</time>
      </trkpt>
      <trkpt lat="57.05984297208488" lon="-2.438151966780424">
        <ele>41.469999999999999</ele>
        <time>2023-08-18T10:30:26Z</time>
      </trkpt>
      <trkpt lat="57.059942968189716" lon="-2.438273001462221">
        <ele>42.439999999999998</ele>
        <time>2023-08-18T10:30:28Z</time>
      </trkpt>
      <trkpt lat="57.059984961524606" lon="-2.438323963433504">
        <ele>43.399999999999999</ele>
        <time>2023-08-18T10:30:29Z</time>
      </trkpt>
      <trkpt lat="57.060070959851146" lon="-2.438427982851863">
        <ele>46.280000000000001</ele>
        <time>2023-08-18T10:30:31Z</time>
      </trkpt>
      <trkpt lat="57.060095015913248" lon="-2.438429994508624">
        <ele>47.240000000000002</ele>
        <time>2023-08-18T10:30:32Z</time>
      </trkpt>
      <trkpt lat="57.060138015076518" lon="-2.438434017822146">
        <ele>47.719999999999999</ele>
        <time>2023-08-18T10:30:33Z</time>
      </trkpt>
      <trkpt lat="57.06018503755331" lon="-2.438438041135669">
        <ele>48.68</ele>
        <time>2023-08-18T10:30:34Z</time>
      </trkpt>
      <trkpt lat="57.060228958725929" lon="-2.438441980630159">
        <ele>49.159999999999997</ele>
        <time>2023-08-18T10:30:35Z</time>
      </trkpt>
      <trkpt lat="57.060272041708231" lon="-2.438444998115301">
        <ele>49.649999999999999</ele>
        <time>2023-08-18T10:30:36Z</time>
      </trkpt>
      <trkpt lat="57.060328032821417" lon="-2.438450027257204">
        <ele>49.649999999999999</ele>
        <time>2023-08-18T10:30:37Z</time>
      </trkpt>
      <trkpt lat="57.060807980597019" lon="-2.438221033662558">
        <ele>53.490000000000002</ele>
        <time>2023-08-18T10:30:48Z</time>
      </trkpt>
      <trkpt lat="57.060892973095179" lon="-2.438179962337017">
        <ele>54.450000000000003</ele>
        <time>2023-08-18T10:30:50Z</time>
      </trkpt>
      <trkpt lat="57.060933960601687" lon="-2.438161019235849">
        <ele>54.93</ele>
        <time>2023-08-18T10:30:51Z</time>
      </trkpt>
      <trkpt lat="57.060978971421719" lon="-2.438139980658889">
        <ele>55.409999999999997</ele>
        <time>2023-08-18T10:30:52Z</time>
      </trkpt>
      <trkpt lat="57.061077039688826" lon="-2.438092036172748">
        <ele>56.369999999999997</ele>
        <time>2023-08-18T10:30:54Z</time>
      </trkpt>
      <trkpt lat="57.061132024973631" lon="-2.438066974282265">
        <ele>57.340000000000003</ele>
        <time>2023-08-18T10:30:55Z</time>
      </trkpt>
      <trkpt lat="57.061186004430056" lon="-2.438040990382433">
        <ele>57.82</ele>
        <time>2023-08-18T10:30:56Z</time>
      </trkpt>
      <trkpt lat="57.061289018020034" lon="-2.437998997047544">
        <ele>59.259999999999998</ele>
        <time>2023-08-18T10:30:58Z</time>
      </trkpt>
      <trkpt lat="57.061338974162936" lon="-2.437998997047544">
        <ele>59.740000000000002</ele>
        <time>2023-08-18T10:30:59Z</time>
      </trkpt>
      <trkpt lat="57.061503008008003" lon="-2.437998997047544">
        <ele>61.659999999999997</ele>
        <time>2023-08-18T10:31:02Z</time>
      </trkpt>
      <trkpt lat="57.061556987464428" lon="-2.437998997047544">
        <ele>62.619999999999997</ele>
        <time>2023-08-18T10:31:03Z</time>
      </trkpt>
      <trkpt lat="57.06160400994122" lon="-2.437998997047544">
        <ele>63.100000000000001</ele>
        <time>2023-08-18T10:31:04Z</time>
      </trkpt>
      <trkpt lat="57.061648014932871" lon="-2.437998997047544">
        <ele>64.069999999999993</ele>
        <time>2023-08-18T10:31:05Z</time>
      </trkpt>
      <trkpt lat="57.061780029907823" lon="-2.438035039231181">
        <ele>65.030000000000001</ele>
        <time>2023-08-18T10:31:06Z</time>
      </trkpt>
      <trkpt lat="57.061809031292796" lon="-2.438112990930677">
        <ele>65.989999999999995</ele>
        <time>2023-08-18T10:31:07Z</time>
      </trkpt>
      <trkpt lat="57.061839960515499" lon="-2.438191026449204">
        <ele>67.430000000000007</ele>
        <time>2023-08-18T10:31:08Z</time>
      </trkpt>
      <trkpt lat="57.061877008527517" lon="-2.438292028382421">
        <ele>67.909999999999997</ele>
        <time>2023-08-18T10:31:09Z</time>
      </trkpt>
      <trkpt lat="57.061896035447717" lon="-2.438368974253535">
        <ele>68.870000000000005</ele>
        <time>2023-08-18T10:31:10Z</time>
      </trkpt>
      <trkpt lat="57.061911961063743" lon="-2.438434017822146">
        <ele>69.829999999999998</ele>
        <time>2023-08-18T10:31:11Z</time>
      </trkpt>
      <trkpt lat="57.06192696467042" lon="-2.438495038077235">
        <ele>70.790000000000006</ele>
        <time>2023-08-18T10:31:12Z</time>
      </trkpt>
      <trkpt lat="57.06192696467042" lon="-2.438495038077235">
        <ele>71.760000000000005</ele>
        <time>2023-08-18T10:31:13Z</time>
      </trkpt>
      <trkpt lat="57.061959989368916" lon="-2.438625041395426">
        <ele>72.719999999999999</ele>
        <time>2023-08-18T10:31:14Z</time>
      </trkpt>
      <trkpt lat="57.062001982703805" lon="-2.438793014734983">
        <ele>74.159999999999997</ele>
        <time>2023-08-18T10:31:15Z</time>
      </trkpt>
      <trkpt lat="57.062001982703805" lon="-2.438793014734983">
        <ele>74.640000000000001</ele>
        <time>2023-08-18T10:31:16Z</time>
      </trkpt>
      <trkpt lat="57.062009023502469" lon="-2.438803995028138">
        <ele>75.599999999999994</ele>
        <time>2023-08-18T10:31:17Z</time>
      </trkpt>
      <trkpt lat="57.062044981867075" lon="-2.438860991969705">
        <ele>76.560000000000002</ele>
        <time>2023-08-18T10:31:18Z</time>
      </trkpt>
      <trkpt lat="57.062152018770576" lon="-2.439028965309262">
        <ele>81.370000000000005</ele>
        <time>2023-08-18T10:31:23Z</time>
      </trkpt>
      <trkpt lat="57.062152018770576" lon="-2.439028965309262">
        <ele>81.849999999999994</ele>
        <time>2023-08-18T10:31:24Z</time>
      </trkpt>
      <trkpt lat="57.062282022088766" lon="-2.438856968656182">
        <ele>85.209999999999994</ele>
        <time>2023-08-18T10:31:34Z</time>
      </trkpt>
      <trkpt lat="57.062284033745527" lon="-2.438845988363028">
        <ele>85.689999999999998</ele>
        <time>2023-08-18T10:31:41Z</time>
      </trkpt>
      <trkpt lat="57.062146989628673" lon="-2.439021002501249">
        <ele>86.180000000000007</ele>
        <time>2023-08-18T10:31:43Z</time>
      </trkpt>
      <trkpt lat="57.062121005728841" lon="-2.438980014994741">
        <ele>86.180000000000007</ele>
        <time>2023-08-18T10:31:44Z</time>
      </trkpt>
      <trkpt lat="57.062087981030345" lon="-2.438928969204426">
        <ele>86.180000000000007</ele>
        <time>2023-08-18T10:31:45Z</time>
      </trkpt>
      <trkpt lat="57.062055040150881" lon="-2.438877001404762">
        <ele>86.180000000000007</ele>
        <time>2023-08-18T10:31:46Z</time>
      </trkpt>
      <trkpt lat="57.061949009075761" lon="-2.438582964241505">
        <ele>86.180000000000007</ele>
        <time>2023-08-18T10:31:55Z</time>
      </trkpt>
      <trkpt lat="57.061940962448716" lon="-2.438548011705279">
        <ele>86.180000000000007</ele>
        <time>2023-08-18T10:32:00Z</time>
      </trkpt>
      <trkpt lat="57.061931993812323" lon="-2.438513981178403">
        <ele>86.180000000000007</ele>
        <time>2023-08-18T10:32:02Z</time>
      </trkpt>
      <trkpt lat="57.061940962448716" lon="-2.438548011705279">
        <ele>86.180000000000007</ele>
        <time>2023-08-18T10:32:03Z</time>
      </trkpt>
      <trkpt lat="57.061950014904141" lon="-2.438585981726646">
        <ele>86.180000000000007</ele>
        <time>2023-08-18T10:32:04Z</time>
      </trkpt>
      <trkpt lat="57.061960995197296" lon="-2.438630992546678">
        <ele>86.659999999999997</ele>
        <time>2023-08-18T10:32:05Z</time>
      </trkpt>
      <trkpt lat="57.061971975490451" lon="-2.438672985881567">
        <ele>87.140000000000001</ele>
        <time>2023-08-18T10:32:06Z</time>
      </trkpt>
      <trkpt lat="57.061979016289115" lon="-2.438701987266541">
        <ele>87.140000000000001</ele>
        <time>2023-08-18T10:32:07Z</time>
      </trkpt>
      <trkpt lat="57.061979016289115" lon="-2.438701987266541">
        <ele>88.099999999999994</ele>
        <time>2023-08-18T10:32:20Z</time>
      </trkpt>
      <trkpt lat="57.061994019895792" lon="-2.438762001693249">
        <ele>88.099999999999994</ele>
        <time>2023-08-18T10:32:41Z</time>
      </trkpt>
      <trkpt lat="57.06201002933085" lon="-2.438806006684899">
        <ele>88.579999999999998</ele>
        <time>2023-08-18T10:32:42Z</time>
      </trkpt>
      <trkpt lat="57.06203299574554" lon="-2.438841965049505">
        <ele>89.540000000000006</ele>
        <time>2023-08-18T10:32:43Z</time>
      </trkpt>
      <trkpt lat="57.062059985473752" lon="-2.438883958384395">
        <ele>89.540000000000006</ele>
        <time>2023-08-18T10:32:44Z</time>
      </trkpt>
      <trkpt lat="57.062085969373584" lon="-2.438926035538316">
        <ele>90.019999999999996</ele>
        <time>2023-08-18T10:32:45Z</time>
      </trkpt>
      <trkpt lat="57.062375983223319" lon="-2.438591010868549">
        <ele>90.5</ele>
        <time>2023-08-18T10:32:52Z</time>
      </trkpt>
      <trkpt lat="57.062461981549859" lon="-2.438376015052199">
        <ele>90.019999999999996</ele>
        <time>2023-08-18T10:32:56Z</time>
      </trkpt>
      <trkpt lat="57.06250699236989" lon="-2.438023975118995">
        <ele>88.099999999999994</ele>
        <time>2023-08-18T10:33:09Z</time>
      </trkpt>
      <trkpt lat="57.062329966574907" lon="-2.437897995114327">
        <ele>85.689999999999998</ele>
        <time>2023-08-18T10:33:14Z</time>
      </trkpt>
      <trkpt lat="57.062073983252048" lon="-2.438237965106964">
        <ele>82.810000000000002</ele>
        <time>2023-08-18T10:33:26Z</time>
      </trkpt>
      <trkpt lat="57.061925958842039" lon="-2.438490008935332">
        <ele>82.810000000000002</ele>
        <time>2023-08-18T10:33:28Z</time>
      </trkpt>
      <trkpt lat="57.061940962448716" lon="-2.438550023362041">
        <ele>82.810000000000002</ele>
        <time>2023-08-18T10:33:29Z</time>
      </trkpt>
      <trkpt lat="57.061955966055393" lon="-2.438610037788749">
        <ele>82.810000000000002</ele>
        <time>2023-08-18T10:33:30Z</time>
      </trkpt>
      <trkpt lat="57.06198999658227" lon="-2.438745992258191">
        <ele>83.290000000000006</ele>
        <time>2023-08-18T10:33:32Z</time>
      </trkpt>
      <trkpt lat="57.062001982703805" lon="-2.438793014734983">
        <ele>83.290000000000006</ele>
        <time>2023-08-18T10:33:33Z</time>
      </trkpt>
      <trkpt lat="57.062001982703805" lon="-2.438793014734983">
        <ele>83.290000000000006</ele>
        <time>2023-08-18T10:33:34Z</time>
      </trkpt>
      <trkpt lat="57.062137015163898" lon="-2.439005998894572">
        <ele>84.25</ele>
        <time>2023-08-18T10:33:37Z</time>
      </trkpt>
      <trkpt lat="57.062137015163898" lon="-2.439005998894572">
        <ele>84.25</ele>
        <time>2023-08-18T10:33:48Z</time>
      </trkpt>
      <trkpt lat="57.062271041795611" lon="-2.438878007233143">
        <ele>108.29000000000001</ele>
        <time>2023-08-18T10:37:46Z</time>
      </trkpt>
      <trkpt lat="57.062243968248367" lon="-2.438924023881555">
        <ele>99.150000000000006</ele>
        <time>2023-08-18T10:38:18Z</time>
      </trkpt>
      <trkpt lat="57.062216978520155" lon="-2.438982026651502">
        <ele>99.150000000000006</ele>
        <time>2023-08-18T10:39:03Z</time>
      </trkpt>
      <trkpt lat="57.062193006277084" lon="-2.438967023044825">
        <ele>97.709999999999994</ele>
        <time>2023-08-18T10:39:32Z</time>
      </trkpt>
      <trkpt lat="57.062212033197284" lon="-2.438941961154342">
        <ele>97.709999999999994</ele>
        <time>2023-08-18T10:40:01Z</time>
      </trkpt>
      <trkpt lat="57.062197029590607" lon="-2.438944978639484">
        <ele>95.790000000000006</ele>
        <time>2023-08-18T10:40:23Z</time>
      </trkpt>
      <trkpt lat="57.062128968536854" lon="-2.438992001116276">
        <ele>95.790000000000006</ele>
        <time>2023-08-18T10:40:25Z</time>
      </trkpt>
      <trkpt lat="57.06209703348577" lon="-2.438942966982722">
        <ele>95.790000000000006</ele>
        <time>2023-08-18T10:40:26Z</time>
      </trkpt>
      <trkpt lat="57.062059985473752" lon="-2.438884964212775">
        <ele>95.790000000000006</ele>
        <time>2023-08-18T10:40:27Z</time>
      </trkpt>
      <trkpt lat="57.062022015452385" lon="-2.438825033605099">
        <ele>95.310000000000002</ele>
        <time>2023-08-18T10:40:28Z</time>
      </trkpt>
      <trkpt lat="57.061984967440367" lon="-2.438724031671882">
        <ele>94.829999999999998</ele>
        <time>2023-08-18T10:40:29Z</time>
      </trkpt>
      <trkpt lat="57.061946997419" lon="-2.438575001433492">
        <ele>93.390000000000001</ele>
        <time>2023-08-18T10:40:31Z</time>
      </trkpt>
      <trkpt lat="57.06190399825573" lon="-2.438401998952031">
        <ele>91.939999999999998</ele>
        <time>2023-08-18T10:40:33Z</time>
      </trkpt>
      <trkpt lat="57.061874996870756" lon="-2.438286999240518">
        <ele>91.459999999999994</ele>
        <time>2023-08-18T10:40:34Z</time>
      </trkpt>
      <trkpt lat="57.061829986050725" lon="-2.438166970387101">
        <ele>90.5</ele>
        <time>2023-08-18T10:40:35Z</time>
      </trkpt>
      <trkpt lat="57.061785981059074" lon="-2.438051970675588">
        <ele>89.540000000000006</ele>
        <time>2023-08-18T10:40:36Z</time>
      </trkpt>
      <trkpt lat="57.061766032129526" lon="-2.437998997047544">
        <ele>88.579999999999998</ele>
        <time>2023-08-18T10:40:37Z</time>
      </trkpt>
      <trkpt lat="57.061657989397645" lon="-2.437998997047544">
        <ele>87.620000000000005</ele>
        <time>2023-08-18T10:40:38Z</time>
      </trkpt>
      <trkpt lat="57.061596969142556" lon="-2.437998997047544">
        <ele>86.180000000000007</ele>
        <time>2023-08-18T10:40:39Z</time>
      </trkpt>
      <trkpt lat="57.061524968594313" lon="-2.437998997047544">
        <ele>85.209999999999994</ele>
        <time>2023-08-18T10:40:40Z</time>
      </trkpt>
      <trkpt lat="57.061449028551579" lon="-2.437998997047544">
        <ele>84.25</ele>
        <time>2023-08-18T10:40:41Z</time>
      </trkpt>
      <trkpt lat="57.061373004689813" lon="-2.437998997047544">
        <ele>83.290000000000006</ele>
        <time>2023-08-18T10:40:42Z</time>
      </trkpt>
      <trkpt lat="57.061296980828047" lon="-2.437998997047544">
        <ele>81.370000000000005</ele>
        <time>2023-08-18T10:40:43Z</time>
      </trkpt>
      <trkpt lat="57.061229003593326" lon="-2.438020035624504">
        <ele>80.409999999999997</ele>
        <time>2023-08-18T10:40:44Z</time>
      </trkpt>
      <trkpt lat="57.061161026358604" lon="-2.438051970675588">
        <ele>78.480000000000004</ele>
        <time>2023-08-18T10:40:45Z</time>
      </trkpt>
      <trkpt lat="57.061090031638741" lon="-2.438086001202464">
        <ele>77.040000000000006</ele>
        <time>2023-08-18T10:40:46Z</time>
      </trkpt>
      <trkpt lat="57.061019036918879" lon="-2.438120031729341">
        <ele>75.599999999999994</ele>
        <time>2023-08-18T10:40:47Z</time>
      </trkpt>
      <trkpt lat="57.060870006680489" lon="-2.438191026449204">
        <ele>72.239999999999995</ele>
        <time>2023-08-18T10:40:49Z</time>
      </trkpt>
      <trkpt lat="57.060790965333581" lon="-2.438228996470571">
        <ele>70.310000000000002</ele>
        <time>2023-08-18T10:40:50Z</time>
      </trkpt>
      <trkpt lat="57.060718964785337" lon="-2.438263026997447">
        <ele>68.870000000000005</ele>
        <time>2023-08-18T10:40:51Z</time>
      </trkpt>
      <trkpt lat="57.060590973123908" lon="-2.438323963433504">
        <ele>65.510000000000005</ele>
        <time>2023-08-18T10:40:53Z</time>
      </trkpt>
      <trkpt lat="57.060542022809386" lon="-2.438348019495606">
        <ele>64.549999999999997</ele>
        <time>2023-08-18T10:40:54Z</time>
      </trkpt>
      <trkpt lat="57.060468010604382" lon="-2.438382972031832">
        <ele>61.659999999999997</ele>
        <time>2023-08-18T10:40:56Z</time>
      </trkpt>
      <trkpt lat="57.060300037264824" lon="-2.438448015600443">
        <ele>57.82</ele>
        <time>2023-08-18T10:40:59Z</time>
      </trkpt>
      <trkpt lat="57.06023097038269" lon="-2.438441980630159">
        <ele>56.859999999999999</ele>
        <time>2023-08-18T10:41:00Z</time>
      </trkpt>
      <trkpt lat="57.060161987319589" lon="-2.438436029478908">
        <ele>54.93</ele>
        <time>2023-08-18T10:41:01Z</time>
      </trkpt>
      <trkpt lat="57.060070959851146" lon="-2.438427982851863">
        <ele>53.009999999999998</ele>
        <time>2023-08-18T10:41:02Z</time>
      </trkpt>
      <trkpt lat="57.060038018971682" lon="-2.438388001173735">
        <ele>50.609999999999999</ele>
        <time>2023-08-18T10:41:03Z</time>
      </trkpt>
      <trkpt lat="57.059981022030115" lon="-2.438319018110633">
        <ele>48.68</ele>
        <time>2023-08-18T10:41:04Z</time>
      </trkpt>
      <trkpt lat="57.059927964583039" lon="-2.438255986198783">
        <ele>46.280000000000001</ele>
        <time>2023-08-18T10:41:05Z</time>
      </trkpt>
      <trkpt lat="57.059794021770358" lon="-2.437949040904641">
        <ele>44.359999999999999</ele>
        <time>2023-08-18T10:41:06Z</time>
      </trkpt>
      <trkpt lat="57.059815982356668" lon="-2.437839992344379">
        <ele>42.920000000000002</ele>
        <time>2023-08-18T10:41:07Z</time>
      </trkpt>
      <trkpt lat="57.059837020933628" lon="-2.437737984582782">
        <ele>41.469999999999999</ele>
        <time>2023-08-18T10:41:08Z</time>
      </trkpt>
      <trkpt lat="57.059860993176699" lon="-2.437620973214507">
        <ele>39.549999999999997</ele>
        <time>2023-08-18T10:41:09Z</time>
      </trkpt>
      <trkpt lat="57.05988697707653" lon="-2.437494993209839">
        <ele>38.109999999999999</ele>
        <time>2023-08-18T10:41:10Z</time>
      </trkpt>
      <trkpt lat="57.059916984289885" lon="-2.437351997941732">
        <ele>37.149999999999999</ele>
        <time>2023-08-18T10:41:11Z</time>
      </trkpt>
      <trkpt lat="57.059945985674858" lon="-2.437209002673626">
        <ele>35.710000000000001</ele>
        <time>2023-08-18T10:41:12Z</time>
      </trkpt>
      <trkpt lat="57.059976998716593" lon="-2.437057960778475">
        <ele>34.740000000000002</ele>
        <time>2023-08-18T10:41:13Z</time>
      </trkpt>
      <trkpt lat="57.060009017586708" lon="-2.436904991045594">
        <ele>33.299999999999997</ele>
        <time>2023-08-18T10:41:14Z</time>
      </trkpt>
      <trkpt lat="57.060070959851146" lon="-2.436605002731085">
        <ele>30.899999999999999</ele>
        <time>2023-08-18T10:41:16Z</time>
      </trkpt>
      <trkpt lat="57.060070959851146" lon="-2.43648698553443">
        <ele>29.940000000000001</ele>
        <time>2023-08-18T10:41:17Z</time>
      </trkpt>
      <trkpt lat="57.060070959851146" lon="-2.436343990266323">
        <ele>28.5</ele>
        <time>2023-08-18T10:41:18Z</time>
      </trkpt>
      <trkpt lat="57.060070959851146" lon="-2.436076020821929">
        <ele>26.57</ele>
        <time>2023-08-18T10:41:20Z</time>
      </trkpt>
      <trkpt lat="57.060070959851146" lon="-2.435840992256999">
        <ele>25.129999999999999</ele>
        <time>2023-08-18T10:41:22Z</time>
      </trkpt>
      <trkpt lat="57.060070959851146" lon="-2.43547503836453">
        <ele>24.170000000000002</ele>
        <time>2023-08-18T10:41:25Z</time>
      </trkpt>
      <trkpt lat="57.060070959851146" lon="-2.435365989804268">
        <ele>23.690000000000001</ele>
        <time>2023-08-18T10:41:26Z</time>
      </trkpt>
      <trkpt lat="57.060046987608075" lon="-2.435188964009285">
        <ele>23.210000000000001</ele>
        <time>2023-08-18T10:41:27Z</time>
      </trkpt>
      <trkpt lat="57.060022009536624" lon="-2.435015961527824">
        <ele>22.73</ele>
        <time>2023-08-18T10:41:28Z</time>
      </trkpt>
      <trkpt lat="57.059995019808412" lon="-2.434818986803293">
        <ele>22.73</ele>
        <time>2023-08-18T10:41:29Z</time>
      </trkpt>
      <trkpt lat="57.059889994561672" lon="-2.434072997421026">
        <ele>25.609999999999999</ele>
        <time>2023-08-18T10:41:33Z</time>
      </trkpt>
      <trkpt lat="57.059751022607088" lon="-2.433079993352294">
        <ele>31.379999999999999</ele>
        <time>2023-08-18T10:41:39Z</time>
      </trkpt>
      <trkpt lat="57.059728978201747" lon="-2.432923000305891">
        <ele>32.340000000000003</ele>
        <time>2023-08-18T10:41:40Z</time>
      </trkpt>
      <trkpt lat="57.059679022058845" lon="-2.432618988677859">
        <ele>33.299999999999997</ele>
        <time>2023-08-18T10:41:42Z</time>
      </trkpt>
      <trkpt lat="57.059626970440149" lon="-2.432297961786389">
        <ele>34.740000000000002</ele>
        <time>2023-08-18T10:41:44Z</time>
      </trkpt>
      <trkpt lat="57.059583971276879" lon="-2.432032003998756">
        <ele>36.189999999999998</ele>
        <time>2023-08-18T10:41:46Z</time>
      </trkpt>
      <trkpt lat="57.059538960456848" lon="-2.431761017069221">
        <ele>36.670000000000002</ele>
        <time>2023-08-18T10:41:48Z</time>
      </trkpt>
      <trkpt lat="57.059513982385397" lon="-2.431606035679579">
        <ele>36.670000000000002</ele>
        <time>2023-08-18T10:41:49Z</time>
      </trkpt>
      <trkpt lat="57.059490010142326" lon="-2.431454993784428">
        <ele>36.670000000000002</ele>
        <time>2023-08-18T10:41:50Z</time>
      </trkpt>
      <trkpt lat="57.059421027079225" lon="-2.431032964959741">
        <ele>37.149999999999999</ele>
        <time>2023-08-18T10:41:53Z</time>
      </trkpt>
      <trkpt lat="57.059402000159025" lon="-2.430876977741718">
        <ele>37.149999999999999</ele>
        <time>2023-08-18T10:41:54Z</time>
      </trkpt>
      <trkpt lat="57.059383979067206" lon="-2.430597022175789">
        <ele>37.149999999999999</ele>
        <time>2023-08-18T10:41:56Z</time>
      </trkpt>
      <trkpt lat="57.059375010430813" lon="-2.430446986109018">
        <ele>37.149999999999999</ele>
        <time>2023-08-18T10:41:57Z</time>
      </trkpt>
      <trkpt lat="57.059317007660866" lon="-2.429527994245291">
        <ele>36.670000000000002</ele>
        <time>2023-08-18T10:42:03Z</time>
      </trkpt>
      <trkpt lat="57.059308961033821" lon="-2.429388016462326">
        <ele>36.670000000000002</ele>
        <time>2023-08-18T10:42:04Z</time>
      </trkpt>
      <trkpt lat="57.059299992397428" lon="-2.42924896068871">
        <ele>36.189999999999998</ele>
        <time>2023-08-18T10:42:05Z</time>
      </trkpt>
      <trkpt lat="57.059254981577396" lon="-2.429128009825945">
        <ele>36.189999999999998</ele>
        <time>2023-08-18T10:42:06Z</time>
      </trkpt>
      <trkpt lat="57.059199996292591" lon="-2.429007980972529">
        <ele>35.710000000000001</ele>
        <time>2023-08-18T10:42:07Z</time>
      </trkpt>
      <trkpt lat="57.059145011007786" lon="-2.428888035938144">
        <ele>35.229999999999997</ele>
        <time>2023-08-18T10:42:08Z</time>
      </trkpt>
      <trkpt lat="57.059086002409458" lon="-2.428759960457683">
        <ele>34.259999999999998</ele>
        <time>2023-08-18T10:42:09Z</time>
      </trkpt>
      <trkpt lat="57.059030011296272" lon="-2.428634986281395">
        <ele>33.780000000000001</ele>
        <time>2023-08-18T10:42:10Z</time>
      </trkpt>
      <trkpt lat="57.058972008526325" lon="-2.428509006276727">
        <ele>33.780000000000001</ele>
        <time>2023-08-18T10:42:11Z</time>
      </trkpt>
      <trkpt lat="57.058912999927998" lon="-2.428381014615297">
        <ele>33.299999999999997</ele>
        <time>2023-08-18T10:42:12Z</time>
      </trkpt>
      <trkpt lat="57.058858014643192" lon="-2.428260985761881">
        <ele>33.299999999999997</ele>
        <time>2023-08-18T10:42:13Z</time>
      </trkpt>
      <trkpt lat="57.058814009651542" lon="-2.428164007142186">
        <ele>33.299999999999997</ele>
        <time>2023-08-18T10:42:14Z</time>
      </trkpt>
      <trkpt lat="57.058776961639524" lon="-2.428082032129169">
        <ele>33.299999999999997</ele>
        <time>2023-08-18T10:42:15Z</time>
      </trkpt>
      <trkpt lat="57.058734968304634" lon="-2.427991004660726">
        <ele>33.299999999999997</ele>
        <time>2023-08-18T10:42:16Z</time>
      </trkpt>
      <trkpt lat="57.058685012161732" lon="-2.427882961928845">
        <ele>33.299999999999997</ele>
        <time>2023-08-18T10:42:17Z</time>
      </trkpt>
      <trkpt lat="57.058605970814824" lon="-2.427719011902809">
        <ele>33.299999999999997</ele>
        <time>2023-08-18T10:42:18Z</time>
      </trkpt>
      <trkpt lat="57.058418970555067" lon="-2.427631001919508">
        <ele>33.299999999999997</ele>
        <time>2023-08-18T10:42:20Z</time>
      </trkpt>
      <trkpt lat="57.058329032734036" lon="-2.427589008584619">
        <ele>32.82</ele>
        <time>2023-08-18T10:42:21Z</time>
      </trkpt>
      <trkpt lat="57.058235993608832" lon="-2.427545003592968">
        <ele>32.82</ele>
        <time>2023-08-18T10:42:22Z</time>
      </trkpt>
      <trkpt lat="57.058058967813849" lon="-2.42746202275157">
        <ele>33.299999999999997</ele>
        <time>2023-08-18T10:42:24Z</time>
      </trkpt>
      <trkpt lat="57.057898035272956" lon="-2.427370995283127">
        <ele>32.82</ele>
        <time>2023-08-18T10:42:26Z</time>
      </trkpt>
      <trkpt lat="57.057612966746092" lon="-2.427079975605011">
        <ele>33.299999999999997</ele>
        <time>2023-08-18T10:42:30Z</time>
      </trkpt>
      <trkpt lat="57.057097982615232" lon="-2.426555017009378">
        <ele>36.670000000000002</ele>
        <time>2023-08-18T10:42:38Z</time>
      </trkpt>
      <trkpt lat="57.057036962360144" lon="-2.426491985097528">
        <ele>36.670000000000002</ele>
        <time>2023-08-18T10:42:39Z</time>
      </trkpt>
      <trkpt lat="57.056979965418577" lon="-2.426433982327581">
        <ele>37.149999999999999</ele>
        <time>2023-08-18T10:42:40Z</time>
      </trkpt>
      <trkpt lat="57.056937972083688" lon="-2.426390983164311">
        <ele>37.149999999999999</ele>
        <time>2023-08-18T10:42:41Z</time>
      </trkpt>
      <trkpt lat="57.056863037869334" lon="-2.42641101591289">
        <ele>37.149999999999999</ele>
        <time>2023-08-18T10:42:42Z</time>
      </trkpt>
      <trkpt lat="57.056823978200555" lon="-2.426420990377665">
        <ele>37.149999999999999</ele>
        <time>2023-08-18T10:42:43Z</time>
      </trkpt>
      <trkpt lat="57.056796988472342" lon="-2.426428031176329">
        <ele>37.149999999999999</ele>
        <time>2023-08-18T10:42:44Z</time>
      </trkpt>
      <trkpt lat="57.056719958782196" lon="-2.426448985934258">
        <ele>39.07</ele>
        <time>2023-08-18T10:42:48Z</time>
      </trkpt>
      <trkpt lat="57.056625997647643" lon="-2.426409004256129">
        <ele>39.549999999999997</ele>
        <time>2023-08-18T10:42:49Z</time>
      </trkpt>
      <trkpt lat="57.056616023182869" lon="-2.42647698149085">
        <ele>40.030000000000001</ele>
        <time>2023-08-18T10:42:50Z</time>
      </trkpt>
      <trkpt lat="57.056607976555824" lon="-2.426632968708873">
        <ele>40.509999999999998</ele>
        <time>2023-08-18T10:42:51Z</time>
      </trkpt>
      <trkpt lat="57.056600013747811" lon="-2.426774958148599">
        <ele>40.990000000000002</ele>
        <time>2023-08-18T10:42:52Z</time>
      </trkpt>
      <trkpt lat="57.056591967120767" lon="-2.42692700587213">
        <ele>40.990000000000002</ele>
        <time>2023-08-18T10:42:53Z</time>
      </trkpt>
      <trkpt lat="57.056585010141134" lon="-2.427058015018702">
        <ele>40.509999999999998</ele>
        <time>2023-08-18T10:42:54Z</time>
      </trkpt>
      <trkpt lat="57.056566989049315" lon="-2.427389016374946">
        <ele>39.07</ele>
        <time>2023-08-18T10:42:56Z</time>
      </trkpt>
      <trkpt lat="57.056460035964847" lon="-2.429648023098707">
        <ele>37.630000000000003</ele>
        <time>2023-08-18T10:43:04Z</time>
      </trkpt>
      <trkpt lat="57.056356016546488" lon="-2.431794041767716">
        <ele>36.189999999999998</ele>
        <time>2023-08-18T10:43:11Z</time>
      </trkpt>
      <trkpt lat="57.056030966341496" lon="-2.433637976646423">
        <ele>33.299999999999997</ele>
        <time>2023-08-18T10:43:18Z</time>
      </trkpt>
      <trkpt lat="57.055986039340496" lon="-2.433897983282805">
        <ele>33.299999999999997</ele>
        <time>2023-08-18T10:43:19Z</time>
      </trkpt>
      <trkpt lat="57.055680016055703" lon="-2.435892038047314">
        <ele>32.82</ele>
        <time>2023-08-18T10:43:26Z</time>
      </trkpt>
      <trkpt lat="57.055628970265388" lon="-2.437199028208852">
        <ele>36.670000000000002</ele>
        <time>2023-08-18T10:43:30Z</time>
      </trkpt>
      <trkpt lat="57.05588998273015" lon="-2.440020963549614">
        <ele>40.990000000000002</ele>
        <time>2023-08-18T10:43:39Z</time>
      </trkpt>
      <trkpt lat="57.056322991847992" lon="-2.44243998080492">
        <ele>44.840000000000003</ele>
        <time>2023-08-18T10:43:47Z</time>
      </trkpt>
      <trkpt lat="57.056732028722763" lon="-2.444825973361731">
        <ele>52.530000000000001</ele>
        <time>2023-08-18T10:43:55Z</time>
      </trkpt>
      <trkpt lat="57.056806962937117" lon="-2.445427961647511">
        <ele>53.490000000000002</ele>
        <time>2023-08-18T10:43:57Z</time>
      </trkpt>
      <trkpt lat="57.05687602981925" lon="-2.446359023451805">
        <ele>55.409999999999997</ele>
        <time>2023-08-18T10:44:00Z</time>
      </trkpt>
      <trkpt lat="57.05689899623394" lon="-2.446658005937934">
        <ele>55.890000000000001</ele>
        <time>2023-08-18T10:44:01Z</time>
      </trkpt>
      <trkpt lat="57.056947024539113" lon="-2.447301987558603">
        <ele>56.859999999999999</ele>
        <time>2023-08-18T10:44:03Z</time>
      </trkpt>
      <trkpt lat="57.057257993146777" lon="-2.449686974287033">
        <ele>60.219999999999999</ele>
        <time>2023-08-18T10:44:10Z</time>
      </trkpt>
      <trkpt lat="57.057937011122704" lon="-2.453078962862492">
        <ele>62.619999999999997</ele>
        <time>2023-08-18T10:44:20Z</time>
      </trkpt>
      <trkpt lat="57.058516032993793" lon="-2.455706018954516">
        <ele>66.950000000000003</ele>
        <time>2023-08-18T10:44:28Z</time>
      </trkpt>
      <trkpt lat="57.058955999091268" lon="-2.458610013127327">
        <ele>69.829999999999998</ele>
        <time>2023-08-18T10:44:37Z</time>
      </trkpt>
      <trkpt lat="57.059349026530981" lon="-2.461432032287121">
        <ele>70.790000000000006</ele>
        <time>2023-08-18T10:44:47Z</time>
      </trkpt>
      <trkpt lat="57.059329999610782" lon="-2.463925983756781">
        <ele>70.790000000000006</ele>
        <time>2023-08-18T10:44:55Z</time>
      </trkpt>
      <trkpt lat="57.058859020471573" lon="-2.466250034049153">
        <ele>69.829999999999998</ele>
        <time>2023-08-18T10:45:02Z</time>
      </trkpt>
      <trkpt lat="57.058143960312009" lon="-2.46880098246038">
        <ele>70.790000000000006</ele>
        <time>2023-08-18T10:45:11Z</time>
      </trkpt>
      <trkpt lat="57.057410962879658" lon="-2.471802039071918">
        <ele>69.829999999999998</ele>
        <time>2023-08-18T10:45:23Z</time>
      </trkpt>
      <trkpt lat="57.056673020124435" lon="-2.474132962524891">
        <ele>70.310000000000002</ele>
        <time>2023-08-18T10:45:34Z</time>
      </trkpt>
      <trkpt lat="57.056184019893408" lon="-2.475988967344165">
        <ele>68.390000000000001</ele>
        <time>2023-08-18T10:45:44Z</time>
      </trkpt>
      <trkpt lat="57.055559987202287" lon="-2.477851007133722">
        <ele>68.390000000000001</ele>
        <time>2023-08-18T10:45:55Z</time>
      </trkpt>
      <trkpt lat="57.05539301969111" lon="-2.47829700820148">
        <ele>67.909999999999997</ele>
        <time>2023-08-18T10:46:01Z</time>
      </trkpt>
      <trkpt lat="57.055374998599291" lon="-2.478350987657905">
        <ele>68.390000000000001</ele>
        <time>2023-08-18T10:46:12Z</time>
      </trkpt>
      <trkpt lat="57.055103005841374" lon="-2.4789849948138">
        <ele>66.469999999999999</ele>
        <time>2023-08-18T10:46:18Z</time>
      </trkpt>
      <trkpt lat="57.054204968735576" lon="-2.480845022946596">
        <ele>66.950000000000003</ele>
        <time>2023-08-18T10:46:30Z</time>
      </trkpt>
      <trkpt lat="57.053686967119575" lon="-2.481921007856727">
        <ele>68.390000000000001</ele>
        <time>2023-08-18T10:46:37Z</time>
      </trkpt>
      <trkpt lat="57.05361102707684" lon="-2.482085041701794">
        <ele>67.909999999999997</ele>
        <time>2023-08-18T10:46:38Z</time>
      </trkpt>
      <trkpt lat="57.052707960829139" lon="-2.483977004885674">
        <ele>67.430000000000007</ele>
        <time>2023-08-18T10:46:50Z</time>
      </trkpt>
      <trkpt lat="57.052559014409781" lon="-2.484299037605524">
        <ele>66.950000000000003</ele>
        <time>2023-08-18T10:46:52Z</time>
      </trkpt>
      <trkpt lat="57.052487013861537" lon="-2.48446399345994">
        <ele>66.950000000000003</ele>
        <time>2023-08-18T10:46:53Z</time>
      </trkpt>
      <trkpt lat="57.052047969773412" lon="-2.486084969714284">
        <ele>65.030000000000001</ele>
        <time>2023-08-18T10:47:01Z</time>
      </trkpt>
      <trkpt lat="57.051889970898628" lon="-2.48691201210022">
        <ele>62.140000000000001</ele>
        <time>2023-08-18T10:47:08Z</time>
      </trkpt>
      <trkpt lat="57.051830962300301" lon="-2.487222980707884">
        <ele>60.219999999999999</ele>
        <time>2023-08-18T10:47:17Z</time>
      </trkpt>
      <trkpt lat="57.051815958693624" lon="-2.487378967925906">
        <ele>59.259999999999998</ele>
        <time>2023-08-18T10:47:23Z</time>
      </trkpt>
      <trkpt lat="57.051809001713991" lon="-2.487453985959292">
        <ele>59.740000000000002</ele>
        <time>2023-08-18T10:47:24Z</time>
      </trkpt>
      <trkpt lat="57.051767008379102" lon="-2.487896969541907">
        <ele>59.740000000000002</ele>
        <time>2023-08-18T10:47:31Z</time>
      </trkpt>
      <trkpt lat="57.051757033914328" lon="-2.487995959818363">
        <ele>59.740000000000002</ele>
        <time>2023-08-18T10:47:58Z</time>
      </trkpt>
      <trkpt lat="57.051750998944044" lon="-2.488063015043736">
        <ele>60.219999999999999</ele>
        <time>2023-08-18T10:47:59Z</time>
      </trkpt>
      <trkpt lat="57.05178402364254" lon="-2.488149013370276">
        <ele>61.18</ele>
        <time>2023-08-18T10:48:00Z</time>
      </trkpt>
      <trkpt lat="57.051843032240868" lon="-2.488186983391643">
        <ele>61.659999999999997</ele>
        <time>2023-08-18T10:48:01Z</time>
      </trkpt>
      <trkpt lat="57.051902962848544" lon="-2.488225037232041">
        <ele>62.140000000000001</ele>
        <time>2023-08-18T10:48:02Z</time>
      </trkpt>
      <trkpt lat="57.051961971446872" lon="-2.488263007253408">
        <ele>62.619999999999997</ele>
        <time>2023-08-18T10:48:03Z</time>
      </trkpt>
      <trkpt lat="57.05202198587358" lon="-2.488307012245059">
        <ele>62.619999999999997</ele>
        <time>2023-08-18T10:48:04Z</time>
      </trkpt>
      <trkpt lat="57.052080994471908" lon="-2.488354034721851">
        <ele>62.619999999999997</ele>
        <time>2023-08-18T10:48:05Z</time>
      </trkpt>
      <trkpt lat="57.052868977189064" lon="-2.489051995798945">
        <ele>67.430000000000007</ele>
        <time>2023-08-18T10:48:15Z</time>
      </trkpt>
      <trkpt lat="57.05421301536262" lon="-2.490292014554143">
        <ele>74.640000000000001</ele>
        <time>2023-08-18T10:48:28Z</time>
      </trkpt>
      <trkpt lat="57.055106023326516" lon="-2.490990981459618">
        <ele>74.640000000000001</ele>
        <time>2023-08-18T10:48:36Z</time>
      </trkpt>
      <trkpt lat="57.056522984057665" lon="-2.491716016083956">
        <ele>83.769999999999996</ele>
        <time>2023-08-18T10:48:48Z</time>
      </trkpt>
      <trkpt lat="57.058241022750735" lon="-2.492481032386422">
        <ele>98.670000000000002</ele>
        <time>2023-08-18T10:49:02Z</time>
      </trkpt>
      <trkpt lat="57.059814976528287" lon="-2.493265997618437">
        <ele>105.40000000000001</ele>
        <time>2023-08-18T10:49:15Z</time>
      </trkpt>
      <trkpt lat="57.059930982068181" lon="-2.493370017036796">
        <ele>105.88</ele>
        <time>2023-08-18T10:49:16Z</time>
      </trkpt>
      <trkpt lat="57.060845028609037" lon="-2.494621016085148">
        <ele>107.31999999999999</ele>
        <time>2023-08-18T10:49:25Z</time>
      </trkpt>
      <trkpt lat="57.062029978260398" lon="-2.495863968506455">
        <ele>103.95999999999999</ele>
        <time>2023-08-18T10:49:36Z</time>
      </trkpt>
      <trkpt lat="57.063209982588887" lon="-2.496586991474032">
        <ele>102.52</ele>
        <time>2023-08-18T10:49:46Z</time>
      </trkpt>
      <trkpt lat="57.06431002356112" lon="-2.497265003621578">
        <ele>101.08</ele>
        <time>2023-08-18T10:49:54Z</time>
      </trkpt>
      <trkpt lat="57.065855981782079" lon="-2.498292038217187">
        <ele>101.08</ele>
        <time>2023-08-18T10:50:05Z</time>
      </trkpt>
      <trkpt lat="57.067380985245109" lon="-2.499445974826813">
        <ele>97.709999999999994</ele>
        <time>2023-08-18T10:50:15Z</time>
      </trkpt>
      <trkpt lat="57.067544013261795" lon="-2.499569021165371">
        <ele>97.230000000000004</ele>
        <time>2023-08-18T10:50:16Z</time>
      </trkpt>
      <trkpt lat="57.0686299726367" lon="-2.500443002209067">
        <ele>91.459999999999994</ele>
        <time>2023-08-18T10:50:23Z</time>
      </trkpt>
      <trkpt lat="57.068760981783271" lon="-2.50064198859036">
        <ele>90.5</ele>
        <time>2023-08-18T10:50:24Z</time>
      </trkpt>
      <trkpt lat="57.068884028121829" lon="-2.500849021598697">
        <ele>90.5</ele>
        <time>2023-08-18T10:50:25Z</time>
      </trkpt>
      <trkpt lat="57.070260001346469" lon="-2.503102999180555">
        <ele>90.980000000000004</ele>
        <time>2023-08-18T10:50:35Z</time>
      </trkpt>
      <trkpt lat="57.071601022034883" lon="-2.504529012367129">
        <ele>92.420000000000002</ele>
        <time>2023-08-18T10:50:43Z</time>
      </trkpt>
      <trkpt lat="57.073558028787374" lon="-2.505487985908985">
        <ele>96.269999999999996</ele>
        <time>2023-08-18T10:50:54Z</time>
      </trkpt>
      <trkpt lat="57.075098035857081" lon="-2.506156023591757">
        <ele>98.189999999999998</ele>
        <time>2023-08-18T10:51:03Z</time>
      </trkpt>
      <trkpt lat="57.075395006686449" lon="-2.506127022206783">
        <ele>99.150000000000006</ele>
        <time>2023-08-18T10:51:05Z</time>
      </trkpt>
      <trkpt lat="57.075551999732852" lon="-2.506075976416469">
        <ele>99.150000000000006</ele>
        <time>2023-08-18T10:51:06Z</time>
      </trkpt>
      <trkpt lat="57.075721984729171" lon="-2.506019985303283">
        <ele>99.629999999999995</ele>
        <time>2023-08-18T10:51:07Z</time>
      </trkpt>
      <trkpt lat="57.077428037300706" lon="-2.50547700561583">
        <ele>100.59999999999999</ele>
        <time>2023-08-18T10:51:16Z</time>
      </trkpt>
      <trkpt lat="57.079016994684935" lon="-2.50547599978745">
        <ele>99.629999999999995</ele>
        <time>2023-08-18T10:51:25Z</time>
      </trkpt>
      <trkpt lat="57.079171976074576" lon="-2.505540959537029">
        <ele>99.629999999999995</ele>
        <time>2023-08-18T10:51:26Z</time>
      </trkpt>
      <trkpt lat="57.079310026019812" lon="-2.505643973127008">
        <ele>99.629999999999995</ele>
        <time>2023-08-18T10:51:27Z</time>
      </trkpt>
      <trkpt lat="57.080431021749973" lon="-2.506262976676226">
        <ele>100.59999999999999</ele>
        <time>2023-08-18T10:51:35Z</time>
      </trkpt>
      <trkpt lat="57.080558007583022" lon="-2.506284015253186">
        <ele>100.59999999999999</ele>
        <time>2023-08-18T10:51:36Z</time>
      </trkpt>
      <trkpt lat="57.080917004495859" lon="-2.506344029679894">
        <ele>100.59999999999999</ele>
        <time>2023-08-18T10:51:40Z</time>
      </trkpt>
      <trkpt lat="57.080976013094187" lon="-2.506352998316288">
        <ele>100.11</ele>
        <time>2023-08-18T10:51:41Z</time>
      </trkpt>
      <trkpt lat="57.081073997542262" lon="-2.506370013579726">
        <ele>99.629999999999995</ele>
        <time>2023-08-18T10:51:43Z</time>
      </trkpt>
      <trkpt lat="57.0811100397259" lon="-2.506375964730978">
        <ele>99.150000000000006</ele>
        <time>2023-08-18T10:51:44Z</time>
      </trkpt>
      <trkpt lat="57.081132000312209" lon="-2.5063799880445">
        <ele>99.150000000000006</ele>
        <time>2023-08-18T10:51:45Z</time>
      </trkpt>
      <trkpt lat="57.081164019182324" lon="-2.506504040211439">
        <ele>99.150000000000006</ele>
        <time>2023-08-18T10:51:49Z</time>
      </trkpt>
      <trkpt lat="57.081164019182324" lon="-2.5065509788692">
        <ele>99.150000000000006</ele>
        <time>2023-08-18T10:51:50Z</time>
      </trkpt>
      <trkpt lat="57.081164019182324" lon="-2.506639994680882">
        <ele>99.150000000000006</ele>
        <time>2023-08-18T10:51:51Z</time>
      </trkpt>
      <trkpt lat="57.081164019182324" lon="-2.506771003827453">
        <ele>99.150000000000006</ele>
        <time>2023-08-18T10:51:52Z</time>
      </trkpt>
      <trkpt lat="57.081164019182324" lon="-2.506926991045475">
        <ele>99.150000000000006</ele>
        <time>2023-08-18T10:51:53Z</time>
      </trkpt>
      <trkpt lat="57.081213975325227" lon="-2.507750010117889">
        <ele>100.59999999999999</ele>
        <time>2023-08-18T10:51:57Z</time>
      </trkpt>
      <trkpt lat="57.081465013325214" lon="-2.509577013552189">
        <ele>104.44</ele>
        <time>2023-08-18T10:52:04Z</time>
      </trkpt>
      <trkpt lat="57.081660982221365" lon="-2.511829985305667">
        <ele>107.31999999999999</ele>
        <time>2023-08-18T10:52:12Z</time>
      </trkpt>
      <trkpt lat="57.081814035773277" lon="-2.512750988826156">
        <ele>108.29000000000001</ele>
        <time>2023-08-18T10:52:15Z</time>
      </trkpt>
      <trkpt lat="57.081895004957914" lon="-2.513042008504272">
        <ele>108.77</ele>
        <time>2023-08-18T10:52:16Z</time>
      </trkpt>
      <trkpt lat="57.082922039553523" lon="-2.51583100296557">
        <ele>105.88</ele>
        <time>2023-08-18T10:52:26Z</time>
      </trkpt>
      <trkpt lat="57.083955025300384" lon="-2.519188961014152">
        <ele>106.36</ele>
        <time>2023-08-18T10:52:37Z</time>
      </trkpt>
      <trkpt lat="57.084328019991517" lon="-2.521513011306524">
        <ele>107.31999999999999</ele>
        <time>2023-08-18T10:52:44Z</time>
      </trkpt>
      <trkpt lat="57.08476304076612" lon="-2.524273004382849">
        <ele>109.25</ele>
        <time>2023-08-18T10:52:52Z</time>
      </trkpt>
      <trkpt lat="57.085272995755076" lon="-2.526724962517619">
        <ele>111.17</ele>
        <time>2023-08-18T10:52:59Z</time>
      </trkpt>
      <trkpt lat="57.085824022069573" lon="-2.529376996681094">
        <ele>111.65000000000001</ele>
        <time>2023-08-18T10:53:07Z</time>
      </trkpt>
      <trkpt lat="57.086258037015796" lon="-2.531461995095015">
        <ele>112.61</ele>
        <time>2023-08-18T10:53:13Z</time>
      </trkpt>
      <trkpt lat="57.086359960958362" lon="-2.532150987535715">
        <ele>112.13</ele>
        <time>2023-08-18T10:53:15Z</time>
      </trkpt>
      <trkpt lat="57.086577974259853" lon="-2.535698041319847">
        <ele>111.65000000000001</ele>
        <time>2023-08-18T10:53:25Z</time>
      </trkpt>
      <trkpt lat="57.086703032255173" lon="-2.537571983411908">
        <ele>113.56999999999999</ele>
        <time>2023-08-18T10:53:30Z</time>
      </trkpt>
      <trkpt lat="57.086739996448159" lon="-2.537947995588183">
        <ele>114.05</ele>
        <time>2023-08-18T10:53:31Z</time>
      </trkpt>
      <trkpt lat="57.086817026138306" lon="-2.53830598667264">
        <ele>115.01000000000001</ele>
        <time>2023-08-18T10:53:32Z</time>
      </trkpt>
      <trkpt lat="57.087749009951949" lon="-2.542480006814003">
        <ele>119.81999999999999</ele>
        <time>2023-08-18T10:53:43Z</time>
      </trkpt>
      <trkpt lat="57.088650986552238" lon="-2.545684995129705">
        <ele>121.73999999999999</ele>
        <time>2023-08-18T10:53:52Z</time>
      </trkpt>
      <trkpt lat="57.090311022475362" lon="-2.550428984686732">
        <ele>121.26000000000001</ele>
        <time>2023-08-18T10:54:06Z</time>
      </trkpt>
      <trkpt lat="57.091315006837249" lon="-2.553529031574726">
        <ele>122.22</ele>
        <time>2023-08-18T10:54:16Z</time>
      </trkpt>
      <trkpt lat="57.091367980465293" lon="-2.553856009617448">
        <ele>122.70999999999999</ele>
        <time>2023-08-18T10:54:17Z</time>
      </trkpt>
      <trkpt lat="57.091420032083988" lon="-2.554235039278865">
        <ele>122.70999999999999</ele>
        <time>2023-08-18T10:54:18Z</time>
      </trkpt>
      <trkpt lat="57.091635027900338" lon="-2.558014020323753">
        <ele>120.3</ele>
        <time>2023-08-18T10:54:28Z</time>
      </trkpt>
      <trkpt lat="57.091856980696321" lon="-2.561916969716549">
        <ele>118.86</ele>
        <time>2023-08-18T10:54:38Z</time>
      </trkpt>
      <trkpt lat="57.092103995382786" lon="-2.565748002380133">
        <ele>117.90000000000001</ele>
        <time>2023-08-18T10:54:48Z</time>
      </trkpt>
      <trkpt lat="57.092425022274256" lon="-2.568708993494511">
        <ele>120.78</ele>
        <time>2023-08-18T10:54:57Z</time>
      </trkpt>
      <trkpt lat="57.09269299171865" lon="-2.571206968277693">
        <ele>121.73999999999999</ele>
        <time>2023-08-18T10:55:05Z</time>
      </trkpt>
      <trkpt lat="57.092804973945022" lon="-2.572250012308359">
        <ele>122.22</ele>
        <time>2023-08-18T10:55:09Z</time>
      </trkpt>
      <trkpt lat="57.092797011137009" lon="-2.572507001459599">
        <ele>122.22</ele>
        <time>2023-08-18T10:55:10Z</time>
      </trkpt>
      <trkpt lat="57.092768009752035" lon="-2.572771031409502">
        <ele>122.70999999999999</ele>
        <time>2023-08-18T10:55:11Z</time>
      </trkpt>
      <trkpt lat="57.092523006722331" lon="-2.575310999527574">
        <ele>121.73999999999999</ele>
        <time>2023-08-18T10:55:20Z</time>
      </trkpt>
      <trkpt lat="57.092532981187105" lon="-2.575959004461765">
        <ele>121.26000000000001</ele>
        <time>2023-08-18T10:55:22Z</time>
      </trkpt>
      <trkpt lat="57.092572962865233" lon="-2.576288999989629">
        <ele>120.78</ele>
        <time>2023-08-18T10:55:23Z</time>
      </trkpt>
      <trkpt lat="57.092621996998787" lon="-2.576615978032351">
        <ele>120.3</ele>
        <time>2023-08-18T10:55:24Z</time>
      </trkpt>
      <trkpt lat="57.09301795810461" lon="-2.579585015773773">
        <ele>119.34</ele>
        <time>2023-08-18T10:55:34Z</time>
      </trkpt>
      <trkpt lat="57.093540988862514" lon="-2.583678988739848">
        <ele>122.70999999999999</ele>
        <time>2023-08-18T10:55:48Z</time>
      </trkpt>
      <trkpt lat="57.094105007126927" lon="-2.587944958359003">
        <ele>123.19</ele>
        <time>2023-08-18T10:56:00Z</time>
      </trkpt>
      <trkpt lat="57.094720993191004" lon="-2.591443983837962">
        <ele>124.63</ele>
        <time>2023-08-18T10:56:10Z</time>
      </trkpt>
      <trkpt lat="57.095132041722536" lon="-2.594964969903231">
        <ele>121.73999999999999</ele>
        <time>2023-08-18T10:56:20Z</time>
      </trkpt>
      <trkpt lat="57.09565800614655" lon="-2.598542030900717">
        <ele>119.81999999999999</ele>
        <time>2023-08-18T10:56:30Z</time>
      </trkpt>
      <trkpt lat="57.096351021900773" lon="-2.602641033008695">
        <ele>116.94</ele>
        <time>2023-08-18T10:56:41Z</time>
      </trkpt>
      <trkpt lat="57.097276970744133" lon="-2.605313016101718">
        <ele>117.90000000000001</ele>
        <time>2023-08-18T10:56:49Z</time>
      </trkpt>
      <trkpt lat="57.09892300888896" lon="-2.608849005773664">
        <ele>118.38</ele>
        <time>2023-08-18T10:57:01Z</time>
      </trkpt>
      <trkpt lat="57.100289007648826" lon="-2.611818965524435">
        <ele>120.78</ele>
        <time>2023-08-18T10:57:12Z</time>
      </trkpt>
      <trkpt lat="57.101267008110881" lon="-2.614452978596091">
        <ele>124.63</ele>
        <time>2023-08-18T10:57:23Z</time>
      </trkpt>
      <trkpt lat="57.101961029693484" lon="-2.616335973143578">
        <ele>126.06999999999999</ele>
        <time>2023-08-18T10:57:32Z</time>
      </trkpt>
      <trkpt lat="57.102733002975583" lon="-2.618383001536131">
        <ele>127.51000000000001</ele>
        <time>2023-08-18T10:57:44Z</time>
      </trkpt>
      <trkpt lat="57.103761965408921" lon="-2.620425000786781">
        <ele>131.36000000000001</ele>
        <time>2023-08-18T10:57:57Z</time>
      </trkpt>
      <trkpt lat="57.103842012584209" lon="-2.620579982176423">
        <ele>131.84</ele>
        <time>2023-08-18T10:57:58Z</time>
      </trkpt>
      <trkpt lat="57.104449030011892" lon="-2.621737020090222">
        <ele>134.24000000000001</ele>
        <time>2023-08-18T10:58:06Z</time>
      </trkpt>
      <trkpt lat="57.10453100502491" lon="-2.621892001479864">
        <ele>134.24000000000001</ele>
        <time>2023-08-18T10:58:07Z</time>
      </trkpt>
      <trkpt lat="57.104667965322733" lon="-2.622149996459484">
        <ele>134.72</ele>
        <time>2023-08-18T10:58:09Z</time>
      </trkpt>
      <trkpt lat="57.104738960042596" lon="-2.622283017262816">
        <ele>135.19999999999999</ele>
        <time>2023-08-18T10:58:10Z</time>
      </trkpt>
      <trkpt lat="57.105205999687314" lon="-2.623174013569951">
        <ele>136.16</ele>
        <time>2023-08-18T10:58:18Z</time>
      </trkpt>
      <trkpt lat="57.10592801682651" lon="-2.624314958229661">
        <ele>137.13</ele>
        <time>2023-08-18T10:58:29Z</time>
      </trkpt>
      <trkpt lat="57.106797974556684" lon="-2.625767039135099">
        <ele>137.61000000000001</ele>
        <time>2023-08-18T10:58:39Z</time>
      </trkpt>
      <trkpt lat="57.107619987800717" lon="-2.627570992335677">
        <ele>138.09</ele>
        <time>2023-08-18T10:58:50Z</time>
      </trkpt>
      <trkpt lat="57.10816397331655" lon="-2.628833977505565">
        <ele>139.05000000000001</ele>
        <time>2023-08-18T10:58:58Z</time>
      </trkpt>
      <trkpt lat="57.108201021328568" lon="-2.629023995250464">
        <ele>139.05000000000001</ele>
        <time>2023-08-18T10:58:59Z</time>
      </trkpt>
      <trkpt lat="57.108714999631047" lon="-2.631641998887062">
        <ele>139.05000000000001</ele>
        <time>2023-08-18T10:59:12Z</time>
      </trkpt>
      <trkpt lat="57.109188996255398" lon="-2.633731020614505">
        <ele>141.44999999999999</ele>
        <time>2023-08-18T10:59:22Z</time>
      </trkpt>
      <trkpt lat="57.10945101454854" lon="-2.634471980854869">
        <ele>141.93000000000001</ele>
        <time>2023-08-18T10:59:26Z</time>
      </trkpt>
      <trkpt lat="57.109538018703461" lon="-2.634611958637834">
        <ele>141.93000000000001</ele>
        <time>2023-08-18T10:59:27Z</time>
      </trkpt>
      <trkpt lat="57.109631979838014" lon="-2.634747996926308">
        <ele>142.41</ele>
        <time>2023-08-18T10:59:28Z</time>
      </trkpt>
      <trkpt lat="57.109729964286089" lon="-2.634888980537653">
        <ele>142.41</ele>
        <time>2023-08-18T10:59:29Z</time>
      </trkpt>
      <trkpt lat="57.109828032553196" lon="-2.635030969977379">
        <ele>142.41</ele>
        <time>2023-08-18T10:59:30Z</time>
      </trkpt>
      <trkpt lat="57.109931968152523" lon="-2.635150998830795">
        <ele>142.41</ele>
        <time>2023-08-18T10:59:31Z</time>
      </trkpt>
      <trkpt lat="57.110039005056024" lon="-2.635264992713928">
        <ele>142.41</ele>
        <time>2023-08-18T10:59:32Z</time>
      </trkpt>
      <trkpt lat="57.110146963968873" lon="-2.635380998253822">
        <ele>142.41</ele>
        <time>2023-08-18T10:59:33Z</time>
      </trkpt>
      <trkpt lat="57.111301990225911" lon="-2.637086967006326">
        <ele>144.34</ele>
        <time>2023-08-18T10:59:45Z</time>
      </trkpt>
      <trkpt lat="57.111785961315036" lon="-2.638880023732781">
        <ele>147.22</ele>
        <time>2023-08-18T10:59:53Z</time>
      </trkpt>
      <trkpt lat="57.112142024561763" lon="-2.641615038737655">
        <ele>151.53999999999999</ele>
        <time>2023-08-18T11:00:03Z</time>
      </trkpt>
      <trkpt lat="57.112346040084958" lon="-2.644602013751864">
        <ele>154.91</ele>
        <time>2023-08-18T11:00:13Z</time>
      </trkpt>
      <trkpt lat="57.112390967085958" lon="-2.644898984581232">
        <ele>155.38999999999999</ele>
        <time>2023-08-18T11:00:14Z</time>
      </trkpt>
      <trkpt lat="57.112464979290962" lon="-2.645166032016277">
        <ele>155.38999999999999</ele>
        <time>2023-08-18T11:00:15Z</time>
      </trkpt>
      <trkpt lat="57.112551983445883" lon="-2.645413968712091">
        <ele>155.38999999999999</ele>
        <time>2023-08-18T11:00:16Z</time>
      </trkpt>
      <trkpt lat="57.112639993429184" lon="-2.645660983398557">
        <ele>155.38999999999999</ele>
        <time>2023-08-18T11:00:17Z</time>
      </trkpt>
      <trkpt lat="57.112744012847543" lon="-2.645886037498713">
        <ele>155.38999999999999</ele>
        <time>2023-08-18T11:00:18Z</time>
      </trkpt>
      <trkpt lat="57.113440968096256" lon="-2.647143993526697">
        <ele>156.34999999999999</ele>
        <time>2023-08-18T11:00:25Z</time>
      </trkpt>
      <trkpt lat="57.113552028313279" lon="-2.647249018773437">
        <ele>156.34999999999999</ele>
        <time>2023-08-18T11:00:26Z</time>
      </trkpt>
      <trkpt lat="57.113667028024793" lon="-2.647345997393131">
        <ele>156.34999999999999</ele>
        <time>2023-08-18T11:00:27Z</time>
      </trkpt>
      <trkpt lat="57.114276979118586" lon="-2.647863999009132">
        <ele>155.87</ele>
        <time>2023-08-18T11:00:32Z</time>
      </trkpt>
      <trkpt lat="57.115420019254088" lon="-2.649346003308892">
        <ele>152.99000000000001</ele>
        <time>2023-08-18T11:00:42Z</time>
      </trkpt>
      <trkpt lat="57.116510001942515" lon="-2.650951975956559">
        <ele>151.53999999999999</ele>
        <time>2023-08-18T11:00:52Z</time>
      </trkpt>
      <trkpt lat="57.116632964462042" lon="-2.651137970387936">
        <ele>152.03</ele>
        <time>2023-08-18T11:00:53Z</time>
      </trkpt>
      <trkpt lat="57.117541981860995" lon="-2.653290024027228">
        <ele>156.83000000000001</ele>
        <time>2023-08-18T11:01:03Z</time>
      </trkpt>
      <trkpt lat="57.118760040029883" lon="-2.656922992318869">
        <ele>166.44999999999999</ele>
        <time>2023-08-18T11:01:16Z</time>
      </trkpt>
      <trkpt lat="57.119488008320332" lon="-2.659144029021263">
        <ele>167.88999999999999</ele>
        <time>2023-08-18T11:01:21Z</time>
      </trkpt>
      <trkpt lat="57.120103994384408" lon="-2.661025011911988">
        <ele>170.28999999999999</ele>
        <time>2023-08-18T11:01:26Z</time>
      </trkpt>
      <trkpt lat="57.120449999347329" lon="-2.661923971027136">
        <ele>172.21000000000001</ele>
        <time>2023-08-18T11:01:29Z</time>
      </trkpt>
      <trkpt lat="57.120591988787055" lon="-2.662149025127292">
        <ele>173.16999999999999</ele>
        <time>2023-08-18T11:01:30Z</time>
      </trkpt>
      <trkpt lat="57.121673002839088" lon="-2.663969993591309">
        <ele>178.46000000000001</ele>
        <time>2023-08-18T11:01:37Z</time>
      </trkpt>
      <trkpt lat="57.122987033799291" lon="-2.666316004469991">
        <ele>186.15000000000001</ele>
        <time>2023-08-18T11:01:46Z</time>
      </trkpt>
      <trkpt lat="57.123222984373569" lon="-2.666768040508032">
        <ele>187.59</ele>
        <time>2023-08-18T11:01:48Z</time>
      </trkpt>
      <trkpt lat="57.123298002406955" lon="-2.667013965547085">
        <ele>188.56</ele>
        <time>2023-08-18T11:01:49Z</time>
      </trkpt>
      <trkpt lat="57.123531019315124" lon="-2.667775964364409">
        <ele>191.44</ele>
        <time>2023-08-18T11:01:52Z</time>
      </trkpt>
      <trkpt lat="57.123606037348509" lon="-2.668021973222494">
        <ele>192.40000000000001</ele>
        <time>2023-08-18T11:01:53Z</time>
      </trkpt>
      <trkpt lat="57.123727994039655" lon="-2.668178966268897">
        <ele>193.36000000000001</ele>
        <time>2023-08-18T11:01:54Z</time>
      </trkpt>
      <trkpt lat="57.123966040089726" lon="-2.668481972068548">
        <ele>194.80000000000001</ele>
        <time>2023-08-18T11:01:56Z</time>
      </trkpt>
      <trkpt lat="57.124084979295731" lon="-2.668632008135319">
        <ele>195.77000000000001</ele>
        <time>2023-08-18T11:01:57Z</time>
      </trkpt>
      <trkpt lat="57.124187992885709" lon="-2.668780032545328">
        <ele>196.25</ele>
        <time>2023-08-18T11:01:58Z</time>
      </trkpt>
      <trkpt lat="57.124272985383868" lon="-2.668951023370028">
        <ele>196.72999999999999</ele>
        <time>2023-08-18T11:01:59Z</time>
      </trkpt>
      <trkpt lat="57.124365018680692" lon="-2.669135006144643">
        <ele>196.72999999999999</ele>
        <time>2023-08-18T11:02:00Z</time>
      </trkpt>
      <trkpt lat="57.124745976179838" lon="-2.670511985197663">
        <ele>195.77000000000001</ele>
        <time>2023-08-18T11:02:05Z</time>
      </trkpt>
      <trkpt lat="57.124810013920069" lon="-2.67080501653254">
        <ele>195.28</ele>
        <time>2023-08-18T11:02:06Z</time>
      </trkpt>
      <trkpt lat="57.125085024163127" lon="-2.673667017370462">
        <ele>190.96000000000001</ele>
        <time>2023-08-18T11:02:14Z</time>
      </trkpt>
      <trkpt lat="57.125249980017543" lon="-2.674315022304654">
        <ele>189.52000000000001</ele>
        <time>2023-08-18T11:02:16Z</time>
      </trkpt>
      <trkpt lat="57.125335978344083" lon="-2.674648035317659">
        <ele>188.56</ele>
        <time>2023-08-18T11:02:17Z</time>
      </trkpt>
      <trkpt lat="57.125447038561106" lon="-2.67495003528893">
        <ele>188.08000000000001</ele>
        <time>2023-08-18T11:02:18Z</time>
      </trkpt>
      <trkpt lat="57.125574024394155" lon="-2.675241976976395">
        <ele>187.59</ele>
        <time>2023-08-18T11:02:19Z</time>
      </trkpt>
      <trkpt lat="57.125697992742062" lon="-2.675528973340988">
        <ele>187.11000000000001</ele>
        <time>2023-08-18T11:02:20Z</time>
      </trkpt>
      <trkpt lat="57.126548001542687" lon="-2.677492015063763">
        <ele>183.27000000000001</ele>
        <time>2023-08-18T11:02:28Z</time>
      </trkpt>
      <trkpt lat="57.12715501897037" lon="-2.678982987999916">
        <ele>181.83000000000001</ele>
        <time>2023-08-18T11:02:37Z</time>
      </trkpt>
      <trkpt lat="57.127719959244132" lon="-2.680529030039907">
        <ele>180.87</ele>
        <time>2023-08-18T11:02:46Z</time>
      </trkpt>
      <trkpt lat="57.127802018076181" lon="-2.680913005024195">
        <ele>180.38</ele>
        <time>2023-08-18T11:02:48Z</time>
      </trkpt>
      <trkpt lat="57.127828001976013" lon="-2.681106962263584">
        <ele>180.38</ele>
        <time>2023-08-18T11:02:49Z</time>
      </trkpt>
      <trkpt lat="57.127852980047464" lon="-2.681297985836864">
        <ele>179.90000000000001</ele>
        <time>2023-08-18T11:02:50Z</time>
      </trkpt>
      <trkpt lat="57.127932021394372" lon="-2.683427995070815">
        <ele>177.02000000000001</ele>
        <time>2023-08-18T11:03:00Z</time>
      </trkpt>
      <trkpt lat="57.127935960888863" lon="-2.683635028079152">
        <ele>177.02000000000001</ele>
        <time>2023-08-18T11:03:01Z</time>
      </trkpt>
      <trkpt lat="57.127939984202385" lon="-2.683838959783316">
        <ele>176.53999999999999</ele>
        <time>2023-08-18T11:03:02Z</time>
      </trkpt>
      <trkpt lat="57.12790503166616" lon="-2.684050016105175">
        <ele>176.53999999999999</ele>
        <time>2023-08-18T11:03:03Z</time>
      </trkpt>
      <trkpt lat="57.127853985875845" lon="-2.684227041900158">
        <ele>176.53999999999999</ele>
        <time>2023-08-18T11:03:04Z</time>
      </trkpt>
      <trkpt lat="57.127795983105898" lon="-2.68442502245307">
        <ele>176.06</ele>
        <time>2023-08-18T11:03:05Z</time>
      </trkpt>
      <trkpt lat="57.127737980335951" lon="-2.684617973864079">
        <ele>175.58000000000001</ele>
        <time>2023-08-18T11:03:06Z</time>
      </trkpt>
      <trkpt lat="57.126869028434157" lon="-2.686978988349438">
        <ele>171.72999999999999</ele>
        <time>2023-08-18T11:03:19Z</time>
      </trkpt>
      <trkpt lat="57.126582032069564" lon="-2.687806030735374">
        <ele>171.25</ele>
        <time>2023-08-18T11:03:24Z</time>
      </trkpt>
      <trkpt lat="57.126548001542687" lon="-2.687903009355068">
        <ele>171.25</ele>
        <time>2023-08-18T11:03:25Z</time>
      </trkpt>
      <trkpt lat="57.126523023471236" lon="-2.687972998246551">
        <ele>171.25</ele>
        <time>2023-08-18T11:03:26Z</time>
      </trkpt>
      <trkpt lat="57.126550013199449" lon="-2.688176007941365">
        <ele>171.25</ele>
        <time>2023-08-18T11:03:27Z</time>
      </trkpt>
      <trkpt lat="57.126591000705957" lon="-2.688185982406139">
        <ele>171.25</ele>
        <time>2023-08-18T11:03:28Z</time>
      </trkpt>
      <trkpt lat="57.126656966283917" lon="-2.688202997669578">
        <ele>170.77000000000001</ele>
        <time>2023-08-18T11:03:29Z</time>
      </trkpt>
      <trkpt lat="57.126741036772728" lon="-2.688224036246538">
        <ele>170.77000000000001</ele>
        <time>2023-08-18T11:03:30Z</time>
      </trkpt>
      <trkpt lat="57.126841032877564" lon="-2.68825002014637">
        <ele>170.77000000000001</ele>
        <time>2023-08-18T11:03:31Z</time>
      </trkpt>
      <trkpt lat="57.127186032012105" lon="-2.688338030129671">
        <ele>170.77000000000001</ele>
        <time>2023-08-18T11:03:34Z</time>
      </trkpt>
      <trkpt lat="57.127304971218109" lon="-2.688368959352374">
        <ele>171.25</ele>
        <time>2023-08-18T11:03:35Z</time>
      </trkpt>
      <trkpt lat="57.128461003303528" lon="-2.688470967113972">
        <ele>174.62</ele>
        <time>2023-08-18T11:03:46Z</time>
      </trkpt>
      <trkpt lat="57.128629982471466" lon="-2.688504997640848">
        <ele>174.13999999999999</ele>
        <time>2023-08-18T11:03:48Z</time>
      </trkpt>
      <trkpt lat="57.12872201576829" lon="-2.688529975712299">
        <ele>174.13999999999999</ele>
        <time>2023-08-18T11:03:49Z</time>
      </trkpt>
      <trkpt lat="57.128815976902843" lon="-2.688555959612131">
        <ele>174.13999999999999</ele>
        <time>2023-08-18T11:03:50Z</time>
      </trkpt>
      <trkpt lat="57.128914967179298" lon="-2.688586972653866">
        <ele>174.13999999999999</ele>
        <time>2023-08-18T11:03:51Z</time>
      </trkpt>
      <trkpt lat="57.129012029618025" lon="-2.688652016222477">
        <ele>174.13999999999999</ele>
        <time>2023-08-18T11:03:52Z</time>
      </trkpt>
      <trkpt lat="57.1291100140661" lon="-2.688716975972056">
        <ele>173.66</ele>
        <time>2023-08-18T11:03:53Z</time>
      </trkpt>
      <trkpt lat="57.129210010170937" lon="-2.688784031197429">
        <ele>173.66</ele>
        <time>2023-08-18T11:03:54Z</time>
      </trkpt>
      <trkpt lat="57.129312017932534" lon="-2.68885200843215">
        <ele>173.66</ele>
        <time>2023-08-18T11:03:55Z</time>
      </trkpt>
      <trkpt lat="57.12941000238061" lon="-2.68891797401011">
        <ele>173.66</ele>
        <time>2023-08-18T11:03:56Z</time>
      </trkpt>
      <trkpt lat="57.129503963515162" lon="-2.688980000093579">
        <ele>173.66</ele>
        <time>2023-08-18T11:03:57Z</time>
      </trkpt>
      <trkpt lat="57.129599014297128" lon="-2.689043032005429">
        <ele>173.66</ele>
        <time>2023-08-18T11:03:58Z</time>
      </trkpt>
      <trkpt lat="57.129786014556885" lon="-2.68917303532362">
        <ele>174.13999999999999</ele>
        <time>2023-08-18T11:04:00Z</time>
      </trkpt>
      <trkpt lat="57.130145011469722" lon="-2.689426001161337">
        <ele>176.06</ele>
        <time>2023-08-18T11:04:04Z</time>
      </trkpt>
      <trkpt lat="57.13022799231112" lon="-2.689492972567678">
        <ele>176.53999999999999</ele>
        <time>2023-08-18T11:04:05Z</time>
      </trkpt>
      <trkpt lat="57.130477018654346" lon="-2.689723977819085">
        <ele>179.41999999999999</ele>
        <time>2023-08-18T11:04:08Z</time>
      </trkpt>
      <trkpt lat="57.130624959245324" lon="-2.689978033304215">
        <ele>180.38</ele>
        <time>2023-08-18T11:04:10Z</time>
      </trkpt>
      <trkpt lat="57.130697965621948" lon="-2.690108958631754">
        <ele>181.34999999999999</ele>
        <time>2023-08-18T11:04:11Z</time>
      </trkpt>
      <trkpt lat="57.130757980048656" lon="-2.69027198664844">
        <ele>182.31</ele>
        <time>2023-08-18T11:04:12Z</time>
      </trkpt>
      <trkpt lat="57.131392993032932" lon="-2.692455975338817">
        <ele>190.96000000000001</ele>
        <time>2023-08-18T11:04:23Z</time>
      </trkpt>
      <trkpt lat="57.13181996718049" lon="-2.693479992449284">
        <ele>194.31999999999999</ele>
        <time>2023-08-18T11:04:28Z</time>
      </trkpt>
      <trkpt lat="57.13205499574542" lon="-2.693831026554108">
        <ele>194.80000000000001</ele>
        <time>2023-08-18T11:04:30Z</time>
      </trkpt>
      <trkpt lat="57.133367015048862" lon="-2.69482403062284">
        <ele>199.61000000000001</ele>
        <time>2023-08-18T11:04:39Z</time>
      </trkpt>
      <trkpt lat="57.13349400088191" lon="-2.694984041154385">
        <ele>200.56999999999999</ele>
        <time>2023-08-18T11:04:40Z</time>
      </trkpt>
      <trkpt lat="57.133618975058198" lon="-2.695152014493942">
        <ele>201.05000000000001</ele>
        <time>2023-08-18T11:04:41Z</time>
      </trkpt>
      <trkpt lat="57.133724000304937" lon="-2.695361981168389">
        <ele>201.53</ele>
        <time>2023-08-18T11:04:42Z</time>
      </trkpt>
      <trkpt lat="57.133829025551677" lon="-2.69557798281312">
        <ele>202.00999999999999</ele>
        <time>2023-08-18T11:04:43Z</time>
      </trkpt>
      <trkpt lat="57.133917035534978" lon="-2.695824997499585">
        <ele>202.97999999999999</ele>
        <time>2023-08-18T11:04:44Z</time>
      </trkpt>
      <trkpt lat="57.134007979184389" lon="-2.696077963337302">
        <ele>203.46000000000001</ele>
        <time>2023-08-18T11:04:45Z</time>
      </trkpt>
      <trkpt lat="57.134875003248453" lon="-2.69920701161027">
        <ele>214.50999999999999</ele>
        <time>2023-08-18T11:04:56Z</time>
      </trkpt>
      <trkpt lat="57.135154036805034" lon="-2.701668022200465">
        <ele>220.28</ele>
        <time>2023-08-18T11:05:04Z</time>
      </trkpt>
      <trkpt lat="57.135416977107525" lon="-2.704309998080134">
        <ele>223.63999999999999</ele>
        <time>2023-08-18T11:05:12Z</time>
      </trkpt>
      <trkpt lat="57.135508004575968" lon="-2.704829005524516">
        <ele>224.12</ele>
        <time>2023-08-18T11:05:14Z</time>
      </trkpt>
      <trkpt lat="57.13557698763907" lon="-2.705051964148879">
        <ele>224.61000000000001</ele>
        <time>2023-08-18T11:05:15Z</time>
      </trkpt>
      <trkpt lat="57.135690981522202" lon="-2.705213986337185">
        <ele>225.09</ele>
        <time>2023-08-18T11:05:16Z</time>
      </trkpt>
      <trkpt lat="57.13581302203238" lon="-2.705381959676743">
        <ele>225.09</ele>
        <time>2023-08-18T11:05:17Z</time>
      </trkpt>
      <trkpt lat="57.135949982330203" lon="-2.705554040148854">
        <ele>225.56999999999999</ele>
        <time>2023-08-18T11:05:18Z</time>
      </trkpt>
      <trkpt lat="57.136108987033367" lon="-2.705671973526478">
        <ele>225.56999999999999</ele>
        <time>2023-08-18T11:05:19Z</time>
      </trkpt>
      <trkpt lat="57.137542041018605" lon="-2.70661803893745">
        <ele>227.97</ele>
        <time>2023-08-18T11:05:28Z</time>
      </trkpt>
      <trkpt lat="57.138179987668991" lon="-2.707218015566468">
        <ele>229.88999999999999</ele>
        <time>2023-08-18T11:05:33Z</time>
      </trkpt>
      <trkpt lat="57.139371978119016" lon="-2.708735978230834">
        <ele>236.13999999999999</ele>
        <time>2023-08-18T11:05:43Z</time>
      </trkpt>
      <trkpt lat="57.140462966635823" lon="-2.710554013028741">
        <ele>243.34999999999999</ele>
        <time>2023-08-18T11:05:52Z</time>
      </trkpt>
      <trkpt lat="57.142143035307527" lon="-2.713316017761827">
        <ele>253.93000000000001</ele>
        <time>2023-08-18T11:06:04Z</time>
      </trkpt>
      <trkpt lat="57.143106032162905" lon="-2.715280987322331">
        <ele>261.13999999999999</ele>
        <time>2023-08-18T11:06:12Z</time>
      </trkpt>
      <trkpt lat="57.144116973504424" lon="-2.718395031988621">
        <ele>272.19</ele>
        <time>2023-08-18T11:06:23Z</time>
      </trkpt>
      <trkpt lat="57.144928006455302" lon="-2.720771972090006">
        <ele>278.92000000000002</ele>
        <time>2023-08-18T11:06:31Z</time>
      </trkpt>
      <trkpt lat="57.146151009947062" lon="-2.723622992634773">
        <ele>289.97000000000003</ele>
        <time>2023-08-18T11:06:42Z</time>
      </trkpt>
      <trkpt lat="57.147532012313604" lon="-2.72664500400424">
        <ele>301.50999999999999</ele>
        <time>2023-08-18T11:06:55Z</time>
      </trkpt>
      <trkpt lat="57.147652041167021" lon="-2.726847007870674">
        <ele>302.47000000000003</ele>
        <time>2023-08-18T11:06:56Z</time>
      </trkpt>
      <trkpt lat="57.148094018921256" lon="-2.727328967303038">
        <ele>304.88</ele>
        <time>2023-08-18T11:06:59Z</time>
      </trkpt>
      <trkpt lat="57.148256963118911" lon="-2.727429969236255">
        <ele>305.83999999999997</ele>
        <time>2023-08-18T11:07:00Z</time>
      </trkpt>
      <trkpt lat="57.148419991135597" lon="-2.727530971169472">
        <ele>306.80000000000001</ele>
        <time>2023-08-18T11:07:01Z</time>
      </trkpt>
      <trkpt lat="57.148578995838761" lon="-2.727629961445928">
        <ele>307.75999999999999</ele>
        <time>2023-08-18T11:07:02Z</time>
      </trkpt>
      <trkpt lat="57.148733977228403" lon="-2.727701961994171">
        <ele>308.24000000000001</ele>
        <time>2023-08-18T11:07:03Z</time>
      </trkpt>
      <trkpt lat="57.148887030780315" lon="-2.727711014449596">
        <ele>309.19999999999999</ele>
        <time>2023-08-18T11:07:04Z</time>
      </trkpt>
      <trkpt lat="57.149034971371293" lon="-2.727720988914371">
        <ele>309.68000000000001</ele>
        <time>2023-08-18T11:07:05Z</time>
      </trkpt>
      <trkpt lat="57.149176960811019" lon="-2.727672960609198">
        <ele>310.63999999999999</ele>
        <time>2023-08-18T11:07:06Z</time>
      </trkpt>
      <trkpt lat="57.149318028241396" lon="-2.727615963667631">
        <ele>311.12</ele>
        <time>2023-08-18T11:07:07Z</time>
      </trkpt>
      <trkpt lat="57.149441996589303" lon="-2.727528037503362">
        <ele>312.08999999999997</ele>
        <time>2023-08-18T11:07:08Z</time>
      </trkpt>
      <trkpt lat="57.149558002129197" lon="-2.727386970072985">
        <ele>312.56999999999999</ele>
        <time>2023-08-18T11:07:09Z</time>
      </trkpt>
      <trkpt lat="57.149682976305485" lon="-2.727236011996865">
        <ele>313.05000000000001</ele>
        <time>2023-08-18T11:07:10Z</time>
      </trkpt>
      <trkpt lat="57.150632981210947" lon="-2.726018037647009">
        <ele>316.41000000000003</ele>
        <time>2023-08-18T11:07:17Z</time>
      </trkpt>
      <trkpt lat="57.151306970044971" lon="-2.724869968369603">
        <ele>317.37</ele>
        <time>2023-08-18T11:07:23Z</time>
      </trkpt>
      <trkpt lat="57.151993028819561" lon="-2.723329961299896">
        <ele>318.32999999999998</ele>
        <time>2023-08-18T11:07:29Z</time>
      </trkpt>
      <trkpt lat="57.152854017913342" lon="-2.721234988421202">
        <ele>316.88999999999999</ele>
        <time>2023-08-18T11:07:37Z</time>
      </trkpt>
      <trkpt lat="57.153414012864232" lon="-2.71931704133749">
        <ele>314.49000000000001</ele>
        <time>2023-08-18T11:07:44Z</time>
      </trkpt>
      <trkpt lat="57.153743002563715" lon="-2.717412002384663">
        <ele>310.63999999999999</ele>
        <time>2023-08-18T11:07:51Z</time>
      </trkpt>
      <trkpt lat="57.153760017827153" lon="-2.717129029333592">
        <ele>309.68000000000001</ele>
        <time>2023-08-18T11:07:52Z</time>
      </trkpt>
      <trkpt lat="57.153778038918972" lon="-2.716839015483856">
        <ele>308.72000000000003</ele>
        <time>2023-08-18T11:07:53Z</time>
      </trkpt>
      <trkpt lat="57.153807040303946" lon="-2.716367030516267">
        <ele>306.80000000000001</ele>
        <time>2023-08-18T11:07:55Z</time>
      </trkpt>
      <trkpt lat="57.1538180205971" lon="-2.716196961700916">
        <ele>305.83999999999997</ele>
        <time>2023-08-18T11:07:56Z</time>
      </trkpt>
      <trkpt lat="57.15388298034668" lon="-2.71607399918139">
        <ele>304.88</ele>
        <time>2023-08-18T11:07:57Z</time>
      </trkpt>
      <trkpt lat="57.15392698533833" lon="-2.716005016118288">
        <ele>304.38999999999999</ele>
        <time>2023-08-18T11:07:58Z</time>
      </trkpt>
      <trkpt lat="57.154019018635154" lon="-2.71596796810627">
        <ele>303.43000000000001</ele>
        <time>2023-08-18T11:07:59Z</time>
      </trkpt>
      <trkpt lat="57.154080960899591" lon="-2.715942990034819">
        <ele>302.94999999999999</ele>
        <time>2023-08-18T11:08:00Z</time>
      </trkpt>
      <trkpt lat="57.154123960062861" lon="-2.71592597477138">
        <ele>302.47000000000003</ele>
        <time>2023-08-18T11:08:01Z</time>
      </trkpt>
      <trkpt lat="57.1541409753263" lon="-2.715919017791748">
        <ele>301.99000000000001</ele>
        <time>2023-08-18T11:08:02Z</time>
      </trkpt>
      <trkpt lat="57.1541409753263" lon="-2.715919017791748">
        <ele>300.55000000000001</ele>
        <time>2023-08-18T11:08:06Z</time>
      </trkpt>
      <trkpt lat="57.15413804166019" lon="-2.715804018080235">
        <ele>300.06999999999999</ele>
        <time>2023-08-18T11:08:07Z</time>
      </trkpt>
      <trkpt lat="57.154136030003428" lon="-2.715695975348353">
        <ele>299.58999999999997</ele>
        <time>2023-08-18T11:08:08Z</time>
      </trkpt>
      <trkpt lat="57.154132006689906" lon="-2.715554991737008">
        <ele>299.11000000000001</ele>
        <time>2023-08-18T11:08:09Z</time>
      </trkpt>
      <trkpt lat="57.154128989204764" lon="-2.715402022004128">
        <ele>298.63</ele>
        <time>2023-08-18T11:08:10Z</time>
      </trkpt>
      <trkpt lat="57.154124965891242" lon="-2.715260032564402">
        <ele>298.14999999999998</ele>
        <time>2023-08-18T11:08:11Z</time>
      </trkpt>
      <trkpt lat="57.154122032225132" lon="-2.715135980397463">
        <ele>297.67000000000002</ele>
        <time>2023-08-18T11:08:12Z</time>
      </trkpt>
      <trkpt lat="57.15431297197938" lon="-2.714953003451228">
        <ele>297.67000000000002</ele>
        <time>2023-08-18T11:08:13Z</time>
      </trkpt>
      <trkpt lat="57.154302997514606" lon="-2.714958032593131">
        <ele>297.18000000000001</ele>
        <time>2023-08-18T11:08:14Z</time>
      </trkpt>
      <trkpt lat="57.154368041083217" lon="-2.714854013174772">
        <ele>296.69999999999999</ele>
        <time>2023-08-18T11:08:15Z</time>
      </trkpt>
      <trkpt lat="57.15442000888288" lon="-2.714759968221188">
        <ele>296.22000000000003</ele>
        <time>2023-08-18T11:08:16Z</time>
      </trkpt>
      <trkpt lat="57.154472982510924" lon="-2.714561987668276">
        <ele>295.74000000000001</ele>
        <time>2023-08-18T11:08:17Z</time>
      </trkpt>
      <trkpt lat="57.15452503412962" lon="-2.714366018772125">
        <ele>294.77999999999997</ele>
        <time>2023-08-18T11:08:18Z</time>
      </trkpt>
      <trkpt lat="57.155129034072161" lon="-2.712092008441687">
        <ele>289.00999999999999</ele>
        <time>2023-08-18T11:08:28Z</time>
      </trkpt>
      <trkpt lat="57.155358027666807" lon="-2.711438974365592">
        <ele>287.56999999999999</ele>
        <time>2023-08-18T11:08:32Z</time>
      </trkpt>
      <trkpt lat="57.155424999073148" lon="-2.711300002411008">
        <ele>287.08999999999997</ele>
        <time>2023-08-18T11:08:33Z</time>
      </trkpt>
      <trkpt lat="57.155500017106533" lon="-2.711147032678127">
        <ele>286.61000000000001</ele>
        <time>2023-08-18T11:08:34Z</time>
      </trkpt>
      <trkpt lat="57.155679976567626" lon="-2.71085299551487">
        <ele>286.13</ele>
        <time>2023-08-18T11:08:36Z</time>
      </trkpt>
      <trkpt lat="57.15590201318264" lon="-2.710583014413714">
        <ele>285.17000000000002</ele>
        <time>2023-08-18T11:08:38Z</time>
      </trkpt>
      <trkpt lat="57.156168976798654" lon="-2.710417974740267">
        <ele>284.69</ele>
        <time>2023-08-18T11:08:40Z</time>
      </trkpt>
      <trkpt lat="57.156304009258747" lon="-2.710384028032422">
        <ele>284.20999999999998</ele>
        <time>2023-08-18T11:08:41Z</time>
      </trkpt>
      <trkpt lat="57.156760990619659" lon="-2.710314961150289">
        <ele>283.25</ele>
        <time>2023-08-18T11:08:44Z</time>
      </trkpt>
      <trkpt lat="57.156909015029669" lon="-2.710340023040772">
        <ele>282.76999999999998</ele>
        <time>2023-08-18T11:08:45Z</time>
      </trkpt>
      <trkpt lat="57.157041030004621" lon="-2.710460973903537">
        <ele>282.27999999999997</ele>
        <time>2023-08-18T11:08:46Z</time>
      </trkpt>
      <trkpt lat="57.157174972817302" lon="-2.710585026070476">
        <ele>282.27999999999997</ele>
        <time>2023-08-18T11:08:47Z</time>
      </trkpt>
      <trkpt lat="57.157313022762537" lon="-2.710711006075144">
        <ele>281.80000000000001</ele>
        <time>2023-08-18T11:08:48Z</time>
      </trkpt>
      <trkpt lat="57.157453000545502" lon="-2.710842015221715">
        <ele>281.80000000000001</ele>
        <time>2023-08-18T11:08:49Z</time>
      </trkpt>
      <trkpt lat="57.158577013760805" lon="-2.71226903423667">
        <ele>278.92000000000002</ele>
        <time>2023-08-18T11:08:58Z</time>
      </trkpt>
      <trkpt lat="57.158681033179164" lon="-2.712462991476059">
        <ele>278.44</ele>
        <time>2023-08-18T11:08:59Z</time>
      </trkpt>
      <trkpt lat="57.158783040940762" lon="-2.712652003392577">
        <ele>277.95999999999998</ele>
        <time>2023-08-18T11:09:00Z</time>
      </trkpt>
      <trkpt lat="57.158851018175483" lon="-2.712892983108759">
        <ele>277.48000000000002</ele>
        <time>2023-08-18T11:09:01Z</time>
      </trkpt>
      <trkpt lat="57.158915977925062" lon="-2.71315198391676">
        <ele>276.51999999999998</ele>
        <time>2023-08-18T11:09:02Z</time>
      </trkpt>
      <trkpt lat="57.158982027322054" lon="-2.713416013866663">
        <ele>276.04000000000002</ele>
        <time>2023-08-18T11:09:03Z</time>
      </trkpt>
      <trkpt lat="57.159046987071633" lon="-2.713679037988186">
        <ele>275.56</ele>
        <time>2023-08-18T11:09:04Z</time>
      </trkpt>
      <trkpt lat="57.159112030640244" lon="-2.713937032967806">
        <ele>275.06999999999999</ele>
        <time>2023-08-18T11:09:05Z</time>
      </trkpt>
      <trkpt lat="57.159176990389824" lon="-2.714196033775806">
        <ele>274.58999999999997</ele>
        <time>2023-08-18T11:09:06Z</time>
      </trkpt>
      <trkpt lat="57.159494999796152" lon="-2.715191971510649">
        <ele>272.19</ele>
        <time>2023-08-18T11:09:10Z</time>
      </trkpt>
      <trkpt lat="57.16039203107357" lon="-2.717250986024737">
        <ele>266.42000000000002</ele>
        <time>2023-08-18T11:09:19Z</time>
      </trkpt>
      <trkpt lat="57.160700988024473" lon="-2.71785800345242">
        <ele>264.01999999999998</ele>
        <time>2023-08-18T11:09:22Z</time>
      </trkpt>
      <trkpt lat="57.160814981907606" lon="-2.718011979013681">
        <ele>263.54000000000002</ele>
        <time>2023-08-18T11:09:23Z</time>
      </trkpt>
      <trkpt lat="57.16095102019608" lon="-2.718112980946899">
        <ele>262.57999999999998</ele>
        <time>2023-08-18T11:09:24Z</time>
      </trkpt>
      <trkpt lat="57.161088986322284" lon="-2.718217000365257">
        <ele>262.10000000000002</ele>
        <time>2023-08-18T11:09:25Z</time>
      </trkpt>
      <trkpt lat="57.161236004903913" lon="-2.718261005356908">
        <ele>261.13999999999999</ele>
        <time>2023-08-18T11:09:26Z</time>
      </trkpt>
      <trkpt lat="57.161389980465174" lon="-2.718291012570262">
        <ele>260.64999999999998</ele>
        <time>2023-08-18T11:09:27Z</time>
      </trkpt>
      <trkpt lat="57.161540016531944" lon="-2.718268968164921">
        <ele>259.69</ele>
        <time>2023-08-18T11:09:28Z</time>
      </trkpt>
      <trkpt lat="57.161700027063489" lon="-2.718219012022018">
        <ele>259.20999999999998</ele>
        <time>2023-08-18T11:09:29Z</time>
      </trkpt>
      <trkpt lat="57.161863977089524" lon="-2.718167966231704">
        <ele>258.73000000000002</ele>
        <time>2023-08-18T11:09:30Z</time>
      </trkpt>
      <trkpt lat="57.162363035604358" lon="-2.718012984842062">
        <ele>256.32999999999998</ele>
        <time>2023-08-18T11:09:33Z</time>
      </trkpt>
      <trkpt lat="57.162696970626712" lon="-2.718012984842062">
        <ele>254.41</ele>
        <time>2023-08-18T11:09:35Z</time>
      </trkpt>
      <trkpt lat="57.163039036095142" lon="-2.718026982620359">
        <ele>252.47999999999999</ele>
        <time>2023-08-18T11:09:37Z</time>
      </trkpt>
      <trkpt lat="57.164383996278048" lon="-2.717764964327216">
        <ele>246.22999999999999</ele>
        <time>2023-08-18T11:09:45Z</time>
      </trkpt>
      <trkpt lat="57.16501004062593" lon="-2.717517027631402">
        <ele>242.38999999999999</ele>
        <time>2023-08-18T11:09:49Z</time>
      </trkpt>
      <trkpt lat="57.165159992873669" lon="-2.717418959364295">
        <ele>241.43000000000001</ele>
        <time>2023-08-18T11:09:50Z</time>
      </trkpt>
      <trkpt lat="57.165309023112059" lon="-2.71732097491622">
        <ele>240.47</ele>
        <time>2023-08-18T11:09:51Z</time>
      </trkpt>
      <trkpt lat="57.165412036702037" lon="-2.717163981869817">
        <ele>239.50999999999999</ele>
        <time>2023-08-18T11:09:52Z</time>
      </trkpt>
      <trkpt lat="57.165556959807873" lon="-2.716928031295538">
        <ele>238.53999999999999</ele>
        <time>2023-08-18T11:09:53Z</time>
      </trkpt>
      <trkpt lat="57.165616974234581" lon="-2.716771038249135">
        <ele>237.58000000000001</ele>
        <time>2023-08-18T11:09:54Z</time>
      </trkpt>
      <trkpt lat="57.165709007531404" lon="-2.716529974713922">
        <ele>236.62</ele>
        <time>2023-08-18T11:09:55Z</time>
      </trkpt>
      <trkpt lat="57.166402023285627" lon="-2.714314972981811">
        <ele>232.30000000000001</ele>
        <time>2023-08-18T11:10:03Z</time>
      </trkpt>
      <trkpt lat="57.167022032663226" lon="-2.711938032880426">
        <ele>227.00999999999999</ele>
        <time>2023-08-18T11:10:11Z</time>
      </trkpt>
      <trkpt lat="57.167511032894254" lon="-2.710736989974976">
        <ele>226.53</ele>
        <time>2023-08-18T11:10:16Z</time>
      </trkpt>
      <trkpt lat="57.167613040655851" lon="-2.710559964179993">
        <ele>226.53</ele>
        <time>2023-08-18T11:10:17Z</time>
      </trkpt>
      <trkpt lat="57.167734997346997" lon="-2.710461979731917">
        <ele>226.53</ele>
        <time>2023-08-18T11:10:18Z</time>
      </trkpt>
      <trkpt lat="57.167855026200414" lon="-2.710395008325577">
        <ele>227.00999999999999</ele>
        <time>2023-08-18T11:10:19Z</time>
      </trkpt>
      <trkpt lat="57.167987963184714" lon="-2.710366006940603">
        <ele>227.00999999999999</ele>
        <time>2023-08-18T11:10:20Z</time>
      </trkpt>
      <trkpt lat="57.168131964281201" lon="-2.710340023040772">
        <ele>227.00999999999999</ele>
        <time>2023-08-18T11:10:21Z</time>
      </trkpt>
      <trkpt lat="57.169383969157934" lon="-2.710373969748616">
        <ele>226.05000000000001</ele>
        <time>2023-08-18T11:10:28Z</time>
      </trkpt>
      <trkpt lat="57.17094300314784" lon="-2.710415963083506">
        <ele>224.61000000000001</ele>
        <time>2023-08-18T11:10:37Z</time>
      </trkpt>
      <trkpt lat="57.172204982489347" lon="-2.709925035014749">
        <ele>224.12</ele>
        <time>2023-08-18T11:10:45Z</time>
      </trkpt>
      <trkpt lat="57.173352967947721" lon="-2.708516959100962">
        <ele>224.61000000000001</ele>
        <time>2023-08-18T11:10:54Z</time>
      </trkpt>
      <trkpt lat="57.174304984509945" lon="-2.706551989540458">
        <ele>222.68000000000001</ele>
        <time>2023-08-18T11:11:02Z</time>
      </trkpt>
      <trkpt lat="57.17536898329854" lon="-2.703651012852788">
        <ele>214.50999999999999</ele>
        <time>2023-08-18T11:11:13Z</time>
      </trkpt>
      <trkpt lat="57.176101980730891" lon="-2.702375035732985">
        <ele>208.74000000000001</ele>
        <time>2023-08-18T11:11:19Z</time>
      </trkpt>
      <trkpt lat="57.177397990599275" lon="-2.701166030019522">
        <ele>204.90000000000001</ele>
        <time>2023-08-18T11:11:27Z</time>
      </trkpt>
      <trkpt lat="57.178091006353498" lon="-2.700602011755109">
        <ele>205.38</ele>
        <time>2023-08-18T11:11:33Z</time>
      </trkpt>
      <trkpt lat="57.178528038784862" lon="-2.700298000127077">
        <ele>205.86000000000001</ele>
        <time>2023-08-18T11:11:37Z</time>
      </trkpt>
      <trkpt lat="57.178649995476007" lon="-2.700298000127077">
        <ele>205.86000000000001</ele>
        <time>2023-08-18T11:11:38Z</time>
      </trkpt>
      <trkpt lat="57.178773963823915" lon="-2.700298000127077">
        <ele>206.34</ele>
        <time>2023-08-18T11:11:39Z</time>
      </trkpt>
      <trkpt lat="57.178896004334092" lon="-2.700338987633586">
        <ele>206.34</ele>
        <time>2023-08-18T11:11:40Z</time>
      </trkpt>
      <trkpt lat="57.179015027359128" lon="-2.700425991788507">
        <ele>206.81999999999999</ele>
        <time>2023-08-18T11:11:41Z</time>
      </trkpt>
      <trkpt lat="57.179673006758094" lon="-2.700903005897999">
        <ele>209.22</ele>
        <time>2023-08-18T11:11:48Z</time>
      </trkpt>
      <trkpt lat="57.179767973721027" lon="-2.7009910158813">
        <ele>210.19</ele>
        <time>2023-08-18T11:11:51Z</time>
      </trkpt>
      <trkpt lat="57.179784988984466" lon="-2.701008031144738">
        <ele>210.66999999999999</ele>
        <time>2023-08-18T11:11:52Z</time>
      </trkpt>
      <trkpt lat="57.179784988984466" lon="-2.701008031144738">
        <ele>210.19</ele>
        <time>2023-08-18T11:12:05Z</time>
      </trkpt>
      <trkpt lat="57.179784988984466" lon="-2.701008031144738">
        <ele>210.66999999999999</ele>
        <time>2023-08-18T11:12:27Z</time>
      </trkpt>
      <trkpt lat="57.179837040603161" lon="-2.701059998944402">
        <ele>211.63</ele>
        <time>2023-08-18T11:12:33Z</time>
      </trkpt>
      <trkpt lat="57.179847015067935" lon="-2.701069973409176">
        <ele>212.11000000000001</ele>
        <time>2023-08-18T11:12:34Z</time>
      </trkpt>
      <trkpt lat="57.179905017837882" lon="-2.701137028634548">
        <ele>213.06999999999999</ele>
        <time>2023-08-18T11:12:35Z</time>
      </trkpt>
      <trkpt lat="57.179960003122687" lon="-2.701200982555747">
        <ele>213.55000000000001</ele>
        <time>2023-08-18T11:12:36Z</time>
      </trkpt>
      <trkpt lat="57.180020017549396" lon="-2.701269965618849">
        <ele>213.55000000000001</ele>
        <time>2023-08-18T11:12:37Z</time>
      </trkpt>
      <trkpt lat="57.180872960016131" lon="-2.702261041849852">
        <ele>214.50999999999999</ele>
        <time>2023-08-18T11:12:48Z</time>
      </trkpt>
      <trkpt lat="57.181149981915951" lon="-2.702544014900923">
        <ele>214.99000000000001</ele>
        <time>2023-08-18T11:12:51Z</time>
      </trkpt>
      <trkpt lat="57.18125500716269" lon="-2.702626995742321">
        <ele>214.99000000000001</ele>
        <time>2023-08-18T11:12:52Z</time>
      </trkpt>
      <trkpt lat="57.182434005662799" lon="-2.703538024798036">
        <ele>215.47</ele>
        <time>2023-08-18T11:13:01Z</time>
      </trkpt>
      <trkpt lat="57.183666983619332" lon="-2.704026019200683">
        <ele>216.91</ele>
        <time>2023-08-18T11:13:09Z</time>
      </trkpt>
      <trkpt lat="57.185253007337451" lon="-2.704129032790661">
        <ele>215.94999999999999</ele>
        <time>2023-08-18T11:13:19Z</time>
      </trkpt>
      <trkpt lat="57.185688028112054" lon="-2.704062983393669">
        <ele>215.47</ele>
        <time>2023-08-18T11:13:22Z</time>
      </trkpt>
      <trkpt lat="57.185834040865302" lon="-2.704073963686824">
        <ele>214.99000000000001</ele>
        <time>2023-08-18T11:13:23Z</time>
      </trkpt>
      <trkpt lat="57.185977958142757" lon="-2.704142024740577">
        <ele>214.99000000000001</ele>
        <time>2023-08-18T11:13:24Z</time>
      </trkpt>
      <trkpt lat="57.186133023351431" lon="-2.704216036945581">
        <ele>214.99000000000001</ele>
        <time>2023-08-18T11:13:25Z</time>
      </trkpt>
      <trkpt lat="57.186289010569453" lon="-2.704311003908515">
        <ele>214.99000000000001</ele>
        <time>2023-08-18T11:13:26Z</time>
      </trkpt>
      <trkpt lat="57.186443991959095" lon="-2.704452993348241">
        <ele>214.99000000000001</ele>
        <time>2023-08-18T11:13:27Z</time>
      </trkpt>
      <trkpt lat="57.187905041500926" lon="-2.706124009564519">
        <ele>212.11000000000001</ele>
        <time>2023-08-18T11:13:37Z</time>
      </trkpt>
      <trkpt lat="57.18884096480906" lon="-2.708335993811488">
        <ele>205.86000000000001</ele>
        <time>2023-08-18T11:13:45Z</time>
      </trkpt>
      <trkpt lat="57.189883003011346" lon="-2.7112209610641">
        <ele>197.69</ele>
        <time>2023-08-18T11:13:55Z</time>
      </trkpt>
      <trkpt lat="57.190167987719178" lon="-2.711844993755221">
        <ele>196.25</ele>
        <time>2023-08-18T11:13:58Z</time>
      </trkpt>
      <trkpt lat="57.190269995480776" lon="-2.711978014558554">
        <ele>195.28</ele>
        <time>2023-08-18T11:13:59Z</time>
      </trkpt>
      <trkpt lat="57.190397987142205" lon="-2.712075999006629">
        <ele>194.80000000000001</ele>
        <time>2023-08-18T11:14:00Z</time>
      </trkpt>
      <trkpt lat="57.191672958433628" lon="-2.713032960891724">
        <ele>192.40000000000001</ele>
        <time>2023-08-18T11:14:08Z</time>
      </trkpt>
      <trkpt lat="57.193283960223198" lon="-2.71431103348732">
        <ele>193.36000000000001</ele>
        <time>2023-08-18T11:14:18Z</time>
      </trkpt>
      <trkpt lat="57.195035023614764" lon="-2.716006021946669">
        <ele>195.28</ele>
        <time>2023-08-18T11:14:29Z</time>
      </trkpt>
      <trkpt lat="57.196217039600015" lon="-2.71753597073257">
        <ele>195.77000000000001</ele>
        <time>2023-08-18T11:14:38Z</time>
      </trkpt>
      <trkpt lat="57.196305971592665" lon="-2.717765970155597">
        <ele>195.28</ele>
        <time>2023-08-18T11:14:39Z</time>
      </trkpt>
      <trkpt lat="57.196399010717869" lon="-2.718010973185301">
        <ele>194.80000000000001</ele>
        <time>2023-08-18T11:14:40Z</time>
      </trkpt>
      <trkpt lat="57.196490960195661" lon="-2.718283971771598">
        <ele>194.31999999999999</ele>
        <time>2023-08-18T11:14:41Z</time>
      </trkpt>
      <trkpt lat="57.196553992107511" lon="-2.718594018369913">
        <ele>193.36000000000001</ele>
        <time>2023-08-18T11:14:42Z</time>
      </trkpt>
      <trkpt lat="57.197048021480441" lon="-2.721038013696671">
        <ele>188.56</ele>
        <time>2023-08-18T11:14:50Z</time>
      </trkpt>
      <trkpt lat="57.197624025866389" lon="-2.723689964041114">
        <ele>185.19</ele>
        <time>2023-08-18T11:15:03Z</time>
      </trkpt>
      <trkpt lat="57.198157031089067" lon="-2.725877976045013">
        <ele>185.66999999999999</ele>
        <time>2023-08-18T11:15:14Z</time>
      </trkpt>
      <trkpt lat="57.199049033224583" lon="-2.728393971920013">
        <ele>188.08000000000001</ele>
        <time>2023-08-18T11:15:27Z</time>
      </trkpt>
      <trkpt lat="57.199827041476965" lon="-2.7302769664675">
        <ele>189.52000000000001</ele>
        <time>2023-08-18T11:15:36Z</time>
      </trkpt>
      <trkpt lat="57.200503963977098" lon="-2.733065038919449">
        <ele>190</ele>
        <time>2023-08-18T11:15:45Z</time>
      </trkpt>
      <trkpt lat="57.201236039400101" lon="-2.736680991947651">
        <ele>190</ele>
        <time>2023-08-18T11:15:57Z</time>
      </trkpt>
      <trkpt lat="57.20132002606988" lon="-2.737207962200046">
        <ele>190</ele>
        <time>2023-08-18T11:15:59Z</time>
      </trkpt>
      <trkpt lat="57.201419016346335" lon="-2.73824698291719">
        <ele>189.52000000000001</ele>
        <time>2023-08-18T11:16:03Z</time>
      </trkpt>
      <trkpt lat="57.201454974710941" lon="-2.738442029803991">
        <ele>189.03999999999999</ele>
        <time>2023-08-18T11:16:04Z</time>
      </trkpt>
      <trkpt lat="57.201529992744327" lon="-2.738565998151898">
        <ele>188.56</ele>
        <time>2023-08-18T11:16:05Z</time>
      </trkpt>
      <trkpt lat="57.201615991070867" lon="-2.738667000085115">
        <ele>188.08000000000001</ele>
        <time>2023-08-18T11:16:06Z</time>
      </trkpt>
      <trkpt lat="57.201721016317606" lon="-2.738755010068417">
        <ele>187.59</ele>
        <time>2023-08-18T11:16:07Z</time>
      </trkpt>
      <trkpt lat="57.202090993523598" lon="-2.739043012261391">
        <ele>187.11000000000001</ele>
        <time>2023-08-18T11:16:10Z</time>
      </trkpt>
      <trkpt lat="57.203241996467113" lon="-2.739754971116781">
        <ele>188.56</ele>
        <time>2023-08-18T11:16:18Z</time>
      </trkpt>
      <trkpt lat="57.203380968421698" lon="-2.739925961941481">
        <ele>189.03999999999999</ele>
        <time>2023-08-18T11:16:19Z</time>
      </trkpt>
      <trkpt lat="57.203514995053411" lon="-2.740120002999902">
        <ele>189.52000000000001</ele>
        <time>2023-08-18T11:16:20Z</time>
      </trkpt>
      <trkpt lat="57.20482399687171" lon="-2.742239031940699">
        <ele>191.91999999999999</ele>
        <time>2023-08-18T11:16:29Z</time>
      </trkpt>
      <trkpt lat="57.205938035622239" lon="-2.743594972416759">
        <ele>192.88</ele>
        <time>2023-08-18T11:16:36Z</time>
      </trkpt>
      <trkpt lat="57.206108020618558" lon="-2.74370402097702">
        <ele>192.88</ele>
        <time>2023-08-18T11:16:37Z</time>
      </trkpt>
      <trkpt lat="57.206280017271638" lon="-2.74374702014029">
        <ele>192.40000000000001</ele>
        <time>2023-08-18T11:16:38Z</time>
      </trkpt>
      <trkpt lat="57.20645603723824" lon="-2.743788007646799">
        <ele>192.40000000000001</ele>
        <time>2023-08-18T11:16:39Z</time>
      </trkpt>
      <trkpt lat="57.20789403654635" lon="-2.743937037885189">
        <ele>189.52000000000001</ele>
        <time>2023-08-18T11:16:47Z</time>
      </trkpt>
      <trkpt lat="57.208042982965708" lon="-2.743899989873171">
        <ele>189.03999999999999</ele>
        <time>2023-08-18T11:16:48Z</time>
      </trkpt>
      <trkpt lat="57.208183966577053" lon="-2.743775015696883">
        <ele>189.03999999999999</ele>
        <time>2023-08-18T11:16:49Z</time>
      </trkpt>
      <trkpt lat="57.208306007087231" lon="-2.743635037913919">
        <ele>188.56</ele>
        <time>2023-08-18T11:16:50Z</time>
      </trkpt>
      <trkpt lat="57.208426035940647" lon="-2.743475027382374">
        <ele>188.56</ele>
        <time>2023-08-18T11:16:51Z</time>
      </trkpt>
      <trkpt lat="57.208673972636461" lon="-2.74314402602613">
        <ele>188.08000000000001</ele>
        <time>2023-08-18T11:16:53Z</time>
      </trkpt>
      <trkpt lat="57.208824008703232" lon="-2.743023997172713">
        <ele>187.59</ele>
        <time>2023-08-18T11:16:54Z</time>
      </trkpt>
      <trkpt lat="57.208977984264493" lon="-2.7429089974612">
        <ele>187.59</ele>
        <time>2023-08-18T11:16:55Z</time>
      </trkpt>
      <trkpt lat="57.210328979417682" lon="-2.742053959518671">
        <ele>188.56</ele>
        <time>2023-08-18T11:17:03Z</time>
      </trkpt>
      <trkpt lat="57.210483038797975" lon="-2.74200601503253">
        <ele>188.56</ele>
        <time>2023-08-18T11:17:04Z</time>
      </trkpt>
      <trkpt lat="57.210641959682107" lon="-2.741995034739375">
        <ele>188.08000000000001</ele>
        <time>2023-08-18T11:17:05Z</time>
      </trkpt>
      <trkpt lat="57.211328018456697" lon="-2.742177005857229">
        <ele>187.59</ele>
        <time>2023-08-18T11:17:09Z</time>
      </trkpt>
      <trkpt lat="57.211487023159862" lon="-2.742290999740362">
        <ele>187.59</ele>
        <time>2023-08-18T11:17:10Z</time>
      </trkpt>
      <trkpt lat="57.213205983862281" lon="-2.7437689807266">
        <ele>187.11000000000001</ele>
        <time>2023-08-18T11:17:20Z</time>
      </trkpt>
      <trkpt lat="57.215514024719596" lon="-2.745579974725843">
        <ele>183.27000000000001</ele>
        <time>2023-08-18T11:17:33Z</time>
      </trkpt>
      <trkpt lat="57.217122009024024" lon="-2.746190009638667">
        <ele>181.83000000000001</ele>
        <time>2023-08-18T11:17:42Z</time>
      </trkpt>
      <trkpt lat="57.218910036608577" lon="-2.747111013159156">
        <ele>182.31</ele>
        <time>2023-08-18T11:17:52Z</time>
      </trkpt>
      <trkpt lat="57.220145026221871" lon="-2.747280998155475">
        <ele>180.87</ele>
        <time>2023-08-18T11:17:59Z</time>
      </trkpt>
      <trkpt lat="57.221478000283241" lon="-2.746927030384541">
        <ele>178.94</ele>
        <time>2023-08-18T11:18:07Z</time>
      </trkpt>
      <trkpt lat="57.223337022587657" lon="-2.746271984651685">
        <ele>176.53999999999999</ele>
        <time>2023-08-18T11:18:17Z</time>
      </trkpt>
      <trkpt lat="57.223470965400338" lon="-2.746281959116459">
        <ele>176.53999999999999</ele>
        <time>2023-08-18T11:18:18Z</time>
      </trkpt>
      <trkpt lat="57.223638016730547" lon="-2.746402993798256">
        <ele>176.06</ele>
        <time>2023-08-18T11:18:19Z</time>
      </trkpt>
      <trkpt lat="57.225026981905103" lon="-2.747428016737104">
        <ele>174.13999999999999</ele>
        <time>2023-08-18T11:18:27Z</time>
      </trkpt>
      <trkpt lat="57.225381033495069" lon="-2.747611999511719">
        <ele>173.16999999999999</ele>
        <time>2023-08-18T11:18:29Z</time>
      </trkpt>
      <trkpt lat="57.22628703340888" lon="-2.747848033905029">
        <ele>170.28999999999999</ele>
        <time>2023-08-18T11:18:34Z</time>
      </trkpt>
      <trkpt lat="57.226470010355115" lon="-2.747848033905029">
        <ele>169.81</ele>
        <time>2023-08-18T11:18:35Z</time>
      </trkpt>
      <trkpt lat="57.226654998958111" lon="-2.747848033905029">
        <ele>169.81</ele>
        <time>2023-08-18T11:18:36Z</time>
      </trkpt>
      <trkpt lat="57.228518966585398" lon="-2.747380994260311">
        <ele>167.88999999999999</ele>
        <time>2023-08-18T11:18:47Z</time>
      </trkpt>
      <trkpt lat="57.230395004153252" lon="-2.746671969071031">
        <ele>165.96000000000001</ele>
        <time>2023-08-18T11:18:59Z</time>
      </trkpt>
      <trkpt lat="57.230528024956584" lon="-2.746545989066362">
        <ele>165.47999999999999</ele>
        <time>2023-08-18T11:19:00Z</time>
      </trkpt>
      <trkpt lat="57.230662973597646" lon="-2.746382039040327">
        <ele>164.52000000000001</ele>
        <time>2023-08-18T11:19:01Z</time>
      </trkpt>
      <trkpt lat="57.232084041461349" lon="-2.744633993133903">
        <ele>158.75</ele>
        <time>2023-08-18T11:19:10Z</time>
      </trkpt>
      <trkpt lat="57.232431974261999" lon="-2.743890015408397">
        <ele>156.83000000000001</ele>
        <time>2023-08-18T11:19:13Z</time>
      </trkpt>
      <trkpt lat="57.232513027265668" lon="-2.743650963529944">
        <ele>156.34999999999999</ele>
        <time>2023-08-18T11:19:14Z</time>
      </trkpt>
      <trkpt lat="57.232572035863996" lon="-2.743405038490892">
        <ele>155.87</ele>
        <time>2023-08-18T11:19:15Z</time>
      </trkpt>
      <trkpt lat="57.232915023341775" lon="-2.741978019475937">
        <ele>154.43000000000001</ele>
        <time>2023-08-18T11:19:22Z</time>
      </trkpt>
      <trkpt lat="57.232965985313058" lon="-2.741764029487968">
        <ele>154.43000000000001</ele>
        <time>2023-08-18T11:19:23Z</time>
      </trkpt>
      <trkpt lat="57.233522962778807" lon="-2.739356998354197">
        <ele>155.38999999999999</ele>
        <time>2023-08-18T11:19:32Z</time>
      </trkpt>
      <trkpt lat="57.234358973801136" lon="-2.736503966152668">
        <ele>158.75</ele>
        <time>2023-08-18T11:19:42Z</time>
      </trkpt>
      <trkpt lat="57.235682979226112" lon="-2.732830010354519">
        <ele>157.31</ele>
        <time>2023-08-18T11:19:54Z</time>
      </trkpt>
      <trkpt lat="57.236960968002677" lon="-2.728939969092608">
        <ele>156.83000000000001</ele>
        <time>2023-08-18T11:20:07Z</time>
      </trkpt>
      <trkpt lat="57.237624982371926" lon="-2.726278966292739">
        <ele>157.31</ele>
        <time>2023-08-18T11:20:16Z</time>
      </trkpt>
      <trkpt lat="57.238091016188264" lon="-2.725040037184954">
        <ele>157.31</ele>
        <time>2023-08-18T11:20:23Z</time>
      </trkpt>
      <trkpt lat="57.238192018121481" lon="-2.724858988076448">
        <ele>157.31</ele>
        <time>2023-08-18T11:20:25Z</time>
      </trkpt>
      <trkpt lat="57.238223031163216" lon="-2.724804002791643">
        <ele>156.83000000000001</ele>
        <time>2023-08-18T11:20:26Z</time>
      </trkpt>
      <trkpt lat="57.238245997577906" lon="-2.724763015285134">
        <ele>156.83000000000001</ele>
        <time>2023-08-18T11:20:27Z</time>
      </trkpt>
      <trkpt lat="57.238365020602942" lon="-2.724715992808342">
        <ele>156.83000000000001</ele>
        <time>2023-08-18T11:20:28Z</time>
      </trkpt>
      <trkpt lat="57.238394021987915" lon="-2.724771983921528">
        <ele>156.83000000000001</ele>
        <time>2023-08-18T11:20:29Z</time>
      </trkpt>
      <trkpt lat="57.238443978130817" lon="-2.724866028875113">
        <ele>156.34999999999999</ele>
        <time>2023-08-18T11:20:30Z</time>
      </trkpt>
      <trkpt lat="57.238507010042667" lon="-2.724983962252736">
        <ele>156.34999999999999</ele>
        <time>2023-08-18T11:20:31Z</time>
      </trkpt>
      <trkpt lat="57.23857699893415" lon="-2.725116983056068">
        <ele>156.34999999999999</ele>
        <time>2023-08-18T11:20:32Z</time>
      </trkpt>
      <trkpt lat="57.238843040540814" lon="-2.725616963580251">
        <ele>155.38999999999999</ele>
        <time>2023-08-18T11:20:35Z</time>
      </trkpt>
      <trkpt lat="57.239876026287675" lon="-2.726715998724103">
        <ele>151.53999999999999</ele>
        <time>2023-08-18T11:20:42Z</time>
      </trkpt>
      <trkpt lat="57.240988975390792" lon="-2.727471040561795">
        <ele>148.66</ele>
        <time>2023-08-18T11:20:50Z</time>
      </trkpt>
      <trkpt lat="57.242463016882539" lon="-2.728282995522022">
        <ele>146.25999999999999</ele>
        <time>2023-08-18T11:21:01Z</time>
      </trkpt>
      <trkpt lat="57.242683963850141" lon="-2.728336974978447">
        <ele>146.25999999999999</ele>
        <time>2023-08-18T11:21:03Z</time>
      </trkpt>
      <trkpt lat="57.242780020460486" lon="-2.728359019383788">
        <ele>146.74000000000001</ele>
        <time>2023-08-18T11:21:04Z</time>
      </trkpt>
      <trkpt lat="57.243280000984669" lon="-2.728439988568425">
        <ele>148.18000000000001</ele>
        <time>2023-08-18T11:21:10Z</time>
      </trkpt>
      <trkpt lat="57.243414027616382" lon="-2.728462032973766">
        <ele>147.69999999999999</ele>
        <time>2023-08-18T11:21:12Z</time>
      </trkpt>
      <trkpt lat="57.243473958224058" lon="-2.728588012978435">
        <ele>147.69999999999999</ele>
        <time>2023-08-18T11:21:13Z</time>
      </trkpt>
      <trkpt lat="57.243479993194342" lon="-2.728722961619496">
        <ele>147.69999999999999</ele>
        <time>2023-08-18T11:21:14Z</time>
      </trkpt>
      <trkpt lat="57.243486028164625" lon="-2.72888096049428">
        <ele>147.69999999999999</ele>
        <time>2023-08-18T11:21:15Z</time>
      </trkpt>
      <trkpt lat="57.243493990972638" lon="-2.729065027087927">
        <ele>148.18000000000001</ele>
        <time>2023-08-18T11:21:16Z</time>
      </trkpt>
      <trkpt lat="57.243502037599683" lon="-2.72926895879209">
        <ele>148.18000000000001</ele>
        <time>2023-08-18T11:21:17Z</time>
      </trkpt>
      <trkpt lat="57.24356397986412" lon="-2.731362003833056">
        <ele>149.62</ele>
        <time>2023-08-18T11:21:25Z</time>
      </trkpt>
      <trkpt lat="57.243598010390997" lon="-2.733938014134765">
        <ele>152.03</ele>
        <time>2023-08-18T11:21:33Z</time>
      </trkpt>
      <trkpt lat="57.243564985692501" lon="-2.734278989955783">
        <ele>152.50999999999999</ele>
        <time>2023-08-18T11:21:34Z</time>
      </trkpt>
      <trkpt lat="57.243415033444762" lon="-2.73687201552093">
        <ele>154.43000000000001</ele>
        <time>2023-08-18T11:21:42Z</time>
      </trkpt>
      <trkpt lat="57.243373040109873" lon="-2.737505016848445">
        <ele>154.43000000000001</ele>
        <time>2023-08-18T11:21:44Z</time>
      </trkpt>
      <trkpt lat="57.243342027068138" lon="-2.737823026254773">
        <ele>154.91</ele>
        <time>2023-08-18T11:21:45Z</time>
      </trkpt>
      <trkpt lat="57.243311014026403" lon="-2.73813801817596">
        <ele>154.91</ele>
        <time>2023-08-18T11:21:46Z</time>
      </trkpt>
      <trkpt lat="57.243027035146952" lon="-2.740999013185501">
        <ele>154.43000000000001</ele>
        <time>2023-08-18T11:21:55Z</time>
      </trkpt>
      <trkpt lat="57.242751019075513" lon="-2.743927985429764">
        <ele>152.50999999999999</ele>
        <time>2023-08-18T11:22:04Z</time>
      </trkpt>
      <trkpt lat="57.242760993540287" lon="-2.747081005945802">
        <ele>152.03</ele>
        <time>2023-08-18T11:22:13Z</time>
      </trkpt>
      <trkpt lat="57.242514984682202" lon="-2.750654965639114">
        <ele>152.03</ele>
        <time>2023-08-18T11:22:23Z</time>
      </trkpt>
      <trkpt lat="57.241752985864878" lon="-2.754540983587503">
        <ele>152.99000000000001</ele>
        <time>2023-08-18T11:22:34Z</time>
      </trkpt>
      <trkpt lat="57.241053013131022" lon="-2.758968975394964">
        <ele>155.38999999999999</ele>
        <time>2023-08-18T11:22:46Z</time>
      </trkpt>
      <trkpt lat="57.241035997867584" lon="-2.762570008635521">
        <ele>157.31</ele>
        <time>2023-08-18T11:22:56Z</time>
      </trkpt>
      <trkpt lat="57.241408992558718" lon="-2.767385998740792">
        <ele>160.68000000000001</ele>
        <time>2023-08-18T11:23:09Z</time>
      </trkpt>
      <trkpt lat="57.24197200499475" lon="-2.770709004253149">
        <ele>162.59999999999999</ele>
        <time>2023-08-18T11:23:18Z</time>
      </trkpt>
      <trkpt lat="57.242783959954977" lon="-2.773618027567864">
        <ele>166.93000000000001</ele>
        <time>2023-08-18T11:23:27Z</time>
      </trkpt>
      <trkpt lat="57.24377503618598" lon="-2.777172960340977">
        <ele>167.88999999999999</ele>
        <time>2023-08-18T11:23:38Z</time>
      </trkpt>
      <trkpt lat="57.243890035897493" lon="-2.777796993032098">
        <ele>167.88999999999999</ele>
        <time>2023-08-18T11:23:40Z</time>
      </trkpt>
      <trkpt lat="57.244310975074768" lon="-2.780689001083374">
        <ele>168.84999999999999</ele>
        <time>2023-08-18T11:23:49Z</time>
      </trkpt>
      <trkpt lat="57.244345005601645" lon="-2.783518983051181">
        <ele>171.25</ele>
        <time>2023-08-18T11:23:57Z</time>
      </trkpt>
      <trkpt lat="57.24403596483171" lon="-2.785944035276771">
        <ele>173.66</ele>
        <time>2023-08-18T11:24:04Z</time>
      </trkpt>
      <trkpt lat="57.243360970169306" lon="-2.789485976099968">
        <ele>177.5</ele>
        <time>2023-08-18T11:24:15Z</time>
      </trkpt>
      <trkpt lat="57.243029968813062" lon="-2.792630027979612">
        <ele>179.90000000000001</ele>
        <time>2023-08-18T11:24:24Z</time>
      </trkpt>
      <trkpt lat="57.242866018787026" lon="-2.796424012631178">
        <ele>186.15000000000001</ele>
        <time>2023-08-18T11:24:35Z</time>
      </trkpt>
      <trkpt lat="57.242847997695208" lon="-2.797531010583043">
        <ele>188.56</ele>
        <time>2023-08-18T11:24:40Z</time>
      </trkpt>
      <trkpt lat="57.242892002686858" lon="-2.797924038022757">
        <ele>188.56</ele>
        <time>2023-08-18T11:24:42Z</time>
      </trkpt>
      <trkpt lat="57.242912035435438" lon="-2.798058986663818">
        <ele>189.03999999999999</ele>
        <time>2023-08-18T11:24:43Z</time>
      </trkpt>
      <trkpt lat="57.243018988519907" lon="-2.798260990530253">
        <ele>188.56</ele>
        <time>2023-08-18T11:24:44Z</time>
      </trkpt>
      <trkpt lat="57.243083026260138" lon="-2.798381019383669">
        <ele>188.56</ele>
        <time>2023-08-18T11:24:45Z</time>
      </trkpt>
      <trkpt lat="57.243198025971651" lon="-2.798479003831744">
        <ele>188.56</ele>
        <time>2023-08-18T11:24:46Z</time>
      </trkpt>
      <trkpt lat="57.243310008198023" lon="-2.798575982451439">
        <ele>188.56</ele>
        <time>2023-08-18T11:24:47Z</time>
      </trkpt>
      <trkpt lat="57.243384020403028" lon="-2.798638008534908">
        <ele>188.08000000000001</ele>
        <time>2023-08-18T11:24:48Z</time>
      </trkpt>
      <trkpt lat="57.243556017056108" lon="-2.798719983547926">
        <ele>188.08000000000001</ele>
        <time>2023-08-18T11:24:49Z</time>
      </trkpt>
      <trkpt lat="57.243700018152595" lon="-2.798788966611028">
        <ele>187.59</ele>
        <time>2023-08-18T11:24:50Z</time>
      </trkpt>
      <trkpt lat="57.243848964571953" lon="-2.798859039321542">
        <ele>187.59</ele>
        <time>2023-08-18T11:24:51Z</time>
      </trkpt>
      <trkpt lat="57.24435799755156" lon="-2.799126002937555">
        <ele>186.15000000000001</ele>
        <time>2023-08-18T11:24:54Z</time>
      </trkpt>
      <trkpt lat="57.245573960244656" lon="-2.800331991165876">
        <ele>183.75</ele>
        <time>2023-08-18T11:25:01Z</time>
      </trkpt>
      <trkpt lat="57.246362026780844" lon="-2.801439994946122">
        <ele>182.31</ele>
        <time>2023-08-18T11:25:06Z</time>
      </trkpt>
      <trkpt lat="57.246661009266973" lon="-2.801861017942429">
        <ele>181.83000000000001</ele>
        <time>2023-08-18T11:25:08Z</time>
      </trkpt>
      <trkpt lat="57.247097035869956" lon="-2.802437022328377">
        <ele>180.87</ele>
        <time>2023-08-18T11:25:11Z</time>
      </trkpt>
      <trkpt lat="57.24725796841085" lon="-2.802598960697651">
        <ele>180.38</ele>
        <time>2023-08-18T11:25:12Z</time>
      </trkpt>
      <trkpt lat="57.247415967285633" lon="-2.802756959572434">
        <ele>179.90000000000001</ele>
        <time>2023-08-18T11:25:13Z</time>
      </trkpt>
      <trkpt lat="57.24854601547122" lon="-2.804309958592057">
        <ele>176.53999999999999</ele>
        <time>2023-08-18T11:25:21Z</time>
      </trkpt>
      <trkpt lat="57.248808033764362" lon="-2.804795019328594">
        <ele>175.58000000000001</ele>
        <time>2023-08-18T11:25:23Z</time>
      </trkpt>
      <trkpt lat="57.248939964920282" lon="-2.805040022358298">
        <ele>175.58000000000001</ele>
        <time>2023-08-18T11:25:24Z</time>
      </trkpt>
      <trkpt lat="57.249450003728271" lon="-2.806006036698818">
        <ele>175.09999999999999</ele>
        <time>2023-08-18T11:25:28Z</time>
      </trkpt>
      <trkpt lat="57.249625017866492" lon="-2.806565025821328">
        <ele>175.09999999999999</ele>
        <time>2023-08-18T11:25:30Z</time>
      </trkpt>
      <trkpt lat="57.249699030071497" lon="-2.806855961680412">
        <ele>175.09999999999999</ele>
        <time>2023-08-18T11:25:31Z</time>
      </trkpt>
      <trkpt lat="57.249976973980665" lon="-2.808062033727765">
        <ele>175.09999999999999</ele>
        <time>2023-08-18T11:25:35Z</time>
      </trkpt>
      <trkpt lat="57.250045035034418" lon="-2.808356992900372">
        <ele>175.09999999999999</ele>
        <time>2023-08-18T11:25:36Z</time>
      </trkpt>
      <trkpt lat="57.250170009210706" lon="-2.808993011713028">
        <ele>175.09999999999999</ele>
        <time>2023-08-18T11:25:38Z</time>
      </trkpt>
      <trkpt lat="57.250529006123543" lon="-2.811599029228091">
        <ele>175.09999999999999</ele>
        <time>2023-08-18T11:25:46Z</time>
      </trkpt>
      <trkpt lat="57.250648029148579" lon="-2.814721958711743">
        <ele>174.13999999999999</ele>
        <time>2023-08-18T11:25:55Z</time>
      </trkpt>
      <trkpt lat="57.2509750071913" lon="-2.817347003147006">
        <ele>172.69</ele>
        <time>2023-08-18T11:26:03Z</time>
      </trkpt>
      <trkpt lat="57.251063017174602" lon="-2.818620968610048">
        <ele>174.62</ele>
        <time>2023-08-18T11:26:07Z</time>
      </trkpt>
      <trkpt lat="57.251054970547557" lon="-2.818935038521886">
        <ele>175.09999999999999</ele>
        <time>2023-08-18T11:26:08Z</time>
      </trkpt>
      <trkpt lat="57.251046001911163" lon="-2.819261010736227">
        <ele>175.58000000000001</ele>
        <time>2023-08-18T11:26:09Z</time>
      </trkpt>
      <trkpt lat="57.250667978078127" lon="-2.822216972708702">
        <ele>180.87</ele>
        <time>2023-08-18T11:26:18Z</time>
      </trkpt>
      <trkpt lat="57.250364972278476" lon="-2.824772028252482">
        <ele>185.66999999999999</ele>
        <time>2023-08-18T11:26:26Z</time>
      </trkpt>
      <trkpt lat="57.250275034457445" lon="-2.82799101434648">
        <ele>191.44</ele>
        <time>2023-08-18T11:26:35Z</time>
      </trkpt>
      <trkpt lat="57.250291965901852" lon="-2.829792033880949">
        <ele>193.36000000000001</ele>
        <time>2023-08-18T11:26:40Z</time>
      </trkpt>
      <trkpt lat="57.250348962843418" lon="-2.830448001623154">
        <ele>193.36000000000001</ele>
        <time>2023-08-18T11:26:42Z</time>
      </trkpt>
      <trkpt lat="57.25084600970149" lon="-2.832774985581636">
        <ele>194.31999999999999</ele>
        <time>2023-08-18T11:26:49Z</time>
      </trkpt>
      <trkpt lat="57.251547994092107" lon="-2.834921004250646">
        <ele>196.25</ele>
        <time>2023-08-18T11:26:56Z</time>
      </trkpt>
      <trkpt lat="57.25181101821363" lon="-2.835398018360138">
        <ele>196.72999999999999</ele>
        <time>2023-08-18T11:26:58Z</time>
      </trkpt>
      <trkpt lat="57.251956025138497" lon="-2.835646038874984">
        <ele>196.72999999999999</ele>
        <time>2023-08-18T11:26:59Z</time>
      </trkpt>
      <trkpt lat="57.252103965729475" lon="-2.835886012762785">
        <ele>197.21000000000001</ele>
        <time>2023-08-18T11:27:00Z</time>
      </trkpt>
      <trkpt lat="57.252249978482723" lon="-2.836121041327715">
        <ele>197.21000000000001</ele>
        <time>2023-08-18T11:27:01Z</time>
      </trkpt>
      <trkpt lat="57.25239397957921" lon="-2.836354980245233">
        <ele>197.69</ele>
        <time>2023-08-18T11:27:02Z</time>
      </trkpt>
      <trkpt lat="57.252538986504078" lon="-2.836589002981782">
        <ele>197.69</ele>
        <time>2023-08-18T11:27:03Z</time>
      </trkpt>
      <trkpt lat="57.252684999257326" lon="-2.836825037375093">
        <ele>198.16999999999999</ele>
        <time>2023-08-18T11:27:04Z</time>
      </trkpt>
      <trkpt lat="57.252831012010574" lon="-2.837060987949371">
        <ele>198.65000000000001</ele>
        <time>2023-08-18T11:27:05Z</time>
      </trkpt>
      <trkpt lat="57.253785040229559" lon="-2.838764023035765">
        <ele>201.05000000000001</ele>
        <time>2023-08-18T11:27:12Z</time>
      </trkpt>
      <trkpt lat="57.253983020782471" lon="-2.839302979409695">
        <ele>201.53</ele>
        <time>2023-08-18T11:27:14Z</time>
      </trkpt>
      <trkpt lat="57.25421997718513" lon="-2.840394973754883">
        <ele>201.53</ele>
        <time>2023-08-18T11:27:18Z</time>
      </trkpt>
      <trkpt lat="57.254260964691639" lon="-2.840784983709455">
        <ele>201.53</ele>
        <time>2023-08-18T11:27:19Z</time>
      </trkpt>
      <trkpt lat="57.254533963277936" lon="-2.843484962359071">
        <ele>201.05000000000001</ele>
        <time>2023-08-18T11:27:27Z</time>
      </trkpt>
      <trkpt lat="57.25462700240314" lon="-2.845066040754318">
        <ele>198.16999999999999</ele>
        <time>2023-08-18T11:27:32Z</time>
      </trkpt>
      <trkpt lat="57.254710989072919" lon="-2.845363011583686">
        <ele>197.69</ele>
        <time>2023-08-18T11:27:33Z</time>
      </trkpt>
      <trkpt lat="57.254792964085937" lon="-2.845646990463138">
        <ele>197.21000000000001</ele>
        <time>2023-08-18T11:27:34Z</time>
      </trkpt>
      <trkpt lat="57.254877034574747" lon="-2.845938010141254">
        <ele>197.21000000000001</ele>
        <time>2023-08-18T11:27:35Z</time>
      </trkpt>
      <trkpt lat="57.254969989880919" lon="-2.846237998455763">
        <ele>196.72999999999999</ele>
        <time>2023-08-18T11:27:36Z</time>
      </trkpt>
      <trkpt lat="57.255082977935672" lon="-2.846506973728538">
        <ele>196.72999999999999</ele>
        <time>2023-08-18T11:27:37Z</time>
      </trkpt>
      <trkpt lat="57.256439002230763" lon="-2.849322035908699">
        <ele>194.80000000000001</ele>
        <time>2023-08-18T11:27:47Z</time>
      </trkpt>
      <trkpt lat="57.25819400511682" lon="-2.852990962564945">
        <ele>196.25</ele>
        <time>2023-08-18T11:28:00Z</time>
      </trkpt>
      <trkpt lat="57.259002020582557" lon="-2.854965990409255">
        <ele>197.21000000000001</ele>
        <time>2023-08-18T11:28:07Z</time>
      </trkpt>
      <trkpt lat="57.259063962846994" lon="-2.855296991765499">
        <ele>197.21000000000001</ele>
        <time>2023-08-18T11:28:08Z</time>
      </trkpt>
      <trkpt lat="57.259125988930464" lon="-2.855627993121743">
        <ele>197.69</ele>
        <time>2023-08-18T11:28:09Z</time>
      </trkpt>
      <trkpt lat="57.259170999750495" lon="-2.855965029448271">
        <ele>198.16999999999999</ele>
        <time>2023-08-18T11:28:10Z</time>
      </trkpt>
      <trkpt lat="57.25920201279223" lon="-2.856312040239573">
        <ele>198.16999999999999</ele>
        <time>2023-08-18T11:28:11Z</time>
      </trkpt>
      <trkpt lat="57.259232020005584" lon="-2.856657961383462">
        <ele>198.65000000000001</ele>
        <time>2023-08-18T11:28:12Z</time>
      </trkpt>
      <trkpt lat="57.259433018043637" lon="-2.858944963663817">
        <ele>201.53</ele>
        <time>2023-08-18T11:28:19Z</time>
      </trkpt>
      <trkpt lat="57.259510969743133" lon="-2.859250986948609">
        <ele>202.00999999999999</ele>
        <time>2023-08-18T11:28:20Z</time>
      </trkpt>
      <trkpt lat="57.25958900526166" lon="-2.859550975263119">
        <ele>202.49000000000001</ele>
        <time>2023-08-18T11:28:21Z</time>
      </trkpt>
      <trkpt lat="57.259667962789536" lon="-2.85985398106277">
        <ele>202.49000000000001</ele>
        <time>2023-08-18T11:28:22Z</time>
      </trkpt>
      <trkpt lat="57.259767958894372" lon="-2.860140977427363">
        <ele>202.97999999999999</ele>
        <time>2023-08-18T11:28:23Z</time>
      </trkpt>
      <trkpt lat="57.259877007454634" lon="-2.860421016812325">
        <ele>203.46000000000001</ele>
        <time>2023-08-18T11:28:24Z</time>
      </trkpt>
      <trkpt lat="57.261106967926025" lon="-2.86356900818646">
        <ele>205.38</ele>
        <time>2023-08-18T11:28:35Z</time>
      </trkpt>
      <trkpt lat="57.262341035529971" lon="-2.867253022268415">
        <ele>203.94</ele>
        <time>2023-08-18T11:28:48Z</time>
      </trkpt>
      <trkpt lat="57.263374021276832" lon="-2.869244981557131">
        <ele>204.41999999999999</ele>
        <time>2023-08-18T11:28:56Z</time>
      </trkpt>
      <trkpt lat="57.264812020584941" lon="-2.871234007179737">
        <ele>206.34</ele>
        <time>2023-08-18T11:29:05Z</time>
      </trkpt>
      <trkpt lat="57.266442971304059" lon="-2.872759010642767">
        <ele>207.78</ele>
        <time>2023-08-18T11:29:14Z</time>
      </trkpt>
      <trkpt lat="57.267865967005491" lon="-2.873329985886812">
        <ele>210.19</ele>
        <time>2023-08-18T11:29:21Z</time>
      </trkpt>
      <trkpt lat="57.269656006246805" lon="-2.873678002506495">
        <ele>214.99000000000001</ele>
        <time>2023-08-18T11:29:30Z</time>
      </trkpt>
      <trkpt lat="57.270184988155961" lon="-2.873790990561247">
        <ele>215.47</ele>
        <time>2023-08-18T11:29:33Z</time>
      </trkpt>
      <trkpt lat="57.27035597898066" lon="-2.873857039958239">
        <ele>215.47</ele>
        <time>2023-08-18T11:29:34Z</time>
      </trkpt>
      <trkpt lat="57.27052403613925" lon="-2.873944966122508">
        <ele>215.47</ele>
        <time>2023-08-18T11:29:35Z</time>
      </trkpt>
      <trkpt lat="57.271698005497456" lon="-2.874565981328487">
        <ele>215.94999999999999</ele>
        <time>2023-08-18T11:29:42Z</time>
      </trkpt>
      <trkpt lat="57.273280005902052" lon="-2.875075014308095">
        <ele>216.43000000000001</ele>
        <time>2023-08-18T11:29:51Z</time>
      </trkpt>
      <trkpt lat="57.275099968537688" lon="-2.875535013154149">
        <ele>218.84</ele>
        <time>2023-08-18T11:30:00Z</time>
      </trkpt>
      <trkpt lat="57.275310019031167" lon="-2.875552028417587">
        <ele>218.84</ele>
        <time>2023-08-18T11:30:01Z</time>
      </trkpt>
      <trkpt lat="57.276959996670485" lon="-2.875093035399914">
        <ele>219.31999999999999</ele>
        <time>2023-08-18T11:30:09Z</time>
      </trkpt>
      <trkpt lat="57.278339993208647" lon="-2.874940987676382">
        <ele>223.63999999999999</ele>
        <time>2023-08-18T11:30:16Z</time>
      </trkpt>
      <trkpt lat="57.27978796698153" lon="-2.87491500377655">
        <ele>228.44999999999999</ele>
        <time>2023-08-18T11:30:24Z</time>
      </trkpt>
      <trkpt lat="57.280812989920378" lon="-2.874628007411957">
        <ele>229.88999999999999</ele>
        <time>2023-08-18T11:30:33Z</time>
      </trkpt>
      <trkpt lat="57.281486978754401" lon="-2.874685004353523">
        <ele>230.37</ele>
        <time>2023-08-18T11:30:39Z</time>
      </trkpt>
      <trkpt lat="57.282272027805448" lon="-2.874800004065037">
        <ele>231.81</ele>
        <time>2023-08-18T11:30:46Z</time>
      </trkpt>
      <trkpt lat="57.282377975061536" lon="-2.874811990186572">
        <ele>232.30000000000001</ele>
        <time>2023-08-18T11:30:47Z</time>
      </trkpt>
      <trkpt lat="57.282486017793417" lon="-2.874824982136488">
        <ele>232.78</ele>
        <time>2023-08-18T11:30:48Z</time>
      </trkpt>
      <trkpt lat="57.28260101750493" lon="-2.874832022935152">
        <ele>232.78</ele>
        <time>2023-08-18T11:30:49Z</time>
      </trkpt>
      <trkpt lat="57.282712999731302" lon="-2.874823976308107">
        <ele>232.78</ele>
        <time>2023-08-18T11:30:50Z</time>
      </trkpt>
      <trkpt lat="57.283024974167347" lon="-2.874801009893417">
        <ele>233.25999999999999</ele>
        <time>2023-08-18T11:30:53Z</time>
      </trkpt>
      <trkpt lat="57.283315993845463" lon="-2.874779971316457">
        <ele>233.74000000000001</ele>
        <time>2023-08-18T11:30:56Z</time>
      </trkpt>
      <trkpt lat="57.284589037299156" lon="-2.87454997189343">
        <ele>236.13999999999999</ele>
        <time>2023-08-18T11:31:09Z</time>
      </trkpt>
      <trkpt lat="57.285254979506135" lon="-2.874318966642022">
        <ele>236.13999999999999</ele>
        <time>2023-08-18T11:31:15Z</time>
      </trkpt>
      <trkpt lat="57.285367967560887" lon="-2.874285019934177">
        <ele>235.66</ele>
        <time>2023-08-18T11:31:16Z</time>
      </trkpt>
      <trkpt lat="57.285476010292768" lon="-2.874244032427669">
        <ele>235.66</ele>
        <time>2023-08-18T11:31:17Z</time>
      </trkpt>
      <trkpt lat="57.286698007956147" lon="-2.873814040794969">
        <ele>234.69999999999999</ele>
        <time>2023-08-18T11:31:28Z</time>
      </trkpt>
      <trkpt lat="57.288213958963752" lon="-2.873270977288485">
        <ele>232.30000000000001</ele>
        <time>2023-08-18T11:31:41Z</time>
      </trkpt>
      <trkpt lat="57.290045991539955" lon="-2.872583996504545">
        <ele>230.37</ele>
        <time>2023-08-18T11:31:55Z</time>
      </trkpt>
      <trkpt lat="57.291311994194984" lon="-2.872233968228102">
        <ele>228.93000000000001</ele>
        <time>2023-08-18T11:32:03Z</time>
      </trkpt>
      <trkpt lat="57.292349003255367" lon="-2.872216030955315">
        <ele>230.37</ele>
        <time>2023-08-18T11:32:09Z</time>
      </trkpt>
      <trkpt lat="57.2924820240587" lon="-2.872248971834779">
        <ele>230.37</ele>
        <time>2023-08-18T11:32:10Z</time>
      </trkpt>
      <trkpt lat="57.293831007555127" lon="-2.872582990676165">
        <ele>232.30000000000001</ele>
        <time>2023-08-18T11:32:20Z</time>
      </trkpt>
      <trkpt lat="57.294123033061624" lon="-2.872654991224408">
        <ele>232.78</ele>
        <time>2023-08-18T11:32:22Z</time>
      </trkpt>
      <trkpt lat="57.294265022501349" lon="-2.872617021203041">
        <ele>232.78</ele>
        <time>2023-08-18T11:32:23Z</time>
      </trkpt>
      <trkpt lat="57.294401982799172" lon="-2.872542003169656">
        <ele>232.78</ele>
        <time>2023-08-18T11:32:24Z</time>
      </trkpt>
      <trkpt lat="57.294537015259266" lon="-2.872467990964651">
        <ele>233.25999999999999</ele>
        <time>2023-08-18T11:32:25Z</time>
      </trkpt>
      <trkpt lat="57.294665006920695" lon="-2.872367994859815">
        <ele>233.25999999999999</ele>
        <time>2023-08-18T11:32:26Z</time>
      </trkpt>
      <trkpt lat="57.295867977663875" lon="-2.871251022443175">
        <ele>236.13999999999999</ele>
        <time>2023-08-18T11:32:36Z</time>
      </trkpt>
      <trkpt lat="57.295995969325304" lon="-2.871251022443175">
        <ele>236.13999999999999</ele>
        <time>2023-08-18T11:32:37Z</time>
      </trkpt>
      <trkpt lat="57.296126978471875" lon="-2.871251022443175">
        <ele>236.62</ele>
        <time>2023-08-18T11:32:38Z</time>
      </trkpt>
      <trkpt lat="57.296233009546995" lon="-2.871316988021135">
        <ele>237.09999999999999</ele>
        <time>2023-08-18T11:32:39Z</time>
      </trkpt>
      <trkpt lat="57.296345997601748" lon="-2.871386976912618">
        <ele>237.58000000000001</ele>
        <time>2023-08-18T11:32:40Z</time>
      </trkpt>
      <trkpt lat="57.29645999148488" lon="-2.871457971632481">
        <ele>238.06</ele>
        <time>2023-08-18T11:32:41Z</time>
      </trkpt>
      <trkpt lat="57.296710023656487" lon="-2.871569031849504">
        <ele>238.53999999999999</ele>
        <time>2023-08-18T11:32:43Z</time>
      </trkpt>
      <trkpt lat="57.296850001439452" lon="-2.871610019356012">
        <ele>238.53999999999999</ele>
        <time>2023-08-18T11:32:44Z</time>
      </trkpt>
      <trkpt lat="57.2969960141927" lon="-2.871637009084225">
        <ele>238.53999999999999</ele>
        <time>2023-08-18T11:32:45Z</time>
      </trkpt>
      <trkpt lat="57.29714697226882" lon="-2.871637009084225">
        <ele>238.53999999999999</ele>
        <time>2023-08-18T11:32:46Z</time>
      </trkpt>
      <trkpt lat="57.297285022214055" lon="-2.871637009084225">
        <ele>238.53999999999999</ele>
        <time>2023-08-18T11:32:47Z</time>
      </trkpt>
      <trkpt lat="57.297422988340259" lon="-2.87156299687922">
        <ele>238.53999999999999</ele>
        <time>2023-08-18T11:32:48Z</time>
      </trkpt>
      <trkpt lat="57.297547040507197" lon="-2.87149703130126">
        <ele>238.53999999999999</ele>
        <time>2023-08-18T11:32:49Z</time>
      </trkpt>
      <trkpt lat="57.297662040218711" lon="-2.871384965255857">
        <ele>238.06</ele>
        <time>2023-08-18T11:32:50Z</time>
      </trkpt>
      <trkpt lat="57.297785002738237" lon="-2.871258985251188">
        <ele>238.06</ele>
        <time>2023-08-18T11:32:51Z</time>
      </trkpt>
      <trkpt lat="57.298223040997982" lon="-2.870727991685271">
        <ele>237.58000000000001</ele>
        <time>2023-08-18T11:32:55Z</time>
      </trkpt>
      <trkpt lat="57.298304010182619" lon="-2.870564963668585">
        <ele>237.58000000000001</ele>
        <time>2023-08-18T11:32:56Z</time>
      </trkpt>
      <trkpt lat="57.298368969932199" lon="-2.870383998379111">
        <ele>237.09999999999999</ele>
        <time>2023-08-18T11:32:57Z</time>
      </trkpt>
      <trkpt lat="57.298407023772597" lon="-2.870134972035885">
        <ele>237.09999999999999</ele>
        <time>2023-08-18T11:32:58Z</time>
      </trkpt>
      <trkpt lat="57.298452034592628" lon="-2.869838001206517">
        <ele>236.62</ele>
        <time>2023-08-18T11:32:59Z</time>
      </trkpt>
      <trkpt lat="57.298505008220673" lon="-2.869488978758454">
        <ele>235.66</ele>
        <time>2023-08-18T11:33:00Z</time>
      </trkpt>
      <trkpt lat="57.298812959343195" lon="-2.867643032222986">
        <ele>233.74000000000001</ele>
        <time>2023-08-18T11:33:05Z</time>
      </trkpt>
      <trkpt lat="57.29890700429678" lon="-2.867383025586605">
        <ele>233.25999999999999</ele>
        <time>2023-08-18T11:33:06Z</time>
      </trkpt>
      <trkpt lat="57.299017980694771" lon="-2.867161994799972">
        <ele>233.25999999999999</ele>
        <time>2023-08-18T11:33:07Z</time>
      </trkpt>
      <trkpt lat="57.299170028418303" lon="-2.866996033117175">
        <ele>233.25999999999999</ele>
        <time>2023-08-18T11:33:08Z</time>
      </trkpt>
      <trkpt lat="57.299344036728144" lon="-2.866853959858418">
        <ele>233.25999999999999</ele>
        <time>2023-08-18T11:33:09Z</time>
      </trkpt>
      <trkpt lat="57.299526007845998" lon="-2.866705013439059">
        <ele>233.25999999999999</ele>
        <time>2023-08-18T11:33:10Z</time>
      </trkpt>
      <trkpt lat="57.301200963556767" lon="-2.865184033289552">
        <ele>231.81</ele>
        <time>2023-08-18T11:33:20Z</time>
      </trkpt>
      <trkpt lat="57.302567968145013" lon="-2.863277988508344">
        <ele>229.41</ele>
        <time>2023-08-18T11:33:29Z</time>
      </trkpt>
      <trkpt lat="57.304165977984667" lon="-2.861016970127821">
        <ele>223.16</ele>
        <time>2023-08-18T11:33:39Z</time>
      </trkpt>
      <trkpt lat="57.304876009002328" lon="-2.859507976099849">
        <ele>220.75999999999999</ele>
        <time>2023-08-18T11:33:45Z</time>
      </trkpt>
      <trkpt lat="57.305080024525523" lon="-2.859115032479167">
        <ele>220.28</ele>
        <time>2023-08-18T11:33:47Z</time>
      </trkpt>
      <trkpt lat="57.305204998701811" lon="-2.858959967270494">
        <ele>220.28</ele>
        <time>2023-08-18T11:33:48Z</time>
      </trkpt>
      <trkpt lat="57.305879993364215" lon="-2.858282038941979">
        <ele>217.88</ele>
        <time>2023-08-18T11:33:53Z</time>
      </trkpt>
      <trkpt lat="57.306011002510786" lon="-2.858233004808426">
        <ele>217.40000000000001</ele>
        <time>2023-08-18T11:33:54Z</time>
      </trkpt>
      <trkpt lat="57.306144023314118" lon="-2.858259994536638">
        <ele>216.43000000000001</ele>
        <time>2023-08-18T11:33:55Z</time>
      </trkpt>
      <trkpt lat="57.306266985833645" lon="-2.858322020620108">
        <ele>215.94999999999999</ele>
        <time>2023-08-18T11:33:56Z</time>
      </trkpt>
      <trkpt lat="57.30640503577888" lon="-2.858417993411422">
        <ele>214.99000000000001</ele>
        <time>2023-08-18T11:33:57Z</time>
      </trkpt>
      <trkpt lat="57.306551970541477" lon="-2.858518995344639">
        <ele>214.50999999999999</ele>
        <time>2023-08-18T11:33:58Z</time>
      </trkpt>
      <trkpt lat="57.307454030960798" lon="-2.859317036345601">
        <ele>208.25999999999999</ele>
        <time>2023-08-18T11:34:05Z</time>
      </trkpt>
      <trkpt lat="57.307543968781829" lon="-2.859332039952278">
        <ele>207.30000000000001</ele>
        <time>2023-08-18T11:34:06Z</time>
      </trkpt>
      <trkpt lat="57.307614041492343" lon="-2.859332961961627">
        <ele>206.34</ele>
        <time>2023-08-18T11:34:07Z</time>
      </trkpt>
      <trkpt lat="57.307683024555445" lon="-2.859246041625738">
        <ele>205.86000000000001</ele>
        <time>2023-08-18T11:34:08Z</time>
      </trkpt>
      <trkpt lat="57.307777991518378" lon="-2.859128024429083">
        <ele>204.90000000000001</ele>
        <time>2023-08-18T11:34:09Z</time>
      </trkpt>
      <trkpt lat="57.307826019823551" lon="-2.859027022495866">
        <ele>204.41999999999999</ele>
        <time>2023-08-18T11:34:10Z</time>
      </trkpt>
      <trkpt lat="57.308106981217861" lon="-2.858431991189718">
        <ele>202.97999999999999</ele>
        <time>2023-08-18T11:34:15Z</time>
      </trkpt>
      <trkpt lat="57.30814796872437" lon="-2.858345992863178">
        <ele>202.97999999999999</ele>
        <time>2023-08-18T11:34:16Z</time>
      </trkpt>
      <trkpt lat="57.308232039213181" lon="-2.858406007289887">
        <ele>203.46000000000001</ele>
        <time>2023-08-18T11:34:17Z</time>
      </trkpt>
      <trkpt lat="57.308293981477618" lon="-2.858490999788046">
        <ele>203.46000000000001</ele>
        <time>2023-08-18T11:34:18Z</time>
      </trkpt>
      <trkpt lat="57.308359025046229" lon="-2.858582027256489">
        <ele>203.94</ele>
        <time>2023-08-18T11:34:19Z</time>
      </trkpt>
      <trkpt lat="57.30842599645257" lon="-2.858683029189706">
        <ele>203.94</ele>
        <time>2023-08-18T11:34:20Z</time>
      </trkpt>
      <trkpt lat="57.308644009754062" lon="-2.85901696421206">
        <ele>204.90000000000001</ele>
        <time>2023-08-18T11:34:23Z</time>
      </trkpt>
      <trkpt lat="57.308705030009151" lon="-2.85916599445045">
        <ele>205.38</ele>
        <time>2023-08-18T11:34:24Z</time>
      </trkpt>
      <trkpt lat="57.308760015293956" lon="-2.859302032738924">
        <ele>205.86000000000001</ele>
        <time>2023-08-18T11:34:25Z</time>
      </trkpt>
      <trkpt lat="57.308816006407142" lon="-2.859437987208366">
        <ele>206.34</ele>
        <time>2023-08-18T11:34:26Z</time>
      </trkpt>
      <trkpt lat="57.308867974206805" lon="-2.859597997739911">
        <ele>206.34</ele>
        <time>2023-08-18T11:34:27Z</time>
      </trkpt>
      <trkpt lat="57.308976016938686" lon="-2.859950959682465">
        <ele>207.30000000000001</ele>
        <time>2023-08-18T11:34:29Z</time>
      </trkpt>
      <trkpt lat="57.308986997231841" lon="-2.860171990469098">
        <ele>206.81999999999999</ele>
        <time>2023-08-18T11:34:30Z</time>
      </trkpt>
      <trkpt lat="57.308994960039854" lon="-2.860375000163913">
        <ele>206.34</ele>
        <time>2023-08-18T11:34:31Z</time>
      </trkpt>
      <trkpt lat="57.308998983353376" lon="-2.860574992373586">
        <ele>205.86000000000001</ele>
        <time>2023-08-18T11:34:32Z</time>
      </trkpt>
      <trkpt lat="57.308985991403461" lon="-2.860782025381923">
        <ele>204.90000000000001</ele>
        <time>2023-08-18T11:34:33Z</time>
      </trkpt>
      <trkpt lat="57.308971993625164" lon="-2.860988974571228">
        <ele>204.41999999999999</ele>
        <time>2023-08-18T11:34:34Z</time>
      </trkpt>
      <trkpt lat="57.308957995846868" lon="-2.861208999529481">
        <ele>203.94</ele>
        <time>2023-08-18T11:34:35Z</time>
      </trkpt>
      <trkpt lat="57.308925976976752" lon="-2.861417960375547">
        <ele>202.97999999999999</ele>
        <time>2023-08-18T11:34:36Z</time>
      </trkpt>
      <trkpt lat="57.308538984507322" lon="-2.863770006224513">
        <ele>201.53</ele>
        <time>2023-08-18T11:34:47Z</time>
      </trkpt>
      <trkpt lat="57.308456003665924" lon="-2.864152975380421">
        <ele>202.00999999999999</ele>
        <time>2023-08-18T11:34:49Z</time>
      </trkpt>
      <trkpt lat="57.308416021987796" lon="-2.864336958155036">
        <ele>202.49000000000001</ele>
        <time>2023-08-18T11:34:50Z</time>
      </trkpt>
      <trkpt lat="57.308376040309668" lon="-2.864520018920302">
        <ele>202.97999999999999</ele>
        <time>2023-08-18T11:34:51Z</time>
      </trkpt>
      <trkpt lat="57.308337986469269" lon="-2.864696038886905">
        <ele>203.46000000000001</ele>
        <time>2023-08-18T11:34:52Z</time>
      </trkpt>
      <trkpt lat="57.308301022276282" lon="-2.864866023883224">
        <ele>203.94</ele>
        <time>2023-08-18T11:34:53Z</time>
      </trkpt>
      <trkpt lat="57.308264980092645" lon="-2.865032991394401">
        <ele>204.41999999999999</ele>
        <time>2023-08-18T11:34:54Z</time>
      </trkpt>
      <trkpt lat="57.308229021728039" lon="-2.865199958905578">
        <ele>204.90000000000001</ele>
        <time>2023-08-18T11:34:55Z</time>
      </trkpt>
      <trkpt lat="57.308219969272614" lon="-2.865372961387038">
        <ele>204.90000000000001</ele>
        <time>2023-08-18T11:34:56Z</time>
      </trkpt>
      <trkpt lat="57.30821100063622" lon="-2.865543030202389">
        <ele>205.86000000000001</ele>
        <time>2023-08-18T11:34:57Z</time>
      </trkpt>
      <trkpt lat="57.308217035606503" lon="-2.865709997713566">
        <ele>206.34</ele>
        <time>2023-08-18T11:34:58Z</time>
      </trkpt>
      <trkpt lat="57.308470001444221" lon="-2.867167023941875">
        <ele>213.06999999999999</ele>
        <time>2023-08-18T11:35:05Z</time>
      </trkpt>
      <trkpt lat="57.308831010013819" lon="-2.868441995233297">
        <ele>218.84</ele>
        <time>2023-08-18T11:35:12Z</time>
      </trkpt>
      <trkpt lat="57.308893036097288" lon="-2.868620026856661">
        <ele>219.80000000000001</ele>
        <time>2023-08-18T11:35:13Z</time>
      </trkpt>
      <trkpt lat="57.309344988316298" lon="-2.870003962889314">
        <ele>223.16</ele>
        <time>2023-08-18T11:35:20Z</time>
      </trkpt>
      <trkpt lat="57.309407014399767" lon="-2.870176965370774">
        <ele>223.63999999999999</ele>
        <time>2023-08-18T11:35:21Z</time>
      </trkpt>
      <trkpt lat="57.309483960270882" lon="-2.870344016700983">
        <ele>224.12</ele>
        <time>2023-08-18T11:35:22Z</time>
      </trkpt>
      <trkpt lat="57.309623016044497" lon="-2.870648028329015">
        <ele>224.61000000000001</ele>
        <time>2023-08-18T11:35:24Z</time>
      </trkpt>
      <trkpt lat="57.309685964137316" lon="-2.870784988626838">
        <ele>224.12</ele>
        <time>2023-08-18T11:35:25Z</time>
      </trkpt>
      <trkpt lat="57.309755031019449" lon="-2.870947010815144">
        <ele>224.12</ele>
        <time>2023-08-18T11:35:26Z</time>
      </trkpt>
      <trkpt lat="57.309781014919281" lon="-2.87113199941814">
        <ele>224.12</ele>
        <time>2023-08-18T11:35:27Z</time>
      </trkpt>
      <trkpt lat="57.309811022132635" lon="-2.871340960264206">
        <ele>224.61000000000001</ele>
        <time>2023-08-18T11:35:28Z</time>
      </trkpt>
      <trkpt lat="57.30984304100275" lon="-2.871569031849504">
        <ele>225.09</ele>
        <time>2023-08-18T11:35:29Z</time>
      </trkpt>
      <trkpt lat="57.309943037107587" lon="-2.872267998754978">
        <ele>226.53</ele>
        <time>2023-08-18T11:35:32Z</time>
      </trkpt>
      <trkpt lat="57.31001503765583" lon="-2.872429015114904">
        <ele>227.00999999999999</ele>
        <time>2023-08-18T11:35:33Z</time>
      </trkpt>
      <trkpt lat="57.310096006840467" lon="-2.872603023424745">
        <ele>227.49000000000001</ele>
        <time>2023-08-18T11:35:34Z</time>
      </trkpt>
      <trkpt lat="57.310179993510246" lon="-2.8727210406214">
        <ele>227.97</ele>
        <time>2023-08-18T11:35:35Z</time>
      </trkpt>
      <trkpt lat="57.31027596630156" lon="-2.872855989262462">
        <ele>228.44999999999999</ele>
        <time>2023-08-18T11:35:36Z</time>
      </trkpt>
      <trkpt lat="57.310370011255145" lon="-2.872988004237413">
        <ele>228.93000000000001</ele>
        <time>2023-08-18T11:35:37Z</time>
      </trkpt>
      <trkpt lat="57.310447040945292" lon="-2.873142985627055">
        <ele>229.88999999999999</ele>
        <time>2023-08-18T11:35:38Z</time>
      </trkpt>
      <trkpt lat="57.310502026230097" lon="-2.873307019472122">
        <ele>230.37</ele>
        <time>2023-08-18T11:35:39Z</time>
      </trkpt>
      <trkpt lat="57.310711992904544" lon="-2.874105982482433">
        <ele>232.78</ele>
        <time>2023-08-18T11:35:44Z</time>
      </trkpt>
      <trkpt lat="57.310734959319234" lon="-2.874276973307133">
        <ele>232.78</ele>
        <time>2023-08-18T11:35:45Z</time>
      </trkpt>
      <trkpt lat="57.310761027038097" lon="-2.874470008537173">
        <ele>233.25999999999999</ele>
        <time>2023-08-18T11:35:46Z</time>
      </trkpt>
      <trkpt lat="57.310772007331252" lon="-2.874616021290422">
        <ele>233.25999999999999</ele>
        <time>2023-08-18T11:35:47Z</time>
      </trkpt>
      <trkpt lat="57.310783993452787" lon="-2.874777037650347">
        <ele>233.74000000000001</ele>
        <time>2023-08-18T11:35:48Z</time>
      </trkpt>
      <trkpt lat="57.310795979574323" lon="-2.874923972412944">
        <ele>233.74000000000001</ele>
        <time>2023-08-18T11:35:49Z</time>
      </trkpt>
      <trkpt lat="57.310806959867477" lon="-2.875078031793237">
        <ele>234.22</ele>
        <time>2023-08-18T11:35:50Z</time>
      </trkpt>
      <trkpt lat="57.310824980959296" lon="-2.875307025387883">
        <ele>234.69999999999999</ele>
        <time>2023-08-18T11:35:51Z</time>
      </trkpt>
      <trkpt lat="57.310938974842429" lon="-2.875799965113401">
        <ele>235.66</ele>
        <time>2023-08-18T11:35:54Z</time>
      </trkpt>
      <trkpt lat="57.31098297983408" lon="-2.875990988686681">
        <ele>236.13999999999999</ele>
        <time>2023-08-18T11:35:55Z</time>
      </trkpt>
      <trkpt lat="57.311178026720881" lon="-2.876832028850913">
        <ele>237.58000000000001</ele>
        <time>2023-08-18T11:36:00Z</time>
      </trkpt>
      <trkpt lat="57.311351029202342" lon="-2.877579024061561">
        <ele>239.99000000000001</ele>
        <time>2023-08-18T11:36:05Z</time>
      </trkpt>
      <trkpt lat="57.311393022537231" lon="-2.877698969095945">
        <ele>240.94999999999999</ele>
        <time>2023-08-18T11:36:06Z</time>
      </trkpt>
      <trkpt lat="57.311449013650417" lon="-2.877830984070897">
        <ele>241.91</ele>
        <time>2023-08-18T11:36:07Z</time>
      </trkpt>
      <trkpt lat="57.311500981450081" lon="-2.877955958247185">
        <ele>242.38999999999999</ele>
        <time>2023-08-18T11:36:08Z</time>
      </trkpt>
      <trkpt lat="57.311554960906506" lon="-2.878075987100601">
        <ele>242.87</ele>
        <time>2023-08-18T11:36:09Z</time>
      </trkpt>
      <trkpt lat="57.311618998646736" lon="-2.878203978762031">
        <ele>243.83000000000001</ele>
        <time>2023-08-18T11:36:10Z</time>
      </trkpt>
      <trkpt lat="57.311683958396316" lon="-2.878332976251841">
        <ele>244.31</ele>
        <time>2023-08-18T11:36:11Z</time>
      </trkpt>
      <trkpt lat="57.311741039156914" lon="-2.878446970134974">
        <ele>244.78999999999999</ele>
        <time>2023-08-18T11:36:12Z</time>
      </trkpt>
      <trkpt lat="57.311792001128197" lon="-2.878548977896571">
        <ele>245.75</ele>
        <time>2023-08-18T11:36:13Z</time>
      </trkpt>
      <trkpt lat="57.311847992241383" lon="-2.8786959964782">
        <ele>246.72</ele>
        <time>2023-08-18T11:36:14Z</time>
      </trkpt>
      <trkpt lat="57.311894008889794" lon="-2.878896994516254">
        <ele>248.16</ele>
        <time>2023-08-18T11:36:16Z</time>
      </trkpt>
      <trkpt lat="57.311911024153233" lon="-2.878973018378019">
        <ele>248.63999999999999</ele>
        <time>2023-08-18T11:36:17Z</time>
      </trkpt>
      <trkpt lat="57.311920998618007" lon="-2.879019035026431">
        <ele>250.08000000000001</ele>
        <time>2023-08-18T11:36:25Z</time>
      </trkpt>
      <trkpt lat="57.311920998618007" lon="-2.879019035026431">
        <ele>250.56</ele>
        <time>2023-08-18T11:37:08Z</time>
      </trkpt>
      <trkpt lat="57.312063993886113" lon="-2.879646001383662">
        <ele>257.76999999999998</ele>
        <time>2023-08-18T11:37:21Z</time>
      </trkpt>
      <trkpt lat="57.312348978593946" lon="-2.880847966298461">
        <ele>255.37</ele>
        <time>2023-08-18T11:37:28Z</time>
      </trkpt>
      <trkpt lat="57.312647961080074" lon="-2.882155040279031">
        <ele>256.32999999999998</ele>
        <time>2023-08-18T11:37:37Z</time>
      </trkpt>
      <trkpt lat="57.312660031020641" lon="-2.882255036383867">
        <ele>256.32999999999998</ele>
        <time>2023-08-18T11:37:38Z</time>
      </trkpt>
      <trkpt lat="57.312666988000274" lon="-2.882352015003562">
        <ele>256.81</ele>
        <time>2023-08-18T11:37:39Z</time>
      </trkpt>
      <trkpt lat="57.312629017978907" lon="-2.882419992238283">
        <ele>257.29000000000002</ele>
        <time>2023-08-18T11:37:40Z</time>
      </trkpt>
      <trkpt lat="57.312584007158875" lon="-2.882502973079681">
        <ele>257.76999999999998</ele>
        <time>2023-08-18T11:37:41Z</time>
      </trkpt>
      <trkpt lat="57.312536984682083" lon="-2.88258302025497">
        <ele>257.76999999999998</ele>
        <time>2023-08-18T11:37:42Z</time>
      </trkpt>
      <trkpt lat="57.312469007447362" lon="-2.882618978619576">
        <ele>258.25</ele>
        <time>2023-08-18T11:37:43Z</time>
      </trkpt>
      <trkpt lat="57.312242025509477" lon="-2.882739007472992">
        <ele>257.76999999999998</ele>
        <time>2023-08-18T11:37:46Z</time>
      </trkpt>
      <trkpt lat="57.312166001647711" lon="-2.882788963615894">
        <ele>257.76999999999998</ele>
        <time>2023-08-18T11:37:47Z</time>
      </trkpt>
      <trkpt lat="57.312097018584609" lon="-2.882879991084337">
        <ele>257.76999999999998</ele>
        <time>2023-08-18T11:37:48Z</time>
      </trkpt>
      <trkpt lat="57.311984030529857" lon="-2.883031032979488">
        <ele>257.76999999999998</ele>
        <time>2023-08-18T11:37:49Z</time>
      </trkpt>
      <trkpt lat="57.311956034973264" lon="-2.883125999942422">
        <ele>257.76999999999998</ele>
        <time>2023-08-18T11:37:50Z</time>
      </trkpt>
      <trkpt lat="57.311917981132865" lon="-2.883254997432232">
        <ele>257.76999999999998</ele>
        <time>2023-08-18T11:37:51Z</time>
      </trkpt>
      <trkpt lat="57.311875987797976" lon="-2.883395981043577">
        <ele>257.76999999999998</ele>
        <time>2023-08-18T11:37:52Z</time>
      </trkpt>
      <trkpt lat="57.311858972534537" lon="-2.883534030988812">
        <ele>257.76999999999998</ele>
        <time>2023-08-18T11:37:53Z</time>
      </trkpt>
      <trkpt lat="57.31184002943337" lon="-2.8836780320853">
        <ele>257.29000000000002</ele>
        <time>2023-08-18T11:37:54Z</time>
      </trkpt>
      <trkpt lat="57.311790995299816" lon="-2.884061001241207">
        <ele>257.29000000000002</ele>
        <time>2023-08-18T11:37:55Z</time>
      </trkpt>
      <trkpt lat="57.311790995299816" lon="-2.884061001241207">
        <ele>257.29000000000002</ele>
        <time>2023-08-18T11:37:56Z</time>
      </trkpt>
      <trkpt lat="57.311242986470461" lon="-2.885255003347993">
        <ele>259.69</ele>
        <time>2023-08-18T11:38:05Z</time>
      </trkpt>
      <trkpt lat="57.311027990654111" lon="-2.885733023285866">
        <ele>262.57999999999998</ele>
        <time>2023-08-18T11:38:09Z</time>
      </trkpt>
      <trkpt lat="57.310321982949972" lon="-2.887309994548559">
        <ele>269.79000000000002</ele>
        <time>2023-08-18T11:38:20Z</time>
      </trkpt>
      <trkpt lat="57.309705996885896" lon="-2.889035996049643">
        <ele>276.51999999999998</ele>
        <time>2023-08-18T11:38:29Z</time>
      </trkpt>
      <trkpt lat="57.309554032981396" lon="-2.889486020430923">
        <ele>279.39999999999998</ele>
        <time>2023-08-18T11:38:33Z</time>
      </trkpt>
      <trkpt lat="57.309528971090913" lon="-2.889561960473657">
        <ele>280.36000000000001</ele>
        <time>2023-08-18T11:38:34Z</time>
      </trkpt>
      <trkpt lat="57.309509022161365" lon="-2.889619963243604">
        <ele>280.83999999999997</ele>
        <time>2023-08-18T11:38:35Z</time>
      </trkpt>
      <trkpt lat="57.309497036039829" lon="-2.889657011255622">
        <ele>281.80000000000001</ele>
        <time>2023-08-18T11:38:36Z</time>
      </trkpt>
      <trkpt lat="57.309488989412785" lon="-2.889680983498693">
        <ele>282.27999999999997</ele>
        <time>2023-08-18T11:38:37Z</time>
      </trkpt>
      <trkpt lat="57.30947800911963" lon="-2.889713002368808">
        <ele>282.76999999999998</ele>
        <time>2023-08-18T11:38:38Z</time>
      </trkpt>
      <trkpt lat="57.309461999684572" lon="-2.889761030673981">
        <ele>283.25</ele>
        <time>2023-08-18T11:38:39Z</time>
      </trkpt>
      <trkpt lat="57.309446996077895" lon="-2.889812998473644">
        <ele>284.20999999999998</ele>
        <time>2023-08-18T11:38:40Z</time>
      </trkpt>
      <trkpt lat="57.30943500995636" lon="-2.889876030385494">
        <ele>284.69</ele>
        <time>2023-08-18T11:38:41Z</time>
      </trkpt>
      <trkpt lat="57.309412965551019" lon="-2.889983989298344">
        <ele>285.64999999999998</ele>
        <time>2023-08-18T11:38:48Z</time>
      </trkpt>
      <trkpt lat="57.309437021613121" lon="-2.890192028135061">
        <ele>269.79000000000002</ele>
        <time>2023-08-18T11:58:56Z</time>
      </trkpt>
      <trkpt lat="57.309367032721639" lon="-2.890135031193495">
        <ele>284.69</ele>
        <time>2023-08-18T11:59:19Z</time>
      </trkpt>
      <trkpt lat="57.309351023286581" lon="-2.890138970687985">
        <ele>288.52999999999997</ele>
        <time>2023-08-18T11:59:53Z</time>
      </trkpt>
      <trkpt lat="57.30939201079309" lon="-2.890064036473632">
        <ele>292.38</ele>
        <time>2023-08-18T12:00:29Z</time>
      </trkpt>
      <trkpt lat="57.309366026893258" lon="-2.890220023691654">
        <ele>292.86000000000001</ele>
        <time>2023-08-18T12:00:58Z</time>
      </trkpt>
      <trkpt lat="57.309323027729988" lon="-2.890947991982102">
        <ele>292.38</ele>
        <time>2023-08-18T12:01:04Z</time>
      </trkpt>
      <trkpt lat="57.309248009696603" lon="-2.891305983066559">
        <ele>292.86000000000001</ele>
        <time>2023-08-18T12:01:07Z</time>
      </trkpt>
      <trkpt lat="57.30917701497674" lon="-2.891645031049848">
        <ele>292.86000000000001</ele>
        <time>2023-08-18T12:01:10Z</time>
      </trkpt>
      <trkpt lat="57.309153964743018" lon="-2.891756007447839">
        <ele>292.86000000000001</ele>
        <time>2023-08-18T12:01:11Z</time>
      </trkpt>
      <trkpt lat="57.30911398306489" lon="-2.892199996858835">
        <ele>292.86000000000001</ele>
        <time>2023-08-18T12:01:14Z</time>
      </trkpt>
      <trkpt lat="57.309106020256877" lon="-2.892375010997057">
        <ele>292.86000000000001</ele>
        <time>2023-08-18T12:01:15Z</time>
      </trkpt>
      <trkpt lat="57.309065032750368" lon="-2.893957011401653">
        <ele>294.30000000000001</ele>
        <time>2023-08-18T12:01:22Z</time>
      </trkpt>
      <trkpt lat="57.309081964194775" lon="-2.894196985289455">
        <ele>294.77999999999997</ele>
        <time>2023-08-18T12:01:23Z</time>
      </trkpt>
      <trkpt lat="57.309115994721651" lon="-2.894419021904469">
        <ele>294.77999999999997</ele>
        <time>2023-08-18T12:01:24Z</time>
      </trkpt>
      <trkpt lat="57.309280028566718" lon="-2.89521899074316">
        <ele>295.25999999999999</ele>
        <time>2023-08-18T12:01:30Z</time>
      </trkpt>
      <trkpt lat="57.309615975245833" lon="-2.896426990628243">
        <ele>295.25999999999999</ele>
        <time>2023-08-18T12:01:38Z</time>
      </trkpt>
      <trkpt lat="57.31005996465683" lon="-2.898353990167379">
        <ele>296.22000000000003</ele>
        <time>2023-08-18T12:01:47Z</time>
      </trkpt>
      <trkpt lat="57.310625994578004" lon="-2.900430019944906">
        <ele>298.63</ele>
        <time>2023-08-18T12:01:55Z</time>
      </trkpt>
      <trkpt lat="57.311530988663435" lon="-2.904733037576079">
        <ele>305.36000000000001</ele>
        <time>2023-08-18T12:02:10Z</time>
      </trkpt>
      <trkpt lat="57.312244037166238" lon="-2.90806601755321">
        <ele>309.68000000000001</ele>
        <time>2023-08-18T12:02:21Z</time>
      </trkpt>
      <trkpt lat="57.312930012121797" lon="-2.910673040896654">
        <ele>313.05000000000001</ele>
        <time>2023-08-18T12:02:31Z</time>
      </trkpt>
      <trkpt lat="57.313181972131133" lon="-2.911683982238174">
        <ele>314.00999999999999</ele>
        <time>2023-08-18T12:02:35Z</time>
      </trkpt>
      <trkpt lat="57.313234023749828" lon="-2.911940971389413">
        <ele>314.49000000000001</ele>
        <time>2023-08-18T12:02:36Z</time>
      </trkpt>
      <trkpt lat="57.313481960445642" lon="-2.914868015795946">
        <ele>317.85000000000002</ele>
        <time>2023-08-18T12:02:46Z</time>
      </trkpt>
      <trkpt lat="57.313592014834285" lon="-2.917740996927023">
        <ele>320.74000000000001</ele>
        <time>2023-08-18T12:02:57Z</time>
      </trkpt>
      <trkpt lat="57.313562007620931" lon="-2.920263027772307">
        <ele>323.62</ele>
        <time>2023-08-18T12:03:06Z</time>
      </trkpt>
      <trkpt lat="57.313742972910404" lon="-2.923137014731765">
        <ele>328.91000000000003</ele>
        <time>2023-08-18T12:03:14Z</time>
      </trkpt>
      <trkpt lat="57.31388496235013" lon="-2.925682011991739">
        <ele>335.16000000000003</ele>
        <time>2023-08-18T12:03:22Z</time>
      </trkpt>
      <trkpt lat="57.313913963735104" lon="-2.926786998286843">
        <ele>339</ele>
        <time>2023-08-18T12:03:26Z</time>
      </trkpt>
      <trkpt lat="57.313949000090361" lon="-2.927066031843424">
        <ele>339.95999999999998</ele>
        <time>2023-08-18T12:03:27Z</time>
      </trkpt>
      <trkpt lat="57.313988981768489" lon="-2.927344981580973">
        <ele>340.44</ele>
        <time>2023-08-18T12:03:28Z</time>
      </trkpt>
      <trkpt lat="57.314067017287016" lon="-2.927891984581947">
        <ele>342.37</ele>
        <time>2023-08-18T12:03:30Z</time>
      </trkpt>
      <trkpt lat="57.314086966216564" lon="-2.928169006481767">
        <ele>343.81</ele>
        <time>2023-08-18T12:03:31Z</time>
      </trkpt>
      <trkpt lat="57.314086966216564" lon="-2.928439993411303">
        <ele>345.73000000000002</ele>
        <time>2023-08-18T12:03:32Z</time>
      </trkpt>
      <trkpt lat="57.314077997580171" lon="-2.928719026967883">
        <ele>347.17000000000002</ele>
        <time>2023-08-18T12:03:33Z</time>
      </trkpt>
      <trkpt lat="57.314040027558804" lon="-2.929002000018954">
        <ele>348.62</ele>
        <time>2023-08-18T12:03:34Z</time>
      </trkpt>
      <trkpt lat="57.314001973718405" lon="-2.92929201386869">
        <ele>350.54000000000002</ele>
        <time>2023-08-18T12:03:35Z</time>
      </trkpt>
      <trkpt lat="57.313398979604244" lon="-2.932417038828135">
        <ele>364.48000000000002</ele>
        <time>2023-08-18T12:03:46Z</time>
      </trkpt>
      <trkpt lat="57.313361009582877" lon="-2.932662963867188">
        <ele>365.92000000000002</ele>
        <time>2023-08-18T12:03:47Z</time>
      </trkpt>
      <trkpt lat="57.313372995704412" lon="-2.932896986603737">
        <ele>366.88</ele>
        <time>2023-08-18T12:03:48Z</time>
      </trkpt>
      <trkpt lat="57.313391016796231" lon="-2.933127991855145">
        <ele>367.83999999999997</ele>
        <time>2023-08-18T12:03:49Z</time>
      </trkpt>
      <trkpt lat="57.313425969332457" lon="-2.933362014591694">
        <ele>368.80000000000001</ele>
        <time>2023-08-18T12:03:50Z</time>
      </trkpt>
      <trkpt lat="57.313479026779532" lon="-2.933608023449779">
        <ele>369.75999999999999</ele>
        <time>2023-08-18T12:03:51Z</time>
      </trkpt>
      <trkpt lat="57.313534012064338" lon="-2.933860989287496">
        <ele>370.24000000000001</ele>
        <time>2023-08-18T12:03:52Z</time>
      </trkpt>
      <trkpt lat="57.313569970428944" lon="-2.934120995923877">
        <ele>370.73000000000002</ele>
        <time>2023-08-18T12:03:53Z</time>
      </trkpt>
      <trkpt lat="57.313566030934453" lon="-2.934390977025032">
        <ele>371.20999999999998</ele>
        <time>2023-08-18T12:03:54Z</time>
      </trkpt>
      <trkpt lat="57.313562007620931" lon="-2.934672022238374">
        <ele>371.69</ele>
        <time>2023-08-18T12:03:55Z</time>
      </trkpt>
      <trkpt lat="57.313552033156157" lon="-2.935249032452703">
        <ele>372.17000000000002</ele>
        <time>2023-08-18T12:03:57Z</time>
      </trkpt>
      <trkpt lat="57.313567036762834" lon="-2.935542985796928">
        <ele>372.64999999999998</ele>
        <time>2023-08-18T12:03:58Z</time>
      </trkpt>
      <trkpt lat="57.313598971813917" lon="-2.935830987989903">
        <ele>372.64999999999998</ele>
        <time>2023-08-18T12:03:59Z</time>
      </trkpt>
      <trkpt lat="57.313892003148794" lon="-2.938497019931674">
        <ele>373.61000000000001</ele>
        <time>2023-08-18T12:04:09Z</time>
      </trkpt>
      <trkpt lat="57.313966015353799" lon="-2.940784022212029">
        <ele>370.73000000000002</ele>
        <time>2023-08-18T12:04:17Z</time>
      </trkpt>
      <trkpt lat="57.313957968726754" lon="-2.941658003255725">
        <ele>369.75999999999999</ele>
        <time>2023-08-18T12:04:20Z</time>
      </trkpt>
      <trkpt lat="57.313980013132095" lon="-2.941922033205628">
        <ele>369.75999999999999</ele>
        <time>2023-08-18T12:04:21Z</time>
      </trkpt>
      <trkpt lat="57.314010020345449" lon="-2.942186985164881">
        <ele>369.27999999999997</ele>
        <time>2023-08-18T12:04:22Z</time>
      </trkpt>
      <trkpt lat="57.314073974266648" lon="-2.942446991801262">
        <ele>369.27999999999997</ele>
        <time>2023-08-18T12:04:23Z</time>
      </trkpt>
      <trkpt lat="57.314146980643272" lon="-2.942656958475709">
        <ele>369.27999999999997</ele>
        <time>2023-08-18T12:04:24Z</time>
      </trkpt>
      <trkpt lat="57.314209006726742" lon="-2.942833984270692">
        <ele>369.27999999999997</ele>
        <time>2023-08-18T12:04:25Z</time>
      </trkpt>
      <trkpt lat="57.314326018095016" lon="-2.943169008940458">
        <ele>369.75999999999999</ele>
        <time>2023-08-18T12:04:27Z</time>
      </trkpt>
      <trkpt lat="57.314364993944764" lon="-2.943376963958144">
        <ele>370.73000000000002</ele>
        <time>2023-08-18T12:04:28Z</time>
      </trkpt>
      <trkpt lat="57.314395001158118" lon="-2.943594977259636">
        <ele>371.20999999999998</ele>
        <time>2023-08-18T12:04:29Z</time>
      </trkpt>
      <trkpt lat="57.314401958137751" lon="-2.943825982511044">
        <ele>372.17000000000002</ele>
        <time>2023-08-18T12:04:30Z</time>
      </trkpt>
      <trkpt lat="57.314391983672976" lon="-2.944064028561115">
        <ele>372.64999999999998</ele>
        <time>2023-08-18T12:04:31Z</time>
      </trkpt>
      <trkpt lat="57.314372034743428" lon="-2.9443100374192">
        <ele>373.13</ele>
        <time>2023-08-18T12:04:32Z</time>
      </trkpt>
      <trkpt lat="57.314344961196184" lon="-2.944561997428536">
        <ele>373.61000000000001</ele>
        <time>2023-08-18T12:04:33Z</time>
      </trkpt>
      <trkpt lat="57.313938019797206" lon="-2.946549011394382">
        <ele>379.38</ele>
        <time>2023-08-18T12:04:41Z</time>
      </trkpt>
      <trkpt lat="57.313203010708094" lon="-2.94935803860426">
        <ele>388.02999999999997</ele>
        <time>2023-08-18T12:04:52Z</time>
      </trkpt>
      <trkpt lat="57.312478981912136" lon="-2.952664028853178">
        <ele>394.75999999999999</ele>
        <time>2023-08-18T12:05:03Z</time>
      </trkpt>
      <trkpt lat="57.312070028856397" lon="-2.954733017832041">
        <ele>401.00999999999999</ele>
        <time>2023-08-18T12:05:12Z</time>
      </trkpt>
      <trkpt lat="57.312051001936197" lon="-2.954908031970263">
        <ele>401.97000000000003</ele>
        <time>2023-08-18T12:05:13Z</time>
      </trkpt>
      <trkpt lat="57.312064999714494" lon="-2.955079022794962">
        <ele>402.44999999999999</ele>
        <time>2023-08-18T12:05:14Z</time>
      </trkpt>
      <trkpt lat="57.312090983614326" lon="-2.955300975590944">
        <ele>402.93000000000001</ele>
        <time>2023-08-18T12:05:15Z</time>
      </trkpt>
      <trkpt lat="57.312154015526175" lon="-2.95548202469945">
        <ele>403.41000000000003</ele>
        <time>2023-08-18T12:05:16Z</time>
      </trkpt>
      <trkpt lat="57.312226016074419" lon="-2.955691991373897">
        <ele>403.88999999999999</ele>
        <time>2023-08-18T12:05:17Z</time>
      </trkpt>
      <trkpt lat="57.312734965234995" lon="-2.957502985373139">
        <ele>405.81</ele>
        <time>2023-08-18T12:05:25Z</time>
      </trkpt>
      <trkpt lat="57.31295800767839" lon="-2.959675993770361">
        <ele>406.29000000000002</ele>
        <time>2023-08-18T12:05:33Z</time>
      </trkpt>
      <trkpt lat="57.312969993799925" lon="-2.961283978074789">
        <ele>409.66000000000003</ele>
        <time>2023-08-18T12:05:39Z</time>
      </trkpt>
      <trkpt lat="57.313006035983562" lon="-2.961504003033042">
        <ele>410.62</ele>
        <time>2023-08-18T12:05:40Z</time>
      </trkpt>
      <trkpt lat="57.313053980469704" lon="-2.961710030212998">
        <ele>411.10000000000002</ele>
        <time>2023-08-18T12:05:41Z</time>
      </trkpt>
      <trkpt lat="57.313097985461354" lon="-2.961901975795627">
        <ele>412.06</ele>
        <time>2023-08-18T12:05:42Z</time>
      </trkpt>
      <trkpt lat="57.31315297074616" lon="-2.962048994377255">
        <ele>412.54000000000002</ele>
        <time>2023-08-18T12:05:43Z</time>
      </trkpt>
      <trkpt lat="57.313207034021616" lon="-2.96218897216022">
        <ele>413.5</ele>
        <time>2023-08-18T12:05:44Z</time>
      </trkpt>
      <trkpt lat="57.31328004039824" lon="-2.962261978536844">
        <ele>413.98000000000002</ele>
        <time>2023-08-18T12:05:45Z</time>
      </trkpt>
      <trkpt lat="57.31336796656251" lon="-2.962349988520145">
        <ele>414.94999999999999</ele>
        <time>2023-08-18T12:05:46Z</time>
      </trkpt>
      <trkpt lat="57.313470980152488" lon="-2.962411008775234">
        <ele>415.91000000000003</ele>
        <time>2023-08-18T12:05:47Z</time>
      </trkpt>
      <trkpt lat="57.313587991520762" lon="-2.962459037080407">
        <ele>416.38999999999999</ele>
        <time>2023-08-18T12:05:48Z</time>
      </trkpt>
      <trkpt lat="57.314728014171124" lon="-2.962983995676041">
        <ele>421.68000000000001</ele>
        <time>2023-08-18T12:05:56Z</time>
      </trkpt>
      <trkpt lat="57.315955040976405" lon="-2.963952021673322">
        <ele>426.95999999999998</ele>
        <time>2023-08-18T12:06:05Z</time>
      </trkpt>
      <trkpt lat="57.317373007535934" lon="-2.964817034080625">
        <ele>425.51999999999998</ele>
        <time>2023-08-18T12:06:15Z</time>
      </trkpt>
      <trkpt lat="57.317532012239099" lon="-2.964818961918354">
        <ele>424.56</ele>
        <time>2023-08-18T12:06:16Z</time>
      </trkpt>
      <trkpt lat="57.317689005285501" lon="-2.964809993281961">
        <ele>423.60000000000002</ele>
        <time>2023-08-18T12:06:17Z</time>
      </trkpt>
      <trkpt lat="57.317851027473807" lon="-2.964754002168775">
        <ele>422.63999999999999</ele>
        <time>2023-08-18T12:06:18Z</time>
      </trkpt>
      <trkpt lat="57.318006008863449" lon="-2.964683007448912">
        <ele>421.68000000000001</ele>
        <time>2023-08-18T12:06:19Z</time>
      </trkpt>
      <trkpt lat="57.319223983213305" lon="-2.964132986962795">
        <ele>417.82999999999998</ele>
        <time>2023-08-18T12:06:28Z</time>
      </trkpt>
      <trkpt lat="57.319330014288425" lon="-2.964122006669641">
        <ele>417.35000000000002</ele>
        <time>2023-08-18T12:06:29Z</time>
      </trkpt>
      <trkpt lat="57.319432022050023" lon="-2.964168023318052">
        <ele>417.35000000000002</ele>
        <time>2023-08-18T12:06:30Z</time>
      </trkpt>
      <trkpt lat="57.319539980962873" lon="-2.96422703191638">
        <ele>416.87</ele>
        <time>2023-08-18T12:06:31Z</time>
      </trkpt>
      <trkpt lat="57.319651963189244" lon="-2.964310012757778">
        <ele>416.38999999999999</ele>
        <time>2023-08-18T12:06:32Z</time>
      </trkpt>
      <trkpt lat="57.31977098621428" lon="-2.964412020519376">
        <ele>415.91000000000003</ele>
        <time>2023-08-18T12:06:33Z</time>
      </trkpt>
      <trkpt lat="57.320984015241265" lon="-2.965451963245869">
        <ele>414.47000000000003</ele>
        <time>2023-08-18T12:06:42Z</time>
      </trkpt>
      <trkpt lat="57.321797981858253" lon="-2.966149002313614">
        <ele>419.75</ele>
        <time>2023-08-18T12:06:50Z</time>
      </trkpt>
      <trkpt lat="57.321900995448232" lon="-2.966236006468535">
        <ele>422.63999999999999</ele>
        <time>2023-08-18T12:06:56Z</time>
      </trkpt>
      <trkpt lat="57.321925973519683" lon="-2.966256961226463">
        <ele>424.07999999999998</ele>
        <time>2023-08-18T12:07:00Z</time>
      </trkpt>
      <trkpt lat="57.321941982954741" lon="-2.966382019221783">
        <ele>424.56</ele>
        <time>2023-08-18T12:07:01Z</time>
      </trkpt>
      <trkpt lat="57.321913987398148" lon="-2.966514034196734">
        <ele>425.04000000000002</ele>
        <time>2023-08-18T12:07:02Z</time>
      </trkpt>
      <trkpt lat="57.321879034861922" lon="-2.966683013364673">
        <ele>425.51999999999998</ele>
        <time>2023-08-18T12:07:03Z</time>
      </trkpt>
      <trkpt lat="57.321838969364762" lon="-2.966876970604062">
        <ele>426</ele>
        <time>2023-08-18T12:07:04Z</time>
      </trkpt>
      <trkpt lat="57.321519032120705" lon="-2.968635996803641">
        <ele>426.48000000000002</ele>
        <time>2023-08-18T12:07:11Z</time>
      </trkpt>
      <trkpt lat="57.321514002978802" lon="-2.968902960419655">
        <ele>426</ele>
        <time>2023-08-18T12:07:12Z</time>
      </trkpt>
      <trkpt lat="57.321521965786815" lon="-2.96919004060328">
        <ele>425.51999999999998</ele>
        <time>2023-08-18T12:07:13Z</time>
      </trkpt>
      <trkpt lat="57.321876017376781" lon="-2.972109038382769">
        <ele>422.63999999999999</ele>
        <time>2023-08-18T12:07:22Z</time>
      </trkpt>
      <trkpt lat="57.322524022310972" lon="-2.975820964202285">
        <ele>427.44</ele>
        <time>2023-08-18T12:07:34Z</time>
      </trkpt>
      <trkpt lat="57.323085023090243" lon="-2.978178961202502">
        <ele>427.92000000000002</ele>
        <time>2023-08-18T12:07:42Z</time>
      </trkpt>
      <trkpt lat="57.323111006990075" lon="-2.978492025285959">
        <ele>427.92000000000002</ele>
        <time>2023-08-18T12:07:43Z</time>
      </trkpt>
      <trkpt lat="57.323136990889907" lon="-2.978810034692287">
        <ele>427.44</ele>
        <time>2023-08-18T12:07:44Z</time>
      </trkpt>
      <trkpt lat="57.322943033650517" lon="-2.981708999723196">
        <ele>426.95999999999998</ele>
        <time>2023-08-18T12:07:53Z</time>
      </trkpt>
      <trkpt lat="57.32239100150764" lon="-2.984347958117724">
        <ele>426</ele>
        <time>2023-08-18T12:08:02Z</time>
      </trkpt>
      <trkpt lat="57.322308020666242" lon="-2.984922034665942">
        <ele>425.04000000000002</ele>
        <time>2023-08-18T12:08:04Z</time>
      </trkpt>
      <trkpt lat="57.32224197126925" lon="-2.985458979383111">
        <ele>424.56</ele>
        <time>2023-08-18T12:08:06Z</time>
      </trkpt>
      <trkpt lat="57.322247000411153" lon="-2.985744969919324">
        <ele>424.07999999999998</ele>
        <time>2023-08-18T12:08:07Z</time>
      </trkpt>
      <trkpt lat="57.32239100150764" lon="-2.988067008554936">
        <ele>419.26999999999998</ele>
        <time>2023-08-18T12:08:15Z</time>
      </trkpt>
      <trkpt lat="57.3225830309093" lon="-2.989138970151544">
        <ele>416.87</ele>
        <time>2023-08-18T12:08:19Z</time>
      </trkpt>
      <trkpt lat="57.322645979002118" lon="-2.989405011758208">
        <ele>416.38999999999999</ele>
        <time>2023-08-18T12:08:20Z</time>
      </trkpt>
      <trkpt lat="57.322725020349026" lon="-2.98966602422297">
        <ele>415.43000000000001</ele>
        <time>2023-08-18T12:08:21Z</time>
      </trkpt>
      <trkpt lat="57.323519038036466" lon="-2.992013040930033">
        <ele>409.18000000000001</ele>
        <time>2023-08-18T12:08:31Z</time>
      </trkpt>
      <trkpt lat="57.323692040517926" lon="-2.99241897650063">
        <ele>407.74000000000001</ele>
        <time>2023-08-18T12:08:33Z</time>
      </trkpt>
      <trkpt lat="57.323799999430776" lon="-2.99259097315371">
        <ele>406.76999999999998</ele>
        <time>2023-08-18T12:08:34Z</time>
      </trkpt>
      <trkpt lat="57.325178990140557" lon="-2.994025032967329">
        <ele>397.16000000000003</ele>
        <time>2023-08-18T12:08:44Z</time>
      </trkpt>
      <trkpt lat="57.32643099501729" lon="-2.995191039517522">
        <ele>387.06999999999999</ele>
        <time>2023-08-18T12:08:53Z</time>
      </trkpt>
      <trkpt lat="57.32655898667872" lon="-2.995346020907164">
        <ele>385.63</ele>
        <time>2023-08-18T12:08:54Z</time>
      </trkpt>
      <trkpt lat="57.327104983851314" lon="-2.996416976675391">
        <ele>379.38</ele>
        <time>2023-08-18T12:08:59Z</time>
      </trkpt>
      <trkpt lat="57.327163992449641" lon="-2.996687963604927">
        <ele>377.94</ele>
        <time>2023-08-18T12:09:00Z</time>
      </trkpt>
      <trkpt lat="57.327221995219588" lon="-2.996963979676366">
        <ele>376.49000000000001</ele>
        <time>2023-08-18T12:09:01Z</time>
      </trkpt>
      <trkpt lat="57.327540004625916" lon="-2.999681979417801">
        <ele>366.88</ele>
        <time>2023-08-18T12:09:10Z</time>
      </trkpt>
      <trkpt lat="57.327707977965474" lon="-3.003119984641671">
        <ele>355.82999999999998</ele>
        <time>2023-08-18T12:09:21Z</time>
      </trkpt>
      <trkpt lat="57.327824989333749" lon="-3.005665987730026">
        <ele>347.17000000000002</ele>
        <time>2023-08-18T12:09:29Z</time>
      </trkpt>
      <trkpt lat="57.327926997095346" lon="-3.006547009572387">
        <ele>344.29000000000002</ele>
        <time>2023-08-18T12:09:32Z</time>
      </trkpt>
      <trkpt lat="57.327962033450603" lon="-3.006849009543657">
        <ele>343.32999999999998</ele>
        <time>2023-08-18T12:09:33Z</time>
      </trkpt>
      <trkpt lat="57.328269984573126" lon="-3.009270038455725">
        <ele>337.07999999999998</ele>
        <time>2023-08-18T12:09:41Z</time>
      </trkpt>
      <trkpt lat="57.328805001452565" lon="-3.012003041803837">
        <ele>331.31</ele>
        <time>2023-08-18T12:09:50Z</time>
      </trkpt>
      <trkpt lat="57.329485025256872" lon="-3.014969984069467">
        <ele>323.13999999999999</ele>
        <time>2023-08-18T12:10:00Z</time>
      </trkpt>
      <trkpt lat="57.330250041559339" lon="-3.017751015722752">
        <ele>322.18000000000001</ele>
        <time>2023-08-18T12:10:10Z</time>
      </trkpt>
      <trkpt lat="57.330370992422104" lon="-3.017977997660637">
        <ele>322.18000000000001</ele>
        <time>2023-08-18T12:10:11Z</time>
      </trkpt>
      <trkpt lat="57.330496972426772" lon="-3.018213026225567">
        <ele>322.18000000000001</ele>
        <time>2023-08-18T12:10:12Z</time>
      </trkpt>
      <trkpt lat="57.33188702724874" lon="-3.020502040162683">
        <ele>317.85000000000002</ele>
        <time>2023-08-18T12:10:22Z</time>
      </trkpt>
      <trkpt lat="57.33261801302433" lon="-3.021552041172981">
        <ele>316.41000000000003</ele>
        <time>2023-08-18T12:10:28Z</time>
      </trkpt>
      <trkpt lat="57.332762014120817" lon="-3.021670980378985">
        <ele>315.93000000000001</ele>
        <time>2023-08-18T12:10:29Z</time>
      </trkpt>
      <trkpt lat="57.332901991903782" lon="-3.021788997575641">
        <ele>315.93000000000001</ele>
        <time>2023-08-18T12:10:30Z</time>
      </trkpt>
      <trkpt lat="57.333041969686747" lon="-3.021874995902181">
        <ele>315.44999999999999</ele>
        <time>2023-08-18T12:10:31Z</time>
      </trkpt>
      <trkpt lat="57.333180019631982" lon="-3.021910032257438">
        <ele>315.44999999999999</ele>
        <time>2023-08-18T12:10:32Z</time>
      </trkpt>
      <trkpt lat="57.333313962444663" lon="-3.021907014772296">
        <ele>314.97000000000003</ele>
        <time>2023-08-18T12:10:33Z</time>
      </trkpt>
      <trkpt lat="57.333462992683053" lon="-3.021863009780645">
        <ele>314.97000000000003</ele>
        <time>2023-08-18T12:10:34Z</time>
      </trkpt>
      <trkpt lat="57.333592996001244" lon="-3.021771982312203">
        <ele>314.97000000000003</ele>
        <time>2023-08-18T12:10:35Z</time>
      </trkpt>
      <trkpt lat="57.333742026239634" lon="-3.021667962893844">
        <ele>314.49000000000001</ele>
        <time>2023-08-18T12:10:36Z</time>
      </trkpt>
      <trkpt lat="57.334826979786158" lon="-3.020918034017086">
        <ele>313.05000000000001</ele>
        <time>2023-08-18T12:10:43Z</time>
      </trkpt>
      <trkpt lat="57.334992019459605" lon="-3.020909987390041">
        <ele>312.56999999999999</ele>
        <time>2023-08-18T12:10:44Z</time>
      </trkpt>
      <trkpt lat="57.335160998627543" lon="-3.020901018753648">
        <ele>312.56999999999999</ele>
        <time>2023-08-18T12:10:45Z</time>
      </trkpt>
      <trkpt lat="57.336016036570072" lon="-3.020986011251807">
        <ele>310.63999999999999</ele>
        <time>2023-08-18T12:10:50Z</time>
      </trkpt>
      <trkpt lat="57.336173029616475" lon="-3.020945023745298">
        <ele>310.63999999999999</ele>
        <time>2023-08-18T12:10:51Z</time>
      </trkpt>
      <trkpt lat="57.336773006245494" lon="-3.020598012953997">
        <ele>310.63999999999999</ele>
        <time>2023-08-18T12:10:55Z</time>
      </trkpt>
      <trkpt lat="57.336907032877207" lon="-3.020489970222116">
        <ele>310.63999999999999</ele>
        <time>2023-08-18T12:10:56Z</time>
      </trkpt>
      <trkpt lat="57.33702396042645" lon="-3.020337000489235">
        <ele>310.63999999999999</ele>
        <time>2023-08-18T12:10:57Z</time>
      </trkpt>
      <trkpt lat="57.337134014815092" lon="-3.020194005221129">
        <ele>310.63999999999999</ele>
        <time>2023-08-18T12:10:58Z</time>
      </trkpt>
      <trkpt lat="57.337240967899561" lon="-3.020054027438164">
        <ele>310.63999999999999</ele>
        <time>2023-08-18T12:10:59Z</time>
      </trkpt>
      <trkpt lat="57.337343981489539" lon="-3.019920000806451">
        <ele>310.63999999999999</ele>
        <time>2023-08-18T12:11:00Z</time>
      </trkpt>
      <trkpt lat="57.337449006736279" lon="-3.019857974722982">
        <ele>310.16000000000003</ele>
        <time>2023-08-18T12:11:01Z</time>
      </trkpt>
      <trkpt lat="57.33756098896265" lon="-3.019815981388092">
        <ele>310.16000000000003</ele>
        <time>2023-08-18T12:11:02Z</time>
      </trkpt>
      <trkpt lat="57.337712030857801" lon="-3.019759990274906">
        <ele>310.16000000000003</ele>
        <time>2023-08-18T12:11:03Z</time>
      </trkpt>
      <trkpt lat="57.33781797811389" lon="-3.019805001094937">
        <ele>310.16000000000003</ele>
        <time>2023-08-18T12:11:04Z</time>
      </trkpt>
      <trkpt lat="57.337961979210377" lon="-3.019866021350026">
        <ele>310.16000000000003</ele>
        <time>2023-08-18T12:11:05Z</time>
      </trkpt>
      <trkpt lat="57.338113021105528" lon="-3.019929975271225">
        <ele>309.68000000000001</ele>
        <time>2023-08-18T12:11:06Z</time>
      </trkpt>
      <trkpt lat="57.339055985212326" lon="-3.020795993506908">
        <ele>307.27999999999997</ele>
        <time>2023-08-18T12:11:13Z</time>
      </trkpt>
      <trkpt lat="57.339152963832021" lon="-3.02099104039371">
        <ele>306.80000000000001</ele>
        <time>2023-08-18T12:11:14Z</time>
      </trkpt>
      <trkpt lat="57.339352034032345" lon="-3.02140099927783">
        <ele>306.80000000000001</ele>
        <time>2023-08-18T12:11:16Z</time>
      </trkpt>
      <trkpt lat="57.33942998573184" lon="-3.021649019792676">
        <ele>306.80000000000001</ele>
        <time>2023-08-18T12:11:17Z</time>
      </trkpt>
      <trkpt lat="57.340110009536147" lon="-3.023518016561866">
        <ele>308.72000000000003</ele>
        <time>2023-08-18T12:11:25Z</time>
      </trkpt>
      <trkpt lat="57.341114999726415" lon="-3.026208020746708">
        <ele>307.27999999999997</ele>
        <time>2023-08-18T12:11:37Z</time>
      </trkpt>
      <trkpt lat="57.341183982789516" lon="-3.026430979371071">
        <ele>306.80000000000001</ele>
        <time>2023-08-18T12:11:38Z</time>
      </trkpt>
      <trkpt lat="57.341256989166141" lon="-3.026647986844182">
        <ele>306.31999999999999</ele>
        <time>2023-08-18T12:11:39Z</time>
      </trkpt>
      <trkpt lat="57.341344999149442" lon="-3.026860971003771">
        <ele>306.31999999999999</ele>
        <time>2023-08-18T12:11:40Z</time>
      </trkpt>
      <trkpt lat="57.341456981375813" lon="-3.027039002627134">
        <ele>305.83999999999997</ele>
        <time>2023-08-18T12:11:41Z</time>
      </trkpt>
      <trkpt lat="57.341582961380482" lon="-3.027186021208763">
        <ele>304.88</ele>
        <time>2023-08-18T12:11:42Z</time>
      </trkpt>
      <trkpt lat="57.341703996062279" lon="-3.02733002230525">
        <ele>304.38999999999999</ele>
        <time>2023-08-18T12:11:43Z</time>
      </trkpt>
      <trkpt lat="57.342656012624502" lon="-3.028247002512217">
        <ele>303.43000000000001</ele>
        <time>2023-08-18T12:11:51Z</time>
      </trkpt>
      <trkpt lat="57.343680029734969" lon="-3.029390964657068">
        <ele>301.99000000000001</ele>
        <time>2023-08-18T12:11:59Z</time>
      </trkpt>
      <trkpt lat="57.344528026878834" lon="-3.030137037858367">
        <ele>300.55000000000001</ele>
        <time>2023-08-18T12:12:05Z</time>
      </trkpt>
      <trkpt lat="57.344636991620064" lon="-3.030305011197925">
        <ele>300.55000000000001</ele>
        <time>2023-08-18T12:12:06Z</time>
      </trkpt>
      <trkpt lat="57.344745034351945" lon="-3.030469967052341">
        <ele>300.55000000000001</ele>
        <time>2023-08-18T12:12:07Z</time>
      </trkpt>
      <trkpt lat="57.344834972172976" lon="-3.030663002282381">
        <ele>301.02999999999997</ele>
        <time>2023-08-18T12:12:08Z</time>
      </trkpt>
      <trkpt lat="57.344919964671135" lon="-3.030865006148815">
        <ele>301.99000000000001</ele>
        <time>2023-08-18T12:12:09Z</time>
      </trkpt>
      <trkpt lat="57.345600994303823" lon="-3.032454969361424">
        <ele>301.50999999999999</ele>
        <time>2023-08-18T12:12:18Z</time>
      </trkpt>
      <trkpt lat="57.345634019002318" lon="-3.032590001821518">
        <ele>301.02999999999997</ele>
        <time>2023-08-18T12:12:19Z</time>
      </trkpt>
      <trkpt lat="57.345650028437376" lon="-3.032735008746386">
        <ele>300.55000000000001</ele>
        <time>2023-08-18T12:12:20Z</time>
      </trkpt>
      <trkpt lat="57.34563703648746" lon="-3.032878004014492">
        <ele>300.06999999999999</ele>
        <time>2023-08-18T12:12:21Z</time>
      </trkpt>
      <trkpt lat="57.345621027052402" lon="-3.033039020374417">
        <ele>300.06999999999999</ele>
        <time>2023-08-18T12:12:22Z</time>
      </trkpt>
      <trkpt lat="57.345608035102487" lon="-3.033171035349369">
        <ele>300.55000000000001</ele>
        <time>2023-08-18T12:12:23Z</time>
      </trkpt>
      <trkpt lat="57.345628989860415" lon="-3.033357029780746">
        <ele>300.55000000000001</ele>
        <time>2023-08-18T12:12:24Z</time>
      </trkpt>
      <trkpt lat="57.345648016780615" lon="-3.033531960099936">
        <ele>301.02999999999997</ele>
        <time>2023-08-18T12:12:25Z</time>
      </trkpt>
      <trkpt lat="57.345694033429027" lon="-3.033621981739998">
        <ele>301.02999999999997</ele>
        <time>2023-08-18T12:12:26Z</time>
      </trkpt>
      <trkpt lat="57.345767961815" lon="-3.033732958137989">
        <ele>301.02999999999997</ele>
        <time>2023-08-18T12:12:27Z</time>
      </trkpt>
      <trkpt lat="57.345849014818668" lon="-3.033831026405096">
        <ele>301.02999999999997</ele>
        <time>2023-08-18T12:12:28Z</time>
      </trkpt>
      <trkpt lat="57.34595999121666" lon="-3.03390403278172">
        <ele>300.55000000000001</ele>
        <time>2023-08-18T12:12:29Z</time>
      </trkpt>
      <trkpt lat="57.346991971135139" lon="-3.034685980528593">
        <ele>301.02999999999997</ele>
        <time>2023-08-18T12:12:37Z</time>
      </trkpt>
      <trkpt lat="57.347376029938459" lon="-3.034956967458129">
        <ele>301.02999999999997</ele>
        <time>2023-08-18T12:12:40Z</time>
      </trkpt>
      <trkpt lat="57.347758999094367" lon="-3.035080013796687">
        <ele>300.55000000000001</ele>
        <time>2023-08-18T12:12:43Z</time>
      </trkpt>
      <trkpt lat="57.347879027947783" lon="-3.035080013796687">
        <ele>300.06999999999999</ele>
        <time>2023-08-18T12:12:44Z</time>
      </trkpt>
      <trkpt lat="57.347984975203872" lon="-3.035080013796687">
        <ele>299.58999999999997</ele>
        <time>2023-08-18T12:12:45Z</time>
      </trkpt>
      <trkpt lat="57.348082959651947" lon="-3.035053024068475">
        <ele>299.11000000000001</ele>
        <time>2023-08-18T12:12:46Z</time>
      </trkpt>
      <trkpt lat="57.348185973241925" lon="-3.034954033792019">
        <ele>298.63</ele>
        <time>2023-08-18T12:12:47Z</time>
      </trkpt>
      <trkpt lat="57.348300972953439" lon="-3.034842973574996">
        <ele>298.14999999999998</ele>
        <time>2023-08-18T12:12:48Z</time>
      </trkpt>
      <trkpt lat="57.348424019291997" lon="-3.034725040197372">
        <ele>297.67000000000002</ele>
        <time>2023-08-18T12:12:49Z</time>
      </trkpt>
      <trkpt lat="57.349236980080605" lon="-3.033822979778051">
        <ele>295.74000000000001</ele>
        <time>2023-08-18T12:12:56Z</time>
      </trkpt>
      <trkpt lat="57.350110961124301" lon="-3.032812960445881">
        <ele>294.30000000000001</ele>
        <time>2023-08-18T12:13:03Z</time>
      </trkpt>
      <trkpt lat="57.350348001345992" lon="-3.032539961859584">
        <ele>294.30000000000001</ele>
        <time>2023-08-18T12:13:05Z</time>
      </trkpt>
      <trkpt lat="57.350456966087222" lon="-3.032442983239889">
        <ele>294.30000000000001</ele>
        <time>2023-08-18T12:13:06Z</time>
      </trkpt>
      <trkpt lat="57.350569032132626" lon="-3.032390009611845">
        <ele>294.30000000000001</ele>
        <time>2023-08-18T12:13:07Z</time>
      </trkpt>
      <trkpt lat="57.350681014358997" lon="-3.032338041812182">
        <ele>294.30000000000001</ele>
        <time>2023-08-18T12:13:08Z</time>
      </trkpt>
      <trkpt lat="57.350778998807073" lon="-3.032291019335389">
        <ele>294.30000000000001</ele>
        <time>2023-08-18T12:13:09Z</time>
      </trkpt>
      <trkpt lat="57.350921994075179" lon="-3.03231599740684">
        <ele>294.30000000000001</ele>
        <time>2023-08-18T12:13:10Z</time>
      </trkpt>
      <trkpt lat="57.351056020706892" lon="-3.03233896382153">
        <ele>294.77999999999997</ele>
        <time>2023-08-18T12:13:11Z</time>
      </trkpt>
      <trkpt lat="57.351191975176334" lon="-3.032363019883633">
        <ele>294.77999999999997</ele>
        <time>2023-08-18T12:13:12Z</time>
      </trkpt>
      <trkpt lat="57.351329019293189" lon="-3.032408030703664">
        <ele>295.25999999999999</ele>
        <time>2023-08-18T12:13:13Z</time>
      </trkpt>
      <trkpt lat="57.351463967934251" lon="-3.032482964918017">
        <ele>295.74000000000001</ele>
        <time>2023-08-18T12:13:14Z</time>
      </trkpt>
      <trkpt lat="57.351602017879486" lon="-3.032558988779783">
        <ele>296.22000000000003</ele>
        <time>2023-08-18T12:13:15Z</time>
      </trkpt>
      <trkpt lat="57.352730976417661" lon="-3.033617958426476">
        <ele>299.11000000000001</ele>
        <time>2023-08-18T12:13:23Z</time>
      </trkpt>
      <trkpt lat="57.354048024863005" lon="-3.034365959465504">
        <ele>296.22000000000003</ele>
        <time>2023-08-18T12:13:32Z</time>
      </trkpt>
      <trkpt lat="57.35474799759686" lon="-3.034471990540624">
        <ele>295.74000000000001</ele>
        <time>2023-08-18T12:13:37Z</time>
      </trkpt>
      <trkpt lat="57.354891998693347" lon="-3.034449024125934">
        <ele>295.74000000000001</ele>
        <time>2023-08-18T12:13:38Z</time>
      </trkpt>
      <trkpt lat="57.355023007839918" lon="-3.034365959465504">
        <ele>295.74000000000001</ele>
        <time>2023-08-18T12:13:39Z</time>
      </trkpt>
      <trkpt lat="57.355149993672967" lon="-3.034267975017428">
        <ele>295.74000000000001</ele>
        <time>2023-08-18T12:13:40Z</time>
      </trkpt>
      <trkpt lat="57.355269016698003" lon="-3.034136965870857">
        <ele>295.74000000000001</ele>
        <time>2023-08-18T12:13:41Z</time>
      </trkpt>
      <trkpt lat="57.35539298504591" lon="-3.034001011401415">
        <ele>295.74000000000001</ele>
        <time>2023-08-18T12:13:42Z</time>
      </trkpt>
      <trkpt lat="57.356343995779753" lon="-3.032726040109992">
        <ele>297.67000000000002</ele>
        <time>2023-08-18T12:13:50Z</time>
      </trkpt>
      <trkpt lat="57.356433011591434" lon="-3.032563012093306">
        <ele>297.67000000000002</ele>
        <time>2023-08-18T12:13:51Z</time>
      </trkpt>
      <trkpt lat="57.356526972725987" lon="-3.032393027096987">
        <ele>297.67000000000002</ele>
        <time>2023-08-18T12:13:52Z</time>
      </trkpt>
      <trkpt lat="57.357379999011755" lon="-3.030295036733151">
        <ele>298.63</ele>
        <time>2023-08-18T12:14:03Z</time>
      </trkpt>
      <trkpt lat="57.357630031183362" lon="-3.029882982373238">
        <ele>298.63</ele>
        <time>2023-08-18T12:14:06Z</time>
      </trkpt>
      <trkpt lat="57.35773203894496" lon="-3.02973797544837">
        <ele>298.63</ele>
        <time>2023-08-18T12:14:07Z</time>
      </trkpt>
      <trkpt lat="57.357832035049796" lon="-3.029657006263733">
        <ele>298.63</ele>
        <time>2023-08-18T12:14:08Z</time>
      </trkpt>
      <trkpt lat="57.35794703476131" lon="-3.029564972966909">
        <ele>298.63</ele>
        <time>2023-08-18T12:14:09Z</time>
      </trkpt>
      <trkpt lat="57.358052982017398" lon="-3.02947998046875">
        <ele>298.14999999999998</ele>
        <time>2023-08-18T12:14:10Z</time>
      </trkpt>
      <trkpt lat="57.358188014477491" lon="-3.029447961598635">
        <ele>298.14999999999998</ele>
        <time>2023-08-18T12:14:11Z</time>
      </trkpt>
      <trkpt lat="57.358316006138921" lon="-3.029418038204312">
        <ele>298.14999999999998</ele>
        <time>2023-08-18T12:14:12Z</time>
      </trkpt>
      <trkpt lat="57.358449026942253" lon="-3.029386019334197">
        <ele>298.14999999999998</ele>
        <time>2023-08-18T12:14:13Z</time>
      </trkpt>
      <trkpt lat="57.358584981411695" lon="-3.029354000464082">
        <ele>298.14999999999998</ele>
        <time>2023-08-18T12:14:14Z</time>
      </trkpt>
      <trkpt lat="57.358967028558254" lon="-3.029287029057741">
        <ele>298.14999999999998</ele>
        <time>2023-08-18T12:14:17Z</time>
      </trkpt>
      <trkpt lat="57.359069036319852" lon="-3.02930798381567">
        <ele>297.67000000000002</ele>
        <time>2023-08-18T12:14:18Z</time>
      </trkpt>
      <trkpt lat="57.359161991626024" lon="-3.029374033212662">
        <ele>297.67000000000002</ele>
        <time>2023-08-18T12:14:19Z</time>
      </trkpt>
      <trkpt lat="57.359232986345887" lon="-3.029507976025343">
        <ele>297.67000000000002</ele>
        <time>2023-08-18T12:14:20Z</time>
      </trkpt>
      <trkpt lat="57.359295012429357" lon="-3.029677039012313">
        <ele>297.67000000000002</ele>
        <time>2023-08-18T12:14:21Z</time>
      </trkpt>
      <trkpt lat="57.359359972178936" lon="-3.029852975159884">
        <ele>297.18000000000001</ele>
        <time>2023-08-18T12:14:22Z</time>
      </trkpt>
      <trkpt lat="57.359501039609313" lon="-3.030228987336159">
        <ele>297.18000000000001</ele>
        <time>2023-08-18T12:14:24Z</time>
      </trkpt>
      <trkpt lat="57.359596006572247" lon="-3.030400983989239">
        <ele>296.69999999999999</ele>
        <time>2023-08-18T12:14:25Z</time>
      </trkpt>
      <trkpt lat="57.360563026741147" lon="-3.032155986875296">
        <ele>294.30000000000001</ele>
        <time>2023-08-18T12:14:35Z</time>
      </trkpt>
      <trkpt lat="57.361008021980524" lon="-3.032989986240864">
        <ele>292.86000000000001</ele>
        <time>2023-08-18T12:14:40Z</time>
      </trkpt>
      <trkpt lat="57.361122015863657" lon="-3.033126024529338">
        <ele>292.38</ele>
        <time>2023-08-18T12:14:41Z</time>
      </trkpt>
      <trkpt lat="57.362281987443566" lon="-3.034482970833778">
        <ele>286.61000000000001</ele>
        <time>2023-08-18T12:14:49Z</time>
      </trkpt>
      <trkpt lat="57.363499961793423" lon="-3.035729024559259">
        <ele>278.44</ele>
        <time>2023-08-18T12:14:58Z</time>
      </trkpt>
      <trkpt lat="57.363611022010446" lon="-3.035804964601994">
        <ele>277.95999999999998</ele>
        <time>2023-08-18T12:14:59Z</time>
      </trkpt>
      <trkpt lat="57.363911010324955" lon="-3.035981990396977">
        <ele>277.48000000000002</ele>
        <time>2023-08-18T12:15:02Z</time>
      </trkpt>
      <trkpt lat="57.364019975066185" lon="-3.03596799261868">
        <ele>277.48000000000002</ele>
        <time>2023-08-18T12:15:03Z</time>
      </trkpt>
      <trkpt lat="57.364109996706247" lon="-3.035941002890468">
        <ele>277.48000000000002</ele>
        <time>2023-08-18T12:15:04Z</time>
      </trkpt>
      <trkpt lat="57.364199012517929" lon="-3.035876965150237">
        <ele>277.95999999999998</ele>
        <time>2023-08-18T12:15:05Z</time>
      </trkpt>
      <trkpt lat="57.364288028329611" lon="-3.035774035379291">
        <ele>278.44</ele>
        <time>2023-08-18T12:15:06Z</time>
      </trkpt>
      <trkpt lat="57.364376960322261" lon="-3.035645037889481">
        <ele>279.39999999999998</ele>
        <time>2023-08-18T12:15:07Z</time>
      </trkpt>
      <trkpt lat="57.364474022760987" lon="-3.035503970459104">
        <ele>280.36000000000001</ele>
        <time>2023-08-18T12:15:08Z</time>
      </trkpt>
      <trkpt lat="57.365608010441065" lon="-3.034529993310571">
        <ele>286.13</ele>
        <time>2023-08-18T12:15:17Z</time>
      </trkpt>
      <trkpt lat="57.366648958995938" lon="-3.034233022481203">
        <ele>290.94</ele>
        <time>2023-08-18T12:15:24Z</time>
      </trkpt>
      <trkpt lat="57.366762030869722" lon="-3.034256994724274">
        <ele>291.89999999999998</ele>
        <time>2023-08-18T12:15:25Z</time>
      </trkpt>
      <trkpt lat="57.366868983954191" lon="-3.034340981394053">
        <ele>292.38</ele>
        <time>2023-08-18T12:15:26Z</time>
      </trkpt>
      <trkpt lat="57.366983983665705" lon="-3.034428991377354">
        <ele>293.33999999999997</ele>
        <time>2023-08-18T12:15:27Z</time>
      </trkpt>
      <trkpt lat="57.367105018347502" lon="-3.034518007189035">
        <ele>293.81999999999999</ele>
        <time>2023-08-18T12:15:28Z</time>
      </trkpt>
      <trkpt lat="57.368190977722406" lon="-3.035325016826391">
        <ele>296.69999999999999</ele>
        <time>2023-08-18T12:15:36Z</time>
      </trkpt>
      <trkpt lat="57.368689030408859" lon="-3.035870008170605">
        <ele>297.18000000000001</ele>
        <time>2023-08-18T12:15:40Z</time>
      </trkpt>
      <trkpt lat="57.368811992928386" lon="-3.036019960418344">
        <ele>297.67000000000002</ele>
        <time>2023-08-18T12:15:41Z</time>
      </trkpt>
      <trkpt lat="57.368915006518364" lon="-3.036227999255061">
        <ele>297.18000000000001</ele>
        <time>2023-08-18T12:15:42Z</time>
      </trkpt>
      <trkpt lat="57.369687985628843" lon="-3.037823997437954">
        <ele>296.22000000000003</ele>
        <time>2023-08-18T12:15:49Z</time>
      </trkpt>
      <trkpt lat="57.369774989783764" lon="-3.038092972710729">
        <ele>296.22000000000003</ele>
        <time>2023-08-18T12:15:50Z</time>
      </trkpt>
      <trkpt lat="57.37051703967154" lon="-3.040799992159009">
        <ele>296.69999999999999</ele>
        <time>2023-08-18T12:16:00Z</time>
      </trkpt>
      <trkpt lat="57.37064796499908" lon="-3.041233001276851">
        <ele>296.22000000000003</ele>
        <time>2023-08-18T12:16:02Z</time>
      </trkpt>
      <trkpt lat="57.370714014396071" lon="-3.041412038728595">
        <ele>296.22000000000003</ele>
        <time>2023-08-18T12:16:03Z</time>
      </trkpt>
      <trkpt lat="57.370799006894231" lon="-3.041557967662811">
        <ele>296.22000000000003</ele>
        <time>2023-08-18T12:16:04Z</time>
      </trkpt>
      <trkpt lat="57.37090696580708" lon="-3.041656035929918">
        <ele>295.74000000000001</ele>
        <time>2023-08-18T12:16:05Z</time>
      </trkpt>
      <trkpt lat="57.371015008538961" lon="-3.041754020377994">
        <ele>295.74000000000001</ele>
        <time>2023-08-18T12:16:06Z</time>
      </trkpt>
      <trkpt lat="57.371113998815417" lon="-3.041844964027405">
        <ele>295.25999999999999</ele>
        <time>2023-08-18T12:16:07Z</time>
      </trkpt>
      <trkpt lat="57.371295969933271" lon="-3.04198200814426">
        <ele>294.30000000000001</ele>
        <time>2023-08-18T12:16:09Z</time>
      </trkpt>
      <trkpt lat="57.371378028765321" lon="-3.04200497455895">
        <ele>294.30000000000001</ele>
        <time>2023-08-18T12:16:10Z</time>
      </trkpt>
      <trkpt lat="57.371457992121577" lon="-3.041999023407698">
        <ele>293.81999999999999</ele>
        <time>2023-08-18T12:16:11Z</time>
      </trkpt>
      <trkpt lat="57.371540972962976" lon="-3.041979996487498">
        <ele>293.33999999999997</ele>
        <time>2023-08-18T12:16:12Z</time>
      </trkpt>
      <trkpt lat="57.371632000431418" lon="-3.041959963738918">
        <ele>293.33999999999997</ele>
        <time>2023-08-18T12:16:13Z</time>
      </trkpt>
      <trkpt lat="57.371731996536255" lon="-3.041938003152609">
        <ele>292.86000000000001</ele>
        <time>2023-08-18T12:16:14Z</time>
      </trkpt>
      <trkpt lat="57.371838027611375" lon="-3.041987037286162">
        <ele>292.86000000000001</ele>
        <time>2023-08-18T12:16:15Z</time>
      </trkpt>
      <trkpt lat="57.371940035372972" lon="-3.042106982320547">
        <ele>292.86000000000001</ele>
        <time>2023-08-18T12:16:16Z</time>
      </trkpt>
      <trkpt lat="57.372051011770964" lon="-3.042236985638738">
        <ele>292.86000000000001</ele>
        <time>2023-08-18T12:16:17Z</time>
      </trkpt>
      <trkpt lat="57.372168023139238" lon="-3.042375035583973">
        <ele>292.86000000000001</ele>
        <time>2023-08-18T12:16:18Z</time>
      </trkpt>
      <trkpt lat="57.373367976397276" lon="-3.043613964691758">
        <ele>296.22000000000003</ele>
        <time>2023-08-18T12:16:27Z</time>
      </trkpt>
      <trkpt lat="57.374446978792548" lon="-3.045117007568479">
        <ele>304.88</ele>
        <time>2023-08-18T12:16:35Z</time>
      </trkpt>
      <trkpt lat="57.375648021697998" lon="-3.047021962702274">
        <ele>312.08999999999997</ele>
        <time>2023-08-18T12:16:44Z</time>
      </trkpt>
      <trkpt lat="57.376987030729651" lon="-3.049859991297126">
        <ele>314.49000000000001</ele>
        <time>2023-08-18T12:16:55Z</time>
      </trkpt>
      <trkpt lat="57.378029990941286" lon="-3.052932964637876">
        <ele>319.30000000000001</ele>
        <time>2023-08-18T12:17:06Z</time>
      </trkpt>
      <trkpt lat="57.378134010359645" lon="-3.053128011524677">
        <ele>319.30000000000001</ele>
        <time>2023-08-18T12:17:07Z</time>
      </trkpt>
      <trkpt lat="57.378245992586017" lon="-3.053323980420828">
        <ele>319.77999999999997</ele>
        <time>2023-08-18T12:17:08Z</time>
      </trkpt>
      <trkpt lat="57.378377001732588" lon="-3.05347703397274">
        <ele>320.74000000000001</ele>
        <time>2023-08-18T12:17:09Z</time>
      </trkpt>
      <trkpt lat="57.378803975880146" lon="-3.054016996175051">
        <ele>322.18000000000001</ele>
        <time>2023-08-18T12:17:12Z</time>
      </trkpt>
      <trkpt lat="57.378936996683478" lon="-3.054256970062852">
        <ele>322.66000000000003</ele>
        <time>2023-08-18T12:17:13Z</time>
      </trkpt>
      <trkpt lat="57.379055013880134" lon="-3.054542038589716">
        <ele>323.13999999999999</ele>
        <time>2023-08-18T12:17:14Z</time>
      </trkpt>
      <trkpt lat="57.380372984334826" lon="-3.057691035792232">
        <ele>328.91000000000003</ele>
        <time>2023-08-18T12:17:25Z</time>
      </trkpt>
      <trkpt lat="57.38072301261127" lon="-3.05835597217083">
        <ele>330.35000000000002</ele>
        <time>2023-08-18T12:17:28Z</time>
      </trkpt>
      <trkpt lat="57.380855027586222" lon="-3.058512965217233">
        <ele>330.82999999999998</ele>
        <time>2023-08-18T12:17:29Z</time>
      </trkpt>
      <trkpt lat="57.382275005802512" lon="-3.060104018077254">
        <ele>334.19999999999999</ele>
        <time>2023-08-18T12:17:39Z</time>
      </trkpt>
      <trkpt lat="57.383566992357373" lon="-3.06112602353096">
        <ele>338.51999999999998</ele>
        <time>2023-08-18T12:17:47Z</time>
      </trkpt>
      <trkpt lat="57.38405398093164" lon="-3.061474040150642">
        <ele>340.44</ele>
        <time>2023-08-18T12:17:50Z</time>
      </trkpt>
      <trkpt lat="57.384209968149662" lon="-3.061585016548634">
        <ele>340.92000000000002</ele>
        <time>2023-08-18T12:17:51Z</time>
      </trkpt>
      <trkpt lat="57.384358998388052" lon="-3.061690963804722">
        <ele>341.41000000000003</ele>
        <time>2023-08-18T12:17:52Z</time>
      </trkpt>
      <trkpt lat="57.384507022798061" lon="-3.061795989051461">
        <ele>341.88999999999999</ele>
        <time>2023-08-18T12:17:53Z</time>
      </trkpt>
      <trkpt lat="57.38465303555131" lon="-3.061901014298201">
        <ele>341.88999999999999</ele>
        <time>2023-08-18T12:17:54Z</time>
      </trkpt>
      <trkpt lat="57.384795024991035" lon="-3.062002016231418">
        <ele>342.37</ele>
        <time>2023-08-18T12:17:55Z</time>
      </trkpt>
      <trkpt lat="57.385066011920571" lon="-3.062194967642427">
        <ele>343.32999999999998</ele>
        <time>2023-08-18T12:17:57Z</time>
      </trkpt>
      <trkpt lat="57.385326018556952" lon="-3.062469977885485">
        <ele>343.81</ele>
        <time>2023-08-18T12:17:59Z</time>
      </trkpt>
      <trkpt lat="57.385454010218382" lon="-3.062649015337229">
        <ele>343.81</ele>
        <time>2023-08-18T12:18:00Z</time>
      </trkpt>
      <trkpt lat="57.386698974296451" lon="-3.064397983253002">
        <ele>344.76999999999998</ele>
        <time>2023-08-18T12:18:09Z</time>
      </trkpt>
      <trkpt lat="57.388033038005233" lon="-3.065920975059271">
        <ele>346.20999999999998</ele>
        <time>2023-08-18T12:18:19Z</time>
      </trkpt>
      <trkpt lat="57.38839597441256" lon="-3.06619799695909">
        <ele>346.69</ele>
        <time>2023-08-18T12:18:22Z</time>
      </trkpt>
      <trkpt lat="57.3885009996593" lon="-3.066319031640887">
        <ele>346.69</ele>
        <time>2023-08-18T12:18:23Z</time>
      </trkpt>
      <trkpt lat="57.388590015470982" lon="-3.066477030515671">
        <ele>346.20999999999998</ele>
        <time>2023-08-18T12:18:24Z</time>
      </trkpt>
      <trkpt lat="57.388945994898677" lon="-3.067137021571398">
        <ele>346.69</ele>
        <time>2023-08-18T12:18:28Z</time>
      </trkpt>
      <trkpt lat="57.389031993225217" lon="-3.067251015454531">
        <ele>347.17000000000002</ele>
        <time>2023-08-18T12:18:29Z</time>
      </trkpt>
      <trkpt lat="57.389129977673292" lon="-3.067343970760703">
        <ele>348.13</ele>
        <time>2023-08-18T12:18:30Z</time>
      </trkpt>
      <trkpt lat="57.389236008748412" lon="-3.067428041249514">
        <ele>348.62</ele>
        <time>2023-08-18T12:18:31Z</time>
      </trkpt>
      <trkpt lat="57.389348996803164" lon="-3.067517979070544">
        <ele>348.62</ele>
        <time>2023-08-18T12:18:32Z</time>
      </trkpt>
      <trkpt lat="57.389711011201143" lon="-3.067804975435138">
        <ele>350.54000000000002</ele>
        <time>2023-08-18T12:18:35Z</time>
      </trkpt>
      <trkpt lat="57.389839002862573" lon="-3.067940007895231">
        <ele>351.01999999999998</ele>
        <time>2023-08-18T12:18:36Z</time>
      </trkpt>
      <trkpt lat="57.389959031715989" lon="-3.068112004548311">
        <ele>351.5</ele>
        <time>2023-08-18T12:18:37Z</time>
      </trkpt>
      <trkpt lat="57.390057016164064" lon="-3.068294981494546">
        <ele>351.98000000000002</ele>
        <time>2023-08-18T12:18:38Z</time>
      </trkpt>
      <trkpt lat="57.390147037804127" lon="-3.068476030603051">
        <ele>352.94</ele>
        <time>2023-08-18T12:18:39Z</time>
      </trkpt>
      <trkpt lat="57.390900989994407" lon="-3.070378974080086">
        <ele>358.70999999999998</ele>
        <time>2023-08-18T12:18:47Z</time>
      </trkpt>
      <trkpt lat="57.391977980732918" lon="-3.073154976591468">
        <ele>368.80000000000001</ele>
        <time>2023-08-18T12:18:58Z</time>
      </trkpt>
      <trkpt lat="57.39329201169312" lon="-3.075879011303186">
        <ele>374.56999999999999</ele>
        <time>2023-08-18T12:19:09Z</time>
      </trkpt>
      <trkpt lat="57.393841026350856" lon="-3.077231012284756">
        <ele>374.56999999999999</ele>
        <time>2023-08-18T12:19:15Z</time>
      </trkpt>
      <trkpt lat="57.393901962786913" lon="-3.077508034184575">
        <ele>374.08999999999997</ele>
        <time>2023-08-18T12:19:16Z</time>
      </trkpt>
      <trkpt lat="57.39449699409306" lon="-3.080617971718311">
        <ele>369.75999999999999</ele>
        <time>2023-08-18T12:19:26Z</time>
      </trkpt>
      <trkpt lat="57.394588021561503" lon="-3.080905973911285">
        <ele>368.31999999999999</ele>
        <time>2023-08-18T12:19:27Z</time>
      </trkpt>
      <trkpt lat="57.394702015444636" lon="-3.081119041889906">
        <ele>366.88</ele>
        <time>2023-08-18T12:19:28Z</time>
      </trkpt>
      <trkpt lat="57.394831012934446" lon="-3.081299001350999">
        <ele>364.95999999999998</ele>
        <time>2023-08-18T12:19:29Z</time>
      </trkpt>
      <trkpt lat="57.394975014030933" lon="-3.081443002447486">
        <ele>363.51999999999998</ele>
        <time>2023-08-18T12:19:30Z</time>
      </trkpt>
      <trkpt lat="57.395128989592195" lon="-3.081596978008747">
        <ele>362.06999999999999</ele>
        <time>2023-08-18T12:19:31Z</time>
      </trkpt>
      <trkpt lat="57.395289000123739" lon="-3.081727987155318">
        <ele>360.63</ele>
        <time>2023-08-18T12:19:32Z</time>
      </trkpt>
      <trkpt lat="57.396326009184122" lon="-3.082433994859457">
        <ele>351.01999999999998</ele>
        <time>2023-08-18T12:19:38Z</time>
      </trkpt>
      <trkpt lat="57.397924019023776" lon="-3.083780966699123">
        <ele>331.31</ele>
        <time>2023-08-18T12:19:48Z</time>
      </trkpt>
      <trkpt lat="57.399363024160266" lon="-3.085172027349472">
        <ele>316.88999999999999</ele>
        <time>2023-08-18T12:19:58Z</time>
      </trkpt>
      <trkpt lat="57.400469016283751" lon="-3.08684203773737">
        <ele>305.83999999999997</ele>
        <time>2023-08-18T12:20:06Z</time>
      </trkpt>
      <trkpt lat="57.400713013485074" lon="-3.087290972471237">
        <ele>302.94999999999999</ele>
        <time>2023-08-18T12:20:08Z</time>
      </trkpt>
      <trkpt lat="57.40081200376153" lon="-3.087536981329322">
        <ele>301.99000000000001</ele>
        <time>2023-08-18T12:20:09Z</time>
      </trkpt>
      <trkpt lat="57.400910994037986" lon="-3.087782990187407">
        <ele>301.02999999999997</ele>
        <time>2023-08-18T12:20:10Z</time>
      </trkpt>
      <trkpt lat="57.401015013456345" lon="-3.088039979338646">
        <ele>300.06999999999999</ele>
        <time>2023-08-18T12:20:11Z</time>
      </trkpt>
      <trkpt lat="57.401120038703084" lon="-3.088300991803408">
        <ele>299.11000000000001</ele>
        <time>2023-08-18T12:20:12Z</time>
      </trkpt>
      <trkpt lat="57.401703000068665" lon="-3.09019697830081">
        <ele>290.94</ele>
        <time>2023-08-18T12:20:19Z</time>
      </trkpt>
      <trkpt lat="57.402476985007524" lon="-3.092374010011554">
        <ele>283.73000000000002</ele>
        <time>2023-08-18T12:20:28Z</time>
      </trkpt>
      <trkpt lat="57.403170000761747" lon="-3.093710001558065">
        <ele>281.31999999999999</ele>
        <time>2023-08-18T12:20:35Z</time>
      </trkpt>
      <trkpt lat="57.403606027364731" lon="-3.094982961192727">
        <ele>278.92000000000002</ele>
        <time>2023-08-18T12:20:40Z</time>
      </trkpt>
      <trkpt lat="57.403711974620819" lon="-3.095185970887542">
        <ele>278.44</ele>
        <time>2023-08-18T12:20:41Z</time>
      </trkpt>
      <trkpt lat="57.403826974332333" lon="-3.095390992239118">
        <ele>277.95999999999998</ele>
        <time>2023-08-18T12:20:42Z</time>
      </trkpt>
      <trkpt lat="57.403964018449187" lon="-3.095575980842114">
        <ele>277.48000000000002</ele>
        <time>2023-08-18T12:20:43Z</time>
      </trkpt>
      <trkpt lat="57.404106007888913" lon="-3.095731968060136">
        <ele>277</ele>
        <time>2023-08-18T12:20:44Z</time>
      </trkpt>
      <trkpt lat="57.4042690359056" lon="-3.095864988863468">
        <ele>276.51999999999998</ele>
        <time>2023-08-18T12:20:45Z</time>
      </trkpt>
      <trkpt lat="57.405777024105191" lon="-3.09709302149713">
        <ele>269.31</ele>
        <time>2023-08-18T12:20:54Z</time>
      </trkpt>
      <trkpt lat="57.406242974102497" lon="-3.097484037280083">
        <ele>265.45999999999998</ele>
        <time>2023-08-18T12:20:57Z</time>
      </trkpt>
      <trkpt lat="57.406364008784294" lon="-3.097671959549189">
        <ele>264.5</ele>
        <time>2023-08-18T12:20:58Z</time>
      </trkpt>
      <trkpt lat="57.406480014324188" lon="-3.097853008657694">
        <ele>263.06</ele>
        <time>2023-08-18T12:20:59Z</time>
      </trkpt>
      <trkpt lat="57.40661202929914" lon="-3.09805903583765">
        <ele>262.10000000000002</ele>
        <time>2023-08-18T12:21:00Z</time>
      </trkpt>
      <trkpt lat="57.406690986827016" lon="-3.09823296032846">
        <ele>261.13999999999999</ele>
        <time>2023-08-18T12:21:01Z</time>
      </trkpt>
      <trkpt lat="57.40678402595222" lon="-3.098435970023274">
        <ele>260.17000000000002</ele>
        <time>2023-08-18T12:21:02Z</time>
      </trkpt>
      <trkpt lat="57.407144028693438" lon="-3.099227976053953">
        <ele>257.29000000000002</ele>
        <time>2023-08-18T12:21:06Z</time>
      </trkpt>
      <trkpt lat="57.407252993434668" lon="-3.099368959665299">
        <ele>256.32999999999998</ele>
        <time>2023-08-18T12:21:07Z</time>
      </trkpt>
      <trkpt lat="57.407371010631323" lon="-3.099489994347096">
        <ele>255.84999999999999</ele>
        <time>2023-08-18T12:21:08Z</time>
      </trkpt>
      <trkpt lat="57.407501013949513" lon="-3.099584961310029">
        <ele>254.88999999999999</ele>
        <time>2023-08-18T12:21:09Z</time>
      </trkpt>
      <trkpt lat="57.407630011439323" lon="-3.099645981565118">
        <ele>254.41</ele>
        <time>2023-08-18T12:21:10Z</time>
      </trkpt>
      <trkpt lat="57.407772000879049" lon="-3.099636007100344">
        <ele>253.93000000000001</ele>
        <time>2023-08-18T12:21:11Z</time>
      </trkpt>
      <trkpt lat="57.407918013632298" lon="-3.09962603263557">
        <ele>253.44</ele>
        <time>2023-08-18T12:21:12Z</time>
      </trkpt>
      <trkpt lat="57.408064026385546" lon="-3.099537016823888">
        <ele>252.96000000000001</ele>
        <time>2023-08-18T12:21:13Z</time>
      </trkpt>
      <trkpt lat="57.408968014642596" lon="-3.098980961367488">
        <ele>253.93000000000001</ele>
        <time>2023-08-18T12:21:19Z</time>
      </trkpt>
      <trkpt lat="57.40908402018249" lon="-3.098864033818245">
        <ele>254.41</ele>
        <time>2023-08-18T12:21:20Z</time>
      </trkpt>
      <trkpt lat="57.409193990752101" lon="-3.098692959174514">
        <ele>254.88999999999999</ele>
        <time>2023-08-18T12:21:21Z</time>
      </trkpt>
      <trkpt lat="57.409996977075934" lon="-3.097526030614972">
        <ele>257.76999999999998</ele>
        <time>2023-08-18T12:21:28Z</time>
      </trkpt>
      <trkpt lat="57.411169018596411" lon="-3.096454991027713">
        <ele>257.29000000000002</ele>
        <time>2023-08-18T12:21:36Z</time>
      </trkpt>
      <trkpt lat="57.411584006622434" lon="-3.096182998269796">
        <ele>257.76999999999998</ele>
        <time>2023-08-18T12:21:39Z</time>
      </trkpt>
      <trkpt lat="57.411730019375682" lon="-3.096139999106526">
        <ele>257.76999999999998</ele>
        <time>2023-08-18T12:21:40Z</time>
      </trkpt>
      <trkpt lat="57.411883994936943" lon="-3.096093982458115">
        <ele>258.25</ele>
        <time>2023-08-18T12:21:41Z</time>
      </trkpt>
      <trkpt lat="57.413204982876778" lon="-3.095896001905203">
        <ele>257.76999999999998</ele>
        <time>2023-08-18T12:21:49Z</time>
      </trkpt>
      <trkpt lat="57.414729986339808" lon="-3.096350971609354">
        <ele>255.84999999999999</ele>
        <time>2023-08-18T12:21:58Z</time>
      </trkpt>
      <trkpt lat="57.416378036141396" lon="-3.097155969589949">
        <ele>256.81</ele>
        <time>2023-08-18T12:22:08Z</time>
      </trkpt>
      <trkpt lat="57.417642027139664" lon="-3.098299009725452">
        <ele>254.41</ele>
        <time>2023-08-18T12:22:16Z</time>
      </trkpt>
      <trkpt lat="57.419443968683481" lon="-3.099701972678304">
        <ele>250.56</ele>
        <time>2023-08-18T12:22:26Z</time>
      </trkpt>
      <trkpt lat="57.420929996296763" lon="-3.100439999252558">
        <ele>250.08000000000001</ele>
        <time>2023-08-18T12:22:35Z</time>
      </trkpt>
      <trkpt lat="57.421507006511092" lon="-3.100591041147709">
        <ele>248.63999999999999</ele>
        <time>2023-08-18T12:22:39Z</time>
      </trkpt>
      <trkpt lat="57.423036033287644" lon="-3.100525997579098">
        <ele>246.22999999999999</ele>
        <time>2023-08-18T12:22:49Z</time>
      </trkpt>
      <trkpt lat="57.424568999558687" lon="-3.100387025624514">
        <ele>241.91</ele>
        <time>2023-08-18T12:22:59Z</time>
      </trkpt>
      <trkpt lat="57.425697958096862" lon="-3.100403035059571">
        <ele>238.06</ele>
        <time>2023-08-18T12:23:07Z</time>
      </trkpt>
      <trkpt lat="57.425825027748942" lon="-3.100467994809151">
        <ele>237.58000000000001</ele>
        <time>2023-08-18T12:23:08Z</time>
      </trkpt>
      <trkpt lat="57.426414024084806" lon="-3.100768988952041">
        <ele>235.66</ele>
        <time>2023-08-18T12:23:12Z</time>
      </trkpt>
      <trkpt lat="57.426577974110842" lon="-3.10085297562182">
        <ele>234.69999999999999</ele>
        <time>2023-08-18T12:23:13Z</time>
      </trkpt>
      <trkpt lat="57.426756005734205" lon="-3.100869990885258">
        <ele>234.22</ele>
        <time>2023-08-18T12:23:14Z</time>
      </trkpt>
      <trkpt lat="57.426937976852059" lon="-3.100869990885258">
        <ele>233.25999999999999</ele>
        <time>2023-08-18T12:23:15Z</time>
      </trkpt>
      <trkpt lat="57.427124977111816" lon="-3.100869990885258">
        <ele>232.30000000000001</ele>
        <time>2023-08-18T12:23:16Z</time>
      </trkpt>
      <trkpt lat="57.42839902639389" lon="-3.101103007793427">
        <ele>227.00999999999999</ele>
        <time>2023-08-18T12:23:23Z</time>
      </trkpt>
      <trkpt lat="57.428559036925435" lon="-3.101230999454856">
        <ele>226.53</ele>
        <time>2023-08-18T12:23:24Z</time>
      </trkpt>
      <trkpt lat="57.4286990147084" lon="-3.101380029693246">
        <ele>225.56999999999999</ele>
        <time>2023-08-18T12:23:25Z</time>
      </trkpt>
      <trkpt lat="57.428804961964488" lon="-3.101608017459512">
        <ele>225.09</ele>
        <time>2023-08-18T12:23:26Z</time>
      </trkpt>
      <trkpt lat="57.428916022181511" lon="-3.101845979690552">
        <ele>224.61000000000001</ele>
        <time>2023-08-18T12:23:27Z</time>
      </trkpt>
      <trkpt lat="57.429834008216858" lon="-3.103816984221339">
        <ele>216.91</ele>
        <time>2023-08-18T12:23:35Z</time>
      </trkpt>
      <trkpt lat="57.429951019585133" lon="-3.104002978652716">
        <ele>215.94999999999999</ele>
        <time>2023-08-18T12:23:36Z</time>
      </trkpt>
      <trkpt lat="57.430065013468266" lon="-3.104173969477415">
        <ele>214.99000000000001</ele>
        <time>2023-08-18T12:23:37Z</time>
      </trkpt>
      <trkpt lat="57.430216977372766" lon="-3.104320988059044">
        <ele>214.50999999999999</ele>
        <time>2023-08-18T12:23:38Z</time>
      </trkpt>
      <trkpt lat="57.43153402581811" lon="-3.105598976835609">
        <ele>211.63</ele>
        <time>2023-08-18T12:23:47Z</time>
      </trkpt>
      <trkpt lat="57.432446982711554" lon="-3.106329962611198">
        <ele>208.25999999999999</ele>
        <time>2023-08-18T12:23:53Z</time>
      </trkpt>
      <trkpt lat="57.432618979364634" lon="-3.106384025886655">
        <ele>207.78</ele>
        <time>2023-08-18T12:23:54Z</time>
      </trkpt>
      <trkpt lat="57.433887999504805" lon="-3.107052985578775">
        <ele>199.61000000000001</ele>
        <time>2023-08-18T12:24:02Z</time>
      </trkpt>
      <trkpt lat="57.434042980894446" lon="-3.107121968641877">
        <ele>198.65000000000001</ele>
        <time>2023-08-18T12:24:03Z</time>
      </trkpt>
      <trkpt lat="57.434206008911133" lon="-3.107174020260572">
        <ele>197.69</ele>
        <time>2023-08-18T12:24:04Z</time>
      </trkpt>
      <trkpt lat="57.434539021924138" lon="-3.107238980010152">
        <ele>195.77000000000001</ele>
        <time>2023-08-18T12:24:06Z</time>
      </trkpt>
      <trkpt lat="57.436206014826894" lon="-3.107569981366396">
        <ele>186.63</ele>
        <time>2023-08-18T12:24:16Z</time>
      </trkpt>
      <trkpt lat="57.437139004468918" lon="-3.107557995244861">
        <ele>180.87</ele>
        <time>2023-08-18T12:24:22Z</time>
      </trkpt>
      <trkpt lat="57.43742398917675" lon="-3.107526982203126">
        <ele>179.41999999999999</ele>
        <time>2023-08-18T12:24:24Z</time>
      </trkpt>
      <trkpt lat="57.437556004151702" lon="-3.107511978596449">
        <ele>178.94</ele>
        <time>2023-08-18T12:24:25Z</time>
      </trkpt>
      <trkpt lat="57.437675027176738" lon="-3.107508039101958">
        <ele>177.97999999999999</ele>
        <time>2023-08-18T12:24:26Z</time>
      </trkpt>
      <trkpt lat="57.437797989696264" lon="-3.107580039650202">
        <ele>177.02000000000001</ele>
        <time>2023-08-18T12:24:27Z</time>
      </trkpt>
      <trkpt lat="57.437926987186074" lon="-3.107658997178078">
        <ele>176.53999999999999</ele>
        <time>2023-08-18T12:24:28Z</time>
      </trkpt>
      <trkpt lat="57.438051039353013" lon="-3.107799980789423">
        <ele>175.58000000000001</ele>
        <time>2023-08-18T12:24:29Z</time>
      </trkpt>
      <trkpt lat="57.438183976337314" lon="-3.107951022684574">
        <ele>175.09999999999999</ele>
        <time>2023-08-18T12:24:30Z</time>
      </trkpt>
      <trkpt lat="57.438761992380023" lon="-3.108473969623447">
        <ele>171.72999999999999</ele>
        <time>2023-08-18T12:24:34Z</time>
      </trkpt>
      <trkpt lat="57.438911022618413" lon="-3.108558040112257">
        <ele>170.77000000000001</ele>
        <time>2023-08-18T12:24:35Z</time>
      </trkpt>
      <trkpt lat="57.440219018608332" lon="-3.108730036765337">
        <ele>161.63999999999999</ele>
        <time>2023-08-18T12:24:44Z</time>
      </trkpt>
      <trkpt lat="57.440833998844028" lon="-3.108810000121594">
        <ele>156.83000000000001</ele>
        <time>2023-08-18T12:24:51Z</time>
      </trkpt>
      <trkpt lat="57.440880015492439" lon="-3.108816035091877">
        <ele>156.34999999999999</ele>
        <time>2023-08-18T12:24:52Z</time>
      </trkpt>
      <trkpt lat="57.440910022705793" lon="-3.108819974586368">
        <ele>156.34999999999999</ele>
        <time>2023-08-18T12:24:53Z</time>
      </trkpt>
      <trkpt lat="57.440982023254037" lon="-3.108978979289532">
        <ele>155.87</ele>
        <time>2023-08-18T12:24:54Z</time>
      </trkpt>
      <trkpt lat="57.440980011597276" lon="-3.109047962352634">
        <ele>155.87</ele>
        <time>2023-08-18T12:24:55Z</time>
      </trkpt>
      <trkpt lat="57.440975988283753" lon="-3.109165979549289">
        <ele>155.38999999999999</ele>
        <time>2023-08-18T12:24:56Z</time>
      </trkpt>
      <trkpt lat="57.44097095914185" lon="-3.109314003959298">
        <ele>154.91</ele>
        <time>2023-08-18T12:24:57Z</time>
      </trkpt>
      <trkpt lat="57.440966013818979" lon="-3.109474014490843">
        <ele>154.43000000000001</ele>
        <time>2023-08-18T12:24:58Z</time>
      </trkpt>
      <trkpt lat="57.44097095914185" lon="-3.109660008922219">
        <ele>153.94999999999999</ele>
        <time>2023-08-18T12:24:59Z</time>
      </trkpt>
      <trkpt lat="57.441067015752196" lon="-3.111685998737812">
        <ele>158.75</ele>
        <time>2023-08-18T12:25:08Z</time>
      </trkpt>
      <trkpt lat="57.441111020743847" lon="-3.112125964835286">
        <ele>160.19999999999999</ele>
        <time>2023-08-18T12:25:10Z</time>
      </trkpt>
      <trkpt lat="57.441130969673395" lon="-3.112330986186862">
        <ele>160.68000000000001</ele>
        <time>2023-08-18T12:25:11Z</time>
      </trkpt>
      <trkpt lat="57.441172040998936" lon="-3.112484961748123">
        <ele>161.63999999999999</ele>
        <time>2023-08-18T12:25:12Z</time>
      </trkpt>
      <trkpt lat="57.441231971606612" lon="-3.112642960622907">
        <ele>163.08000000000001</ele>
        <time>2023-08-18T12:25:13Z</time>
      </trkpt>
      <trkpt lat="57.441300032660365" lon="-3.112783022224903">
        <ele>164.03999999999999</ele>
        <time>2023-08-18T12:25:14Z</time>
      </trkpt>
      <trkpt lat="57.441396005451679" lon="-3.112917970865965">
        <ele>165</ele>
        <time>2023-08-18T12:25:15Z</time>
      </trkpt>
      <trkpt lat="57.441501030698419" lon="-3.113065995275974">
        <ele>165.47999999999999</ele>
        <time>2023-08-18T12:25:16Z</time>
      </trkpt>
      <trkpt lat="57.442360008135438" lon="-3.114132005721331">
        <ele>167.41</ele>
        <time>2023-08-18T12:25:23Z</time>
      </trkpt>
      <trkpt lat="57.442495040595531" lon="-3.114222027361393">
        <ele>167.41</ele>
        <time>2023-08-18T12:25:24Z</time>
      </trkpt>
      <trkpt lat="57.442886978387833" lon="-3.114486979320645">
        <ele>166.44999999999999</ele>
        <time>2023-08-18T12:25:27Z</time>
      </trkpt>
      <trkpt lat="57.443026034161448" lon="-3.11458102427423">
        <ele>165.96000000000001</ele>
        <time>2023-08-18T12:25:28Z</time>
      </trkpt>
      <trkpt lat="57.443113038316369" lon="-3.114734999835491">
        <ele>165</ele>
        <time>2023-08-18T12:25:29Z</time>
      </trkpt>
      <trkpt lat="57.443853998556733" lon="-3.116038972511888">
        <ele>160.19999999999999</ele>
        <time>2023-08-18T12:25:37Z</time>
      </trkpt>
      <trkpt lat="57.44412599131465" lon="-3.116526966914535">
        <ele>159.24000000000001</ele>
        <time>2023-08-18T12:25:41Z</time>
      </trkpt>
      <trkpt lat="57.444180976599455" lon="-3.116640038788319">
        <ele>159.24000000000001</ele>
        <time>2023-08-18T12:25:42Z</time>
      </trkpt>
      <trkpt lat="57.444354984909296" lon="-3.116999035701156">
        <ele>159.24000000000001</ele>
        <time>2023-08-18T12:25:46Z</time>
      </trkpt>
      <trkpt lat="57.444379040971398" lon="-3.117047986015678">
        <ele>158.75</ele>
        <time>2023-08-18T12:25:47Z</time>
      </trkpt>
      <trkpt lat="57.444397984072566" lon="-3.117086039856076">
        <ele>158.75</ele>
        <time>2023-08-18T12:25:48Z</time>
      </trkpt>
      <trkpt lat="57.444417010992765" lon="-3.117232974618673">
        <ele>158.75</ele>
        <time>2023-08-18T12:25:49Z</time>
      </trkpt>
      <trkpt lat="57.444395972415805" lon="-3.117278991267085">
        <ele>158.75</ele>
        <time>2023-08-18T12:25:50Z</time>
      </trkpt>
      <trkpt lat="57.444364037364721" lon="-3.117350991815329">
        <ele>158.75</ele>
        <time>2023-08-18T12:25:51Z</time>
      </trkpt>
      <trkpt lat="57.444323971867561" lon="-3.11744000762701">
        <ele>158.75</ele>
        <time>2023-08-18T12:25:52Z</time>
      </trkpt>
      <trkpt lat="57.444277033209801" lon="-3.11754603870213">
        <ele>158.27000000000001</ele>
        <time>2023-08-18T12:25:53Z</time>
      </trkpt>
      <trkpt lat="57.444222969934344" lon="-3.117666989564896">
        <ele>158.27000000000001</ele>
        <time>2023-08-18T12:25:54Z</time>
      </trkpt>
      <trkpt lat="57.444110987707973" lon="-3.117916015908122">
        <ele>158.27000000000001</ele>
        <time>2023-08-18T12:25:56Z</time>
      </trkpt>
      <trkpt lat="57.443986013531685" lon="-3.118195971474052">
        <ele>158.75</ele>
        <time>2023-08-18T12:25:58Z</time>
      </trkpt>
      <trkpt lat="57.443923987448215" lon="-3.118333015590906">
        <ele>159.24000000000001</ele>
        <time>2023-08-18T12:25:59Z</time>
      </trkpt>
      <trkpt lat="57.443871013820171" lon="-3.118472993373871">
        <ele>159.24000000000001</ele>
        <time>2023-08-18T12:26:00Z</time>
      </trkpt>
      <trkpt lat="57.443828014656901" lon="-3.118781028315425">
        <ele>159.72</ele>
        <time>2023-08-18T12:26:02Z</time>
      </trkpt>
      <trkpt lat="57.443898003548384" lon="-3.119604969397187">
        <ele>159.72</ele>
        <time>2023-08-18T12:26:07Z</time>
      </trkpt>
      <trkpt lat="57.44391200132668" lon="-3.119774032384157">
        <ele>159.72</ele>
        <time>2023-08-18T12:26:08Z</time>
      </trkpt>
      <trkpt lat="57.443925999104977" lon="-3.119946029037237">
        <ele>160.19999999999999</ele>
        <time>2023-08-18T12:26:09Z</time>
      </trkpt>
      <trkpt lat="57.443941002711654" lon="-3.120116014033556">
        <ele>160.68000000000001</ele>
        <time>2023-08-18T12:26:10Z</time>
      </trkpt>
      <trkpt lat="57.443956006318331" lon="-3.120294967666268">
        <ele>160.68000000000001</ele>
        <time>2023-08-18T12:26:11Z</time>
      </trkpt>
      <trkpt lat="57.443972015753388" lon="-3.120491020381451">
        <ele>161.16</ele>
        <time>2023-08-18T12:26:12Z</time>
      </trkpt>
      <trkpt lat="57.443990958854556" lon="-3.120718002319336">
        <ele>161.63999999999999</ele>
        <time>2023-08-18T12:26:13Z</time>
      </trkpt>
      <trkpt lat="57.444028006866574" lon="-3.120914977043867">
        <ele>162.59999999999999</ele>
        <time>2023-08-18T12:26:14Z</time>
      </trkpt>
      <trkpt lat="57.444065976887941" lon="-3.121124021708965">
        <ele>163.08000000000001</ele>
        <time>2023-08-18T12:26:15Z</time>
      </trkpt>
      <trkpt lat="57.444099001586437" lon="-3.121303981170058">
        <ele>164.03999999999999</ele>
        <time>2023-08-18T12:26:16Z</time>
      </trkpt>
      <trkpt lat="57.444129008799791" lon="-3.121464997529984">
        <ele>164.52000000000001</ele>
        <time>2023-08-18T12:26:17Z</time>
      </trkpt>
      <trkpt lat="57.444134037941694" lon="-3.121639005839825">
        <ele>165</ele>
        <time>2023-08-18T12:26:18Z</time>
      </trkpt>
      <trkpt lat="57.444120040163398" lon="-3.121823994442821">
        <ele>165.96000000000001</ele>
        <time>2023-08-18T12:26:19Z</time>
      </trkpt>
      <trkpt lat="57.44410696439445" lon="-3.122009988874197">
        <ele>166.44999999999999</ele>
        <time>2023-08-18T12:26:20Z</time>
      </trkpt>
      <trkpt lat="57.444092966616154" lon="-3.122192965820432">
        <ele>166.93000000000001</ele>
        <time>2023-08-18T12:26:21Z</time>
      </trkpt>
      <trkpt lat="57.444077041000128" lon="-3.122724965214729">
        <ele>168.84999999999999</ele>
        <time>2023-08-18T12:26:24Z</time>
      </trkpt>
      <trkpt lat="57.444077041000128" lon="-3.122884975746274">
        <ele>169.81</ele>
        <time>2023-08-18T12:26:25Z</time>
      </trkpt>
      <trkpt lat="57.444123979657888" lon="-3.123042974621058">
        <ele>170.77000000000001</ele>
        <time>2023-08-18T12:26:26Z</time>
      </trkpt>
      <trkpt lat="57.444171002134681" lon="-3.12319996766746">
        <ele>171.72999999999999</ele>
        <time>2023-08-18T12:26:27Z</time>
      </trkpt>
      <trkpt lat="57.444218024611473" lon="-3.123360984027386">
        <ele>172.69</ele>
        <time>2023-08-18T12:26:28Z</time>
      </trkpt>
      <trkpt lat="57.444268986582756" lon="-3.123517977073789">
        <ele>173.16999999999999</ele>
        <time>2023-08-18T12:26:29Z</time>
      </trkpt>
      <trkpt lat="57.444480964913964" lon="-3.124127006158233">
        <ele>176.53999999999999</ele>
        <time>2023-08-18T12:26:33Z</time>
      </trkpt>
      <trkpt lat="57.444686992093921" lon="-3.125134008005261">
        <ele>180.87</ele>
        <time>2023-08-18T12:26:40Z</time>
      </trkpt>
      <trkpt lat="57.44470501318574" lon="-3.125245990231633">
        <ele>181.34999999999999</ele>
        <time>2023-08-18T12:26:41Z</time>
      </trkpt>
      <trkpt lat="57.444719010964036" lon="-3.125332994386554">
        <ele>182.31</ele>
        <time>2023-08-18T12:26:42Z</time>
      </trkpt>
      <trkpt lat="57.444735020399094" lon="-3.125438019633293">
        <ele>183.75</ele>
        <time>2023-08-18T12:26:49Z</time>
      </trkpt>
    </trkseg>
  </trk>

  <trk>
    <name>Track vom: 2023-08-18 14:42</name>
    <extensions>
      <gpxx:TrackExtension>
        <gpxx:DisplayColor>DarkGray</gpxx:DisplayColor>
      </gpxx:TrackExtension>
    </extensions>
    <trkseg>
      <trkpt lat="57.445356035605073" lon="-3.128593973815441">
        <ele>199.13</ele>
        <time>2023-08-18T13:42:48Z</time>
      </trkpt>
      <trkpt lat="57.445356035605073" lon="-3.128601014614105">
        <ele>198.16999999999999</ele>
        <time>2023-08-18T13:43:27Z</time>
      </trkpt>
      <trkpt lat="57.445353018119931" lon="-3.128595985472202">
        <ele>198.16999999999999</ele>
        <time>2023-08-18T13:44:12Z</time>
      </trkpt>
      <trkpt lat="57.445350000634789" lon="-3.128594979643822">
        <ele>198.16999999999999</ele>
        <time>2023-08-18T13:44:53Z</time>
      </trkpt>
      <trkpt lat="57.445348994806409" lon="-3.128590034320951">
        <ele>197.69</ele>
        <time>2023-08-18T13:45:33Z</time>
      </trkpt>
      <trkpt lat="57.445344971492887" lon="-3.128596991300583">
        <ele>198.16999999999999</ele>
        <time>2023-08-18T13:46:11Z</time>
      </trkpt>
      <trkpt lat="57.445366010069847" lon="-3.128514010459185">
        <ele>197.69</ele>
        <time>2023-08-18T13:46:28Z</time>
      </trkpt>
      <trkpt lat="57.445389982312918" lon="-3.128520967438817">
        <ele>197.21000000000001</ele>
        <time>2023-08-18T13:46:29Z</time>
      </trkpt>
      <trkpt lat="57.445431975647807" lon="-3.128533037379384">
        <ele>196.72999999999999</ele>
        <time>2023-08-18T13:46:30Z</time>
      </trkpt>
      <trkpt lat="57.446153992787004" lon="-3.12874099239707">
        <ele>190.47999999999999</ele>
        <time>2023-08-18T13:46:40Z</time>
      </trkpt>
      <trkpt lat="57.446889001876116" lon="-3.128939978778362">
        <ele>185.66999999999999</ele>
        <time>2023-08-18T13:46:50Z</time>
      </trkpt>
      <trkpt lat="57.447932967916131" lon="-3.129248013719916">
        <ele>182.78999999999999</ele>
        <time>2023-08-18T13:47:02Z</time>
      </trkpt>
      <trkpt lat="57.448012009263039" lon="-3.129302999004722">
        <ele>181.83000000000001</ele>
        <time>2023-08-18T13:47:03Z</time>
      </trkpt>
      <trkpt lat="57.448366982862353" lon="-3.129634000360966">
        <ele>179.41999999999999</ele>
        <time>2023-08-18T13:47:07Z</time>
      </trkpt>
      <trkpt lat="57.44917600415647" lon="-3.130489038303495">
        <ele>173.66</ele>
        <time>2023-08-18T13:47:16Z</time>
      </trkpt>
      <trkpt lat="57.450237991288304" lon="-3.130978038534522">
        <ele>170.77000000000001</ele>
        <time>2023-08-18T13:47:26Z</time>
      </trkpt>
      <trkpt lat="57.451294027268887" lon="-3.130842000246048">
        <ele>166.44999999999999</ele>
        <time>2023-08-18T13:47:34Z</time>
      </trkpt>
      <trkpt lat="57.452552989125252" lon="-3.130533965304494">
        <ele>159.24000000000001</ele>
        <time>2023-08-18T13:47:44Z</time>
      </trkpt>
      <trkpt lat="57.453649006783962" lon="-3.130417037755251">
        <ele>151.53999999999999</ele>
        <time>2023-08-18T13:47:53Z</time>
      </trkpt>
      <trkpt lat="57.454686015844345" lon="-3.130687018856406">
        <ele>150.58000000000001</ele>
        <time>2023-08-18T13:48:01Z</time>
      </trkpt>
      <trkpt lat="57.456194004043937" lon="-3.131346004083753">
        <ele>151.53999999999999</ele>
        <time>2023-08-18T13:48:13Z</time>
      </trkpt>
      <trkpt lat="57.457566959783435" lon="-3.131571980193257">
        <ele>149.62</ele>
        <time>2023-08-18T13:48:22Z</time>
      </trkpt>
      <trkpt lat="57.459091041237116" lon="-3.132055029273033">
        <ele>147.69999999999999</ele>
        <time>2023-08-18T13:48:31Z</time>
      </trkpt>
      <trkpt lat="57.460353020578623" lon="-3.13321097753942">
        <ele>145.78</ele>
        <time>2023-08-18T13:48:39Z</time>
      </trkpt>
      <trkpt lat="57.462513037025928" lon="-3.135338975116611">
        <ele>145.78</ele>
        <time>2023-08-18T13:48:53Z</time>
      </trkpt>
      <trkpt lat="57.463522972539067" lon="-3.135652961209416">
        <ele>146.25999999999999</ele>
        <time>2023-08-18T13:48:59Z</time>
      </trkpt>
      <trkpt lat="57.463686000555754" lon="-3.135738037526608">
        <ele>146.74000000000001</ele>
        <time>2023-08-18T13:49:00Z</time>
      </trkpt>
      <trkpt lat="57.463847016915679" lon="-3.135863011702895">
        <ele>147.22</ele>
        <time>2023-08-18T13:49:01Z</time>
      </trkpt>
      <trkpt lat="57.465217960998416" lon="-3.136603971943259">
        <ele>148.66</ele>
        <time>2023-08-18T13:49:09Z</time>
      </trkpt>
      <trkpt lat="57.465662034228444" lon="-3.136833971366286">
        <ele>150.09999999999999</ele>
        <time>2023-08-18T13:49:12Z</time>
      </trkpt>
      <trkpt lat="57.465795977041125" lon="-3.136977972462773">
        <ele>150.58000000000001</ele>
        <time>2023-08-18T13:49:13Z</time>
      </trkpt>
      <trkpt lat="57.465932015329599" lon="-3.137127002701163">
        <ele>151.53999999999999</ele>
        <time>2023-08-18T13:49:14Z</time>
      </trkpt>
      <trkpt lat="57.466060006991029" lon="-3.137308973819017">
        <ele>152.03</ele>
        <time>2023-08-18T13:49:15Z</time>
      </trkpt>
      <trkpt lat="57.466187998652458" lon="-3.137491028755903">
        <ele>152.99000000000001</ele>
        <time>2023-08-18T13:49:16Z</time>
      </trkpt>
      <trkpt lat="57.466316996142268" lon="-3.137675011530519">
        <ele>153.47</ele>
        <time>2023-08-18T13:49:17Z</time>
      </trkpt>
      <trkpt lat="57.466472983360291" lon="-3.137752041220665">
        <ele>153.94999999999999</ele>
        <time>2023-08-18T13:49:18Z</time>
      </trkpt>
      <trkpt lat="57.466630982235074" lon="-3.137820018455386">
        <ele>154.43000000000001</ele>
        <time>2023-08-18T13:49:19Z</time>
      </trkpt>
      <trkpt lat="57.468159003183246" lon="-3.138525020331144">
        <ele>163.08000000000001</ele>
        <time>2023-08-18T13:49:28Z</time>
      </trkpt>
      <trkpt lat="57.468649009242654" lon="-3.138830959796906">
        <ele>166.44999999999999</ele>
        <time>2023-08-18T13:49:31Z</time>
      </trkpt>
      <trkpt lat="57.468798039481044" lon="-3.138975966721773">
        <ele>166.93000000000001</ele>
        <time>2023-08-18T13:49:32Z</time>
      </trkpt>
      <trkpt lat="57.468928964808583" lon="-3.139158021658659">
        <ele>167.88999999999999</ele>
        <time>2023-08-18T13:49:33Z</time>
      </trkpt>
      <trkpt lat="57.469058968126774" lon="-3.139339992776513">
        <ele>168.84999999999999</ele>
        <time>2023-08-18T13:49:34Z</time>
      </trkpt>
      <trkpt lat="57.469187965616584" lon="-3.139520036056638">
        <ele>169.81</ele>
        <time>2023-08-18T13:49:35Z</time>
      </trkpt>
      <trkpt lat="57.470787987112999" lon="-3.141813995316625">
        <ele>175.09999999999999</ele>
        <time>2023-08-18T13:49:46Z</time>
      </trkpt>
      <trkpt lat="57.472078967839479" lon="-3.143935035914183">
        <ele>175.58000000000001</ele>
        <time>2023-08-18T13:49:55Z</time>
      </trkpt>
      <trkpt lat="57.473400961607695" lon="-3.146514985710383">
        <ele>176.53999999999999</ele>
        <time>2023-08-18T13:50:05Z</time>
      </trkpt>
      <trkpt lat="57.474858993664384" lon="-3.148261019960046">
        <ele>177.5</ele>
        <time>2023-08-18T13:50:14Z</time>
      </trkpt>
      <trkpt lat="57.475566007196903" lon="-3.149128966033459">
        <ele>177.97999999999999</ele>
        <time>2023-08-18T13:50:19Z</time>
      </trkpt>
      <trkpt lat="57.475658962503076" lon="-3.149338010698557">
        <ele>177.97999999999999</ele>
        <time>2023-08-18T13:50:20Z</time>
      </trkpt>
      <trkpt lat="57.475748984143138" lon="-3.14955803565681">
        <ele>177.97999999999999</ele>
        <time>2023-08-18T13:50:21Z</time>
      </trkpt>
      <trkpt lat="57.475820984691381" lon="-3.149806978181005">
        <ele>177.5</ele>
        <time>2023-08-18T13:50:22Z</time>
      </trkpt>
      <trkpt lat="57.4758580327034" lon="-3.150088023394346">
        <ele>177.5</ele>
        <time>2023-08-18T13:50:23Z</time>
      </trkpt>
      <trkpt lat="57.475899020209908" lon="-3.150393962860107">
        <ele>177.02000000000001</ele>
        <time>2023-08-18T13:50:24Z</time>
      </trkpt>
      <trkpt lat="57.475914023816586" lon="-3.150733010843396">
        <ele>176.06</ele>
        <time>2023-08-18T13:50:25Z</time>
      </trkpt>
      <trkpt lat="57.476083002984524" lon="-3.153718980029225">
        <ele>171.72999999999999</ele>
        <time>2023-08-18T13:50:33Z</time>
      </trkpt>
      <trkpt lat="57.47613999992609" lon="-3.154084011912346">
        <ele>171.72999999999999</ele>
        <time>2023-08-18T13:50:34Z</time>
      </trkpt>
      <trkpt lat="57.476259022951126" lon="-3.154837964102626">
        <ele>170.77000000000001</ele>
        <time>2023-08-18T13:50:36Z</time>
      </trkpt>
      <trkpt lat="57.476319959387183" lon="-3.155225040391088">
        <ele>170.28999999999999</ele>
        <time>2023-08-18T13:50:37Z</time>
      </trkpt>
      <trkpt lat="57.47671902179718" lon="-3.159015001729131">
        <ele>160.68000000000001</ele>
        <time>2023-08-18T13:50:47Z</time>
      </trkpt>
      <trkpt lat="57.477088999003172" lon="-3.162022009491921">
        <ele>153.94999999999999</ele>
        <time>2023-08-18T13:50:55Z</time>
      </trkpt>
      <trkpt lat="57.477272981777787" lon="-3.162663979455829">
        <ele>152.50999999999999</ele>
        <time>2023-08-18T13:50:57Z</time>
      </trkpt>
      <trkpt lat="57.477367026731372" lon="-3.162964973598719">
        <ele>151.53999999999999</ele>
        <time>2023-08-18T13:50:58Z</time>
      </trkpt>
      <trkpt lat="57.477499963715672" lon="-3.163230009377003">
        <ele>150.58000000000001</ele>
        <time>2023-08-18T13:50:59Z</time>
      </trkpt>
      <trkpt lat="57.478027017787099" lon="-3.164358967915177">
        <ele>146.74000000000001</ele>
        <time>2023-08-18T13:51:03Z</time>
      </trkpt>
      <trkpt lat="57.478131037205458" lon="-3.164671026170254">
        <ele>146.25999999999999</ele>
        <time>2023-08-18T13:51:04Z</time>
      </trkpt>
      <trkpt lat="57.478218963369727" lon="-3.164990963414311">
        <ele>145.30000000000001</ele>
        <time>2023-08-18T13:51:05Z</time>
      </trkpt>
      <trkpt lat="57.478686003014445" lon="-3.166933972388506">
        <ele>142.88999999999999</ele>
        <time>2023-08-18T13:51:11Z</time>
      </trkpt>
      <trkpt lat="57.479125969111919" lon="-3.170093027874827">
        <ele>141.93000000000001</ele>
        <time>2023-08-18T13:51:20Z</time>
      </trkpt>
      <trkpt lat="57.479714965447783" lon="-3.173175975680351">
        <ele>140.00999999999999</ele>
        <time>2023-08-18T13:51:29Z</time>
      </trkpt>
      <trkpt lat="57.47996499761939" lon="-3.17403101362288">
        <ele>139.53</ele>
        <time>2023-08-18T13:51:32Z</time>
      </trkpt>
      <trkpt lat="57.480082008987665" lon="-3.174280961975455">
        <ele>139.05000000000001</ele>
        <time>2023-08-18T13:51:33Z</time>
      </trkpt>
      <trkpt lat="57.480207988992333" lon="-3.174529988318682">
        <ele>138.56999999999999</ele>
        <time>2023-08-18T13:51:34Z</time>
      </trkpt>
      <trkpt lat="57.480346038937569" lon="-3.174744984135032">
        <ele>138.56999999999999</ele>
        <time>2023-08-18T13:51:35Z</time>
      </trkpt>
      <trkpt lat="57.480498002842069" lon="-3.174938019365072">
        <ele>138.09</ele>
        <time>2023-08-18T13:51:36Z</time>
      </trkpt>
      <trkpt lat="57.480650972574949" lon="-3.175127031281591">
        <ele>137.61000000000001</ele>
        <time>2023-08-18T13:51:37Z</time>
      </trkpt>
      <trkpt lat="57.482394995167851" lon="-3.177182022482157">
        <ele>133.75999999999999</ele>
        <time>2023-08-18T13:51:48Z</time>
      </trkpt>
      <trkpt lat="57.482514018192887" lon="-3.1774059869349">
        <ele>133.28</ele>
        <time>2023-08-18T13:51:49Z</time>
      </trkpt>
      <trkpt lat="57.482631029561162" lon="-3.177625006064773">
        <ele>132.80000000000001</ele>
        <time>2023-08-18T13:51:50Z</time>
      </trkpt>
      <trkpt lat="57.483943970873952" lon="-3.18075698800385">
        <ele>126.55</ele>
        <time>2023-08-18T13:52:02Z</time>
      </trkpt>
      <trkpt lat="57.484144968912005" lon="-3.181312037631869">
        <ele>126.06999999999999</ele>
        <time>2023-08-18T13:52:04Z</time>
      </trkpt>
      <trkpt lat="57.484213029965758" lon="-3.181622000411153">
        <ele>125.59</ele>
        <time>2023-08-18T13:52:05Z</time>
      </trkpt>
      <trkpt lat="57.484280001372099" lon="-3.181925006210804">
        <ele>125.11</ele>
        <time>2023-08-18T13:52:06Z</time>
      </trkpt>
      <trkpt lat="57.484774030745029" lon="-3.18348697386682">
        <ele>120.78</ele>
        <time>2023-08-18T13:52:12Z</time>
      </trkpt>
      <trkpt lat="57.484882995486259" lon="-3.183703981339932">
        <ele>119.34</ele>
        <time>2023-08-18T13:52:13Z</time>
      </trkpt>
      <trkpt lat="57.485000006854534" lon="-3.183874972164631">
        <ele>118.38</ele>
        <time>2023-08-18T13:52:14Z</time>
      </trkpt>
      <trkpt lat="57.485111989080906" lon="-3.183997012674809">
        <ele>117.90000000000001</ele>
        <time>2023-08-18T13:52:15Z</time>
      </trkpt>
      <trkpt lat="57.485219025984406" lon="-3.1840889621526">
        <ele>116.94</ele>
        <time>2023-08-18T13:52:16Z</time>
      </trkpt>
      <trkpt lat="57.485321033746004" lon="-3.184175966307521">
        <ele>116.45999999999999</ele>
        <time>2023-08-18T13:52:17Z</time>
      </trkpt>
      <trkpt lat="57.485422035679221" lon="-3.184231035411358">
        <ele>115.5</ele>
        <time>2023-08-18T13:52:18Z</time>
      </trkpt>
      <trkpt lat="57.485531000420451" lon="-3.184267999604344">
        <ele>115.01000000000001</ele>
        <time>2023-08-18T13:52:19Z</time>
      </trkpt>
      <trkpt lat="57.485638037323952" lon="-3.184304041787982">
        <ele>114.53</ele>
        <time>2023-08-18T13:52:20Z</time>
      </trkpt>
      <trkpt lat="57.485740967094898" lon="-3.184328014031053">
        <ele>113.56999999999999</ele>
        <time>2023-08-18T13:52:21Z</time>
      </trkpt>
      <trkpt lat="57.487251972779632" lon="-3.184649040922523">
        <ele>106.36</ele>
        <time>2023-08-18T13:52:35Z</time>
      </trkpt>
      <trkpt lat="57.48735599219799" lon="-3.184718023985624">
        <ele>106.36</ele>
        <time>2023-08-18T13:52:36Z</time>
      </trkpt>
      <trkpt lat="57.488044984638691" lon="-3.185264021158218">
        <ele>105.88</ele>
        <time>2023-08-18T13:52:43Z</time>
      </trkpt>
      <trkpt lat="57.488219998776913" lon="-3.18546099588275">
        <ele>105.40000000000001</ele>
        <time>2023-08-18T13:52:45Z</time>
      </trkpt>
      <trkpt lat="57.488878984004259" lon="-3.186716018244624">
        <ele>102.04000000000001</ele>
        <time>2023-08-18T13:52:53Z</time>
      </trkpt>
      <trkpt lat="57.489049974828959" lon="-3.187080966308713">
        <ele>101.08</ele>
        <time>2023-08-18T13:52:55Z</time>
      </trkpt>
      <trkpt lat="57.489100014790893" lon="-3.187324963510037">
        <ele>100.59999999999999</ele>
        <time>2023-08-18T13:52:56Z</time>
      </trkpt>
      <trkpt lat="57.489146031439304" lon="-3.187553035095334">
        <ele>100.11</ele>
        <time>2023-08-18T13:52:57Z</time>
      </trkpt>
      <trkpt lat="57.489190958440304" lon="-3.187778005376458">
        <ele>99.150000000000006</ele>
        <time>2023-08-18T13:52:58Z</time>
      </trkpt>
      <trkpt lat="57.489213002845645" lon="-3.188024014234543">
        <ele>98.670000000000002</ele>
        <time>2023-08-18T13:52:59Z</time>
      </trkpt>
      <trkpt lat="57.48922498896718" lon="-3.188259964808822">
        <ele>98.189999999999998</ele>
        <time>2023-08-18T13:53:00Z</time>
      </trkpt>
      <trkpt lat="57.489262958988547" lon="-3.188955998048186">
        <ele>95.790000000000006</ele>
        <time>2023-08-18T13:53:03Z</time>
      </trkpt>
      <trkpt lat="57.489243010058999" lon="-3.189193960279226">
        <ele>95.310000000000002</ele>
        <time>2023-08-18T13:53:04Z</time>
      </trkpt>
      <trkpt lat="57.489197999238968" lon="-3.189405016601086">
        <ele>94.349999999999994</ele>
        <time>2023-08-18T13:53:05Z</time>
      </trkpt>
      <trkpt lat="57.489142008125782" lon="-3.189593022689223">
        <ele>93.390000000000001</ele>
        <time>2023-08-18T13:53:06Z</time>
      </trkpt>
      <trkpt lat="57.489075036719441" lon="-3.189781028777361">
        <ele>92.420000000000002</ele>
        <time>2023-08-18T13:53:07Z</time>
      </trkpt>
      <trkpt lat="57.48898702673614" lon="-3.189926035702229">
        <ele>91.939999999999998</ele>
        <time>2023-08-18T13:53:08Z</time>
      </trkpt>
      <trkpt lat="57.488897005096078" lon="-3.190073976293206">
        <ele>90.980000000000004</ele>
        <time>2023-08-18T13:53:09Z</time>
      </trkpt>
      <trkpt lat="57.488810000941157" lon="-3.190216971561313">
        <ele>90.5</ele>
        <time>2023-08-18T13:53:10Z</time>
      </trkpt>
      <trkpt lat="57.488528033718467" lon="-3.19068199954927">
        <ele>89.060000000000002</ele>
        <time>2023-08-18T13:53:13Z</time>
      </trkpt>
      <trkpt lat="57.488071974366903" lon="-3.191488003358245">
        <ele>86.180000000000007</ele>
        <time>2023-08-18T13:53:18Z</time>
      </trkpt>
      <trkpt lat="57.48799704015255" lon="-3.191624963656068">
        <ele>85.689999999999998</ele>
        <time>2023-08-18T13:53:19Z</time>
      </trkpt>
      <trkpt lat="57.487551961094141" lon="-3.19231697358191">
        <ele>83.769999999999996</ele>
        <time>2023-08-18T13:53:24Z</time>
      </trkpt>
      <trkpt lat="57.487442996352911" lon="-3.192472038790584">
        <ele>83.769999999999996</ele>
        <time>2023-08-18T13:53:25Z</time>
      </trkpt>
      <trkpt lat="57.487434027716517" lon="-3.192530041560531">
        <ele>83.290000000000006</ele>
        <time>2023-08-18T13:53:26Z</time>
      </trkpt>
      <trkpt lat="57.487411983311176" lon="-3.192674964666367">
        <ele>83.290000000000006</ele>
        <time>2023-08-18T13:53:27Z</time>
      </trkpt>
      <trkpt lat="57.487409971654415" lon="-3.192806979641318">
        <ele>83.290000000000006</ele>
        <time>2023-08-18T13:53:28Z</time>
      </trkpt>
      <trkpt lat="57.487425981089473" lon="-3.192907981574535">
        <ele>83.290000000000006</ele>
        <time>2023-08-18T13:53:29Z</time>
      </trkpt>
      <trkpt lat="57.487438973039389" lon="-3.192984005436301">
        <ele>83.290000000000006</ele>
        <time>2023-08-18T13:53:30Z</time>
      </trkpt>
      <trkpt lat="57.487438973039389" lon="-3.192984005436301">
        <ele>83.290000000000006</ele>
        <time>2023-08-18T13:53:31Z</time>
      </trkpt>
      <trkpt lat="57.487463029101491" lon="-3.193129012361169">
        <ele>83.769999999999996</ele>
        <time>2023-08-18T13:53:39Z</time>
      </trkpt>
      <trkpt lat="57.487476021051407" lon="-3.193205036222935">
        <ele>83.769999999999996</ele>
        <time>2023-08-18T13:53:40Z</time>
      </trkpt>
      <trkpt lat="57.487511979416013" lon="-3.193258009850979">
        <ele>83.769999999999996</ele>
        <time>2023-08-18T13:53:41Z</time>
      </trkpt>
      <trkpt lat="57.487580040469766" lon="-3.193234959617257">
        <ele>83.290000000000006</ele>
        <time>2023-08-18T13:53:42Z</time>
      </trkpt>
      <trkpt lat="57.487658997997642" lon="-3.193208975717425">
        <ele>82.810000000000002</ele>
        <time>2023-08-18T13:53:43Z</time>
      </trkpt>
      <trkpt lat="57.487752959132195" lon="-3.193177040666342">
        <ele>82.329999999999998</ele>
        <time>2023-08-18T13:53:44Z</time>
      </trkpt>
      <trkpt lat="57.488917959854007" lon="-3.192799016833305">
        <ele>78.969999999999999</ele>
        <time>2023-08-18T13:53:53Z</time>
      </trkpt>
      <trkpt lat="57.490415973588824" lon="-3.19222703576088">
        <ele>76.079999999999998</ele>
        <time>2023-08-18T13:54:04Z</time>
      </trkpt>
      <trkpt lat="57.491189036518335" lon="-3.191776005551219">
        <ele>76.560000000000002</ele>
        <time>2023-08-18T13:54:12Z</time>
      </trkpt>
      <trkpt lat="57.492355965077877" lon="-3.191110985353589">
        <ele>79.450000000000003</ele>
        <time>2023-08-18T13:54:24Z</time>
      </trkpt>
      <trkpt lat="57.493439996615052" lon="-3.190588038414717">
        <ele>82.329999999999998</ele>
        <time>2023-08-18T13:54:33Z</time>
      </trkpt>
      <trkpt lat="57.494700970128179" lon="-3.19023298099637">
        <ele>83.290000000000006</ele>
        <time>2023-08-18T13:54:42Z</time>
      </trkpt>
      <trkpt lat="57.495963033288717" lon="-3.190112030133605">
        <ele>83.769999999999996</ele>
        <time>2023-08-18T13:54:51Z</time>
      </trkpt>
      <trkpt lat="57.497406983748078" lon="-3.190507991239429">
        <ele>84.730000000000004</ele>
        <time>2023-08-18T13:55:01Z</time>
      </trkpt>
      <trkpt lat="57.4987200088799" lon="-3.19145598448813">
        <ele>85.689999999999998</ele>
        <time>2023-08-18T13:55:10Z</time>
      </trkpt>
      <trkpt lat="57.499442026019096" lon="-3.192068031057715">
        <ele>85.689999999999998</ele>
        <time>2023-08-18T13:55:15Z</time>
      </trkpt>
      <trkpt lat="57.500925036147237" lon="-3.192668007686734">
        <ele>84.730000000000004</ele>
        <time>2023-08-18T13:55:24Z</time>
      </trkpt>
      <trkpt lat="57.502799984067678" lon="-3.193493038415909">
        <ele>84.730000000000004</ele>
        <time>2023-08-18T13:55:34Z</time>
      </trkpt>
      <trkpt lat="57.504118960350752" lon="-3.194669019430876">
        <ele>82.810000000000002</ele>
        <time>2023-08-18T13:55:42Z</time>
      </trkpt>
      <trkpt lat="57.504909038543701" lon="-3.195666968822479">
        <ele>79.930000000000007</ele>
        <time>2023-08-18T13:55:50Z</time>
      </trkpt>
      <trkpt lat="57.505152029916644" lon="-3.195998976007104">
        <ele>77.519999999999996</ele>
        <time>2023-08-18T13:55:57Z</time>
      </trkpt>
      <trkpt lat="57.505329977720976" lon="-3.196288989856839">
        <ele>75.599999999999994</ele>
        <time>2023-08-18T13:56:07Z</time>
      </trkpt>
      <trkpt lat="57.505616974085569" lon="-3.196758041158319">
        <ele>74.159999999999997</ele>
        <time>2023-08-18T13:56:16Z</time>
      </trkpt>
      <trkpt lat="57.5056810118258" lon="-3.196860970929265">
        <ele>73.680000000000007</ele>
        <time>2023-08-18T13:56:18Z</time>
      </trkpt>
      <trkpt lat="57.50574697740376" lon="-3.196969013661146">
        <ele>73.680000000000007</ele>
        <time>2023-08-18T13:56:20Z</time>
      </trkpt>
      <trkpt lat="57.505791988223791" lon="-3.19704202003777">
        <ele>73.680000000000007</ele>
        <time>2023-08-18T13:56:21Z</time>
      </trkpt>
      <trkpt lat="57.505848985165358" lon="-3.197135981172323">
        <ele>73.680000000000007</ele>
        <time>2023-08-18T13:56:22Z</time>
      </trkpt>
      <trkpt lat="57.505922997370362" lon="-3.19725601002574">
        <ele>73.200000000000003</ele>
        <time>2023-08-18T13:56:23Z</time>
      </trkpt>
      <trkpt lat="57.506008995696902" lon="-3.197395987808704">
        <ele>73.200000000000003</ele>
        <time>2023-08-18T13:56:24Z</time>
      </trkpt>
      <trkpt lat="57.506105974316597" lon="-3.197552980855107">
        <ele>73.200000000000003</ele>
        <time>2023-08-18T13:56:25Z</time>
      </trkpt>
      <trkpt lat="57.506212005391717" lon="-3.197726989164949">
        <ele>72.719999999999999</ele>
        <time>2023-08-18T13:56:26Z</time>
      </trkpt>
      <trkpt lat="57.506316024810076" lon="-3.197896974161267">
        <ele>72.719999999999999</ele>
        <time>2023-08-18T13:56:27Z</time>
      </trkpt>
      <trkpt lat="57.506551975384355" lon="-3.198280027136207">
        <ele>71.760000000000005</ele>
        <time>2023-08-18T13:56:30Z</time>
      </trkpt>
      <trkpt lat="57.506623975932598" lon="-3.198398966342211">
        <ele>71.760000000000005</ele>
        <time>2023-08-18T13:56:31Z</time>
      </trkpt>
      <trkpt lat="57.506694970652461" lon="-3.198513966053724">
        <ele>71.269999999999996</ele>
        <time>2023-08-18T13:56:32Z</time>
      </trkpt>
      <trkpt lat="57.507346998900175" lon="-3.199473023414612">
        <ele>70.790000000000006</ele>
        <time>2023-08-18T13:56:42Z</time>
      </trkpt>
      <trkpt lat="57.508105980232358" lon="-3.200560994446278">
        <ele>69.829999999999998</ele>
        <time>2023-08-18T13:56:50Z</time>
      </trkpt>
      <trkpt lat="57.509171990677714" lon="-3.20232898928225">
        <ele>70.310000000000002</ele>
        <time>2023-08-18T13:57:01Z</time>
      </trkpt>
      <trkpt lat="57.510276976972818" lon="-3.203679984435439">
        <ele>69.829999999999998</ele>
        <time>2023-08-18T13:57:10Z</time>
      </trkpt>
      <trkpt lat="57.511582961305976" lon="-3.20451800711453">
        <ele>68.390000000000001</ele>
        <time>2023-08-18T13:57:18Z</time>
      </trkpt>
      <trkpt lat="57.513317009434104" lon="-3.205444039776921">
        <ele>66.950000000000003</ele>
        <time>2023-08-18T13:57:29Z</time>
      </trkpt>
      <trkpt lat="57.514746962115169" lon="-3.206809032708406">
        <ele>66.469999999999999</ele>
        <time>2023-08-18T13:57:39Z</time>
      </trkpt>
      <trkpt lat="57.516267020255327" lon="-3.208330012857914">
        <ele>72.719999999999999</ele>
        <time>2023-08-18T13:57:49Z</time>
      </trkpt>
      <trkpt lat="57.51758499071002" lon="-3.208972988650203">
        <ele>75.599999999999994</ele>
        <time>2023-08-18T13:57:57Z</time>
      </trkpt>
      <trkpt lat="57.519209990277886" lon="-3.209247998893261">
        <ele>75.120000000000005</ele>
        <time>2023-08-18T13:58:06Z</time>
      </trkpt>
      <trkpt lat="57.520191008225083" lon="-3.209347994998097">
        <ele>73.680000000000007</ele>
        <time>2023-08-18T13:58:12Z</time>
      </trkpt>
      <trkpt lat="57.520358981564641" lon="-3.209341960027814">
        <ele>73.200000000000003</ele>
        <time>2023-08-18T13:58:13Z</time>
      </trkpt>
      <trkpt lat="57.521532028913498" lon="-3.208810966461897">
        <ele>71.269999999999996</ele>
        <time>2023-08-18T13:58:20Z</time>
      </trkpt>
      <trkpt lat="57.522518998011947" lon="-3.208579961210489">
        <ele>68.390000000000001</ele>
        <time>2023-08-18T13:58:29Z</time>
      </trkpt>
      <trkpt lat="57.523559024557471" lon="-3.208585996180773">
        <ele>65.510000000000005</ele>
        <time>2023-08-18T13:58:40Z</time>
      </trkpt>
      <trkpt lat="57.524783033877611" lon="-3.208305034786463">
        <ele>66.469999999999999</ele>
        <time>2023-08-18T13:58:54Z</time>
      </trkpt>
      <trkpt lat="57.525588031858206" lon="-3.208117028698325">
        <ele>68.390000000000001</ele>
        <time>2023-08-18T13:59:06Z</time>
      </trkpt>
      <trkpt lat="57.525920961052179" lon="-3.208049973472953">
        <ele>68.870000000000005</ele>
        <time>2023-08-18T13:59:13Z</time>
      </trkpt>
      <trkpt lat="57.526131011545658" lon="-3.207996999844909">
        <ele>68.870000000000005</ele>
        <time>2023-08-18T13:59:17Z</time>
      </trkpt>
      <trkpt lat="57.526247017085552" lon="-3.207961041480303">
        <ele>68.870000000000005</ele>
        <time>2023-08-18T13:59:20Z</time>
      </trkpt>
      <trkpt lat="57.526304014027119" lon="-3.207943020388484">
        <ele>68.390000000000001</ele>
        <time>2023-08-18T13:59:21Z</time>
      </trkpt>
      <trkpt lat="57.526367967948318" lon="-3.207927010953426">
        <ele>68.390000000000001</ele>
        <time>2023-08-18T13:59:22Z</time>
      </trkpt>
      <trkpt lat="57.526567038148642" lon="-3.207876970991492">
        <ele>67.430000000000007</ele>
        <time>2023-08-18T13:59:26Z</time>
      </trkpt>
      <trkpt lat="57.526606013998389" lon="-3.207865990698338">
        <ele>67.430000000000007</ele>
        <time>2023-08-18T13:59:27Z</time>
      </trkpt>
      <trkpt lat="57.526639038696885" lon="-3.207857022061944">
        <ele>67.430000000000007</ele>
        <time>2023-08-18T13:59:28Z</time>
      </trkpt>
      <trkpt lat="57.526666028425097" lon="-3.207848975434899">
        <ele>67.430000000000007</ele>
        <time>2023-08-18T13:59:29Z</time>
      </trkpt>
      <trkpt lat="57.526685977354646" lon="-3.207843024283648">
        <ele>67.430000000000007</ele>
        <time>2023-08-18T13:59:30Z</time>
      </trkpt>
      <trkpt lat="57.526829978451133" lon="-3.207797007635236">
        <ele>66.469999999999999</ele>
        <time>2023-08-18T13:59:36Z</time>
      </trkpt>
      <trkpt lat="57.526984037831426" lon="-3.207792984321713">
        <ele>65.989999999999995</ele>
        <time>2023-08-18T13:59:44Z</time>
      </trkpt>
      <trkpt lat="57.527040028944612" lon="-3.207792984321713">
        <ele>65.510000000000005</ele>
        <time>2023-08-18T13:59:45Z</time>
      </trkpt>
      <trkpt lat="57.527104988694191" lon="-3.207820979878306">
        <ele>65.989999999999995</ele>
        <time>2023-08-18T13:59:46Z</time>
      </trkpt>
      <trkpt lat="57.527169026434422" lon="-3.207880994305015">
        <ele>65.989999999999995</ele>
        <time>2023-08-18T13:59:47Z</time>
      </trkpt>
      <trkpt lat="57.527238009497523" lon="-3.207946959882975">
        <ele>65.989999999999995</ele>
        <time>2023-08-18T13:59:48Z</time>
      </trkpt>
      <trkpt lat="57.527312021702528" lon="-3.208016026765108">
        <ele>65.510000000000005</ele>
        <time>2023-08-18T13:59:49Z</time>
      </trkpt>
      <trkpt lat="57.527387961745262" lon="-3.208087021484971">
        <ele>65.510000000000005</ele>
        <time>2023-08-18T13:59:50Z</time>
      </trkpt>
      <trkpt lat="57.527472032234073" lon="-3.20814804174006">
        <ele>65.510000000000005</ele>
        <time>2023-08-18T13:59:51Z</time>
      </trkpt>
      <trkpt lat="57.527568005025387" lon="-3.208182994276285">
        <ele>65.030000000000001</ele>
        <time>2023-08-18T13:59:52Z</time>
      </trkpt>
      <trkpt lat="57.527675963938236" lon="-3.208221970126033">
        <ele>65.030000000000001</ele>
        <time>2023-08-18T13:59:53Z</time>
      </trkpt>
      <trkpt lat="57.527761040255427" lon="-3.208220964297652">
        <ele>65.030000000000001</ele>
        <time>2023-08-18T13:59:54Z</time>
      </trkpt>
      <trkpt lat="57.528925035148859" lon="-3.208196992054582">
        <ele>63.579999999999998</ele>
        <time>2023-08-18T14:00:06Z</time>
      </trkpt>
      <trkpt lat="57.529840003699064" lon="-3.208162039518356">
        <ele>65.510000000000005</ele>
        <time>2023-08-18T14:00:15Z</time>
      </trkpt>
      <trkpt lat="57.529950980097055" lon="-3.208158016204834">
        <ele>65.989999999999995</ele>
        <time>2023-08-18T14:00:16Z</time>
      </trkpt>
      <trkpt lat="57.530777016654611" lon="-3.208175031468272">
        <ele>68.870000000000005</ele>
        <time>2023-08-18T14:00:24Z</time>
      </trkpt>
      <trkpt lat="57.530873995274305" lon="-3.208176959306002">
        <ele>68.870000000000005</ele>
        <time>2023-08-18T14:00:25Z</time>
      </trkpt>
      <trkpt lat="57.530982038006186" lon="-3.208179976791143">
        <ele>68.870000000000005</ele>
        <time>2023-08-18T14:00:26Z</time>
      </trkpt>
      <trkpt lat="57.531068958342075" lon="-3.208251977339387">
        <ele>69.349999999999994</ele>
        <time>2023-08-18T14:00:28Z</time>
      </trkpt>
      <trkpt lat="57.531213965266943" lon="-3.208526987582445">
        <ele>69.829999999999998</ele>
        <time>2023-08-18T14:00:29Z</time>
      </trkpt>
      <trkpt lat="57.531333994120359" lon="-3.20857903920114">
        <ele>69.349999999999994</ele>
        <time>2023-08-18T14:00:30Z</time>
      </trkpt>
      <trkpt lat="57.531434996053576" lon="-3.208713987842202">
        <ele>69.349999999999994</ele>
        <time>2023-08-18T14:00:31Z</time>
      </trkpt>
      <trkpt lat="57.531542032957077" lon="-3.208855977281928">
        <ele>68.870000000000005</ele>
        <time>2023-08-18T14:00:32Z</time>
      </trkpt>
      <trkpt lat="57.531657032668591" lon="-3.208953039720655">
        <ele>68.870000000000005</ele>
        <time>2023-08-18T14:00:33Z</time>
      </trkpt>
      <trkpt lat="57.531781001016498" lon="-3.209025040268898">
        <ele>68.870000000000005</ele>
        <time>2023-08-18T14:00:34Z</time>
      </trkpt>
      <trkpt lat="57.531903041526675" lon="-3.20905102416873">
        <ele>69.349999999999994</ele>
        <time>2023-08-18T14:00:35Z</time>
      </trkpt>
      <trkpt lat="57.532024998217821" lon="-3.209035014733672">
        <ele>69.829999999999998</ele>
        <time>2023-08-18T14:00:36Z</time>
      </trkpt>
      <trkpt lat="57.532147038727999" lon="-3.209020011126995">
        <ele>70.310000000000002</ele>
        <time>2023-08-18T14:00:37Z</time>
      </trkpt>
      <trkpt lat="57.532271007075906" lon="-3.209004001691937">
        <ele>70.790000000000006</ele>
        <time>2023-08-18T14:00:38Z</time>
      </trkpt>
      <trkpt lat="57.532504023984075" lon="-3.208972988650203">
        <ele>72.239999999999995</ele>
        <time>2023-08-18T14:00:40Z</time>
      </trkpt>
      <trkpt lat="57.532640984281898" lon="-3.20900802500546">
        <ele>72.719999999999999</ele>
        <time>2023-08-18T14:00:41Z</time>
      </trkpt>
      <trkpt lat="57.532765036448836" lon="-3.209039038047195">
        <ele>73.200000000000003</ele>
        <time>2023-08-18T14:00:42Z</time>
      </trkpt>
      <trkpt lat="57.532887998968363" lon="-3.209085976704955">
        <ele>73.680000000000007</ele>
        <time>2023-08-18T14:00:43Z</time>
      </trkpt>
      <trkpt lat="57.533006016165018" lon="-3.209165018051863">
        <ele>74.159999999999997</ele>
        <time>2023-08-18T14:00:44Z</time>
      </trkpt>
      <trkpt lat="57.533242972567677" lon="-3.209322011098266">
        <ele>75.120000000000005</ele>
        <time>2023-08-18T14:00:46Z</time>
      </trkpt>
      <trkpt lat="57.53335696645081" lon="-3.209447991102934">
        <ele>76.079999999999998</ele>
        <time>2023-08-18T14:00:47Z</time>
      </trkpt>
      <trkpt lat="57.533466015011072" lon="-3.20961101911962">
        <ele>76.560000000000002</ele>
        <time>2023-08-18T14:00:48Z</time>
      </trkpt>
      <trkpt lat="57.533577997237444" lon="-3.209787961095572">
        <ele>77.519999999999996</ele>
        <time>2023-08-18T14:00:49Z</time>
      </trkpt>
      <trkpt lat="57.533684028312564" lon="-3.209982002153993">
        <ele>78</ele>
        <time>2023-08-18T14:00:50Z</time>
      </trkpt>
      <trkpt lat="57.534762024879456" lon="-3.21223103441298">
        <ele>87.140000000000001</ele>
        <time>2023-08-18T14:01:00Z</time>
      </trkpt>
      <trkpt lat="57.534850034862757" lon="-3.212516019120812">
        <ele>88.579999999999998</ele>
        <time>2023-08-18T14:01:01Z</time>
      </trkpt>
      <trkpt lat="57.53492496907711" lon="-3.212824976071715">
        <ele>90.019999999999996</ele>
        <time>2023-08-18T14:01:02Z</time>
      </trkpt>
      <trkpt lat="57.534969979897141" lon="-3.213137034326792">
        <ele>90.980000000000004</ele>
        <time>2023-08-18T14:01:03Z</time>
      </trkpt>
      <trkpt lat="57.535015996545553" lon="-3.213450014591217">
        <ele>92.420000000000002</ele>
        <time>2023-08-18T14:01:04Z</time>
      </trkpt>
      <trkpt lat="57.535042986273766" lon="-3.213785961270332">
        <ele>93.390000000000001</ele>
        <time>2023-08-18T14:01:05Z</time>
      </trkpt>
      <trkpt lat="57.535108029842377" lon="-3.216921966522932">
        <ele>101.56</ele>
        <time>2023-08-18T14:01:14Z</time>
      </trkpt>
      <trkpt lat="57.535237027332187" lon="-3.221143009141088">
        <ele>105.40000000000001</ele>
        <time>2023-08-18T14:01:25Z</time>
      </trkpt>
      <trkpt lat="57.535501979291439" lon="-3.2225670106709">
        <ele>107.81</ele>
        <time>2023-08-18T14:01:29Z</time>
      </trkpt>
      <trkpt lat="57.535605998709798" lon="-3.222902035340667">
        <ele>108.29000000000001</ele>
        <time>2023-08-18T14:01:30Z</time>
      </trkpt>
      <trkpt lat="57.535719992592931" lon="-3.223223984241486">
        <ele>109.25</ele>
        <time>2023-08-18T14:01:31Z</time>
      </trkpt>
      <trkpt lat="57.535844966769218" lon="-3.223537970334292">
        <ele>109.73</ele>
        <time>2023-08-18T14:01:32Z</time>
      </trkpt>
      <trkpt lat="57.535978993400931" lon="-3.223826978355646">
        <ele>110.69</ele>
        <time>2023-08-18T14:01:33Z</time>
      </trkpt>
      <trkpt lat="57.536131963133812" lon="-3.224104000255466">
        <ele>111.65000000000001</ele>
        <time>2023-08-18T14:01:34Z</time>
      </trkpt>
      <trkpt lat="57.536289039999247" lon="-3.224385967478156">
        <ele>112.13</ele>
        <time>2023-08-18T14:01:35Z</time>
      </trkpt>
      <trkpt lat="57.536451984196901" lon="-3.224680004641414">
        <ele>113.56999999999999</ele>
        <time>2023-08-18T14:01:36Z</time>
      </trkpt>
      <trkpt lat="57.53801504150033" lon="-3.226627958938479">
        <ele>123.19</ele>
        <time>2023-08-18T14:01:45Z</time>
      </trkpt>
      <trkpt lat="57.53982201218605" lon="-3.227941989898682">
        <ele>126.06999999999999</ele>
        <time>2023-08-18T14:01:54Z</time>
      </trkpt>
      <trkpt lat="57.54231596365571" lon="-3.229831019416452">
        <ele>127.98999999999999</ele>
        <time>2023-08-18T14:02:06Z</time>
      </trkpt>
      <trkpt lat="57.544357962906361" lon="-3.231865977868438">
        <ele>130.88</ele>
        <time>2023-08-18T14:02:16Z</time>
      </trkpt>
      <trkpt lat="57.545967036858201" lon="-3.233576975762844">
        <ele>133.75999999999999</ele>
        <time>2023-08-18T14:02:25Z</time>
      </trkpt>
      <trkpt lat="57.547845002263784" lon="-3.236234039068222">
        <ele>136.16</ele>
        <time>2023-08-18T14:02:36Z</time>
      </trkpt>
      <trkpt lat="57.54974601790309" lon="-3.23868197388947">
        <ele>136.63999999999999</ele>
        <time>2023-08-18T14:02:47Z</time>
      </trkpt>
      <trkpt lat="57.551504960283637" lon="-3.241442972794175">
        <ele>137.13</ele>
        <time>2023-08-18T14:02:58Z</time>
      </trkpt>
      <trkpt lat="57.553480993956327" lon="-3.244529021903873">
        <ele>140.00999999999999</ele>
        <time>2023-08-18T14:03:11Z</time>
      </trkpt>
      <trkpt lat="57.553814006969333" lon="-3.244873015210033">
        <ele>140.49000000000001</ele>
        <time>2023-08-18T14:03:13Z</time>
      </trkpt>
      <trkpt lat="57.554000001400709" lon="-3.244982985779643">
        <ele>140.97</ele>
        <time>2023-08-18T14:03:14Z</time>
      </trkpt>
      <trkpt lat="57.554190019145608" lon="-3.245072001591325">
        <ele>140.97</ele>
        <time>2023-08-18T14:03:15Z</time>
      </trkpt>
      <trkpt lat="57.554379031062126" lon="-3.245161017403007">
        <ele>141.44999999999999</ele>
        <time>2023-08-18T14:03:16Z</time>
      </trkpt>
      <trkpt lat="57.554573994129896" lon="-3.245238969102502">
        <ele>141.44999999999999</ele>
        <time>2023-08-18T14:03:17Z</time>
      </trkpt>
      <trkpt lat="57.554966015741229" lon="-3.245270987972617">
        <ele>140.97</ele>
        <time>2023-08-18T14:03:19Z</time>
      </trkpt>
      <trkpt lat="57.555158967152238" lon="-3.24525598436594">
        <ele>140.97</ele>
        <time>2023-08-18T14:03:20Z</time>
      </trkpt>
      <trkpt lat="57.55535501986742" lon="-3.245199993252754">
        <ele>140.97</ele>
        <time>2023-08-18T14:03:21Z</time>
      </trkpt>
      <trkpt lat="57.555554006248713" lon="-3.245141990482807">
        <ele>140.49000000000001</ele>
        <time>2023-08-18T14:03:22Z</time>
      </trkpt>
      <trkpt lat="57.555753998458385" lon="-3.24508398771286">
        <ele>140.49000000000001</ele>
        <time>2023-08-18T14:03:23Z</time>
      </trkpt>
      <trkpt lat="57.557148998603225" lon="-3.244923977181315">
        <ele>139.53</ele>
        <time>2023-08-18T14:03:30Z</time>
      </trkpt>
      <trkpt lat="57.558375019580126" lon="-3.245356986299157">
        <ele>138.56999999999999</ele>
        <time>2023-08-18T14:03:36Z</time>
      </trkpt>
      <trkpt lat="57.560058021917939" lon="-3.246510000899434">
        <ele>139.05000000000001</ele>
        <time>2023-08-18T14:03:45Z</time>
      </trkpt>
      <trkpt lat="57.561680004000664" lon="-3.247923022136092">
        <ele>140.00999999999999</ele>
        <time>2023-08-18T14:03:55Z</time>
      </trkpt>
      <trkpt lat="57.562911976128817" lon="-3.249575011432171">
        <ele>141.44999999999999</ele>
        <time>2023-08-18T14:04:02Z</time>
      </trkpt>
      <trkpt lat="57.564116036519408" lon="-3.251294977962971">
        <ele>145.30000000000001</ele>
        <time>2023-08-18T14:04:10Z</time>
      </trkpt>
      <trkpt lat="57.565350020304322" lon="-3.252819981426001">
        <ele>148.66</ele>
        <time>2023-08-18T14:04:18Z</time>
      </trkpt>
      <trkpt lat="57.566740997135639" lon="-3.254648996517062">
        <ele>150.58000000000001</ele>
        <time>2023-08-18T14:04:27Z</time>
      </trkpt>
      <trkpt lat="57.56807497702539" lon="-3.256477005779743">
        <ele>149.13999999999999</ele>
        <time>2023-08-18T14:04:35Z</time>
      </trkpt>
      <trkpt lat="57.570140026509762" lon="-3.259022003039718">
        <ele>147.22</ele>
        <time>2023-08-18T14:04:46Z</time>
      </trkpt>
      <trkpt lat="57.571665029972792" lon="-3.261118987575173">
        <ele>146.25999999999999</ele>
        <time>2023-08-18T14:04:54Z</time>
      </trkpt>
      <trkpt lat="57.57303899154067" lon="-3.263057973235846">
        <ele>146.74000000000001</ele>
        <time>2023-08-18T14:05:01Z</time>
      </trkpt>
      <trkpt lat="57.575524980202317" lon="-3.26656898483634">
        <ele>145.78</ele>
        <time>2023-08-18T14:05:15Z</time>
      </trkpt>
      <trkpt lat="57.577203037217259" lon="-3.269365020096302">
        <ele>147.22</ele>
        <time>2023-08-18T14:05:25Z</time>
      </trkpt>
      <trkpt lat="57.578351022675633" lon="-3.271756963804364">
        <ele>148.18000000000001</ele>
        <time>2023-08-18T14:05:33Z</time>
      </trkpt>
      <trkpt lat="57.579787010326982" lon="-3.27490696683526">
        <ele>144.34</ele>
        <time>2023-08-18T14:05:44Z</time>
      </trkpt>
      <trkpt lat="57.580931978300214" lon="-3.276762971654534">
        <ele>141.44999999999999</ele>
        <time>2023-08-18T14:05:52Z</time>
      </trkpt>
      <trkpt lat="57.581333974376321" lon="-3.277485994622111">
        <ele>140.97</ele>
        <time>2023-08-18T14:05:55Z</time>
      </trkpt>
      <trkpt lat="57.58210301399231" lon="-3.279507039114833">
        <ele>139.05000000000001</ele>
        <time>2023-08-18T14:06:02Z</time>
      </trkpt>
      <trkpt lat="57.582633001729846" lon="-3.280466012656689">
        <ele>137.61000000000001</ele>
        <time>2023-08-18T14:06:07Z</time>
      </trkpt>
      <trkpt lat="57.582926033064723" lon="-3.2808349840343">
        <ele>137.13</ele>
        <time>2023-08-18T14:06:08Z</time>
      </trkpt>
      <trkpt lat="57.583085037767887" lon="-3.280986025929451">
        <ele>137.13</ele>
        <time>2023-08-18T14:06:09Z</time>
      </trkpt>
      <trkpt lat="57.583260973915458" lon="-3.281111000105739">
        <ele>136.63999999999999</ele>
        <time>2023-08-18T14:06:10Z</time>
      </trkpt>
      <trkpt lat="57.583443028852344" lon="-3.281185012310743">
        <ele>136.16</ele>
        <time>2023-08-18T14:06:11Z</time>
      </trkpt>
      <trkpt lat="57.583628017455339" lon="-3.281247038394213">
        <ele>135.68000000000001</ele>
        <time>2023-08-18T14:06:12Z</time>
      </trkpt>
      <trkpt lat="57.583810994401574" lon="-3.281255001202226">
        <ele>134.72</ele>
        <time>2023-08-18T14:06:13Z</time>
      </trkpt>
      <trkpt lat="57.584006041288376" lon="-3.281241003423929">
        <ele>134.24000000000001</ele>
        <time>2023-08-18T14:06:14Z</time>
      </trkpt>
      <trkpt lat="57.584404014050961" lon="-3.28115701675415">
        <ele>133.28</ele>
        <time>2023-08-18T14:06:16Z</time>
      </trkpt>
      <trkpt lat="57.584600988775492" lon="-3.281051991507411">
        <ele>132.31999999999999</ele>
        <time>2023-08-18T14:06:17Z</time>
      </trkpt>
      <trkpt lat="57.584799975156784" lon="-3.280945960432291">
        <ele>131.84</ele>
        <time>2023-08-18T14:06:18Z</time>
      </trkpt>
      <trkpt lat="57.586387004703283" lon="-3.279758999124169">
        <ele>126.06999999999999</ele>
        <time>2023-08-18T14:06:27Z</time>
      </trkpt>
      <trkpt lat="57.586556989699602" lon="-3.279676018282771">
        <ele>125.59</ele>
        <time>2023-08-18T14:06:28Z</time>
      </trkpt>
      <trkpt lat="57.586735021322966" lon="-3.279632013291121">
        <ele>125.11</ele>
        <time>2023-08-18T14:06:29Z</time>
      </trkpt>
      <trkpt lat="57.58691699244082" lon="-3.279585996642709">
        <ele>124.63</ele>
        <time>2023-08-18T14:06:30Z</time>
      </trkpt>
      <trkpt lat="57.589188991114497" lon="-3.279450964182615">
        <ele>118.38</ele>
        <time>2023-08-18T14:06:42Z</time>
      </trkpt>
      <trkpt lat="57.590797981247306" lon="-3.280052030459046">
        <ele>114.53</ele>
        <time>2023-08-18T14:06:51Z</time>
      </trkpt>
      <trkpt lat="57.592255007475615" lon="-3.280265014618635">
        <ele>107.81</ele>
        <time>2023-08-18T14:07:00Z</time>
      </trkpt>
      <trkpt lat="57.592431027442217" lon="-3.280197959393263">
        <ele>106.84</ele>
        <time>2023-08-18T14:07:01Z</time>
      </trkpt>
      <trkpt lat="57.59314801543951" lon="-3.279971983283758">
        <ele>104.44</ele>
        <time>2023-08-18T14:07:05Z</time>
      </trkpt>
      <trkpt lat="57.593486979603767" lon="-3.27995496802032">
        <ele>102.52</ele>
        <time>2023-08-18T14:07:07Z</time>
      </trkpt>
      <trkpt lat="57.594585008919239" lon="-3.280560979619622">
        <ele>96.75</ele>
        <time>2023-08-18T14:07:14Z</time>
      </trkpt>
      <trkpt lat="57.595329992473125" lon="-3.280926011502743">
        <ele>92.420000000000002</ele>
        <time>2023-08-18T14:07:19Z</time>
      </trkpt>
      <trkpt lat="57.596601024270058" lon="-3.281488018110395">
        <ele>89.540000000000006</ele>
        <time>2023-08-18T14:07:27Z</time>
      </trkpt>
      <trkpt lat="57.596890032291412" lon="-3.281744001433253">
        <ele>89.060000000000002</ele>
        <time>2023-08-18T14:07:29Z</time>
      </trkpt>
      <trkpt lat="57.597030010074377" lon="-3.281898982822895">
        <ele>88.579999999999998</ele>
        <time>2023-08-18T14:07:30Z</time>
      </trkpt>
      <trkpt lat="57.597164958715439" lon="-3.28205899335444">
        <ele>88.579999999999998</ele>
        <time>2023-08-18T14:07:31Z</time>
      </trkpt>
      <trkpt lat="57.597289010882378" lon="-3.282239036634564">
        <ele>88.579999999999998</ele>
        <time>2023-08-18T14:07:32Z</time>
      </trkpt>
      <trkpt lat="57.597415996715426" lon="-3.28242402523756">
        <ele>88.099999999999994</ele>
        <time>2023-08-18T14:07:33Z</time>
      </trkpt>
      <trkpt lat="57.598805967718363" lon="-3.284374997019768">
        <ele>85.689999999999998</ele>
        <time>2023-08-18T14:07:43Z</time>
      </trkpt>
      <trkpt lat="57.600506991147995" lon="-3.28644298017025">
        <ele>80.409999999999997</ele>
        <time>2023-08-18T14:07:54Z</time>
      </trkpt>
      <trkpt lat="57.602671030908823" lon="-3.288592016324401">
        <ele>74.159999999999997</ele>
        <time>2023-08-18T14:08:06Z</time>
      </trkpt>
      <trkpt lat="57.604396026581526" lon="-3.289381004869938">
        <ele>68.870000000000005</ele>
        <time>2023-08-18T14:08:15Z</time>
      </trkpt>
      <trkpt lat="57.606550008058548" lon="-3.290278958156705">
        <ele>61.18</ele>
        <time>2023-08-18T14:08:26Z</time>
      </trkpt>
      <trkpt lat="57.60801600292325" lon="-3.290914976969361">
        <ele>57.340000000000003</ele>
        <time>2023-08-18T14:08:34Z</time>
      </trkpt>
      <trkpt lat="57.609973009675741" lon="-3.291782001033425">
        <ele>53.009999999999998</ele>
        <time>2023-08-18T14:08:45Z</time>
      </trkpt>
      <trkpt lat="57.610274003818631" lon="-3.291974030435085">
        <ele>52.530000000000001</ele>
        <time>2023-08-18T14:08:47Z</time>
      </trkpt>
      <trkpt lat="57.611187966540456" lon="-3.293169960379601">
        <ele>51.090000000000003</ele>
        <time>2023-08-18T14:08:54Z</time>
      </trkpt>
      <trkpt lat="57.612113999202847" lon="-3.294761013239622">
        <ele>49.649999999999999</ele>
        <time>2023-08-18T14:09:01Z</time>
      </trkpt>
      <trkpt lat="57.612285995855927" lon="-3.294933009892702">
        <ele>49.159999999999997</ele>
        <time>2023-08-18T14:09:02Z</time>
      </trkpt>
      <trkpt lat="57.612480036914349" lon="-3.295076005160809">
        <ele>49.159999999999997</ele>
        <time>2023-08-18T14:09:03Z</time>
      </trkpt>
      <trkpt lat="57.612685980275273" lon="-3.295193016529083">
        <ele>48.68</ele>
        <time>2023-08-18T14:09:04Z</time>
      </trkpt>
      <trkpt lat="57.612904999405146" lon="-3.295257976278663">
        <ele>48.68</ele>
        <time>2023-08-18T14:09:05Z</time>
      </trkpt>
      <trkpt lat="57.61312703602016" lon="-3.295324025675654">
        <ele>48.200000000000003</ele>
        <time>2023-08-18T14:09:06Z</time>
      </trkpt>
      <trkpt lat="57.61465597897768" lon="-3.295320002362132">
        <ele>45.32</ele>
        <time>2023-08-18T14:09:13Z</time>
      </trkpt>
      <trkpt lat="57.616796968504786" lon="-3.295442964881659">
        <ele>40.030000000000001</ele>
        <time>2023-08-18T14:09:23Z</time>
      </trkpt>
      <trkpt lat="57.618774008005857" lon="-3.295953003689647">
        <ele>34.259999999999998</ele>
        <time>2023-08-18T14:09:33Z</time>
      </trkpt>
      <trkpt lat="57.61914599686861" lon="-3.296188032254577">
        <ele>33.299999999999997</ele>
        <time>2023-08-18T14:09:35Z</time>
      </trkpt>
      <trkpt lat="57.620717016980052" lon="-3.297439031302929">
        <ele>31.859999999999999</ele>
        <time>2023-08-18T14:09:44Z</time>
      </trkpt>
      <trkpt lat="57.621970027685165" lon="-3.298394987359643">
        <ele>31.379999999999999</ele>
        <time>2023-08-18T14:09:52Z</time>
      </trkpt>
      <trkpt lat="57.623686976730824" lon="-3.299248013645411">
        <ele>27.050000000000001</ele>
        <time>2023-08-18T14:10:01Z</time>
      </trkpt>
      <trkpt lat="57.625604001805186" lon="-3.300076983869076">
        <ele>19.359999999999999</ele>
        <time>2023-08-18T14:10:11Z</time>
      </trkpt>
      <trkpt lat="57.627739040181041" lon="-3.301178030669689">
        <ele>13.6</ele>
        <time>2023-08-18T14:10:23Z</time>
      </trkpt>
      <trkpt lat="57.629709960892797" lon="-3.302223002538085">
        <ele>12.630000000000001</ele>
        <time>2023-08-18T14:10:34Z</time>
      </trkpt>
      <trkpt lat="57.63083104044199" lon="-3.302848963066936">
        <ele>16</ele>
        <time>2023-08-18T14:10:41Z</time>
      </trkpt>
      <trkpt lat="57.631877018138766" lon="-3.303551031276584">
        <ele>22.73</ele>
        <time>2023-08-18T14:10:50Z</time>
      </trkpt>
      <trkpt lat="57.633285010233521" lon="-3.304531965404749">
        <ele>29.460000000000001</ele>
        <time>2023-08-18T14:11:03Z</time>
      </trkpt>
      <trkpt lat="57.633548034355044" lon="-3.304717959836125">
        <ele>31.379999999999999</ele>
        <time>2023-08-18T14:11:09Z</time>
      </trkpt>
      <trkpt lat="57.633601007983088" lon="-3.304770011454821">
        <ele>32.340000000000003</ele>
        <time>2023-08-18T14:11:11Z</time>
      </trkpt>
      <trkpt lat="57.633644007146358" lon="-3.304813010618091">
        <ele>32.82</ele>
        <time>2023-08-18T14:11:12Z</time>
      </trkpt>
      <trkpt lat="57.633698992431164" lon="-3.305104030296207">
        <ele>33.299999999999997</ele>
        <time>2023-08-18T14:11:13Z</time>
      </trkpt>
      <trkpt lat="57.633699998259544" lon="-3.305106963962317">
        <ele>33.780000000000001</ele>
        <time>2023-08-18T14:11:14Z</time>
      </trkpt>
      <trkpt lat="57.633750038221478" lon="-3.305206960067153">
        <ele>33.780000000000001</ele>
        <time>2023-08-18T14:11:15Z</time>
      </trkpt>
      <trkpt lat="57.633842993527651" lon="-3.305248031392694">
        <ele>33.780000000000001</ele>
        <time>2023-08-18T14:11:16Z</time>
      </trkpt>
      <trkpt lat="57.633869983255863" lon="-3.305253982543945">
        <ele>33.780000000000001</ele>
        <time>2023-08-18T14:11:17Z</time>
      </trkpt>
      <trkpt lat="57.634014990180731" lon="-3.305159015581012">
        <ele>33.780000000000001</ele>
        <time>2023-08-18T14:11:18Z</time>
      </trkpt>
      <trkpt lat="57.634082967415452" lon="-3.305187011137605">
        <ele>33.780000000000001</ele>
        <time>2023-08-18T14:11:19Z</time>
      </trkpt>
      <trkpt lat="57.63487396761775" lon="-3.305488005280495">
        <ele>33.780000000000001</ele>
        <time>2023-08-18T14:11:29Z</time>
      </trkpt>
      <trkpt lat="57.634960971772671" lon="-3.305480964481831">
        <ele>33.299999999999997</ele>
        <time>2023-08-18T14:11:30Z</time>
      </trkpt>
      <trkpt lat="57.635051999241114" lon="-3.305470990017057">
        <ele>32.82</ele>
        <time>2023-08-18T14:11:31Z</time>
      </trkpt>
      <trkpt lat="57.635140009224415" lon="-3.305430002510548">
        <ele>32.340000000000003</ele>
        <time>2023-08-18T14:11:32Z</time>
      </trkpt>
      <trkpt lat="57.635230030864477" lon="-3.305378034710884">
        <ele>31.859999999999999</ele>
        <time>2023-08-18T14:11:33Z</time>
      </trkpt>
      <trkpt lat="57.635317035019398" lon="-3.305326988920569">
        <ele>31.379999999999999</ele>
        <time>2023-08-18T14:11:34Z</time>
      </trkpt>
      <trkpt lat="57.636211970821023" lon="-3.304813010618091">
        <ele>26.57</ele>
        <time>2023-08-18T14:11:45Z</time>
      </trkpt>
      <trkpt lat="57.636937005445361" lon="-3.304353011772037">
        <ele>21.77</ele>
        <time>2023-08-18T14:11:55Z</time>
      </trkpt>
      <trkpt lat="57.637769998982549" lon="-3.303729984909296">
        <ele>17.920000000000002</ele>
        <time>2023-08-18T14:12:04Z</time>
      </trkpt>
      <trkpt lat="57.638347009196877" lon="-3.303323965519667">
        <ele>15.039999999999999</ele>
        <time>2023-08-18T14:12:11Z</time>
      </trkpt>
      <trkpt lat="57.63841800391674" lon="-3.303291024640203">
        <ele>14.56</ele>
        <time>2023-08-18T14:12:12Z</time>
      </trkpt>
      <trkpt lat="57.63848003000021" lon="-3.303279960528016">
        <ele>14.08</ele>
        <time>2023-08-18T14:12:13Z</time>
      </trkpt>
      <trkpt lat="57.638538032770157" lon="-3.303279960528016">
        <ele>13.6</ele>
        <time>2023-08-18T14:12:14Z</time>
      </trkpt>
      <trkpt lat="57.638582037761807" lon="-3.303279960528016">
        <ele>13.6</ele>
        <time>2023-08-18T14:12:15Z</time>
      </trkpt>
      <trkpt lat="57.638616990298033" lon="-3.303279960528016">
        <ele>13.119999999999999</ele>
        <time>2023-08-18T14:12:16Z</time>
      </trkpt>
      <trkpt lat="57.63889099471271" lon="-3.303279960528016">
        <ele>8.310000000000001</ele>
        <time>2023-08-18T14:12:27Z</time>
      </trkpt>
      <trkpt lat="57.638999037444592" lon="-3.303300999104977">
        <ele>6.39</ele>
        <time>2023-08-18T14:12:39Z</time>
      </trkpt>
      <trkpt lat="57.6391919888556" lon="-3.303343998268247">
        <ele>4.46</ele>
        <time>2023-08-18T14:12:52Z</time>
      </trkpt>
      <trkpt lat="57.639468004927039" lon="-3.303592018783093">
        <ele>5.42</ele>
        <time>2023-08-18T14:13:06Z</time>
      </trkpt>
      <trkpt lat="57.639636984094977" lon="-3.303754040971398">
        <ele>7.35</ele>
        <time>2023-08-18T14:13:20Z</time>
      </trkpt>
      <trkpt lat="57.639877963811159" lon="-3.304043971002102">
        <ele>8.789999999999999</ele>
        <time>2023-08-18T14:13:40Z</time>
      </trkpt>
      <trkpt lat="57.640045015141368" lon="-3.304244969040155">
        <ele>9.75</ele>
        <time>2023-08-18T14:13:50Z</time>
      </trkpt>
      <trkpt lat="57.640150040388107" lon="-3.304372038692236">
        <ele>10.23</ele>
        <time>2023-08-18T14:14:01Z</time>
      </trkpt>
      <trkpt lat="57.640386996790767" lon="-3.304657023400068">
        <ele>10.23</ele>
        <time>2023-08-18T14:14:13Z</time>
      </trkpt>
      <trkpt lat="57.640610039234161" lon="-3.304924992844462">
        <ele>9.75</ele>
        <time>2023-08-18T14:14:25Z</time>
      </trkpt>
      <trkpt lat="57.640666030347347" lon="-3.304992970079184">
        <ele>8.789999999999999</ele>
        <time>2023-08-18T14:14:40Z</time>
      </trkpt>
      <trkpt lat="57.640777006745338" lon="-3.305125990882516">
        <ele>7.35</ele>
        <time>2023-08-18T14:14:52Z</time>
      </trkpt>
      <trkpt lat="57.640903992578387" lon="-3.305294970050454">
        <ele>8.789999999999999</ele>
        <time>2023-08-18T14:15:10Z</time>
      </trkpt>
      <trkpt lat="57.640903992578387" lon="-3.305294970050454">
        <ele>8.789999999999999</ele>
        <time>2023-08-18T14:15:24Z</time>
      </trkpt>
      <trkpt lat="57.640981022268534" lon="-3.305419022217393">
        <ele>8.310000000000001</ele>
        <time>2023-08-18T14:15:50Z</time>
      </trkpt>
      <trkpt lat="57.641134997829795" lon="-3.305666036903858">
        <ele>6.39</ele>
        <time>2023-08-18T14:16:02Z</time>
      </trkpt>
      <trkpt lat="57.641151007264853" lon="-3.30569202080369">
        <ele>6.87</ele>
        <time>2023-08-18T14:16:14Z</time>
      </trkpt>
      <trkpt lat="57.64131898060441" lon="-3.305914979428053">
        <ele>7.83</ele>
        <time>2023-08-18T14:16:25Z</time>
      </trkpt>
      <trkpt lat="57.641346976161003" lon="-3.305940041318536">
        <ele>8.310000000000001</ele>
        <time>2023-08-18T14:16:33Z</time>
      </trkpt>
      <trkpt lat="57.641374971717596" lon="-3.305965019389987">
        <ele>8.789999999999999</ele>
        <time>2023-08-18T14:16:34Z</time>
      </trkpt>
      <trkpt lat="57.641412019729614" lon="-3.305998966097832">
        <ele>8.789999999999999</ele>
        <time>2023-08-18T14:16:35Z</time>
      </trkpt>
      <trkpt lat="57.641465999186039" lon="-3.306198036298156">
        <ele>9.27</ele>
        <time>2023-08-18T14:16:37Z</time>
      </trkpt>
      <trkpt lat="57.641495000571012" lon="-3.306237012147903">
        <ele>8.789999999999999</ele>
        <time>2023-08-18T14:16:38Z</time>
      </trkpt>
      <trkpt lat="57.641657022759318" lon="-3.306224020197988">
        <ele>8.789999999999999</ele>
        <time>2023-08-18T14:16:40Z</time>
      </trkpt>
      <trkpt lat="57.641731034964323" lon="-3.306309012696147">
        <ele>8.789999999999999</ele>
        <time>2023-08-18T14:16:41Z</time>
      </trkpt>
      <trkpt lat="57.64181099832058" lon="-3.306401968002319">
        <ele>9.27</ele>
        <time>2023-08-18T14:16:42Z</time>
      </trkpt>
      <trkpt lat="57.642705012112856" lon="-3.307445012032986">
        <ele>12.15</ele>
        <time>2023-08-18T14:16:53Z</time>
      </trkpt>
      <trkpt lat="57.643314963206649" lon="-3.308192007243633">
        <ele>14.08</ele>
        <time>2023-08-18T14:17:02Z</time>
      </trkpt>
      <trkpt lat="57.643491989001632" lon="-3.308432986959815">
        <ele>13.6</ele>
        <time>2023-08-18T14:17:06Z</time>
      </trkpt>
      <trkpt lat="57.643536999821663" lon="-3.308494007214904">
        <ele>13.119999999999999</ele>
        <time>2023-08-18T14:17:07Z</time>
      </trkpt>
      <trkpt lat="57.643569018691778" lon="-3.308537006378174">
        <ele>13.119999999999999</ele>
        <time>2023-08-18T14:17:08Z</time>
      </trkpt>
      <trkpt lat="57.643569018691778" lon="-3.308537006378174">
        <ele>12.630000000000001</ele>
        <time>2023-08-18T14:17:09Z</time>
      </trkpt>
      <trkpt lat="57.643659040331841" lon="-3.308670027181506">
        <ele>12.630000000000001</ele>
        <time>2023-08-18T14:17:10Z</time>
      </trkpt>
      <trkpt lat="57.643667003139853" lon="-3.30844103358686">
        <ele>12.630000000000001</ele>
        <time>2023-08-18T14:17:12Z</time>
      </trkpt>
      <trkpt lat="57.643689969554543" lon="-3.308339025825262">
        <ele>12.630000000000001</ele>
        <time>2023-08-18T14:17:13Z</time>
      </trkpt>
      <trkpt lat="57.643718970939517" lon="-3.308213967829943">
        <ele>12.15</ele>
        <time>2023-08-18T14:17:14Z</time>
      </trkpt>
      <trkpt lat="57.643958022817969" lon="-3.306686030700803">
        <ele>9.75</ele>
        <time>2023-08-18T14:17:22Z</time>
      </trkpt>
      <trkpt lat="57.644459009170532" lon="-3.304208004847169">
        <ele>8.310000000000001</ele>
        <time>2023-08-18T14:17:34Z</time>
      </trkpt>
      <trkpt lat="57.644684985280037" lon="-3.303434019908309">
        <ele>9.27</ele>
        <time>2023-08-18T14:17:38Z</time>
      </trkpt>
      <trkpt lat="57.644768971949816" lon="-3.303276021033526">
        <ele>9.27</ele>
        <time>2023-08-18T14:17:39Z</time>
      </trkpt>
      <trkpt lat="57.644856981933117" lon="-3.303107963874936">
        <ele>9.75</ele>
        <time>2023-08-18T14:17:40Z</time>
      </trkpt>
      <trkpt lat="57.644953960552812" lon="-3.30300603993237">
        <ele>9.75</ele>
        <time>2023-08-18T14:17:41Z</time>
      </trkpt>
      <trkpt lat="57.64505797997117" lon="-3.302896991372109">
        <ele>9.75</ele>
        <time>2023-08-18T14:17:42Z</time>
      </trkpt>
      <trkpt lat="57.645160993561149" lon="-3.30279003828764">
        <ele>9.75</ele>
        <time>2023-08-18T14:17:43Z</time>
      </trkpt>
      <trkpt lat="57.646045032888651" lon="-3.302375972270966">
        <ele>9.75</ele>
        <time>2023-08-18T14:17:51Z</time>
      </trkpt>
      <trkpt lat="57.6461529918015" lon="-3.302397010847926">
        <ele>9.75</ele>
        <time>2023-08-18T14:17:52Z</time>
      </trkpt>
      <trkpt lat="57.646257011219859" lon="-3.302416959777474">
        <ele>9.75</ele>
        <time>2023-08-18T14:17:53Z</time>
      </trkpt>
      <trkpt lat="57.647324027493596" lon="-3.302635978907347">
        <ele>9.27</ele>
        <time>2023-08-18T14:18:04Z</time>
      </trkpt>
      <trkpt lat="57.647407008334994" lon="-3.302650982514024">
        <ele>9.75</ele>
        <time>2023-08-18T14:18:09Z</time>
      </trkpt>
      <trkpt lat="57.647415976971388" lon="-3.302652994170785">
        <ele>9.75</ele>
        <time>2023-08-18T14:18:15Z</time>
      </trkpt>
      <trkpt lat="57.647447995841503" lon="-3.302658023312688">
        <ele>10.23</ele>
        <time>2023-08-18T14:18:16Z</time>
      </trkpt>
      <trkpt lat="57.647489989176393" lon="-3.302665986120701">
        <ele>10.23</ele>
        <time>2023-08-18T14:18:17Z</time>
      </trkpt>
      <trkpt lat="57.647769022732973" lon="-3.302716026082635">
        <ele>10.710000000000001</ele>
        <time>2023-08-18T14:18:28Z</time>
      </trkpt>
      <trkpt lat="57.647896008566022" lon="-3.302737986668944">
        <ele>11.19</ele>
        <time>2023-08-18T14:19:02Z</time>
      </trkpt>
      <trkpt lat="57.647948982194066" lon="-3.302743015810847">
        <ele>11.19</ele>
        <time>2023-08-18T14:19:16Z</time>
      </trkpt>
      <trkpt lat="57.648039003834128" lon="-3.302892968058586">
        <ele>11.19</ele>
        <time>2023-08-18T14:19:18Z</time>
      </trkpt>
      <trkpt lat="57.648748029023409" lon="-3.303080974146724">
        <ele>10.710000000000001</ele>
        <time>2023-08-18T14:19:26Z</time>
      </trkpt>
      <trkpt lat="57.649437021464109" lon="-3.30324400216341">
        <ele>11.19</ele>
        <time>2023-08-18T14:19:33Z</time>
      </trkpt>
      <trkpt lat="57.649522013962269" lon="-3.303254982456565">
        <ele>11.19</ele>
        <time>2023-08-18T14:19:34Z</time>
      </trkpt>
      <trkpt lat="57.649981006979942" lon="-3.303047027438879">
        <ele>12.15</ele>
        <time>2023-08-18T14:19:40Z</time>
      </trkpt>
      <trkpt lat="57.650027023628354" lon="-3.303016014397144">
        <ele>12.15</ele>
        <time>2023-08-18T14:19:41Z</time>
      </trkpt>
      <trkpt lat="57.650061976164579" lon="-3.302991958335042">
        <ele>12.630000000000001</ele>
        <time>2023-08-18T14:19:42Z</time>
      </trkpt>
      <trkpt lat="57.650130037218332" lon="-3.303079968318343">
        <ele>13.119999999999999</ele>
        <time>2023-08-18T14:19:43Z</time>
      </trkpt>
      <trkpt lat="57.650144034996629" lon="-3.303181976079941">
        <ele>13.119999999999999</ele>
        <time>2023-08-18T14:19:44Z</time>
      </trkpt>
      <trkpt lat="57.650158032774925" lon="-3.30330602824688">
        <ele>13.119999999999999</ele>
        <time>2023-08-18T14:19:45Z</time>
      </trkpt>
      <trkpt lat="57.650161972269416" lon="-3.30343896523118">
        <ele>13.119999999999999</ele>
        <time>2023-08-18T14:19:46Z</time>
      </trkpt>
      <trkpt lat="57.650182005017996" lon="-3.304912000894547">
        <ele>14.56</ele>
        <time>2023-08-18T14:19:56Z</time>
      </trkpt>
      <trkpt lat="57.650157026946545" lon="-3.305490016937256">
        <ele>15.52</ele>
        <time>2023-08-18T14:20:02Z</time>
      </trkpt>
      <trkpt lat="57.650087038055062" lon="-3.305485993623734">
        <ele>16</ele>
        <time>2023-08-18T14:20:03Z</time>
      </trkpt>
      <trkpt lat="57.650055019184947" lon="-3.305483981966972">
        <ele>16</ele>
        <time>2023-08-18T14:20:04Z</time>
      </trkpt>
      <trkpt lat="57.650013025850058" lon="-3.305480964481831">
        <ele>16</ele>
        <time>2023-08-18T14:20:05Z</time>
      </trkpt>
      <trkpt lat="57.649963991716504" lon="-3.30547702498734">
        <ele>16</ele>
        <time>2023-08-18T14:20:06Z</time>
      </trkpt>
      <trkpt lat="57.649713959544897" lon="-3.305446011945605">
        <ele>16.48</ele>
        <time>2023-08-18T14:20:16Z</time>
      </trkpt>
      <trkpt lat="57.649713959544897" lon="-3.305446011945605">
        <ele>16.48</ele>
        <time>2023-08-18T14:20:32Z</time>
      </trkpt>
      <trkpt lat="57.649713959544897" lon="-3.305446011945605">
        <ele>16.48</ele>
        <time>2023-08-18T14:20:53Z</time>
      </trkpt>
      <trkpt lat="57.649729968979955" lon="-3.305453974753618">
        <ele>4.46</ele>
        <time>2023-08-18T14:38:55Z</time>
      </trkpt>
      <trkpt lat="57.649724017828703" lon="-3.305421033874154">
        <ele>13.119999999999999</ele>
        <time>2023-08-18T14:39:36Z</time>
      </trkpt>
      <trkpt lat="57.6497189886868" lon="-3.305408963933587">
        <ele>15.039999999999999</ele>
        <time>2023-08-18T14:40:21Z</time>
      </trkpt>
      <trkpt lat="57.649715971201658" lon="-3.305408963933587">
        <ele>14.08</ele>
        <time>2023-08-18T14:41:04Z</time>
      </trkpt>
      <trkpt lat="57.649716977030039" lon="-3.305411981418729">
        <ele>13.6</ele>
        <time>2023-08-18T14:41:51Z</time>
      </trkpt>
      <trkpt lat="57.649715971201658" lon="-3.30541399307549">
        <ele>13.6</ele>
        <time>2023-08-18T14:42:35Z</time>
      </trkpt>
      <trkpt lat="57.649715971201658" lon="-3.305414998903871">
        <ele>13.119999999999999</ele>
        <time>2023-08-18T14:42:55Z</time>
      </trkpt>
      <trkpt lat="57.649839017540216" lon="-3.305403012782335">
        <ele>13.119999999999999</ele>
        <time>2023-08-18T14:42:58Z</time>
      </trkpt>
      <trkpt lat="57.649840023368597" lon="-3.305392032489181">
        <ele>13.119999999999999</ele>
        <time>2023-08-18T14:42:59Z</time>
      </trkpt>
      <trkpt lat="57.649834994226694" lon="-3.305468978360295">
        <ele>13.119999999999999</ele>
        <time>2023-08-18T14:43:00Z</time>
      </trkpt>
      <trkpt lat="57.649867013096809" lon="-3.305470990017057">
        <ele>13.119999999999999</ele>
        <time>2023-08-18T14:43:01Z</time>
      </trkpt>
      <trkpt lat="57.649906994774938" lon="-3.305473001673818">
        <ele>12.630000000000001</ele>
        <time>2023-08-18T14:43:02Z</time>
      </trkpt>
      <trkpt lat="57.650099024176598" lon="-3.305485993623734">
        <ele>12.630000000000001</ele>
        <time>2023-08-18T14:43:08Z</time>
      </trkpt>
      <trkpt lat="57.650147974491119" lon="-3.305593030527234">
        <ele>13.119999999999999</ele>
        <time>2023-08-18T14:43:10Z</time>
      </trkpt>
      <trkpt lat="57.650143029168248" lon="-3.305650027468801">
        <ele>13.6</ele>
        <time>2023-08-18T14:43:11Z</time>
      </trkpt>
      <trkpt lat="57.650020988658071" lon="-3.306627022102475">
        <ele>15.039999999999999</ele>
        <time>2023-08-18T14:43:19Z</time>
      </trkpt>
      <trkpt lat="57.649977989494801" lon="-3.306773034855723">
        <ele>15.039999999999999</ele>
        <time>2023-08-18T14:43:20Z</time>
      </trkpt>
      <trkpt lat="57.649753019213676" lon="-3.307532016187906">
        <ele>16</ele>
        <time>2023-08-18T14:43:26Z</time>
      </trkpt>
      <trkpt lat="57.649442972615361" lon="-3.30846500582993">
        <ele>18.879999999999999</ele>
        <time>2023-08-18T14:43:36Z</time>
      </trkpt>
      <trkpt lat="57.64937499538064" lon="-3.308651000261307">
        <ele>18.879999999999999</ele>
        <time>2023-08-18T14:43:39Z</time>
      </trkpt>
      <trkpt lat="57.64937499538064" lon="-3.308651000261307">
        <ele>19.359999999999999</ele>
        <time>2023-08-18T14:43:50Z</time>
      </trkpt>
      <trkpt lat="57.649348005652428" lon="-3.309008991345763">
        <ele>21.77</ele>
        <time>2023-08-18T14:44:10Z</time>
      </trkpt>
      <trkpt lat="57.649521008133888" lon="-3.309525987133384">
        <ele>16.960000000000001</ele>
        <time>2023-08-18T14:44:20Z</time>
      </trkpt>
      <trkpt lat="57.649627961218357" lon="-3.309848019853234">
        <ele>7.35</ele>
        <time>2023-08-18T14:44:34Z</time>
      </trkpt>
      <trkpt lat="57.649641036987305" lon="-3.309888001531363">
        <ele>5.42</ele>
        <time>2023-08-18T14:45:01Z</time>
      </trkpt>
      <trkpt lat="57.649844968691468" lon="-3.310499964281917">
        <ele>0.14</ele>
        <time>2023-08-18T14:45:18Z</time>
      </trkpt>
      <trkpt lat="57.650087960064411" lon="-3.311307979747653">
        <ele>-6.11</ele>
        <time>2023-08-18T14:45:36Z</time>
      </trkpt>
      <trkpt lat="57.650232966989279" lon="-3.312236024066806">
        <ele>-7.55</ele>
        <time>2023-08-18T14:45:51Z</time>
      </trkpt>
      <trkpt lat="57.650245036929846" lon="-3.312371978536248">
        <ele>-7.07</ele>
        <time>2023-08-18T14:46:02Z</time>
      </trkpt>
      <trkpt lat="57.650278983637691" lon="-3.313090978190303">
        <ele>-5.15</ele>
        <time>2023-08-18T14:46:14Z</time>
      </trkpt>
      <trkpt lat="57.650218969210982" lon="-3.313959008082748">
        <ele>-4.19</ele>
        <time>2023-08-18T14:46:19Z</time>
      </trkpt>
      <trkpt lat="57.650200026109815" lon="-3.31407300196588">
        <ele>-4.19</ele>
        <time>2023-08-18T14:46:20Z</time>
      </trkpt>
      <trkpt lat="57.650180999189615" lon="-3.314198981970549">
        <ele>-3.23</ele>
        <time>2023-08-18T14:46:21Z</time>
      </trkpt>
      <trkpt lat="57.650168007239699" lon="-3.314258996397257">
        <ele>-2.75</ele>
        <time>2023-08-18T14:46:22Z</time>
      </trkpt>
      <trkpt lat="57.650156021118164" lon="-3.314313981682062">
        <ele>-2.75</ele>
        <time>2023-08-18T14:46:23Z</time>
      </trkpt>
      <trkpt lat="57.650145962834358" lon="-3.314357986673713">
        <ele>-2.27</ele>
        <time>2023-08-18T14:46:24Z</time>
      </trkpt>
      <trkpt lat="57.650136994197965" lon="-3.314396040514112">
        <ele>-2.27</ele>
        <time>2023-08-18T14:46:25Z</time>
      </trkpt>
      <trkpt lat="57.650127019733191" lon="-3.314440967515111">
        <ele>-1.3</ele>
        <time>2023-08-18T14:46:30Z</time>
      </trkpt>
      <trkpt lat="57.649970026686788" lon="-3.315105987712741">
        <ele>-0.34</ele>
        <time>2023-08-18T14:46:37Z</time>
      </trkpt>
      <trkpt lat="57.649684036150575" lon="-3.316273000091314">
        <ele>7.35</ele>
        <time>2023-08-18T14:46:46Z</time>
      </trkpt>
      <trkpt lat="57.649629972875118" lon="-3.316524960100651">
        <ele>8.310000000000001</ele>
        <time>2023-08-18T14:46:48Z</time>
      </trkpt>
      <trkpt lat="57.649558978155255" lon="-3.316856967285276">
        <ele>10.23</ele>
        <time>2023-08-18T14:46:51Z</time>
      </trkpt>
      <trkpt lat="57.649511033669114" lon="-3.31708000972867">
        <ele>11.67</ele>
        <time>2023-08-18T14:46:53Z</time>
      </trkpt>
      <trkpt lat="57.649295032024384" lon="-3.318268982693553">
        <ele>15.039999999999999</ele>
        <time>2023-08-18T14:47:03Z</time>
      </trkpt>
      <trkpt lat="57.649130998179317" lon="-3.31944496370852">
        <ele>14.08</ele>
        <time>2023-08-18T14:47:11Z</time>
      </trkpt>
      <trkpt lat="57.649040976539254" lon="-3.319674041122198">
        <ele>14.08</ele>
        <time>2023-08-18T14:47:12Z</time>
      </trkpt>
      <trkpt lat="57.649006024003029" lon="-3.319717040285468">
        <ele>14.56</ele>
        <time>2023-08-18T14:47:13Z</time>
      </trkpt>
      <trkpt lat="57.648954978212714" lon="-3.319780994206667">
        <ele>14.56</ele>
        <time>2023-08-18T14:47:14Z</time>
      </trkpt>
      <trkpt lat="57.648954978212714" lon="-3.319780994206667">
        <ele>15.039999999999999</ele>
        <time>2023-08-18T14:47:15Z</time>
      </trkpt>
      <trkpt lat="57.648850036785007" lon="-3.320019040256739">
        <ele>15.039999999999999</ele>
        <time>2023-08-18T14:47:16Z</time>
      </trkpt>
      <trkpt lat="57.648787004873157" lon="-3.320067990571261">
        <ele>15.52</ele>
        <time>2023-08-18T14:47:18Z</time>
      </trkpt>
      <trkpt lat="57.648672005161643" lon="-3.3201539888978">
        <ele>15.52</ele>
        <time>2023-08-18T14:47:19Z</time>
      </trkpt>
      <trkpt lat="57.648619031533599" lon="-3.320193970575929">
        <ele>15.52</ele>
        <time>2023-08-18T14:47:20Z</time>
      </trkpt>
      <trkpt lat="57.648315019905567" lon="-3.320401003584266">
        <ele>16</ele>
        <time>2023-08-18T14:47:25Z</time>
      </trkpt>
      <trkpt lat="57.648272020742297" lon="-3.320422964170575">
        <ele>16</ele>
        <time>2023-08-18T14:47:26Z</time>
      </trkpt>
      <trkpt lat="57.648140005767345" lon="-3.320489013567567">
        <ele>16.960000000000001</ele>
        <time>2023-08-18T14:47:29Z</time>
      </trkpt>
      <trkpt lat="57.647860972210765" lon="-3.320424975827336">
        <ele>17.920000000000002</ele>
        <time>2023-08-18T14:47:34Z</time>
      </trkpt>
      <trkpt lat="57.647770028561354" lon="-3.32036797888577">
        <ele>17.920000000000002</ele>
        <time>2023-08-18T14:47:35Z</time>
      </trkpt>
      <trkpt lat="57.647724011912942" lon="-3.320436039939523">
        <ele>17.920000000000002</ele>
        <time>2023-08-18T14:47:36Z</time>
      </trkpt>
      <trkpt lat="57.647711019963026" lon="-3.320661010220647">
        <ele>18.399999999999999</ele>
        <time>2023-08-18T14:47:37Z</time>
      </trkpt>
      <trkpt lat="57.647687969729304" lon="-3.320746002718806">
        <ele>18.879999999999999</ele>
        <time>2023-08-18T14:47:38Z</time>
      </trkpt>
      <trkpt lat="57.647652011364698" lon="-3.32088204100728">
        <ele>18.879999999999999</ele>
        <time>2023-08-18T14:47:39Z</time>
      </trkpt>
      <trkpt lat="57.647398039698601" lon="-3.321890970692039">
        <ele>20.32</ele>
        <time>2023-08-18T14:47:48Z</time>
      </trkpt>
      <trkpt lat="57.647173991426826" lon="-3.322784984484315">
        <ele>20.32</ele>
        <time>2023-08-18T14:47:55Z</time>
      </trkpt>
      <trkpt lat="57.647122023627162" lon="-3.3230119664222">
        <ele>19.84</ele>
        <time>2023-08-18T14:47:57Z</time>
      </trkpt>
      <trkpt lat="57.647093022242188" lon="-3.323135012760758">
        <ele>19.84</ele>
        <time>2023-08-18T14:47:58Z</time>
      </trkpt>
      <trkpt lat="57.646999983116984" lon="-3.323542959988117">
        <ele>19.359999999999999</ele>
        <time>2023-08-18T14:48:01Z</time>
      </trkpt>
      <trkpt lat="57.646967964246869" lon="-3.323689978569746">
        <ele>19.359999999999999</ele>
        <time>2023-08-18T14:48:02Z</time>
      </trkpt>
      <trkpt lat="57.646671999245882" lon="-3.324983976781368">
        <ele>17.440000000000001</ele>
        <time>2023-08-18T14:48:11Z</time>
      </trkpt>
      <trkpt lat="57.646632017567754" lon="-3.325129989534617">
        <ele>17.440000000000001</ele>
        <time>2023-08-18T14:48:12Z</time>
      </trkpt>
      <trkpt lat="57.646268997341394" lon="-3.326134979724884">
        <ele>20.32</ele>
        <time>2023-08-18T14:48:20Z</time>
      </trkpt>
      <trkpt lat="57.645647982135415" lon="-3.327690996229649">
        <ele>21.77</ele>
        <time>2023-08-18T14:48:31Z</time>
      </trkpt>
      <trkpt lat="57.644931999966502" lon="-3.329565022140741">
        <ele>29.940000000000001</ele>
        <time>2023-08-18T14:48:43Z</time>
      </trkpt>
      <trkpt lat="57.644437970593572" lon="-3.331156997010112">
        <ele>30.899999999999999</ele>
        <time>2023-08-18T14:48:53Z</time>
      </trkpt>
      <trkpt lat="57.644129013642669" lon="-3.332177996635437">
        <ele>30.899999999999999</ele>
        <time>2023-08-18T14:49:02Z</time>
      </trkpt>
      <trkpt lat="57.643877975642681" lon="-3.332931026816368">
        <ele>29.460000000000001</ele>
        <time>2023-08-18T14:49:07Z</time>
      </trkpt>
      <trkpt lat="57.643498023971915" lon="-3.333959989249706">
        <ele>29.940000000000001</ele>
        <time>2023-08-18T14:49:15Z</time>
      </trkpt>
      <trkpt lat="57.643470028415322" lon="-3.334027966484428">
        <ele>30.420000000000002</ele>
        <time>2023-08-18T14:49:16Z</time>
      </trkpt>
      <trkpt lat="57.643312029540539" lon="-3.334414958953857">
        <ele>31.859999999999999</ele>
        <time>2023-08-18T14:49:26Z</time>
      </trkpt>
      <trkpt lat="57.643196024000645" lon="-3.33465501666069">
        <ele>31.859999999999999</ele>
        <time>2023-08-18T14:49:28Z</time>
      </trkpt>
      <trkpt lat="57.642719009891152" lon="-3.33564299158752">
        <ele>32.340000000000003</ele>
        <time>2023-08-18T14:49:37Z</time>
      </trkpt>
      <trkpt lat="57.642149040475488" lon="-3.336734985932708">
        <ele>33.299999999999997</ele>
        <time>2023-08-18T14:49:44Z</time>
      </trkpt>
      <trkpt lat="57.641407996416092" lon="-3.337907027453184">
        <ele>39.07</ele>
        <time>2023-08-18T14:49:52Z</time>
      </trkpt>
      <trkpt lat="57.64073995873332" lon="-3.338855020701885">
        <ele>40.030000000000001</ele>
        <time>2023-08-18T14:49:59Z</time>
      </trkpt>
      <trkpt lat="57.640164960175753" lon="-3.339494979009032">
        <ele>40.990000000000002</ele>
        <time>2023-08-18T14:50:05Z</time>
      </trkpt>
      <trkpt lat="57.640081979334354" lon="-3.339645015075803">
        <ele>40.990000000000002</ele>
        <time>2023-08-18T14:50:06Z</time>
      </trkpt>
      <trkpt lat="57.639998998492956" lon="-3.339796978980303">
        <ele>40.990000000000002</ele>
        <time>2023-08-18T14:50:07Z</time>
      </trkpt>
      <trkpt lat="57.639077994972467" lon="-3.342200992628932">
        <ele>38.590000000000003</ele>
        <time>2023-08-18T14:50:19Z</time>
      </trkpt>
      <trkpt lat="57.638264028355479" lon="-3.34436503238976">
        <ele>36.189999999999998</ele>
        <time>2023-08-18T14:50:30Z</time>
      </trkpt>
      <trkpt lat="57.637828001752496" lon="-3.345621982589364">
        <ele>34.740000000000002</ele>
        <time>2023-08-18T14:50:39Z</time>
      </trkpt>
      <trkpt lat="57.637754995375872" lon="-3.345874026417732">
        <ele>32.82</ele>
        <time>2023-08-18T14:50:48Z</time>
      </trkpt>
      <trkpt lat="57.637648964300752" lon="-3.346238974481821">
        <ele>32.340000000000003</ele>
        <time>2023-08-18T14:51:00Z</time>
      </trkpt>
      <trkpt lat="57.637604959309101" lon="-3.346389010548592">
        <ele>32.340000000000003</ele>
        <time>2023-08-18T14:51:01Z</time>
      </trkpt>
      <trkpt lat="57.637312011793256" lon="-3.347466001287103">
        <ele>31.859999999999999</ele>
        <time>2023-08-18T14:51:08Z</time>
      </trkpt>
      <trkpt lat="57.637269012629986" lon="-3.347551999613643">
        <ele>31.859999999999999</ele>
        <time>2023-08-18T14:51:09Z</time>
      </trkpt>
      <trkpt lat="57.637225007638335" lon="-3.347641015425324">
        <ele>31.379999999999999</ele>
        <time>2023-08-18T14:51:10Z</time>
      </trkpt>
      <trkpt lat="57.637168010696769" lon="-3.34771603345871">
        <ele>31.379999999999999</ele>
        <time>2023-08-18T14:51:11Z</time>
      </trkpt>
      <trkpt lat="57.63710699044168" lon="-3.347757020965219">
        <ele>30.899999999999999</ele>
        <time>2023-08-18T14:51:12Z</time>
      </trkpt>
      <trkpt lat="57.637046976014972" lon="-3.347797002643347">
        <ele>30.420000000000002</ele>
        <time>2023-08-18T14:51:13Z</time>
      </trkpt>
      <trkpt lat="57.636984027922153" lon="-3.347827009856701">
        <ele>30.420000000000002</ele>
        <time>2023-08-18T14:51:14Z</time>
      </trkpt>
      <trkpt lat="57.636913033202291" lon="-3.347831033170223">
        <ele>29.940000000000001</ele>
        <time>2023-08-18T14:51:15Z</time>
      </trkpt>
      <trkpt lat="57.636235021054745" lon="-3.347820974886417">
        <ele>28.5</ele>
        <time>2023-08-18T14:51:21Z</time>
      </trkpt>
      <trkpt lat="57.635522978380322" lon="-3.347849976271391">
        <ele>27.530000000000001</ele>
        <time>2023-08-18T14:51:26Z</time>
      </trkpt>
      <trkpt lat="57.635402027517557" lon="-3.34788803011179">
        <ele>27.530000000000001</ele>
        <time>2023-08-18T14:51:27Z</time>
      </trkpt>
      <trkpt lat="57.63530102558434" lon="-3.348027002066374">
        <ele>27.530000000000001</ele>
        <time>2023-08-18T14:51:28Z</time>
      </trkpt>
      <trkpt lat="57.635205974802375" lon="-3.348165974020958">
        <ele>28.02</ele>
        <time>2023-08-18T14:51:29Z</time>
      </trkpt>
      <trkpt lat="57.635105978697538" lon="-3.348311986774206">
        <ele>28.5</ele>
        <time>2023-08-18T14:51:30Z</time>
      </trkpt>
      <trkpt lat="57.635016040876508" lon="-3.348498987033963">
        <ele>28.5</ele>
        <time>2023-08-18T14:51:31Z</time>
      </trkpt>
      <trkpt lat="57.634929958730936" lon="-3.3487060200423">
        <ele>28.98</ele>
        <time>2023-08-18T14:51:32Z</time>
      </trkpt>
      <trkpt lat="57.634220011532307" lon="-3.350788000971079">
        <ele>30.899999999999999</ele>
        <time>2023-08-18T14:51:42Z</time>
      </trkpt>
      <trkpt lat="57.634202996268868" lon="-3.350961003452539">
        <ele>31.379999999999999</ele>
        <time>2023-08-18T14:51:43Z</time>
      </trkpt>
      <trkpt lat="57.634093025699258" lon="-3.352803010493517">
        <ele>34.259999999999998</ele>
        <time>2023-08-18T14:51:50Z</time>
      </trkpt>
      <trkpt lat="57.633993029594421" lon="-3.35452800616622">
        <ele>36.670000000000002</ele>
        <time>2023-08-18T14:51:57Z</time>
      </trkpt>
      <trkpt lat="57.633897978812456" lon="-3.355006026104093">
        <ele>37.630000000000003</ele>
        <time>2023-08-18T14:52:02Z</time>
      </trkpt>
      <trkpt lat="57.633900996297598" lon="-3.355050031095743">
        <ele>37.630000000000003</ele>
        <time>2023-08-18T14:52:03Z</time>
      </trkpt>
      <trkpt lat="57.633939972147346" lon="-3.355117002502084">
        <ele>38.109999999999999</ele>
        <time>2023-08-18T14:52:04Z</time>
      </trkpt>
      <trkpt lat="57.633993029594421" lon="-3.355204006657004">
        <ele>38.109999999999999</ele>
        <time>2023-08-18T14:52:05Z</time>
      </trkpt>
      <trkpt lat="57.634058995172381" lon="-3.355313977226615">
        <ele>38.109999999999999</ele>
        <time>2023-08-18T14:52:06Z</time>
      </trkpt>
      <trkpt lat="57.634138958528638" lon="-3.355445992201567">
        <ele>38.109999999999999</ele>
        <time>2023-08-18T14:52:07Z</time>
      </trkpt>
      <trkpt lat="57.634976981207728" lon="-3.356840992346406">
        <ele>35.710000000000001</ele>
        <time>2023-08-18T14:52:15Z</time>
      </trkpt>
      <trkpt lat="57.636124966666102" lon="-3.358751982450485">
        <ele>30.420000000000002</ele>
        <time>2023-08-18T14:52:26Z</time>
      </trkpt>
      <trkpt lat="57.636328982189298" lon="-3.359091030433774">
        <ele>28.98</ele>
        <time>2023-08-18T14:52:29Z</time>
      </trkpt>
      <trkpt lat="57.636384973302484" lon="-3.359210975468159">
        <ele>28.98</ele>
        <time>2023-08-18T14:52:30Z</time>
      </trkpt>
      <trkpt lat="57.636402994394302" lon="-3.359366962686181">
        <ele>28.98</ele>
        <time>2023-08-18T14:52:31Z</time>
      </trkpt>
      <trkpt lat="57.636423027142882" lon="-3.359542982652783">
        <ele>28.5</ele>
        <time>2023-08-18T14:52:32Z</time>
      </trkpt>
      <trkpt lat="57.636446999385953" lon="-3.359740963205695">
        <ele>28.5</ele>
        <time>2023-08-18T14:52:33Z</time>
      </trkpt>
      <trkpt lat="57.636471977457404" lon="-3.359960988163948">
        <ele>28.02</ele>
        <time>2023-08-18T14:52:34Z</time>
      </trkpt>
      <trkpt lat="57.636737013235688" lon="-3.362234998494387">
        <ele>28.5</ele>
        <time>2023-08-18T14:52:42Z</time>
      </trkpt>
      <trkpt lat="57.637070026248693" lon="-3.365090964362025">
        <ele>29.460000000000001</ele>
        <time>2023-08-18T14:52:53Z</time>
      </trkpt>
      <trkpt lat="57.637397004291415" lon="-3.36799998767674">
        <ele>31.859999999999999</ele>
        <time>2023-08-18T14:53:05Z</time>
      </trkpt>
      <trkpt lat="57.637581992894411" lon="-3.370871962979436">
        <ele>30.899999999999999</ele>
        <time>2023-08-18T14:53:17Z</time>
      </trkpt>
      <trkpt lat="57.637550979852676" lon="-3.371130963787437">
        <ele>30.420000000000002</ele>
        <time>2023-08-18T14:53:18Z</time>
      </trkpt>
      <trkpt lat="57.637267000973225" lon="-3.373463982716203">
        <ele>25.129999999999999</ele>
        <time>2023-08-18T14:53:27Z</time>
      </trkpt>
      <trkpt lat="57.636930970475078" lon="-3.37622799910605">
        <ele>25.129999999999999</ele>
        <time>2023-08-18T14:53:38Z</time>
      </trkpt>
      <trkpt lat="57.636506007984281" lon="-3.379725012928248">
        <ele>24.170000000000002</ele>
        <time>2023-08-18T14:53:52Z</time>
      </trkpt>
      <trkpt lat="57.636224962770939" lon="-3.383264020085335">
        <ele>23.210000000000001</ele>
        <time>2023-08-18T14:54:07Z</time>
      </trkpt>
      <trkpt lat="57.636209037154913" lon="-3.383498964831233">
        <ele>23.210000000000001</ele>
        <time>2023-08-18T14:54:08Z</time>
      </trkpt>
      <trkpt lat="57.636042991653085" lon="-3.385885963216424">
        <ele>23.210000000000001</ele>
        <time>2023-08-18T14:54:18Z</time>
      </trkpt>
      <trkpt lat="57.635809974744916" lon="-3.3890559989959">
        <ele>23.210000000000001</ele>
        <time>2023-08-18T14:54:31Z</time>
      </trkpt>
      <trkpt lat="57.635550973936915" lon="-3.391885980963707">
        <ele>22.73</ele>
        <time>2023-08-18T14:54:44Z</time>
      </trkpt>
      <trkpt lat="57.635543011128902" lon="-3.391980025917292">
        <ele>22.73</ele>
        <time>2023-08-18T14:54:45Z</time>
      </trkpt>
      <trkpt lat="57.635536976158619" lon="-3.392041968181729">
        <ele>22.73</ele>
        <time>2023-08-18T14:54:46Z</time>
      </trkpt>
      <trkpt lat="57.635533036664128" lon="-3.392086979001761">
        <ele>22.73</ele>
        <time>2023-08-18T14:54:47Z</time>
      </trkpt>
      <trkpt lat="57.635529013350606" lon="-3.39212603867054">
        <ele>22.73</ele>
        <time>2023-08-18T14:54:48Z</time>
      </trkpt>
      <trkpt lat="57.635432034730911" lon="-3.392156967893243">
        <ele>23.210000000000001</ele>
        <time>2023-08-18T14:54:49Z</time>
      </trkpt>
      <trkpt lat="57.635389035567641" lon="-3.392136013135314">
        <ele>23.210000000000001</ele>
        <time>2023-08-18T14:54:50Z</time>
      </trkpt>
      <trkpt lat="57.635330026969314" lon="-3.392108017578721">
        <ele>23.210000000000001</ele>
        <time>2023-08-18T14:54:51Z</time>
      </trkpt>
      <trkpt lat="57.63526096008718" lon="-3.392074992880225">
        <ele>23.690000000000001</ele>
        <time>2023-08-18T14:54:52Z</time>
      </trkpt>
      <trkpt lat="57.635189965367317" lon="-3.392040962353349">
        <ele>23.690000000000001</ele>
        <time>2023-08-18T14:54:53Z</time>
      </trkpt>
      <trkpt lat="57.635123999789357" lon="-3.392009027302265">
        <ele>23.690000000000001</ele>
        <time>2023-08-18T14:54:54Z</time>
      </trkpt>
      <trkpt lat="57.635068008676171" lon="-3.391982037574053">
        <ele>24.170000000000002</ele>
        <time>2023-08-18T14:54:55Z</time>
      </trkpt>
      <trkpt lat="57.634984022006392" lon="-3.392123021185398">
        <ele>24.170000000000002</ele>
        <time>2023-08-18T14:54:56Z</time>
      </trkpt>
      <trkpt lat="57.634983016178012" lon="-3.392202984541655">
        <ele>24.170000000000002</ele>
        <time>2023-08-18T14:54:57Z</time>
      </trkpt>
      <trkpt lat="57.634982010349631" lon="-3.392311027273536">
        <ele>24.170000000000002</ele>
        <time>2023-08-18T14:54:58Z</time>
      </trkpt>
      <trkpt lat="57.634981004521251" lon="-3.392440024763346">
        <ele>24.170000000000002</ele>
        <time>2023-08-18T14:54:59Z</time>
      </trkpt>
      <trkpt lat="57.63497899286449" lon="-3.392586037516594">
        <ele>24.170000000000002</ele>
        <time>2023-08-18T14:55:00Z</time>
      </trkpt>
      <trkpt lat="57.634958038106561" lon="-3.394466014578939">
        <ele>25.609999999999999</ele>
        <time>2023-08-18T14:55:09Z</time>
      </trkpt>
      <trkpt lat="57.634915038943291" lon="-3.397227013483644">
        <ele>27.530000000000001</ele>
        <time>2023-08-18T14:55:20Z</time>
      </trkpt>
      <trkpt lat="57.634831974282861" lon="-3.401548974215984">
        <ele>25.609999999999999</ele>
        <time>2023-08-18T14:55:35Z</time>
      </trkpt>
      <trkpt lat="57.634758967906237" lon="-3.405324015766382">
        <ele>27.050000000000001</ele>
        <time>2023-08-18T14:55:47Z</time>
      </trkpt>
      <trkpt lat="57.634687973186374" lon="-3.408813988789916">
        <ele>27.530000000000001</ele>
        <time>2023-08-18T14:55:59Z</time>
      </trkpt>
      <trkpt lat="57.634637011215091" lon="-3.411559984087944">
        <ele>24.649999999999999</ele>
        <time>2023-08-18T14:56:09Z</time>
      </trkpt>
      <trkpt lat="57.634599041193724" lon="-3.414713004603982">
        <ele>22.25</ele>
        <time>2023-08-18T14:56:20Z</time>
      </trkpt>
      <trkpt lat="57.634524023160338" lon="-3.418649984523654">
        <ele>22.73</ele>
        <time>2023-08-18T14:56:35Z</time>
      </trkpt>
      <trkpt lat="57.634511031210423" lon="-3.421345017850399">
        <ele>25.129999999999999</ele>
        <time>2023-08-18T14:56:45Z</time>
      </trkpt>
      <trkpt lat="57.634579008445144" lon="-3.425264982506633">
        <ele>27.050000000000001</ele>
        <time>2023-08-18T14:56:59Z</time>
      </trkpt>
      <trkpt lat="57.634669030085206" lon="-3.429862959310412">
        <ele>26.57</ele>
        <time>2023-08-18T14:57:15Z</time>
      </trkpt>
      <trkpt lat="57.634754022583365" lon="-3.433978976681829">
        <ele>28.02</ele>
        <time>2023-08-18T14:57:30Z</time>
      </trkpt>
      <trkpt lat="57.63483096845448" lon="-3.437466016039252">
        <ele>32.340000000000003</ele>
        <time>2023-08-18T14:57:44Z</time>
      </trkpt>
      <trkpt lat="57.634834991768003" lon="-3.437666008248925">
        <ele>32.340000000000003</ele>
        <time>2023-08-18T14:57:45Z</time>
      </trkpt>
      <trkpt lat="57.634800961241126" lon="-3.437886033207178">
        <ele>32.340000000000003</ele>
        <time>2023-08-18T14:57:46Z</time>
      </trkpt>
      <trkpt lat="57.634730972349644" lon="-3.438062975183129">
        <ele>32.82</ele>
        <time>2023-08-18T14:57:47Z</time>
      </trkpt>
      <trkpt lat="57.634660983458161" lon="-3.438217034563422">
        <ele>32.82</ele>
        <time>2023-08-18T14:57:48Z</time>
      </trkpt>
      <trkpt lat="57.634589988738298" lon="-3.438374027609825">
        <ele>32.340000000000003</ele>
        <time>2023-08-18T14:57:49Z</time>
      </trkpt>
      <trkpt lat="57.63354099355638" lon="-3.440689025446773">
        <ele>33.780000000000001</ele>
        <time>2023-08-18T14:58:04Z</time>
      </trkpt>
      <trkpt lat="57.632957026362419" lon="-3.441979000344873">
        <ele>34.259999999999998</ele>
        <time>2023-08-18T14:58:13Z</time>
      </trkpt>
      <trkpt lat="57.632930036634207" lon="-3.442139010876417">
        <ele>34.259999999999998</ele>
        <time>2023-08-18T14:58:14Z</time>
      </trkpt>
      <trkpt lat="57.632935987785459" lon="-3.442301033064723">
        <ele>34.259999999999998</ele>
        <time>2023-08-18T14:58:15Z</time>
      </trkpt>
      <trkpt lat="57.632943028584123" lon="-3.442471018061042">
        <ele>34.259999999999998</ele>
        <time>2023-08-18T14:58:16Z</time>
      </trkpt>
      <trkpt lat="57.632949985563755" lon="-3.442646032199264">
        <ele>34.259999999999998</ele>
        <time>2023-08-18T14:58:17Z</time>
      </trkpt>
      <trkpt lat="57.632986027747393" lon="-3.443536022678018">
        <ele>36.189999999999998</ele>
        <time>2023-08-18T14:58:23Z</time>
      </trkpt>
      <trkpt lat="57.63300396502018" lon="-3.443669965490699">
        <ele>36.670000000000002</ele>
        <time>2023-08-18T14:58:24Z</time>
      </trkpt>
      <trkpt lat="57.633056016638875" lon="-3.443726962432265">
        <ele>36.670000000000002</ele>
        <time>2023-08-18T14:58:25Z</time>
      </trkpt>
      <trkpt lat="57.633117958903313" lon="-3.443795023486018">
        <ele>37.149999999999999</ele>
        <time>2023-08-18T14:58:26Z</time>
      </trkpt>
      <trkpt lat="57.633189037442207" lon="-3.443871969357133">
        <ele>37.630000000000003</ele>
        <time>2023-08-18T14:58:27Z</time>
      </trkpt>
      <trkpt lat="57.633265983313322" lon="-3.443955034017563">
        <ele>37.630000000000003</ele>
        <time>2023-08-18T14:58:28Z</time>
      </trkpt>
      <trkpt lat="57.634149016812444" lon="-3.444911995902658">
        <ele>40.509999999999998</ele>
        <time>2023-08-18T14:58:37Z</time>
      </trkpt>
      <trkpt lat="57.634447999298573" lon="-3.445235034450889">
        <ele>41.950000000000003</ele>
        <time>2023-08-18T14:58:41Z</time>
      </trkpt>
      <trkpt lat="57.634494015946984" lon="-3.445284990593791">
        <ele>42.439999999999998</ele>
        <time>2023-08-18T14:58:42Z</time>
      </trkpt>
      <trkpt lat="57.634518994018435" lon="-3.445399990305305">
        <ele>42.920000000000002</ele>
        <time>2023-08-18T14:58:43Z</time>
      </trkpt>
      <trkpt lat="57.634495021775365" lon="-3.44549898058176">
        <ele>43.399999999999999</ele>
        <time>2023-08-18T14:58:44Z</time>
      </trkpt>
      <trkpt lat="57.634467026218772" lon="-3.445619009435177">
        <ele>44.359999999999999</ele>
        <time>2023-08-18T14:58:45Z</time>
      </trkpt>
      <trkpt lat="57.634435007348657" lon="-3.44575404189527">
        <ele>44.359999999999999</ele>
        <time>2023-08-18T14:58:46Z</time>
      </trkpt>
      <trkpt lat="57.634398965165019" lon="-3.445907011628151">
        <ele>44.840000000000003</ele>
        <time>2023-08-18T14:58:47Z</time>
      </trkpt>
      <trkpt lat="57.634359989315271" lon="-3.446073979139328">
        <ele>44.840000000000003</ele>
        <time>2023-08-18T14:58:48Z</time>
      </trkpt>
      <trkpt lat="57.633888004347682" lon="-3.448072979226708">
        <ele>43.880000000000003</ele>
        <time>2023-08-18T14:58:57Z</time>
      </trkpt>
      <trkpt lat="57.633042018860579" lon="-3.451658003032208">
        <ele>44.359999999999999</ele>
        <time>2023-08-18T14:59:11Z</time>
      </trkpt>
      <trkpt lat="57.632091008126736" lon="-3.455627001821995">
        <ele>44.840000000000003</ele>
        <time>2023-08-18T14:59:27Z</time>
      </trkpt>
      <trkpt lat="57.630808996036649" lon="-3.460163036361337">
        <ele>42.920000000000002</ele>
        <time>2023-08-18T14:59:46Z</time>
      </trkpt>
      <trkpt lat="57.629732005298138" lon="-3.463960960507393">
        <ele>43.880000000000003</ele>
        <time>2023-08-18T15:00:02Z</time>
      </trkpt>
      <trkpt lat="57.62879197485745" lon="-3.467228980734944">
        <ele>46.280000000000001</ele>
        <time>2023-08-18T15:00:15Z</time>
      </trkpt>
      <trkpt lat="57.628113040700555" lon="-3.470471017062664">
        <ele>48.200000000000003</ele>
        <time>2023-08-18T15:00:27Z</time>
      </trkpt>
      <trkpt lat="57.627498982474208" lon="-3.473973982036114">
        <ele>50.130000000000003</ele>
        <time>2023-08-18T15:00:41Z</time>
      </trkpt>
      <trkpt lat="57.627083994448185" lon="-3.476294009014964">
        <ele>51.57</ele>
        <time>2023-08-18T15:00:51Z</time>
      </trkpt>
      <trkpt lat="57.626372035592794" lon="-3.480429975315929">
        <ele>54.450000000000003</ele>
        <time>2023-08-18T15:01:06Z</time>
      </trkpt>
      <trkpt lat="57.62610599398613" lon="-3.483229028061032">
        <ele>55.890000000000001</ele>
        <time>2023-08-18T15:01:15Z</time>
      </trkpt>
      <trkpt lat="57.625856967642903" lon="-3.48629797808826">
        <ele>57.82</ele>
        <time>2023-08-18T15:01:26Z</time>
      </trkpt>
      <trkpt lat="57.625630991533399" lon="-3.489073980599642">
        <ele>60.219999999999999</ele>
        <time>2023-08-18T15:01:36Z</time>
      </trkpt>
      <trkpt lat="57.625654963776469" lon="-3.489334993064404">
        <ele>60.219999999999999</ele>
        <time>2023-08-18T15:01:37Z</time>
      </trkpt>
      <trkpt lat="57.625681031495333" lon="-3.489611009135842">
        <ele>60.219999999999999</ele>
        <time>2023-08-18T15:01:38Z</time>
      </trkpt>
      <trkpt lat="57.625803994014859" lon="-3.491395013406873">
        <ele>60.700000000000003</ele>
        <time>2023-08-18T15:01:45Z</time>
      </trkpt>
      <trkpt lat="57.625786978751421" lon="-3.491646973416209">
        <ele>60.700000000000003</ele>
        <time>2023-08-18T15:01:46Z</time>
      </trkpt>
      <trkpt lat="57.625572988763452" lon="-3.494880041107535">
        <ele>58.299999999999997</ele>
        <time>2023-08-18T15:01:57Z</time>
      </trkpt>
      <trkpt lat="57.625393029302359" lon="-3.497200990095735">
        <ele>57.340000000000003</ele>
        <time>2023-08-18T15:02:05Z</time>
      </trkpt>
      <trkpt lat="57.625353969633579" lon="-3.497435012832284">
        <ele>57.340000000000003</ele>
        <time>2023-08-18T15:02:06Z</time>
      </trkpt>
      <trkpt lat="57.625267971307039" lon="-3.497652020305395">
        <ele>56.859999999999999</ele>
        <time>2023-08-18T15:02:07Z</time>
      </trkpt>
      <trkpt lat="57.625180967152119" lon="-3.497859975323081">
        <ele>56.859999999999999</ele>
        <time>2023-08-18T15:02:08Z</time>
      </trkpt>
      <trkpt lat="57.625093040987849" lon="-3.498072037473321">
        <ele>56.369999999999997</ele>
        <time>2023-08-18T15:02:09Z</time>
      </trkpt>
      <trkpt lat="57.623708015307784" lon="-3.501494033262134">
        <ele>55.890000000000001</ele>
        <time>2023-08-18T15:02:24Z</time>
      </trkpt>
      <trkpt lat="57.622557012364268" lon="-3.504104996100068">
        <ele>59.259999999999998</ele>
        <time>2023-08-18T15:02:36Z</time>
      </trkpt>
      <trkpt lat="57.620850959792733" lon="-3.50784600712359">
        <ele>63.579999999999998</ele>
        <time>2023-08-18T15:02:54Z</time>
      </trkpt>
      <trkpt lat="57.620332036167383" lon="-3.508930960670114">
        <ele>64.549999999999997</ele>
        <time>2023-08-18T15:03:01Z</time>
      </trkpt>
      <trkpt lat="57.620136989280581" lon="-3.509337985888124">
        <ele>65.989999999999995</ele>
        <time>2023-08-18T15:03:08Z</time>
      </trkpt>
      <trkpt lat="57.620094995945692" lon="-3.509270008653402">
        <ele>66.469999999999999</ele>
        <time>2023-08-18T15:03:09Z</time>
      </trkpt>
      <trkpt lat="57.620055014267564" lon="-3.509207982569933">
        <ele>66.469999999999999</ele>
        <time>2023-08-18T15:03:10Z</time>
      </trkpt>
      <trkpt lat="57.62000598013401" lon="-3.509129025042057">
        <ele>66.950000000000003</ele>
        <time>2023-08-18T15:03:11Z</time>
      </trkpt>
      <trkpt lat="57.619950994849205" lon="-3.509043026715517">
        <ele>66.950000000000003</ele>
        <time>2023-08-18T15:03:12Z</time>
      </trkpt>
      <trkpt lat="57.61989701539278" lon="-3.508957028388977">
        <ele>66.950000000000003</ele>
        <time>2023-08-18T15:03:13Z</time>
      </trkpt>
      <trkpt lat="57.619741028174758" lon="-3.508651005104184">
        <ele>66.950000000000003</ele>
        <time>2023-08-18T15:03:16Z</time>
      </trkpt>
      <trkpt lat="57.619700962677598" lon="-3.50851396098733">
        <ele>66.950000000000003</ele>
        <time>2023-08-18T15:03:17Z</time>
      </trkpt>
      <trkpt lat="57.619624016806483" lon="-3.5082530323416">
        <ele>66.950000000000003</ele>
        <time>2023-08-18T15:03:19Z</time>
      </trkpt>
      <trkpt lat="57.619556039571762" lon="-3.508022027090192">
        <ele>65.989999999999995</ele>
        <time>2023-08-18T15:03:21Z</time>
      </trkpt>
      <trkpt lat="57.619527960196137" lon="-3.507919013500214">
        <ele>65.510000000000005</ele>
        <time>2023-08-18T15:03:22Z</time>
      </trkpt>
      <trkpt lat="57.619494013488293" lon="-3.507793033495545">
        <ele>65.030000000000001</ele>
        <time>2023-08-18T15:03:23Z</time>
      </trkpt>
      <trkpt lat="57.619442967697978" lon="-3.507754979655147">
        <ele>64.549999999999997</ele>
        <time>2023-08-18T15:03:24Z</time>
      </trkpt>
      <trkpt lat="57.619363004341722" lon="-3.507705023512244">
        <ele>64.549999999999997</ele>
        <time>2023-08-18T15:03:25Z</time>
      </trkpt>
      <trkpt lat="57.619271976873279" lon="-3.507658001035452">
        <ele>63.579999999999998</ele>
        <time>2023-08-18T15:03:26Z</time>
      </trkpt>
      <trkpt lat="57.617948977276683" lon="-3.506962973624468">
        <ele>66.469999999999999</ele>
        <time>2023-08-18T15:03:38Z</time>
      </trkpt>
      <trkpt lat="57.616431014612317" lon="-3.506166022270918">
        <ele>71.269999999999996</ele>
        <time>2023-08-18T15:03:50Z</time>
      </trkpt>
      <trkpt lat="57.615368021652102" lon="-3.505818005651236">
        <ele>79.930000000000007</ele>
        <time>2023-08-18T15:03:58Z</time>
      </trkpt>
      <trkpt lat="57.61394402012229" lon="-3.505695965141058">
        <ele>94.829999999999998</ele>
        <time>2023-08-18T15:04:09Z</time>
      </trkpt>
      <trkpt lat="57.612884966656566" lon="-3.505604015663266">
        <ele>103.95999999999999</ele>
        <time>2023-08-18T15:04:17Z</time>
      </trkpt>
      <trkpt lat="57.612740965560079" lon="-3.505534026771784">
        <ele>104.92</ele>
        <time>2023-08-18T15:04:18Z</time>
      </trkpt>
      <trkpt lat="57.611952982842922" lon="-3.505144016817212">
        <ele>109.73</ele>
        <time>2023-08-18T15:04:24Z</time>
      </trkpt>
      <trkpt lat="57.61143296957016" lon="-3.504830030724406">
        <ele>112.61</ele>
        <time>2023-08-18T15:04:28Z</time>
      </trkpt>
      <trkpt lat="57.611307995393872" lon="-3.504755012691021">
        <ele>113.09</ele>
        <time>2023-08-18T15:04:29Z</time>
      </trkpt>
      <trkpt lat="57.61033502407372" lon="-3.504168028011918">
        <ele>118.86</ele>
        <time>2023-08-18T15:04:38Z</time>
      </trkpt>
      <trkpt lat="57.609351994469762" lon="-3.503575008362532">
        <ele>124.15000000000001</ele>
        <time>2023-08-18T15:04:46Z</time>
      </trkpt>
      <trkpt lat="57.609206987544894" lon="-3.503486998379231">
        <ele>125.11</ele>
        <time>2023-08-18T15:04:47Z</time>
      </trkpt>
      <trkpt lat="57.607853980734944" lon="-3.502670014277101">
        <ele>130.88</ele>
        <time>2023-08-18T15:04:57Z</time>
      </trkpt>
      <trkpt lat="57.607786003500223" lon="-3.502630032598972">
        <ele>131.36000000000001</ele>
        <time>2023-08-18T15:04:58Z</time>
      </trkpt>
      <trkpt lat="57.607735963538289" lon="-3.502599019557238">
        <ele>131.36000000000001</ele>
        <time>2023-08-18T15:04:59Z</time>
      </trkpt>
      <trkpt lat="57.60769497603178" lon="-3.502574963495135">
        <ele>131.84</ele>
        <time>2023-08-18T15:05:00Z</time>
      </trkpt>
      <trkpt lat="57.607662035152316" lon="-3.502555014565587">
        <ele>132.31999999999999</ele>
        <time>2023-08-18T15:05:01Z</time>
      </trkpt>
      <trkpt lat="57.60762901045382" lon="-3.502534981817007">
        <ele>132.31999999999999</ele>
        <time>2023-08-18T15:05:02Z</time>
      </trkpt>
      <trkpt lat="57.607527002692223" lon="-3.502473039552569">
        <ele>135.19999999999999</ele>
        <time>2023-08-18T15:05:10Z</time>
      </trkpt>
      <trkpt lat="57.607326004654169" lon="-3.502352004870772">
        <ele>136.63999999999999</ele>
        <time>2023-08-18T15:05:22Z</time>
      </trkpt>
      <trkpt lat="57.606415981426835" lon="-3.501802990213037">
        <ele>141.93000000000001</ele>
        <time>2023-08-18T15:05:32Z</time>
      </trkpt>
      <trkpt lat="57.605269001796842" lon="-3.501110980287194">
        <ele>152.50999999999999</ele>
        <time>2023-08-18T15:05:42Z</time>
      </trkpt>
      <trkpt lat="57.604588977992535" lon="-3.500700015574694">
        <ele>159.72</ele>
        <time>2023-08-18T15:05:50Z</time>
      </trkpt>
      <trkpt lat="57.604529969394207" lon="-3.500664979219437">
        <ele>160.68000000000001</ele>
        <time>2023-08-18T15:05:51Z</time>
      </trkpt>
      <trkpt lat="57.604476995766163" lon="-3.500632960349321">
        <ele>161.63999999999999</ele>
        <time>2023-08-18T15:05:52Z</time>
      </trkpt>
      <trkpt lat="57.604384040459991" lon="-3.500747960060835">
        <ele>162.12</ele>
        <time>2023-08-18T15:05:53Z</time>
      </trkpt>
      <trkpt lat="57.604341041296721" lon="-3.500879975035787">
        <ele>162.59999999999999</ele>
        <time>2023-08-18T15:05:54Z</time>
      </trkpt>
      <trkpt lat="57.604286978021264" lon="-3.501044008880854">
        <ele>162.59999999999999</ele>
        <time>2023-08-18T15:05:55Z</time>
      </trkpt>
      <trkpt lat="57.604226041585207" lon="-3.501231009140611">
        <ele>162.59999999999999</ele>
        <time>2023-08-18T15:05:56Z</time>
      </trkpt>
      <trkpt lat="57.603627992793918" lon="-3.503063041716814">
        <ele>161.63999999999999</ele>
        <time>2023-08-18T15:06:04Z</time>
      </trkpt>
      <trkpt lat="57.60333102196455" lon="-3.503975998610258">
        <ele>161.16</ele>
        <time>2023-08-18T15:06:08Z</time>
      </trkpt>
      <trkpt lat="57.603273019194603" lon="-3.504153024405241">
        <ele>160.68000000000001</ele>
        <time>2023-08-18T15:06:09Z</time>
      </trkpt>
      <trkpt lat="57.603227002546191" lon="-3.504295013844967">
        <ele>160.19999999999999</ele>
        <time>2023-08-18T15:06:10Z</time>
      </trkpt>
      <trkpt lat="57.603185009211302" lon="-3.504424011334777">
        <ele>160.19999999999999</ele>
        <time>2023-08-18T15:06:11Z</time>
      </trkpt>
      <trkpt lat="57.603147039189935" lon="-3.50453901104629">
        <ele>160.19999999999999</ele>
        <time>2023-08-18T15:06:12Z</time>
      </trkpt>
      <trkpt lat="57.6031160261482" lon="-3.504632972180843">
        <ele>160.19999999999999</ele>
        <time>2023-08-18T15:06:13Z</time>
      </trkpt>
      <trkpt lat="57.603090964257717" lon="-3.50471000187099">
        <ele>160.19999999999999</ele>
        <time>2023-08-18T15:06:14Z</time>
      </trkpt>
      <trkpt lat="57.603075038641691" lon="-3.504761969670653">
        <ele>160.19999999999999</ele>
        <time>2023-08-18T15:06:15Z</time>
      </trkpt>
      <trkpt lat="57.603062968701124" lon="-3.504798011854291">
        <ele>160.19999999999999</ele>
        <time>2023-08-18T15:06:16Z</time>
      </trkpt>
      <trkpt lat="57.603004965931177" lon="-3.504975037649274">
        <ele>160.19999999999999</ele>
        <time>2023-08-18T15:06:27Z</time>
      </trkpt>
      <trkpt lat="57.602933971211314" lon="-3.505193972960115">
        <ele>160.19999999999999</ele>
        <time>2023-08-18T15:06:36Z</time>
      </trkpt>
      <trkpt lat="57.602595007047057" lon="-3.506231987848878">
        <ele>159.24000000000001</ele>
        <time>2023-08-18T15:06:43Z</time>
      </trkpt>
      <trkpt lat="57.602116987109184" lon="-3.50769798271358">
        <ele>158.27000000000001</ele>
        <time>2023-08-18T15:06:50Z</time>
      </trkpt>
      <trkpt lat="57.601113002747297" lon="-3.510776991024613">
        <ele>163.56</ele>
        <time>2023-08-18T15:07:03Z</time>
      </trkpt>
      <trkpt lat="57.600340023636818" lon="-3.513174969702959">
        <ele>165.96000000000001</ele>
        <time>2023-08-18T15:07:13Z</time>
      </trkpt>
      <trkpt lat="57.599650025367737" lon="-3.515330040827394">
        <ele>169.81</ele>
        <time>2023-08-18T15:07:22Z</time>
      </trkpt>
      <trkpt lat="57.599001014605165" lon="-3.517357958480716">
        <ele>172.69</ele>
        <time>2023-08-18T15:07:30Z</time>
      </trkpt>
      <trkpt lat="57.598915016278625" lon="-3.517626011744142">
        <ele>172.69</ele>
        <time>2023-08-18T15:07:31Z</time>
      </trkpt>
      <trkpt lat="57.598253013566136" lon="-3.519696006551385">
        <ele>175.58000000000001</ele>
        <time>2023-08-18T15:07:40Z</time>
      </trkpt>
      <trkpt lat="57.597498977556825" lon="-3.521893993020058">
        <ele>182.78999999999999</ele>
        <time>2023-08-18T15:07:50Z</time>
      </trkpt>
      <trkpt lat="57.597327986732125" lon="-3.522379975765944">
        <ele>183.75</ele>
        <time>2023-08-18T15:07:52Z</time>
      </trkpt>
      <trkpt lat="57.597244000062346" lon="-3.522619027644396">
        <ele>183.27000000000001</ele>
        <time>2023-08-18T15:07:53Z</time>
      </trkpt>
      <trkpt lat="57.596729015931487" lon="-3.52408803999424">
        <ele>181.34999999999999</ele>
        <time>2023-08-18T15:07:59Z</time>
      </trkpt>
      <trkpt lat="57.596644023433328" lon="-3.524331031367183">
        <ele>180.38</ele>
        <time>2023-08-18T15:08:00Z</time>
      </trkpt>
      <trkpt lat="57.596560036763549" lon="-3.524569999426603">
        <ele>179.41999999999999</ele>
        <time>2023-08-18T15:08:01Z</time>
      </trkpt>
      <trkpt lat="57.596008004620671" lon="-3.526145964860916">
        <ele>173.66</ele>
        <time>2023-08-18T15:08:08Z</time>
      </trkpt>
      <trkpt lat="57.595372991636395" lon="-3.527956958860159">
        <ele>167.88999999999999</ele>
        <time>2023-08-18T15:08:16Z</time>
      </trkpt>
      <trkpt lat="57.595214992761612" lon="-3.528405977413058">
        <ele>165.96000000000001</ele>
        <time>2023-08-18T15:08:18Z</time>
      </trkpt>
      <trkpt lat="57.595131006091833" lon="-3.528647040948272">
        <ele>165</ele>
        <time>2023-08-18T15:08:19Z</time>
      </trkpt>
      <trkpt lat="57.595045007765293" lon="-3.528892965987325">
        <ele>164.03999999999999</ele>
        <time>2023-08-18T15:08:20Z</time>
      </trkpt>
      <trkpt lat="57.594333970919251" lon="-3.530919961631298">
        <ele>162.12</ele>
        <time>2023-08-18T15:08:29Z</time>
      </trkpt>
      <trkpt lat="57.593759978190064" lon="-3.532558036968112">
        <ele>161.63999999999999</ele>
        <time>2023-08-18T15:08:37Z</time>
      </trkpt>
      <trkpt lat="57.593697030097246" lon="-3.532735984772444">
        <ele>161.63999999999999</ele>
        <time>2023-08-18T15:08:38Z</time>
      </trkpt>
      <trkpt lat="57.593637015670538" lon="-3.532909993082285">
        <ele>162.59999999999999</ele>
        <time>2023-08-18T15:08:39Z</time>
      </trkpt>
      <trkpt lat="57.59353400208056" lon="-3.533275024965406">
        <ele>163.56</ele>
        <time>2023-08-18T15:08:41Z</time>
      </trkpt>
      <trkpt lat="57.593495026230812" lon="-3.533461019396782">
        <ele>164.03999999999999</ele>
        <time>2023-08-18T15:08:42Z</time>
      </trkpt>
      <trkpt lat="57.59349100291729" lon="-3.533699987456203">
        <ele>164.03999999999999</ele>
        <time>2023-08-18T15:08:43Z</time>
      </trkpt>
      <trkpt lat="57.593499971553683" lon="-3.534152023494244">
        <ele>164.03999999999999</ele>
        <time>2023-08-18T15:08:45Z</time>
      </trkpt>
      <trkpt lat="57.593510029837489" lon="-3.53463800624013">
        <ele>163.08000000000001</ele>
        <time>2023-08-18T15:08:47Z</time>
      </trkpt>
      <trkpt lat="57.593520004302263" lon="-3.535137986764312">
        <ele>162.59999999999999</ele>
        <time>2023-08-18T15:08:49Z</time>
      </trkpt>
      <trkpt lat="57.593525033444166" lon="-3.535386007279158">
        <ele>162.12</ele>
        <time>2023-08-18T15:08:50Z</time>
      </trkpt>
      <trkpt lat="57.593568032607436" lon="-3.537479974329472">
        <ele>162.59999999999999</ele>
        <time>2023-08-18T15:09:00Z</time>
      </trkpt>
      <trkpt lat="57.593572977930307" lon="-3.537725983187556">
        <ele>162.12</ele>
        <time>2023-08-18T15:09:04Z</time>
      </trkpt>
      <trkpt lat="57.59364103898406" lon="-3.537875013425946">
        <ele>162.12</ele>
        <time>2023-08-18T15:09:05Z</time>
      </trkpt>
      <trkpt lat="57.593680014833808" lon="-3.537962017580867">
        <ele>161.63999999999999</ele>
        <time>2023-08-18T15:09:06Z</time>
      </trkpt>
      <trkpt lat="57.594189969822764" lon="-3.539143027737737">
        <ele>156.34999999999999</ele>
        <time>2023-08-18T15:09:14Z</time>
      </trkpt>
      <trkpt lat="57.595341978594661" lon="-3.541866978630424">
        <ele>142.41</ele>
        <time>2023-08-18T15:09:30Z</time>
      </trkpt>
      <trkpt lat="57.595826033502817" lon="-3.543047988787293">
        <ele>132.80000000000001</ele>
        <time>2023-08-18T15:09:39Z</time>
      </trkpt>
      <trkpt lat="57.595898034051061" lon="-3.543052012100816">
        <ele>128.47</ele>
        <time>2023-08-18T15:09:48Z</time>
      </trkpt>
      <trkpt lat="57.596054021269083" lon="-3.54306198656559">
        <ele>128.94999999999999</ele>
        <time>2023-08-18T15:10:27Z</time>
      </trkpt>
      <trkpt lat="57.596200034022331" lon="-3.543071039021015">
        <ele>127.98999999999999</ele>
        <time>2023-08-18T15:10:29Z</time>
      </trkpt>
      <trkpt lat="57.596351997926831" lon="-3.543080007657409">
        <ele>127.03</ele>
        <time>2023-08-18T15:10:31Z</time>
      </trkpt>
      <trkpt lat="57.596533969044685" lon="-3.543090987950563">
        <ele>125.11</ele>
        <time>2023-08-18T15:10:34Z</time>
      </trkpt>
      <trkpt lat="57.596636982634664" lon="-3.543230965733528">
        <ele>124.15000000000001</ele>
        <time>2023-08-18T15:10:35Z</time>
      </trkpt>
      <trkpt lat="57.596694985404611" lon="-3.543310007080436">
        <ele>123.67</ele>
        <time>2023-08-18T15:10:36Z</time>
      </trkpt>
      <trkpt lat="57.59675701148808" lon="-3.543392987921834">
        <ele>122.70999999999999</ele>
        <time>2023-08-18T15:10:37Z</time>
      </trkpt>
      <trkpt lat="57.596819037571549" lon="-3.543477980419993">
        <ele>122.22</ele>
        <time>2023-08-18T15:10:38Z</time>
      </trkpt>
      <trkpt lat="57.596834041178226" lon="-3.543499018996954">
        <ele>121.26000000000001</ele>
        <time>2023-08-18T15:10:39Z</time>
      </trkpt>
      <trkpt lat="57.59684300981462" lon="-3.543652994558215">
        <ele>120.78</ele>
        <time>2023-08-18T15:10:40Z</time>
      </trkpt>
      <trkpt lat="57.596850972622633" lon="-3.543790960684419">
        <ele>120.3</ele>
        <time>2023-08-18T15:10:41Z</time>
      </trkpt>
      <trkpt lat="57.596856001764536" lon="-3.543862961232662">
        <ele>119.34</ele>
        <time>2023-08-18T15:10:42Z</time>
      </trkpt>
      <trkpt lat="57.596821971237659" lon="-3.543948959559202">
        <ele>118.86</ele>
        <time>2023-08-18T15:10:43Z</time>
      </trkpt>
      <trkpt lat="57.596774026751518" lon="-3.54407100006938">
        <ele>118.38</ele>
        <time>2023-08-18T15:10:44Z</time>
      </trkpt>
      <trkpt lat="57.596724992617965" lon="-3.544197985902429">
        <ele>118.38</ele>
        <time>2023-08-18T15:10:45Z</time>
      </trkpt>
      <trkpt lat="57.596674030646682" lon="-3.544325977563858">
        <ele>118.38</ele>
        <time>2023-08-18T15:10:46Z</time>
      </trkpt>
      <trkpt lat="57.59662801399827" lon="-3.544445000588894">
        <ele>117.90000000000001</ele>
        <time>2023-08-18T15:10:47Z</time>
      </trkpt>
      <trkpt lat="57.596604041755199" lon="-3.544572992250323">
        <ele>117.42</ele>
        <time>2023-08-18T15:10:48Z</time>
      </trkpt>
      <trkpt lat="57.596576968207955" lon="-3.544765021651983">
        <ele>116.94</ele>
        <time>2023-08-18T15:10:49Z</time>
      </trkpt>
      <trkpt lat="57.596584009006619" lon="-3.544837022200227">
        <ele>116.45999999999999</ele>
        <time>2023-08-18T15:10:50Z</time>
      </trkpt>
      <trkpt lat="57.596608987078071" lon="-3.54501698166132">
        <ele>115.98</ele>
        <time>2023-08-18T15:10:51Z</time>
      </trkpt>
      <trkpt lat="57.596659027040005" lon="-3.545184032991529">
        <ele>115.5</ele>
        <time>2023-08-18T15:10:52Z</time>
      </trkpt>
      <trkpt lat="57.596713006496429" lon="-3.545366004109383">
        <ele>114.53</ele>
        <time>2023-08-18T15:10:53Z</time>
      </trkpt>
      <trkpt lat="57.596949962899089" lon="-3.546163039281964">
        <ele>109.25</ele>
        <time>2023-08-18T15:10:59Z</time>
      </trkpt>
      <trkpt lat="57.596997991204262" lon="-3.546323971822858">
        <ele>108.29000000000001</ele>
        <time>2023-08-18T15:11:00Z</time>
      </trkpt>
      <trkpt lat="57.597022969275713" lon="-3.546497980132699">
        <ele>107.31999999999999</ele>
        <time>2023-08-18T15:11:01Z</time>
      </trkpt>
      <trkpt lat="57.597047025337815" lon="-3.546699983999133">
        <ele>105.88</ele>
        <time>2023-08-18T15:11:02Z</time>
      </trkpt>
      <trkpt lat="57.597072003409266" lon="-3.546916991472244">
        <ele>104.92</ele>
        <time>2023-08-18T15:11:03Z</time>
      </trkpt>
      <trkpt lat="57.597098993137479" lon="-3.547146990895271">
        <ele>103.95999999999999</ele>
        <time>2023-08-18T15:11:04Z</time>
      </trkpt>
      <trkpt lat="57.597534013912082" lon="-3.549451008439064">
        <ele>94.349999999999994</ele>
        <time>2023-08-18T15:11:13Z</time>
      </trkpt>
      <trkpt lat="57.598382011055946" lon="-3.552903011441231">
        <ele>91.939999999999998</ele>
        <time>2023-08-18T15:11:27Z</time>
      </trkpt>
      <trkpt lat="57.598446970805526" lon="-3.553165029734373">
        <ele>92.900000000000006</ele>
        <time>2023-08-18T15:11:32Z</time>
      </trkpt>
      <trkpt lat="57.598453005775809" lon="-3.553189001977444">
        <ele>93.390000000000001</ele>
        <time>2023-08-18T15:11:33Z</time>
      </trkpt>
      <trkpt lat="57.598657021299005" lon="-3.553756959736347">
        <ele>93.870000000000005</ele>
        <time>2023-08-18T15:11:39Z</time>
      </trkpt>
      <trkpt lat="57.599183991551399" lon="-3.55518096126616">
        <ele>96.269999999999996</ele>
        <time>2023-08-18T15:11:46Z</time>
      </trkpt>
      <trkpt lat="57.600170960649848" lon="-3.55784498155117">
        <ele>95.790000000000006</ele>
        <time>2023-08-18T15:11:58Z</time>
      </trkpt>
      <trkpt lat="57.600770015269518" lon="-3.559489008039236">
        <ele>90.019999999999996</ele>
        <time>2023-08-18T15:12:06Z</time>
      </trkpt>
      <trkpt lat="57.600976964458823" lon="-3.560111029073596">
        <ele>88.099999999999994</ele>
        <time>2023-08-18T15:12:09Z</time>
      </trkpt>
      <trkpt lat="57.601049970835447" lon="-3.560328958556056">
        <ele>87.620000000000005</ele>
        <time>2023-08-18T15:12:10Z</time>
      </trkpt>
      <trkpt lat="57.601652964949608" lon="-3.562149005010724">
        <ele>84.25</ele>
        <time>2023-08-18T15:12:18Z</time>
      </trkpt>
      <trkpt lat="57.602134002372622" lon="-3.564585037529469">
        <ele>77.040000000000006</ele>
        <time>2023-08-18T15:12:28Z</time>
      </trkpt>
      <trkpt lat="57.602198962122202" lon="-3.565261038020253">
        <ele>74.640000000000001</ele>
        <time>2023-08-18T15:12:31Z</time>
      </trkpt>
      <trkpt lat="57.602198962122202" lon="-3.565463041886687">
        <ele>73.680000000000007</ele>
        <time>2023-08-18T15:12:32Z</time>
      </trkpt>
      <trkpt lat="57.602198962122202" lon="-3.56566596776247">
        <ele>73.200000000000003</ele>
        <time>2023-08-18T15:12:33Z</time>
      </trkpt>
      <trkpt lat="57.602178007364273" lon="-3.566060001030564">
        <ele>70.790000000000006</ele>
        <time>2023-08-18T15:12:35Z</time>
      </trkpt>
      <trkpt lat="57.602142971009016" lon="-3.566251024603844">
        <ele>69.829999999999998</ele>
        <time>2023-08-18T15:12:36Z</time>
      </trkpt>
      <trkpt lat="57.601793026551604" lon="-3.568191016092897">
        <ele>62.140000000000001</ele>
        <time>2023-08-18T15:12:45Z</time>
      </trkpt>
      <trkpt lat="57.601292040199041" lon="-3.570913039147854">
        <ele>49.649999999999999</ele>
        <time>2023-08-18T15:12:57Z</time>
      </trkpt>
      <trkpt lat="57.60124702937901" lon="-3.571147983893752">
        <ele>48.200000000000003</ele>
        <time>2023-08-18T15:12:58Z</time>
      </trkpt>
      <trkpt lat="57.600987022742629" lon="-3.572381967678666">
        <ele>40.509999999999998</ele>
        <time>2023-08-18T15:13:03Z</time>
      </trkpt>
      <trkpt lat="57.600702960044146" lon="-3.573297020047903">
        <ele>35.710000000000001</ele>
        <time>2023-08-18T15:13:07Z</time>
      </trkpt>
      <trkpt lat="57.600659038871527" lon="-3.573542023077607">
        <ele>34.740000000000002</ele>
        <time>2023-08-18T15:13:08Z</time>
      </trkpt>
      <trkpt lat="57.600616961717606" lon="-3.573780991137028">
        <ele>34.259999999999998</ele>
        <time>2023-08-18T15:13:09Z</time>
      </trkpt>
      <trkpt lat="57.600568011403084" lon="-3.574053989723325">
        <ele>33.780000000000001</ele>
        <time>2023-08-18T15:13:10Z</time>
      </trkpt>
      <trkpt lat="57.600581003353" lon="-3.574225986376405">
        <ele>33.780000000000001</ele>
        <time>2023-08-18T15:13:11Z</time>
      </trkpt>
      <trkpt lat="57.600599024444818" lon="-3.57445296831429">
        <ele>33.299999999999997</ele>
        <time>2023-08-18T15:13:12Z</time>
      </trkpt>
      <trkpt lat="57.600633976981044" lon="-3.574666958302259">
        <ele>33.299999999999997</ele>
        <time>2023-08-18T15:13:13Z</time>
      </trkpt>
      <trkpt lat="57.600713018327951" lon="-3.574858987703919">
        <ele>33.780000000000001</ele>
        <time>2023-08-18T15:13:14Z</time>
      </trkpt>
      <trkpt lat="57.600794993340969" lon="-3.575056968256831">
        <ele>33.299999999999997</ele>
        <time>2023-08-18T15:13:15Z</time>
      </trkpt>
      <trkpt lat="57.601323975250125" lon="-3.576174024492502">
        <ele>32.340000000000003</ele>
        <time>2023-08-18T15:13:21Z</time>
      </trkpt>
      <trkpt lat="57.601394969969988" lon="-3.576365970075131">
        <ele>32.340000000000003</ele>
        <time>2023-08-18T15:13:22Z</time>
      </trkpt>
      <trkpt lat="57.601429000496864" lon="-3.576589012518525">
        <ele>32.340000000000003</ele>
        <time>2023-08-18T15:13:23Z</time>
      </trkpt>
      <trkpt lat="57.601450961083174" lon="-3.576819011941552">
        <ele>32.340000000000003</ele>
        <time>2023-08-18T15:13:24Z</time>
      </trkpt>
      <trkpt lat="57.601459007710218" lon="-3.577059991657734">
        <ele>32.340000000000003</ele>
        <time>2023-08-18T15:13:25Z</time>
      </trkpt>
      <trkpt lat="57.601465964689851" lon="-3.577311029657722">
        <ele>31.859999999999999</ele>
        <time>2023-08-18T15:13:26Z</time>
      </trkpt>
      <trkpt lat="57.601475017145276" lon="-3.577573969960213">
        <ele>31.859999999999999</ele>
        <time>2023-08-18T15:13:27Z</time>
      </trkpt>
      <trkpt lat="57.601607032120228" lon="-3.580283001065254">
        <ele>30.899999999999999</ele>
        <time>2023-08-18T15:13:37Z</time>
      </trkpt>
      <trkpt lat="57.601642990484834" lon="-3.580966964364052">
        <ele>30.899999999999999</ele>
        <time>2023-08-18T15:13:40Z</time>
      </trkpt>
      <trkpt lat="57.601807024329901" lon="-3.583195963874459">
        <ele>30.899999999999999</ele>
        <time>2023-08-18T15:13:50Z</time>
      </trkpt>
      <trkpt lat="57.601852035149932" lon="-3.583511961624026">
        <ele>30.899999999999999</ele>
        <time>2023-08-18T15:13:55Z</time>
      </trkpt>
      <trkpt lat="57.6018709782511" lon="-3.583591002970934">
        <ele>30.420000000000002</ele>
        <time>2023-08-18T15:13:56Z</time>
      </trkpt>
      <trkpt lat="57.602091003209352" lon="-3.584588030353189">
        <ele>31.859999999999999</ele>
        <time>2023-08-18T15:14:02Z</time>
      </trkpt>
      <trkpt lat="57.602402977645397" lon="-3.586592981591821">
        <ele>31.859999999999999</ele>
        <time>2023-08-18T15:14:12Z</time>
      </trkpt>
      <trkpt lat="57.602781001478434" lon="-3.589191036298871">
        <ele>33.299999999999997</ele>
        <time>2023-08-18T15:14:28Z</time>
      </trkpt>
      <trkpt lat="57.602793993428349" lon="-3.589360015466809">
        <ele>33.299999999999997</ele>
        <time>2023-08-18T15:14:29Z</time>
      </trkpt>
      <trkpt lat="57.602806985378265" lon="-3.58953402377665">
        <ele>33.780000000000001</ele>
        <time>2023-08-18T15:14:30Z</time>
      </trkpt>
      <trkpt lat="57.602826012298465" lon="-3.589884974062443">
        <ele>34.259999999999998</ele>
        <time>2023-08-18T15:14:32Z</time>
      </trkpt>
      <trkpt lat="57.602835986763239" lon="-3.590229973196983">
        <ele>35.229999999999997</ele>
        <time>2023-08-18T15:14:34Z</time>
      </trkpt>
      <trkpt lat="57.602841015905142" lon="-3.590404987335205">
        <ele>35.710000000000001</ele>
        <time>2023-08-18T15:14:35Z</time>
      </trkpt>
      <trkpt lat="57.602912010625005" lon="-3.59185497276485">
        <ele>40.030000000000001</ele>
        <time>2023-08-18T15:14:43Z</time>
      </trkpt>
      <trkpt lat="57.602956015616655" lon="-3.592235008254647">
        <ele>41.469999999999999</ele>
        <time>2023-08-18T15:14:45Z</time>
      </trkpt>
      <trkpt lat="57.602989040315151" lon="-3.592422008514404">
        <ele>42.439999999999998</ele>
        <time>2023-08-18T15:14:46Z</time>
      </trkpt>
      <trkpt lat="57.603041008114815" lon="-3.592588976025581">
        <ele>43.399999999999999</ele>
        <time>2023-08-18T15:14:47Z</time>
      </trkpt>
      <trkpt lat="57.603096999228001" lon="-3.592757033184171">
        <ele>43.880000000000003</ele>
        <time>2023-08-18T15:14:48Z</time>
      </trkpt>
      <trkpt lat="57.603161036968231" lon="-3.592910002917051">
        <ele>44.840000000000003</ele>
        <time>2023-08-18T15:14:49Z</time>
      </trkpt>
      <trkpt lat="57.603235971182585" lon="-3.593043023720384">
        <ele>45.32</ele>
        <time>2023-08-18T15:14:50Z</time>
      </trkpt>
      <trkpt lat="57.603320963680744" lon="-3.59316598623991">
        <ele>45.799999999999997</ele>
        <time>2023-08-18T15:14:51Z</time>
      </trkpt>
      <trkpt lat="57.604139959439635" lon="-3.59462502412498">
        <ele>47.719999999999999</ele>
        <time>2023-08-18T15:15:01Z</time>
      </trkpt>
      <trkpt lat="57.604729039594531" lon="-3.596397964283824">
        <ele>47.240000000000002</ele>
        <time>2023-08-18T15:15:10Z</time>
      </trkpt>
      <trkpt lat="57.60545801371336" lon="-3.59780696220696">
        <ele>44.840000000000003</ele>
        <time>2023-08-18T15:15:19Z</time>
      </trkpt>
      <trkpt lat="57.606389997527003" lon="-3.599594989791513">
        <ele>42.439999999999998</ele>
        <time>2023-08-18T15:15:31Z</time>
      </trkpt>
      <trkpt lat="57.606442971155047" lon="-3.599764974787831">
        <ele>42.439999999999998</ele>
        <time>2023-08-18T15:15:32Z</time>
      </trkpt>
      <trkpt lat="57.606857037171721" lon="-3.601381005719304">
        <ele>40.509999999999998</ele>
        <time>2023-08-18T15:15:40Z</time>
      </trkpt>
      <trkpt lat="57.60724101215601" lon="-3.603708995506167">
        <ele>33.780000000000001</ele>
        <time>2023-08-18T15:15:51Z</time>
      </trkpt>
      <trkpt lat="57.607838977128267" lon="-3.605434997007251">
        <ele>31.379999999999999</ele>
        <time>2023-08-18T15:16:01Z</time>
      </trkpt>
      <trkpt lat="57.608072999864817" lon="-3.606043020263314">
        <ele>30.420000000000002</ele>
        <time>2023-08-18T15:16:05Z</time>
      </trkpt>
      <trkpt lat="57.60818699374795" lon="-3.606328004971147">
        <ele>29.940000000000001</ele>
        <time>2023-08-18T15:16:07Z</time>
      </trkpt>
      <trkpt lat="57.608243990689516" lon="-3.606476029381156">
        <ele>30.420000000000002</ele>
        <time>2023-08-18T15:16:08Z</time>
      </trkpt>
      <trkpt lat="57.608474995940924" lon="-3.607080029323697">
        <ele>30.420000000000002</ele>
        <time>2023-08-18T15:16:12Z</time>
      </trkpt>
      <trkpt lat="57.608520006760955" lon="-3.607251020148397">
        <ele>29.940000000000001</ele>
        <time>2023-08-18T15:16:13Z</time>
      </trkpt>
      <trkpt lat="57.608545990660787" lon="-3.607427040114999">
        <ele>29.940000000000001</ele>
        <time>2023-08-18T15:16:14Z</time>
      </trkpt>
      <trkpt lat="57.608793005347252" lon="-3.609224036335945">
        <ele>23.690000000000001</ele>
        <time>2023-08-18T15:16:25Z</time>
      </trkpt>
      <trkpt lat="57.608845978975296" lon="-3.609618991613388">
        <ele>21.77</ele>
        <time>2023-08-18T15:16:29Z</time>
      </trkpt>
      <trkpt lat="57.608856037259102" lon="-3.609695015475154">
        <ele>21.289999999999999</ele>
        <time>2023-08-18T15:16:30Z</time>
      </trkpt>
      <trkpt lat="57.608866011723876" lon="-3.609769027680159">
        <ele>20.809999999999999</ele>
        <time>2023-08-18T15:16:31Z</time>
      </trkpt>
      <trkpt lat="57.608885038644075" lon="-3.609912022948265">
        <ele>19.84</ele>
        <time>2023-08-18T15:16:33Z</time>
      </trkpt>
      <trkpt lat="57.608894007280469" lon="-3.609973965212703">
        <ele>19.359999999999999</ele>
        <time>2023-08-18T15:16:34Z</time>
      </trkpt>
      <trkpt lat="57.608886966481805" lon="-3.610057029873133">
        <ele>18.879999999999999</ele>
        <time>2023-08-18T15:16:35Z</time>
      </trkpt>
      <trkpt lat="57.608882021158934" lon="-3.610126012936235">
        <ele>17.920000000000002</ele>
        <time>2023-08-18T15:16:36Z</time>
      </trkpt>
      <trkpt lat="57.60887598618865" lon="-3.610199019312859">
        <ele>17.440000000000001</ele>
        <time>2023-08-18T15:16:37Z</time>
      </trkpt>
      <trkpt lat="57.608871962875128" lon="-3.610252998769283">
        <ele>16.960000000000001</ele>
        <time>2023-08-18T15:16:38Z</time>
      </trkpt>
      <trkpt lat="57.608871962875128" lon="-3.610252998769283">
        <ele>16.48</ele>
        <time>2023-08-18T15:16:39Z</time>
      </trkpt>
      <trkpt lat="57.608808008953929" lon="-3.610317958518863">
        <ele>16</ele>
        <time>2023-08-18T15:16:40Z</time>
      </trkpt>
      <trkpt lat="57.608868023380637" lon="-3.610423989593983">
        <ele>15.52</ele>
        <time>2023-08-18T15:16:41Z</time>
      </trkpt>
      <trkpt lat="57.608894007280469" lon="-3.610381996259093">
        <ele>15.039999999999999</ele>
        <time>2023-08-18T15:16:42Z</time>
      </trkpt>
      <trkpt lat="57.608957039192319" lon="-3.610332040116191">
        <ele>14.56</ele>
        <time>2023-08-18T15:16:43Z</time>
      </trkpt>
      <trkpt lat="57.609016969799995" lon="-3.610285017639399">
        <ele>14.56</ele>
        <time>2023-08-18T15:16:44Z</time>
      </trkpt>
      <trkpt lat="57.609216040000319" lon="-3.61013799905777">
        <ele>14.08</ele>
        <time>2023-08-18T15:16:47Z</time>
      </trkpt>
      <trkpt lat="57.609292985871434" lon="-3.610111009329557">
        <ele>14.08</ele>
        <time>2023-08-18T15:16:48Z</time>
      </trkpt>
      <trkpt lat="57.609454002231359" lon="-3.61005300655961">
        <ele>14.08</ele>
        <time>2023-08-18T15:16:50Z</time>
      </trkpt>
      <trkpt lat="57.609537988901138" lon="-3.610005984082818">
        <ele>14.08</ele>
        <time>2023-08-18T15:16:51Z</time>
      </trkpt>
      <trkpt lat="57.609620969742537" lon="-3.60994404181838">
        <ele>14.08</ele>
        <time>2023-08-18T15:16:52Z</time>
      </trkpt>
      <trkpt lat="57.609697999432683" lon="-3.609858965501189">
        <ele>14.56</ele>
        <time>2023-08-18T15:16:53Z</time>
      </trkpt>
      <trkpt lat="57.609768994152546" lon="-3.609744971618056">
        <ele>14.56</ele>
        <time>2023-08-18T15:16:54Z</time>
      </trkpt>
      <trkpt lat="57.610019026324153" lon="-3.60947297886014">
        <ele>14.56</ele>
        <time>2023-08-18T15:16:57Z</time>
      </trkpt>
      <trkpt lat="57.610627971589565" lon="-3.608876019716263">
        <ele>14.08</ele>
        <time>2023-08-18T15:17:05Z</time>
      </trkpt>
      <trkpt lat="57.610705001279712" lon="-3.608869984745979">
        <ele>14.56</ele>
        <time>2023-08-18T15:17:06Z</time>
      </trkpt>
      <trkpt lat="57.610778007656336" lon="-3.608864033594728">
        <ele>14.56</ele>
        <time>2023-08-18T15:17:07Z</time>
      </trkpt>
      <trkpt lat="57.61085101403296" lon="-3.608864033594728">
        <ele>14.56</ele>
        <time>2023-08-18T15:17:08Z</time>
      </trkpt>
      <trkpt lat="57.610913962125778" lon="-3.608941985294223">
        <ele>14.56</ele>
        <time>2023-08-18T15:17:09Z</time>
      </trkpt>
      <trkpt lat="57.610974982380867" lon="-3.609017003327608">
        <ele>14.56</ele>
        <time>2023-08-18T15:17:10Z</time>
      </trkpt>
      <trkpt lat="57.611042037606239" lon="-3.609098978340626">
        <ele>14.56</ele>
        <time>2023-08-18T15:17:11Z</time>
      </trkpt>
      <trkpt lat="57.611472029238939" lon="-3.609661990776658">
        <ele>14.08</ele>
        <time>2023-08-18T15:17:21Z</time>
      </trkpt>
      <trkpt lat="57.611501030623913" lon="-3.609711024910212">
        <ele>13.6</ele>
        <time>2023-08-18T15:17:31Z</time>
      </trkpt>
      <trkpt lat="57.61158199980855" lon="-3.609728962182999">
        <ele>13.6</ele>
        <time>2023-08-18T15:17:32Z</time>
      </trkpt>
      <trkpt lat="57.611611001193523" lon="-3.609653022140265">
        <ele>13.6</ele>
        <time>2023-08-18T15:17:33Z</time>
      </trkpt>
      <trkpt lat="57.61164603754878" lon="-3.609557971358299">
        <ele>13.6</ele>
        <time>2023-08-18T15:17:34Z</time>
      </trkpt>
      <trkpt lat="57.611680990085006" lon="-3.609464010223746">
        <ele>13.6</ele>
        <time>2023-08-18T15:17:35Z</time>
      </trkpt>
      <trkpt lat="57.611714014783502" lon="-3.609378011897206">
        <ele>13.6</ele>
        <time>2023-08-18T15:17:36Z</time>
      </trkpt>
      <trkpt lat="57.611747039481997" lon="-3.609287990257144">
        <ele>13.6</ele>
        <time>2023-08-18T15:17:37Z</time>
      </trkpt>
      <trkpt lat="57.611767994239926" lon="-3.609227975830436">
        <ele>13.6</ele>
        <time>2023-08-18T15:17:38Z</time>
      </trkpt>
      <trkpt lat="57.611794983968139" lon="-3.60915002413094">
        <ele>13.6</ele>
        <time>2023-08-18T15:17:39Z</time>
      </trkpt>
      <trkpt lat="57.611824991181493" lon="-3.609066959470511">
        <ele>13.119999999999999</ele>
        <time>2023-08-18T15:17:40Z</time>
      </trkpt>
      <trkpt lat="57.61186002753675" lon="-3.608967969194055">
        <ele>13.6</ele>
        <time>2023-08-18T15:17:41Z</time>
      </trkpt>
      <trkpt lat="57.611897997558117" lon="-3.608857998624444">
        <ele>13.119999999999999</ele>
        <time>2023-08-18T15:17:42Z</time>
      </trkpt>
      <trkpt lat="57.611938985064626" lon="-3.608735036104918">
        <ele>13.119999999999999</ele>
        <time>2023-08-18T15:17:43Z</time>
      </trkpt>
      <trkpt lat="57.611983995884657" lon="-3.608600003644824">
        <ele>13.119999999999999</ele>
        <time>2023-08-18T15:17:44Z</time>
      </trkpt>
      <trkpt lat="57.612486993893981" lon="-3.606938039883971">
        <ele>13.119999999999999</ele>
        <time>2023-08-18T15:17:55Z</time>
      </trkpt>
      <trkpt lat="57.612648010253906" lon="-3.606244018301368">
        <ele>13.6</ele>
        <time>2023-08-18T15:17:59Z</time>
      </trkpt>
      <trkpt lat="57.612686986103654" lon="-3.60607503913343">
        <ele>13.6</ele>
        <time>2023-08-18T15:18:00Z</time>
      </trkpt>
      <trkpt lat="57.612767033278942" lon="-3.605731967836618">
        <ele>13.119999999999999</ele>
        <time>2023-08-18T15:18:01Z</time>
      </trkpt>
      <trkpt lat="57.61332199908793" lon="-3.603410013020039">
        <ele>15.039999999999999</ele>
        <time>2023-08-18T15:18:14Z</time>
      </trkpt>
      <trkpt lat="57.61390102095902" lon="-3.601028965786099">
        <ele>15.52</ele>
        <time>2023-08-18T15:18:27Z</time>
      </trkpt>
      <trkpt lat="57.614029012620449" lon="-3.600485986098647">
        <ele>16</ele>
        <time>2023-08-18T15:18:30Z</time>
      </trkpt>
      <trkpt lat="57.614364037290215" lon="-3.59881597571075">
        <ele>16.48</ele>
        <time>2023-08-18T15:18:40Z</time>
      </trkpt>
      <trkpt lat="57.614693026989698" lon="-3.598365029320121">
        <ele>15.52</ele>
        <time>2023-08-18T15:18:44Z</time>
      </trkpt>
      <trkpt lat="57.61476100422442" lon="-3.598255980759859">
        <ele>15.52</ele>
        <time>2023-08-18T15:18:45Z</time>
      </trkpt>
      <trkpt lat="57.61482696980238" lon="-3.598151039332151">
        <ele>15.52</ele>
        <time>2023-08-18T15:18:46Z</time>
      </trkpt>
      <trkpt lat="57.614883966743946" lon="-3.59806202352047">
        <ele>15.039999999999999</ele>
        <time>2023-08-18T15:18:47Z</time>
      </trkpt>
      <trkpt lat="57.61495596729219" lon="-3.597993040457368">
        <ele>15.039999999999999</ele>
        <time>2023-08-18T15:18:48Z</time>
      </trkpt>
      <trkpt lat="57.615034002810717" lon="-3.597931014373899">
        <ele>15.039999999999999</ele>
        <time>2023-08-18T15:18:49Z</time>
      </trkpt>
      <trkpt lat="57.615112038329244" lon="-3.59787099994719">
        <ele>15.039999999999999</ele>
        <time>2023-08-18T15:18:50Z</time>
      </trkpt>
      <trkpt lat="57.615570025518537" lon="-3.597461963072419">
        <ele>15.039999999999999</ele>
        <time>2023-08-18T15:18:59Z</time>
      </trkpt>
      <trkpt lat="57.61574998497963" lon="-3.597282003611326">
        <ele>15.039999999999999</ele>
        <time>2023-08-18T15:19:03Z</time>
      </trkpt>
      <trkpt lat="57.615776974707842" lon="-3.597255013883114">
        <ele>15.039999999999999</ele>
        <time>2023-08-18T15:19:04Z</time>
      </trkpt>
      <trkpt lat="57.6157929841429" lon="-3.597239004448056">
        <ele>15.039999999999999</ele>
        <time>2023-08-18T15:19:05Z</time>
      </trkpt>
      <trkpt lat="57.615800024941564" lon="-3.597231963649392">
        <ele>14.56</ele>
        <time>2023-08-18T15:19:06Z</time>
      </trkpt>
      <trkpt lat="57.615800024941564" lon="-3.597231963649392">
        <ele>14.56</ele>
        <time>2023-08-18T15:19:08Z</time>
      </trkpt>
      <trkpt lat="57.615800024941564" lon="-3.597231963649392">
        <ele>16</ele>
        <time>2023-08-18T15:19:23Z</time>
      </trkpt>
      <trkpt lat="57.615800024941564" lon="-3.597231963649392">
        <ele>16</ele>
        <time>2023-08-18T15:19:41Z</time>
      </trkpt>
      <trkpt lat="57.615880994126201" lon="-3.597464980557561">
        <ele>17.920000000000002</ele>
        <time>2023-08-18T15:29:34Z</time>
      </trkpt>
      <trkpt lat="57.615862973034382" lon="-3.597481995820999">
        <ele>16.960000000000001</ele>
        <time>2023-08-18T15:30:19Z</time>
      </trkpt>
      <trkpt lat="57.615874037146568" lon="-3.597499011084437">
        <ele>20.809999999999999</ele>
        <time>2023-08-18T15:31:22Z</time>
      </trkpt>
      <trkpt lat="57.615874037146568" lon="-3.597498005256057">
        <ele>20.809999999999999</ele>
        <time>2023-08-18T15:32:14Z</time>
      </trkpt>
      <trkpt lat="57.615874037146568" lon="-3.597498005256057">
        <ele>20.809999999999999</ele>
        <time>2023-08-18T15:32:20Z</time>
      </trkpt>
      <trkpt lat="57.615787032991648" lon="-3.59724503941834">
        <ele>20.32</ele>
        <time>2023-08-18T15:32:25Z</time>
      </trkpt>
      <trkpt lat="57.615758031606674" lon="-3.597274040803313">
        <ele>19.84</ele>
        <time>2023-08-18T15:32:26Z</time>
      </trkpt>
      <trkpt lat="57.615717966109514" lon="-3.597313016653061">
        <ele>19.84</ele>
        <time>2023-08-18T15:32:27Z</time>
      </trkpt>
      <trkpt lat="57.615674966946244" lon="-3.597357021644712">
        <ele>19.359999999999999</ele>
        <time>2023-08-18T15:32:28Z</time>
      </trkpt>
      <trkpt lat="57.615628028288484" lon="-3.597403038293123">
        <ele>19.359999999999999</ele>
        <time>2023-08-18T15:32:29Z</time>
      </trkpt>
      <trkpt lat="57.61557798832655" lon="-3.597454000264406">
        <ele>18.879999999999999</ele>
        <time>2023-08-18T15:32:30Z</time>
      </trkpt>
      <trkpt lat="57.614828981459141" lon="-3.59814802184701">
        <ele>14.56</ele>
        <time>2023-08-18T15:32:42Z</time>
      </trkpt>
      <trkpt lat="57.614666037261486" lon="-3.598409034311771">
        <ele>14.08</ele>
        <time>2023-08-18T15:32:45Z</time>
      </trkpt>
      <trkpt lat="57.614566963165998" lon="-3.598759984597564">
        <ele>13.6</ele>
        <time>2023-08-18T15:32:48Z</time>
      </trkpt>
      <trkpt lat="57.614430002868176" lon="-3.59924596734345">
        <ele>13.119999999999999</ele>
        <time>2023-08-18T15:32:53Z</time>
      </trkpt>
      <trkpt lat="57.614430002868176" lon="-3.59924596734345">
        <ele>13.119999999999999</ele>
        <time>2023-08-18T15:32:54Z</time>
      </trkpt>
      <trkpt lat="57.61435397900641" lon="-3.599196011200547">
        <ele>13.119999999999999</ele>
        <time>2023-08-18T15:32:55Z</time>
      </trkpt>
      <trkpt lat="57.614319026470184" lon="-3.599172038957477">
        <ele>13.6</ele>
        <time>2023-08-18T15:33:04Z</time>
      </trkpt>
      <trkpt lat="57.614252977073193" lon="-3.599412012845278">
        <ele>13.6</ele>
        <time>2023-08-18T15:33:05Z</time>
      </trkpt>
      <trkpt lat="57.614235039800406" lon="-3.59950396232307">
        <ele>13.6</ele>
        <time>2023-08-18T15:33:06Z</time>
      </trkpt>
      <trkpt lat="57.614212995395064" lon="-3.599619967862964">
        <ele>13.119999999999999</ele>
        <time>2023-08-18T15:33:07Z</time>
      </trkpt>
      <trkpt lat="57.614183994010091" lon="-3.599761035293341">
        <ele>13.119999999999999</ele>
        <time>2023-08-18T15:33:08Z</time>
      </trkpt>
      <trkpt lat="57.614149963483214" lon="-3.599923979490995">
        <ele>13.6</ele>
        <time>2023-08-18T15:33:09Z</time>
      </trkpt>
      <trkpt lat="57.613949971273541" lon="-3.600817993283272">
        <ele>13.6</ele>
        <time>2023-08-18T15:33:14Z</time>
      </trkpt>
      <trkpt lat="57.613909989595413" lon="-3.600987978279591">
        <ele>13.6</ele>
        <time>2023-08-18T15:33:15Z</time>
      </trkpt>
      <trkpt lat="57.613869002088904" lon="-3.601161986589432">
        <ele>13.6</ele>
        <time>2023-08-18T15:33:16Z</time>
      </trkpt>
      <trkpt lat="57.613784009590745" lon="-3.601514026522636">
        <ele>14.08</ele>
        <time>2023-08-18T15:33:18Z</time>
      </trkpt>
      <trkpt lat="57.613742016255856" lon="-3.601681999862194">
        <ele>14.08</ele>
        <time>2023-08-18T15:33:19Z</time>
      </trkpt>
      <trkpt lat="57.613239018246531" lon="-3.603776972740889">
        <ele>15.039999999999999</ele>
        <time>2023-08-18T15:33:30Z</time>
      </trkpt>
      <trkpt lat="57.613011030480266" lon="-3.604740975424647">
        <ele>15.52</ele>
        <time>2023-08-18T15:33:35Z</time>
      </trkpt>
      <trkpt lat="57.612964008003473" lon="-3.604924036189914">
        <ele>15.52</ele>
        <time>2023-08-18T15:33:36Z</time>
      </trkpt>
      <trkpt lat="57.612477019429207" lon="-3.60698196105659">
        <ele>14.56</ele>
        <time>2023-08-18T15:33:47Z</time>
      </trkpt>
      <trkpt lat="57.611849969252944" lon="-3.608994036912918">
        <ele>12.15</ele>
        <time>2023-08-18T15:33:59Z</time>
      </trkpt>
      <trkpt lat="57.611186038702726" lon="-3.610776029527187">
        <ele>12.630000000000001</ele>
        <time>2023-08-18T15:34:12Z</time>
      </trkpt>
      <trkpt lat="57.611134992912412" lon="-3.610877031460404">
        <ele>12.630000000000001</ele>
        <time>2023-08-18T15:34:13Z</time>
      </trkpt>
      <trkpt lat="57.610795022919774" lon="-3.61162100918591">
        <ele>12.630000000000001</ele>
        <time>2023-08-18T15:34:20Z</time>
      </trkpt>
      <trkpt lat="57.610718999058008" lon="-3.6117700394243">
        <ele>12.15</ele>
        <time>2023-08-18T15:34:22Z</time>
      </trkpt>
      <trkpt lat="57.610685974359512" lon="-3.611832987517119">
        <ele>12.15</ele>
        <time>2023-08-18T15:34:23Z</time>
      </trkpt>
      <trkpt lat="57.610543984919786" lon="-3.612111015245318">
        <ele>10.23</ele>
        <time>2023-08-18T15:34:31Z</time>
      </trkpt>
      <trkpt lat="57.610482964664698" lon="-3.612230960279703">
        <ele>10.23</ele>
        <time>2023-08-18T15:34:45Z</time>
      </trkpt>
      <trkpt lat="57.610482964664698" lon="-3.612230960279703">
        <ele>10.23</ele>
        <time>2023-08-18T15:35:09Z</time>
      </trkpt>
      <trkpt lat="57.610458992421627" lon="-3.612276976928115">
        <ele>10.23</ele>
        <time>2023-08-18T15:35:24Z</time>
      </trkpt>
      <trkpt lat="57.610306022688746" lon="-3.612124007195234">
        <ele>53.490000000000002</ele>
        <time>2023-08-18T15:42:20Z</time>
      </trkpt>
      <trkpt lat="57.610396966338158" lon="-3.612274965271354">
        <ele>36.189999999999998</ele>
        <time>2023-08-18T15:42:40Z</time>
      </trkpt>
      <trkpt lat="57.61042102240026" lon="-3.612349983304739">
        <ele>36.189999999999998</ele>
        <time>2023-08-18T15:42:43Z</time>
      </trkpt>
      <trkpt lat="57.610398977994919" lon="-3.612392982468009">
        <ele>36.189999999999998</ele>
        <time>2023-08-18T15:42:44Z</time>
      </trkpt>
      <trkpt lat="57.610368970781565" lon="-3.612454002723098">
        <ele>35.710000000000001</ele>
        <time>2023-08-18T15:42:45Z</time>
      </trkpt>
      <trkpt lat="57.61033502407372" lon="-3.612524997442961">
        <ele>35.229999999999997</ele>
        <time>2023-08-18T15:42:46Z</time>
      </trkpt>
      <trkpt lat="57.610298981890082" lon="-3.612600015476346">
        <ele>35.229999999999997</ele>
        <time>2023-08-18T15:42:47Z</time>
      </trkpt>
      <trkpt lat="57.610261011868715" lon="-3.612680984660983">
        <ele>34.740000000000002</ele>
        <time>2023-08-18T15:42:48Z</time>
      </trkpt>
      <trkpt lat="57.610219018533826" lon="-3.612767988815904">
        <ele>34.259999999999998</ele>
        <time>2023-08-18T15:42:49Z</time>
      </trkpt>
      <trkpt lat="57.610174007713795" lon="-3.612863039597869">
        <ele>34.259999999999998</ele>
        <time>2023-08-18T15:42:50Z</time>
      </trkpt>
      <trkpt lat="57.610071999952197" lon="-3.613051967695355">
        <ele>32.340000000000003</ele>
        <time>2023-08-18T15:42:52Z</time>
      </trkpt>
      <trkpt lat="57.609817022457719" lon="-3.613592013716698">
        <ele>29.460000000000001</ele>
        <time>2023-08-18T15:42:57Z</time>
      </trkpt>
      <trkpt lat="57.609759019687772" lon="-3.613714976236224">
        <ele>29.460000000000001</ele>
        <time>2023-08-18T15:42:58Z</time>
      </trkpt>
      <trkpt lat="57.609700011089444" lon="-3.613839028403163">
        <ele>29.460000000000001</ele>
        <time>2023-08-18T15:42:59Z</time>
      </trkpt>
      <trkpt lat="57.609642008319497" lon="-3.613961990922689">
        <ele>29.460000000000001</ele>
        <time>2023-08-18T15:43:00Z</time>
      </trkpt>
      <trkpt lat="57.609582999721169" lon="-3.614085037261248">
        <ele>28.98</ele>
        <time>2023-08-18T15:43:01Z</time>
      </trkpt>
      <trkpt lat="57.609360041096807" lon="-3.614698005840182">
        <ele>23.690000000000001</ele>
        <time>2023-08-18T15:43:06Z</time>
      </trkpt>
      <trkpt lat="57.609104979783297" lon="-3.615480959415436">
        <ele>19.359999999999999</ele>
        <time>2023-08-18T15:43:13Z</time>
      </trkpt>
      <trkpt lat="57.609072960913181" lon="-3.615580033510923">
        <ele>19.359999999999999</ele>
        <time>2023-08-18T15:43:14Z</time>
      </trkpt>
      <trkpt lat="57.608923008665442" lon="-3.616108009591699">
        <ele>17.920000000000002</ele>
        <time>2023-08-18T15:43:19Z</time>
      </trkpt>
      <trkpt lat="57.608884032815695" lon="-3.616226026788354">
        <ele>17.920000000000002</ele>
        <time>2023-08-18T15:43:20Z</time>
      </trkpt>
      <trkpt lat="57.60874598287046" lon="-3.616760037839413">
        <ele>17.440000000000001</ele>
        <time>2023-08-18T15:43:24Z</time>
      </trkpt>
      <trkpt lat="57.608722010627389" lon="-3.616905966773629">
        <ele>16.960000000000001</ele>
        <time>2023-08-18T15:43:25Z</time>
      </trkpt>
      <trkpt lat="57.608717987313867" lon="-3.617068994790316">
        <ele>16.48</ele>
        <time>2023-08-18T15:43:26Z</time>
      </trkpt>
      <trkpt lat="57.608712958171964" lon="-3.617232022807002">
        <ele>16</ele>
        <time>2023-08-18T15:43:27Z</time>
      </trkpt>
      <trkpt lat="57.608709018677473" lon="-3.617398990318179">
        <ele>15.52</ele>
        <time>2023-08-18T15:43:28Z</time>
      </trkpt>
      <trkpt lat="57.60870398953557" lon="-3.617570986971259">
        <ele>15.039999999999999</ele>
        <time>2023-08-18T15:43:29Z</time>
      </trkpt>
      <trkpt lat="57.608698038384318" lon="-3.617746001109481">
        <ele>15.039999999999999</ele>
        <time>2023-08-18T15:43:30Z</time>
      </trkpt>
      <trkpt lat="57.6086800172925" lon="-3.617920009419322">
        <ele>14.56</ele>
        <time>2023-08-18T15:43:31Z</time>
      </trkpt>
      <trkpt lat="57.608538027852774" lon="-3.619309980422258">
        <ele>10.23</ele>
        <time>2023-08-18T15:43:41Z</time>
      </trkpt>
      <trkpt lat="57.60853098705411" lon="-3.61937502399087">
        <ele>10.23</ele>
        <time>2023-08-18T15:43:42Z</time>
      </trkpt>
      <trkpt lat="57.608526041731238" lon="-3.619431015104055">
        <ele>9.75</ele>
        <time>2023-08-18T15:43:43Z</time>
      </trkpt>
      <trkpt lat="57.60842596180737" lon="-3.619650034233928">
        <ele>9.27</ele>
        <time>2023-08-18T15:43:46Z</time>
      </trkpt>
      <trkpt lat="57.60842202231288" lon="-3.619651962071657">
        <ele>8.789999999999999</ele>
        <time>2023-08-18T15:43:47Z</time>
      </trkpt>
      <trkpt lat="57.608314985409379" lon="-3.619769979268313">
        <ele>8.789999999999999</ele>
        <time>2023-08-18T15:43:48Z</time>
      </trkpt>
      <trkpt lat="57.608249019831419" lon="-3.619778025895357">
        <ele>8.310000000000001</ele>
        <time>2023-08-18T15:43:49Z</time>
      </trkpt>
      <trkpt lat="57.608175007626414" lon="-3.619786994531751">
        <ele>7.83</ele>
        <time>2023-08-18T15:43:50Z</time>
      </trkpt>
      <trkpt lat="57.608097977936268" lon="-3.619796968996525">
        <ele>7.83</ele>
        <time>2023-08-18T15:43:51Z</time>
      </trkpt>
      <trkpt lat="57.60767100378871" lon="-3.619734020903707">
        <ele>5.42</ele>
        <time>2023-08-18T15:43:56Z</time>
      </trkpt>
      <trkpt lat="57.607203964143991" lon="-3.619648022577167">
        <ele>5.42</ele>
        <time>2023-08-18T15:44:03Z</time>
      </trkpt>
      <trkpt lat="57.607153002172709" lon="-3.619637964293361">
        <ele>5.42</ele>
        <time>2023-08-18T15:44:04Z</time>
      </trkpt>
      <trkpt lat="57.607103968039155" lon="-3.619628995656967">
        <ele>5.42</ele>
        <time>2023-08-18T15:44:05Z</time>
      </trkpt>
      <trkpt lat="57.607060968875885" lon="-3.619621032848954">
        <ele>4.94</ele>
        <time>2023-08-18T15:44:06Z</time>
      </trkpt>
      <trkpt lat="57.607021993026137" lon="-3.61961399205029">
        <ele>4.94</ele>
        <time>2023-08-18T15:44:07Z</time>
      </trkpt>
      <trkpt lat="57.606989974156022" lon="-3.619608040899038">
        <ele>4.94</ele>
        <time>2023-08-18T15:44:08Z</time>
      </trkpt>
      <trkpt lat="57.606960972771049" lon="-3.619602005928755">
        <ele>4.94</ele>
        <time>2023-08-18T15:44:09Z</time>
      </trkpt>
      <trkpt lat="57.606506003066897" lon="-3.619520030915737">
        <ele>4.46</ele>
        <time>2023-08-18T15:44:16Z</time>
      </trkpt>
      <trkpt lat="57.60588800534606" lon="-3.619448030367494">
        <ele>7.83</ele>
        <time>2023-08-18T15:44:22Z</time>
      </trkpt>
      <trkpt lat="57.605500007048249" lon="-3.619302017614245">
        <ele>10.710000000000001</ele>
        <time>2023-08-18T15:44:27Z</time>
      </trkpt>
      <trkpt lat="57.605461031198502" lon="-3.619288019835949">
        <ele>11.19</ele>
        <time>2023-08-18T15:44:28Z</time>
      </trkpt>
      <trkpt lat="57.605434041470289" lon="-3.619277039542794">
        <ele>11.67</ele>
        <time>2023-08-18T15:44:29Z</time>
      </trkpt>
      <trkpt lat="57.605410991236567" lon="-3.61926899291575">
        <ele>12.15</ele>
        <time>2023-08-18T15:44:30Z</time>
      </trkpt>
      <trkpt lat="57.605391964316368" lon="-3.619262035936117">
        <ele>12.630000000000001</ele>
        <time>2023-08-18T15:44:31Z</time>
      </trkpt>
      <trkpt lat="57.605391964316368" lon="-3.619262035936117">
        <ele>13.119999999999999</ele>
        <time>2023-08-18T15:44:32Z</time>
      </trkpt>
      <trkpt lat="57.605078984051943" lon="-3.619138989597559">
        <ele>15.039999999999999</ele>
        <time>2023-08-18T15:44:40Z</time>
      </trkpt>
      <trkpt lat="57.604777989909053" lon="-3.61894897185266">
        <ele>16.48</ele>
        <time>2023-08-18T15:44:44Z</time>
      </trkpt>
      <trkpt lat="57.604699032381177" lon="-3.618906978517771">
        <ele>16.48</ele>
        <time>2023-08-18T15:44:45Z</time>
      </trkpt>
      <trkpt lat="57.604609010741115" lon="-3.618940003216267">
        <ele>16.48</ele>
        <time>2023-08-18T15:44:46Z</time>
      </trkpt>
      <trkpt lat="57.604519994929433" lon="-3.618985014036298">
        <ele>16.48</ele>
        <time>2023-08-18T15:44:47Z</time>
      </trkpt>
      <trkpt lat="57.604424022138119" lon="-3.61903203651309">
        <ele>16.960000000000001</ele>
        <time>2023-08-18T15:44:48Z</time>
      </trkpt>
      <trkpt lat="57.604331988841295" lon="-3.619086015969515">
        <ele>16.960000000000001</ele>
        <time>2023-08-18T15:44:49Z</time>
      </trkpt>
      <trkpt lat="57.604248002171516" lon="-3.619171008467674">
        <ele>16.48</ele>
        <time>2023-08-18T15:44:50Z</time>
      </trkpt>
      <trkpt lat="57.604165021330118" lon="-3.619256000965834">
        <ele>16.48</ele>
        <time>2023-08-18T15:44:51Z</time>
      </trkpt>
      <trkpt lat="57.603466976433992" lon="-3.619970977306366">
        <ele>16</ele>
        <time>2023-08-18T15:45:02Z</time>
      </trkpt>
      <trkpt lat="57.603252986446023" lon="-3.620184967294335">
        <ele>15.039999999999999</ele>
        <time>2023-08-18T15:45:12Z</time>
      </trkpt>
      <trkpt lat="57.602760968729854" lon="-3.620684025809169">
        <ele>14.08</ele>
        <time>2023-08-18T15:45:20Z</time>
      </trkpt>
      <trkpt lat="57.60133302770555" lon="-3.622128982096911">
        <ele>14.56</ele>
        <time>2023-08-18T15:45:36Z</time>
      </trkpt>
      <trkpt lat="57.600714024156332" lon="-3.622827026993036">
        <ele>16</ele>
        <time>2023-08-18T15:45:43Z</time>
      </trkpt>
      <trkpt lat="57.599676009267569" lon="-3.62431799992919">
        <ele>16.48</ele>
        <time>2023-08-18T15:45:55Z</time>
      </trkpt>
      <trkpt lat="57.598183024674654" lon="-3.626026986166835">
        <ele>17.440000000000001</ele>
        <time>2023-08-18T15:46:10Z</time>
      </trkpt>
      <trkpt lat="57.597942966967821" lon="-3.626299984753132">
        <ele>17.920000000000002</ele>
        <time>2023-08-18T15:46:13Z</time>
      </trkpt>
      <trkpt lat="57.597882030531764" lon="-3.626369973644614">
        <ele>17.920000000000002</ele>
        <time>2023-08-18T15:46:14Z</time>
      </trkpt>
      <trkpt lat="57.597736017778516" lon="-3.626281963661313">
        <ele>17.920000000000002</ele>
        <time>2023-08-18T15:46:16Z</time>
      </trkpt>
      <trkpt lat="57.597670974209905" lon="-3.626410961151123">
        <ele>17.920000000000002</ele>
        <time>2023-08-18T15:46:17Z</time>
      </trkpt>
      <trkpt lat="57.597670974209905" lon="-3.626410961151123">
        <ele>17.920000000000002</ele>
        <time>2023-08-18T15:46:18Z</time>
      </trkpt>
      <trkpt lat="57.597565026953816" lon="-3.626713966950774">
        <ele>17.920000000000002</ele>
        <time>2023-08-18T15:46:19Z</time>
      </trkpt>
      <trkpt lat="57.597481962293386" lon="-3.626801976934075">
        <ele>18.399999999999999</ele>
        <time>2023-08-18T15:46:20Z</time>
      </trkpt>
      <trkpt lat="57.597392024472356" lon="-3.626895016059279">
        <ele>18.399999999999999</ele>
        <time>2023-08-18T15:46:21Z</time>
      </trkpt>
      <trkpt lat="57.597298985347152" lon="-3.626993000507355">
        <ele>18.399999999999999</ele>
        <time>2023-08-18T15:46:22Z</time>
      </trkpt>
      <trkpt lat="57.597202006727457" lon="-3.627092996612191">
        <ele>18.879999999999999</ele>
        <time>2023-08-18T15:46:23Z</time>
      </trkpt>
      <trkpt lat="57.596045974642038" lon="-3.627887014299631">
        <ele>21.77</ele>
        <time>2023-08-18T15:46:34Z</time>
      </trkpt>
      <trkpt lat="57.595674991607666" lon="-3.628097986802459">
        <ele>22.73</ele>
        <time>2023-08-18T15:46:38Z</time>
      </trkpt>
      <trkpt lat="57.59559603407979" lon="-3.62814299762249">
        <ele>22.73</ele>
        <time>2023-08-18T15:46:39Z</time>
      </trkpt>
      <trkpt lat="57.595482962206006" lon="-3.628041995689273">
        <ele>23.210000000000001</ele>
        <time>2023-08-18T15:46:40Z</time>
      </trkpt>
      <trkpt lat="57.595429988577962" lon="-3.628021040931344">
        <ele>23.690000000000001</ele>
        <time>2023-08-18T15:46:41Z</time>
      </trkpt>
      <trkpt lat="57.595375003293157" lon="-3.627998996526003">
        <ele>23.690000000000001</ele>
        <time>2023-08-18T15:46:42Z</time>
      </trkpt>
      <trkpt lat="57.595301996916533" lon="-3.628125982359052">
        <ele>24.170000000000002</ele>
        <time>2023-08-18T15:46:43Z</time>
      </trkpt>
      <trkpt lat="57.595289004966617" lon="-3.628149032592773">
        <ele>24.649999999999999</ele>
        <time>2023-08-18T15:46:44Z</time>
      </trkpt>
      <trkpt lat="57.594377975910902" lon="-3.62891698256135">
        <ele>27.050000000000001</ele>
        <time>2023-08-18T15:46:53Z</time>
      </trkpt>
      <trkpt lat="57.592913992702961" lon="-3.629664983600378">
        <ele>28.98</ele>
        <time>2023-08-18T15:47:05Z</time>
      </trkpt>
      <trkpt lat="57.591973962262273" lon="-3.630197988823056">
        <ele>31.859999999999999</ele>
        <time>2023-08-18T15:47:11Z</time>
      </trkpt>
      <trkpt lat="57.591825015842915" lon="-3.630348024889827">
        <ele>32.340000000000003</ele>
        <time>2023-08-18T15:47:12Z</time>
      </trkpt>
      <trkpt lat="57.591691995039582" lon="-3.630538964644074">
        <ele>32.82</ele>
        <time>2023-08-18T15:47:13Z</time>
      </trkpt>
      <trkpt lat="57.591555034741759" lon="-3.630755972117186">
        <ele>33.299999999999997</ele>
        <time>2023-08-18T15:47:14Z</time>
      </trkpt>
      <trkpt lat="57.591421008110046" lon="-3.630995023995638">
        <ele>33.299999999999997</ele>
        <time>2023-08-18T15:47:15Z</time>
      </trkpt>
      <trkpt lat="57.5897759757936" lon="-3.633998008444905">
        <ele>34.259999999999998</ele>
        <time>2023-08-18T15:47:26Z</time>
      </trkpt>
      <trkpt lat="57.588085010647774" lon="-3.636851040646434">
        <ele>33.299999999999997</ele>
        <time>2023-08-18T15:47:36Z</time>
      </trkpt>
      <trkpt lat="57.587545970454812" lon="-3.637422015890479">
        <ele>33.780000000000001</ele>
        <time>2023-08-18T15:47:39Z</time>
      </trkpt>
      <trkpt lat="57.586841974407434" lon="-3.638140009716153">
        <ele>34.259999999999998</ele>
        <time>2023-08-18T15:47:43Z</time>
      </trkpt>
      <trkpt lat="57.586691016331315" lon="-3.638398004695773">
        <ele>34.259999999999998</ele>
        <time>2023-08-18T15:47:44Z</time>
      </trkpt>
      <trkpt lat="57.586538968607783" lon="-3.638659017160535">
        <ele>34.740000000000002</ele>
        <time>2023-08-18T15:47:45Z</time>
      </trkpt>
      <trkpt lat="57.585741011425853" lon="-3.640851974487305">
        <ele>37.630000000000003</ele>
        <time>2023-08-18T15:47:52Z</time>
      </trkpt>
      <trkpt lat="57.585550993680954" lon="-3.641338041052222">
        <ele>38.590000000000003</ele>
        <time>2023-08-18T15:47:54Z</time>
      </trkpt>
      <trkpt lat="57.58543599396944" lon="-3.641527974978089">
        <ele>39.549999999999997</ele>
        <time>2023-08-18T15:47:55Z</time>
      </trkpt>
      <trkpt lat="57.585324011743069" lon="-3.641712041571736">
        <ele>40.030000000000001</ele>
        <time>2023-08-18T15:47:56Z</time>
      </trkpt>
      <trkpt lat="57.585170958191156" lon="-3.641796028241515">
        <ele>40.990000000000002</ele>
        <time>2023-08-18T15:47:57Z</time>
      </trkpt>
      <trkpt lat="57.585010025650263" lon="-3.641869034618139">
        <ele>41.469999999999999</ele>
        <time>2023-08-18T15:47:58Z</time>
      </trkpt>
      <trkpt lat="57.584831994026899" lon="-3.641946986317635">
        <ele>41.950000000000003</ele>
        <time>2023-08-18T15:47:59Z</time>
      </trkpt>
      <trkpt lat="57.583326017484069" lon="-3.642160976305604">
        <ele>45.32</ele>
        <time>2023-08-18T15:48:06Z</time>
      </trkpt>
      <trkpt lat="57.581166001036763" lon="-3.642330039292574">
        <ele>48.200000000000003</ele>
        <time>2023-08-18T15:48:15Z</time>
      </trkpt>
      <trkpt lat="57.5799569953233" lon="-3.642293997108936">
        <ele>48.68</ele>
        <time>2023-08-18T15:48:20Z</time>
      </trkpt>
      <trkpt lat="57.578137032687664" lon="-3.641619002446532">
        <ele>45.32</ele>
        <time>2023-08-18T15:48:28Z</time>
      </trkpt>
      <trkpt lat="57.577694971114397" lon="-3.641408029943705">
        <ele>44.840000000000003</ele>
        <time>2023-08-18T15:48:30Z</time>
      </trkpt>
      <trkpt lat="57.577462960034609" lon="-3.641264028847218">
        <ele>43.880000000000003</ele>
        <time>2023-08-18T15:48:31Z</time>
      </trkpt>
      <trkpt lat="57.575930999591947" lon="-3.640173962339759">
        <ele>40.030000000000001</ele>
        <time>2023-08-18T15:48:38Z</time>
      </trkpt>
      <trkpt lat="57.574602970853448" lon="-3.639427972957492">
        <ele>34.740000000000002</ele>
        <time>2023-08-18T15:48:44Z</time>
      </trkpt>
      <trkpt lat="57.573045026510954" lon="-3.639148017391563">
        <ele>37.630000000000003</ele>
        <time>2023-08-18T15:48:51Z</time>
      </trkpt>
      <trkpt lat="57.571276025846601" lon="-3.63914399407804">
        <ele>49.649999999999999</ele>
        <time>2023-08-18T15:48:59Z</time>
      </trkpt>
      <trkpt lat="57.571046026423573" lon="-3.639106024056673">
        <ele>51.57</ele>
        <time>2023-08-18T15:49:00Z</time>
      </trkpt>
      <trkpt lat="57.569225979968905" lon="-3.638883987441659">
        <ele>64.549999999999997</ele>
        <time>2023-08-18T15:49:08Z</time>
      </trkpt>
      <trkpt lat="57.56712899543345" lon="-3.63875700160861">
        <ele>72.719999999999999</ele>
        <time>2023-08-18T15:49:17Z</time>
      </trkpt>
      <trkpt lat="57.56510904058814" lon="-3.638536976650357">
        <ele>77.519999999999996</ele>
        <time>2023-08-18T15:49:26Z</time>
      </trkpt>
      <trkpt lat="57.564904019236565" lon="-3.638588022440672">
        <ele>78.480000000000004</ele>
        <time>2023-08-18T15:49:27Z</time>
      </trkpt>
      <trkpt lat="57.564692962914705" lon="-3.638706961646676">
        <ele>78.969999999999999</ele>
        <time>2023-08-18T15:49:28Z</time>
      </trkpt>
      <trkpt lat="57.562502017244697" lon="-3.640401028096676">
        <ele>83.290000000000006</ele>
        <time>2023-08-18T15:49:38Z</time>
      </trkpt>
      <trkpt lat="57.560354992747307" lon="-3.642290979623795">
        <ele>90.980000000000004</ele>
        <time>2023-08-18T15:49:48Z</time>
      </trkpt>
      <trkpt lat="57.558542992919683" lon="-3.643216006457806">
        <ele>97.709999999999994</ele>
        <time>2023-08-18T15:49:56Z</time>
      </trkpt>
      <trkpt lat="57.556796036660671" lon="-3.644316969439387">
        <ele>106.84</ele>
        <time>2023-08-18T15:50:04Z</time>
      </trkpt>
      <trkpt lat="57.555464990437031" lon="-3.645999971777201">
        <ele>112.61</ele>
        <time>2023-08-18T15:50:11Z</time>
      </trkpt>
      <trkpt lat="57.555278996005654" lon="-3.646255033090711">
        <ele>113.09</ele>
        <time>2023-08-18T15:50:12Z</time>
      </trkpt>
      <trkpt lat="57.553612003102899" lon="-3.648522002622485">
        <ele>118.86</ele>
        <time>2023-08-18T15:50:21Z</time>
      </trkpt>
      <trkpt lat="57.552127987146378" lon="-3.650286979973316">
        <ele>122.70999999999999</ele>
        <time>2023-08-18T15:50:29Z</time>
      </trkpt>
      <trkpt lat="57.550874976441264" lon="-3.651031041517854">
        <ele>126.06999999999999</ele>
        <time>2023-08-18T15:50:35Z</time>
      </trkpt>
      <trkpt lat="57.550496030598879" lon="-3.651313008740544">
        <ele>127.51000000000001</ele>
        <time>2023-08-18T15:50:37Z</time>
      </trkpt>
      <trkpt lat="57.550003007054329" lon="-3.651890018954873">
        <ele>128.94999999999999</ele>
        <time>2023-08-18T15:50:40Z</time>
      </trkpt>
      <trkpt lat="57.549603022634983" lon="-3.652415983378887">
        <ele>129.91999999999999</ele>
        <time>2023-08-18T15:50:43Z</time>
      </trkpt>
      <trkpt lat="57.549439994618297" lon="-3.652513967826963">
        <ele>129.91999999999999</ele>
        <time>2023-08-18T15:50:44Z</time>
      </trkpt>
      <trkpt lat="57.54927696660161" lon="-3.652598960325122">
        <ele>129.91999999999999</ele>
        <time>2023-08-18T15:50:45Z</time>
      </trkpt>
      <trkpt lat="57.548915036022663" lon="-3.652709014713764">
        <ele>129.91999999999999</ele>
        <time>2023-08-18T15:50:47Z</time>
      </trkpt>
      <trkpt lat="57.54873801022768" lon="-3.652696022763848">
        <ele>130.40000000000001</ele>
        <time>2023-08-18T15:50:48Z</time>
      </trkpt>
      <trkpt lat="57.548567019402981" lon="-3.652684036642313">
        <ele>130.40000000000001</ele>
        <time>2023-08-18T15:50:49Z</time>
      </trkpt>
      <trkpt lat="57.548384964466095" lon="-3.65263600833714">
        <ele>130.88</ele>
        <time>2023-08-18T15:50:50Z</time>
      </trkpt>
      <trkpt lat="57.548208022490144" lon="-3.652525031939149">
        <ele>131.36000000000001</ele>
        <time>2023-08-18T15:50:51Z</time>
      </trkpt>
      <trkpt lat="57.548026973381639" lon="-3.652411038056016">
        <ele>131.36000000000001</ele>
        <time>2023-08-18T15:50:52Z</time>
      </trkpt>
      <trkpt lat="57.547851959243417" lon="-3.652306012809277">
        <ele>131.84</ele>
        <time>2023-08-18T15:50:53Z</time>
      </trkpt>
      <trkpt lat="57.54766303114593" lon="-3.652252033352852">
        <ele>132.31999999999999</ele>
        <time>2023-08-18T15:50:54Z</time>
      </trkpt>
      <trkpt lat="57.547468990087509" lon="-3.65222898311913">
        <ele>132.31999999999999</ele>
        <time>2023-08-18T15:50:55Z</time>
      </trkpt>
      <trkpt lat="57.547265980392694" lon="-3.652238035574555">
        <ele>132.80000000000001</ele>
        <time>2023-08-18T15:50:56Z</time>
      </trkpt>
      <trkpt lat="57.547055007889867" lon="-3.652259996160865">
        <ele>133.75999999999999</ele>
        <time>2023-08-18T15:50:57Z</time>
      </trkpt>
      <trkpt lat="57.546839006245136" lon="-3.65233501419425">
        <ele>134.24000000000001</ele>
        <time>2023-08-18T15:50:58Z</time>
      </trkpt>
      <trkpt lat="57.546620992943645" lon="-3.652410032227635">
        <ele>134.72</ele>
        <time>2023-08-18T15:50:59Z</time>
      </trkpt>
      <trkpt lat="57.545208977535367" lon="-3.653061976656318">
        <ele>138.56999999999999</ele>
        <time>2023-08-18T15:51:06Z</time>
      </trkpt>
      <trkpt lat="57.545033963397145" lon="-3.653126014396548">
        <ele>139.53</ele>
        <time>2023-08-18T15:51:07Z</time>
      </trkpt>
      <trkpt lat="57.544857021421194" lon="-3.653170019388199">
        <ele>140.00999999999999</ele>
        <time>2023-08-18T15:51:08Z</time>
      </trkpt>
      <trkpt lat="57.544676978141069" lon="-3.653204971924424">
        <ele>140.97</ele>
        <time>2023-08-18T15:51:09Z</time>
      </trkpt>
      <trkpt lat="57.543168989941478" lon="-3.653244031593204">
        <ele>142.41</ele>
        <time>2023-08-18T15:51:17Z</time>
      </trkpt>
      <trkpt lat="57.541924025863409" lon="-3.653312008827925">
        <ele>140.97</ele>
        <time>2023-08-18T15:51:23Z</time>
      </trkpt>
      <trkpt lat="57.540414026007056" lon="-3.65261203609407">
        <ele>139.53</ele>
        <time>2023-08-18T15:51:30Z</time>
      </trkpt>
      <trkpt lat="57.538177985697985" lon="-3.651591036468744">
        <ele>143.84999999999999</ele>
        <time>2023-08-18T15:51:40Z</time>
      </trkpt>
      <trkpt lat="57.536398004740477" lon="-3.651471007615328">
        <ele>146.25999999999999</ele>
        <time>2023-08-18T15:51:48Z</time>
      </trkpt>
      <trkpt lat="57.534863026812673" lon="-3.651882978156209">
        <ele>148.18000000000001</ele>
        <time>2023-08-18T15:51:55Z</time>
      </trkpt>
      <trkpt lat="57.534662028774619" lon="-3.651971993967891">
        <ele>148.66</ele>
        <time>2023-08-18T15:51:56Z</time>
      </trkpt>
      <trkpt lat="57.534467987716198" lon="-3.652062015607953">
        <ele>148.66</ele>
        <time>2023-08-18T15:51:57Z</time>
      </trkpt>
      <trkpt lat="57.53427897579968" lon="-3.652230994775891">
        <ele>149.13999999999999</ele>
        <time>2023-08-18T15:51:58Z</time>
      </trkpt>
      <trkpt lat="57.534089041873813" lon="-3.65240097977221">
        <ele>149.13999999999999</ele>
        <time>2023-08-18T15:51:59Z</time>
      </trkpt>
      <trkpt lat="57.533916039392352" lon="-3.652618993073702">
        <ele>149.13999999999999</ele>
        <time>2023-08-18T15:52:00Z</time>
      </trkpt>
      <trkpt lat="57.53374001942575" lon="-3.652846980839968">
        <ele>149.13999999999999</ele>
        <time>2023-08-18T15:52:01Z</time>
      </trkpt>
      <trkpt lat="57.533581014722586" lon="-3.653090978041291">
        <ele>149.62</ele>
        <time>2023-08-18T15:52:02Z</time>
      </trkpt>
      <trkpt lat="57.53344003111124" lon="-3.653358025476337">
        <ele>149.13999999999999</ele>
        <time>2023-08-18T15:52:03Z</time>
      </trkpt>
      <trkpt lat="57.533309021964669" lon="-3.653607973828912">
        <ele>149.13999999999999</ele>
        <time>2023-08-18T15:52:04Z</time>
      </trkpt>
      <trkpt lat="57.533188993111253" lon="-3.653848031535745">
        <ele>148.66</ele>
        <time>2023-08-18T15:52:05Z</time>
      </trkpt>
      <trkpt lat="57.532678032293916" lon="-3.654988976195455">
        <ele>148.18000000000001</ele>
        <time>2023-08-18T15:52:10Z</time>
      </trkpt>
      <trkpt lat="57.532565966248512" lon="-3.655182011425495">
        <ele>147.69999999999999</ele>
        <time>2023-08-18T15:52:11Z</time>
      </trkpt>
      <trkpt lat="57.532422970980406" lon="-3.655307991430163">
        <ele>147.22</ele>
        <time>2023-08-18T15:52:12Z</time>
      </trkpt>
      <trkpt lat="57.532267989590764" lon="-3.655426008626819">
        <ele>147.22</ele>
        <time>2023-08-18T15:52:13Z</time>
      </trkpt>
      <trkpt lat="57.532099010422826" lon="-3.655527010560036">
        <ele>147.22</ele>
        <time>2023-08-18T15:52:14Z</time>
      </trkpt>
      <trkpt lat="57.531922990456223" lon="-3.655633041635156">
        <ele>147.69999999999999</ele>
        <time>2023-08-18T15:52:15Z</time>
      </trkpt>
      <trkpt lat="57.530655981972814" lon="-3.656303007155657">
        <ele>150.58000000000001</ele>
        <time>2023-08-18T15:52:22Z</time>
      </trkpt>
      <trkpt lat="57.530485996976495" lon="-3.656315999105573">
        <ele>151.06</ele>
        <time>2023-08-18T15:52:23Z</time>
      </trkpt>
      <trkpt lat="57.530304025858641" lon="-3.656285991892219">
        <ele>151.53999999999999</ele>
        <time>2023-08-18T15:52:24Z</time>
      </trkpt>
      <trkpt lat="57.530127000063658" lon="-3.656219020485878">
        <ele>152.03</ele>
        <time>2023-08-18T15:52:25Z</time>
      </trkpt>
      <trkpt lat="57.529812008142471" lon="-3.656177027150989">
        <ele>153.47</ele>
        <time>2023-08-18T15:52:27Z</time>
      </trkpt>
      <trkpt lat="57.529650991782546" lon="-3.656243998557329">
        <ele>153.94999999999999</ele>
        <time>2023-08-18T15:52:28Z</time>
      </trkpt>
      <trkpt lat="57.529481006786227" lon="-3.6563750077039">
        <ele>153.94999999999999</ele>
        <time>2023-08-18T15:52:29Z</time>
      </trkpt>
      <trkpt lat="57.528416002169251" lon="-3.657410005107522">
        <ele>155.87</ele>
        <time>2023-08-18T15:52:35Z</time>
      </trkpt>
      <trkpt lat="57.528131017461419" lon="-3.657896993681788">
        <ele>157.31</ele>
        <time>2023-08-18T15:52:37Z</time>
      </trkpt>
      <trkpt lat="57.527990033850074" lon="-3.658160017803311">
        <ele>157.78999999999999</ele>
        <time>2023-08-18T15:52:38Z</time>
      </trkpt>
      <trkpt lat="57.527713011950254" lon="-3.658623034134507">
        <ele>158.75</ele>
        <time>2023-08-18T15:52:40Z</time>
      </trkpt>
      <trkpt lat="57.527562975883484" lon="-3.658814979717135">
        <ele>159.24000000000001</ele>
        <time>2023-08-18T15:52:41Z</time>
      </trkpt>
      <trkpt lat="57.527066012844443" lon="-3.659282019361854">
        <ele>160.19999999999999</ele>
        <time>2023-08-18T15:52:44Z</time>
      </trkpt>
      <trkpt lat="57.526920000091195" lon="-3.659418979659677">
        <ele>160.68000000000001</ele>
        <time>2023-08-18T15:52:45Z</time>
      </trkpt>
      <trkpt lat="57.526766024529934" lon="-3.659440018236637">
        <ele>160.68000000000001</ele>
        <time>2023-08-18T15:52:46Z</time>
      </trkpt>
      <trkpt lat="57.526595033705235" lon="-3.65944697521627">
        <ele>160.68000000000001</ele>
        <time>2023-08-18T15:52:47Z</time>
      </trkpt>
      <trkpt lat="57.526412978768349" lon="-3.659454016014934">
        <ele>160.68000000000001</ele>
        <time>2023-08-18T15:52:48Z</time>
      </trkpt>
      <trkpt lat="57.526225978508592" lon="-3.659406993538141">
        <ele>160.68000000000001</ele>
        <time>2023-08-18T15:52:49Z</time>
      </trkpt>
      <trkpt lat="57.526030009612441" lon="-3.65933801047504">
        <ele>160.68000000000001</ele>
        <time>2023-08-18T15:52:50Z</time>
      </trkpt>
      <trkpt lat="57.524592010304332" lon="-3.659086972475052">
        <ele>162.12</ele>
        <time>2023-08-18T15:52:57Z</time>
      </trkpt>
      <trkpt lat="57.523429021239281" lon="-3.658851021900773">
        <ele>166.93000000000001</ele>
        <time>2023-08-18T15:53:03Z</time>
      </trkpt>
      <trkpt lat="57.52323598600924" lon="-3.658889997750521">
        <ele>167.88999999999999</ele>
        <time>2023-08-18T15:53:04Z</time>
      </trkpt>
      <trkpt lat="57.523044962435961" lon="-3.658929979428649">
        <ele>168.84999999999999</ele>
        <time>2023-08-18T15:53:05Z</time>
      </trkpt>
      <trkpt lat="57.522861985489726" lon="-3.658967027440667">
        <ele>170.28999999999999</ele>
        <time>2023-08-18T15:53:06Z</time>
      </trkpt>
      <trkpt lat="57.522695017978549" lon="-3.659000974148512">
        <ele>171.25</ele>
        <time>2023-08-18T15:53:07Z</time>
      </trkpt>
      <trkpt lat="57.522538024932146" lon="-3.658970966935158">
        <ele>172.69</ele>
        <time>2023-08-18T15:53:08Z</time>
      </trkpt>
      <trkpt lat="57.522403998300433" lon="-3.658886980265379">
        <ele>174.13999999999999</ele>
        <time>2023-08-18T15:53:09Z</time>
      </trkpt>
      <trkpt lat="57.522275000810623" lon="-3.658790001645684">
        <ele>175.09999999999999</ele>
        <time>2023-08-18T15:53:10Z</time>
      </trkpt>
      <trkpt lat="57.522151032462716" lon="-3.65869302302599">
        <ele>176.06</ele>
        <time>2023-08-18T15:53:11Z</time>
      </trkpt>
      <trkpt lat="57.522035026922822" lon="-3.658553967252374">
        <ele>176.53999999999999</ele>
        <time>2023-08-18T15:53:12Z</time>
      </trkpt>
      <trkpt lat="57.521916003897786" lon="-3.658412983641028">
        <ele>177.5</ele>
        <time>2023-08-18T15:53:13Z</time>
      </trkpt>
      <trkpt lat="57.520752009004354" lon="-3.657030975446105">
        <ele>182.78999999999999</ele>
        <time>2023-08-18T15:53:21Z</time>
      </trkpt>
      <trkpt lat="57.519503021612763" lon="-3.655559029430151">
        <ele>188.56</ele>
        <time>2023-08-18T15:53:29Z</time>
      </trkpt>
      <trkpt lat="57.519328007474542" lon="-3.655436988919973">
        <ele>189.52000000000001</ele>
        <time>2023-08-18T15:53:30Z</time>
      </trkpt>
      <trkpt lat="57.519147964194417" lon="-3.655312014743686">
        <ele>190</ele>
        <time>2023-08-18T15:53:31Z</time>
      </trkpt>
      <trkpt lat="57.517578033730388" lon="-3.654502993449569">
        <ele>193.36000000000001</ele>
        <time>2023-08-18T15:53:39Z</time>
      </trkpt>
      <trkpt lat="57.516533983871341" lon="-3.653520969673991">
        <ele>193.84</ele>
        <time>2023-08-18T15:53:45Z</time>
      </trkpt>
      <trkpt lat="57.51638101413846" lon="-3.653269009664655">
        <ele>193.84</ele>
        <time>2023-08-18T15:53:46Z</time>
      </trkpt>
      <trkpt lat="57.515966026112437" lon="-3.652401985600591">
        <ele>194.80000000000001</ele>
        <time>2023-08-18T15:53:49Z</time>
      </trkpt>
      <trkpt lat="57.515106964856386" lon="-3.649935023859143">
        <ele>194.80000000000001</ele>
        <time>2023-08-18T15:53:56Z</time>
      </trkpt>
      <trkpt lat="57.514470024034381" lon="-3.648249004036188">
        <ele>193.36000000000001</ele>
        <time>2023-08-18T15:54:01Z</time>
      </trkpt>
      <trkpt lat="57.514299033209682" lon="-3.647976005449891">
        <ele>192.88</ele>
        <time>2023-08-18T15:54:02Z</time>
      </trkpt>
      <trkpt lat="57.512871008366346" lon="-3.646258972585201">
        <ele>186.15000000000001</ele>
        <time>2023-08-18T15:54:09Z</time>
      </trkpt>
      <trkpt lat="57.511579021811485" lon="-3.644958017393947">
        <ele>182.78999999999999</ele>
        <time>2023-08-18T15:54:15Z</time>
      </trkpt>
      <trkpt lat="57.511356985196471" lon="-3.644733969122171">
        <ele>182.31</ele>
        <time>2023-08-18T15:54:16Z</time>
      </trkpt>
      <trkpt lat="57.509353961795568" lon="-3.642464987933636">
        <ele>177.97999999999999</ele>
        <time>2023-08-18T15:54:26Z</time>
      </trkpt>
      <trkpt lat="57.507792999967933" lon="-3.640364985913038">
        <ele>181.34999999999999</ele>
        <time>2023-08-18T15:54:34Z</time>
      </trkpt>
      <trkpt lat="57.506572008132935" lon="-3.638292979449034">
        <ele>183.75</ele>
        <time>2023-08-18T15:54:41Z</time>
      </trkpt>
      <trkpt lat="57.505867006257176" lon="-3.637302992865443">
        <ele>183.27000000000001</ele>
        <time>2023-08-18T15:54:45Z</time>
      </trkpt>
      <trkpt lat="57.505366019904613" lon="-3.63675900734961">
        <ele>182.31</ele>
        <time>2023-08-18T15:54:48Z</time>
      </trkpt>
      <trkpt lat="57.505178013816476" lon="-3.636675020679832">
        <ele>181.83000000000001</ele>
        <time>2023-08-18T15:54:49Z</time>
      </trkpt>
      <trkpt lat="57.504976009950042" lon="-3.636589022353292">
        <ele>181.83000000000001</ele>
        <time>2023-08-18T15:54:50Z</time>
      </trkpt>
      <trkpt lat="57.504769982770085" lon="-3.636536970734596">
        <ele>181.83000000000001</ele>
        <time>2023-08-18T15:54:51Z</time>
      </trkpt>
      <trkpt lat="57.504550041630864" lon="-3.63650101236999">
        <ele>182.31</ele>
        <time>2023-08-18T15:54:52Z</time>
      </trkpt>
      <trkpt lat="57.502988995984197" lon="-3.636686000972986">
        <ele>182.31</ele>
        <time>2023-08-18T15:54:59Z</time>
      </trkpt>
      <trkpt lat="57.501489976420999" lon="-3.637234009802342">
        <ele>177.02000000000001</ele>
        <time>2023-08-18T15:55:06Z</time>
      </trkpt>
      <trkpt lat="57.501291995868087" lon="-3.637176007032394">
        <ele>176.06</ele>
        <time>2023-08-18T15:55:07Z</time>
      </trkpt>
      <trkpt lat="57.501095021143556" lon="-3.637116998434067">
        <ele>175.09999999999999</ele>
        <time>2023-08-18T15:55:08Z</time>
      </trkpt>
      <trkpt lat="57.50091003254056" lon="-3.636998981237412">
        <ele>173.66</ele>
        <time>2023-08-18T15:55:09Z</time>
      </trkpt>
      <trkpt lat="57.500724038109183" lon="-3.636842994019389">
        <ele>172.69</ele>
        <time>2023-08-18T15:55:10Z</time>
      </trkpt>
      <trkpt lat="57.50054600648582" lon="-3.636693963780999">
        <ele>171.72999999999999</ele>
        <time>2023-08-18T15:55:11Z</time>
      </trkpt>
      <trkpt lat="57.500376021489501" lon="-3.636541999876499">
        <ele>170.77000000000001</ele>
        <time>2023-08-18T15:55:12Z</time>
      </trkpt>
      <trkpt lat="57.500040996819735" lon="-3.636232959106565">
        <ele>168.37</ele>
        <time>2023-08-18T15:55:14Z</time>
      </trkpt>
      <trkpt lat="57.499864976853132" lon="-3.636115025728941">
        <ele>167.41</ele>
        <time>2023-08-18T15:55:15Z</time>
      </trkpt>
      <trkpt lat="57.499694991856813" lon="-3.636072026565671">
        <ele>166.44999999999999</ele>
        <time>2023-08-18T15:55:16Z</time>
      </trkpt>
      <trkpt lat="57.499555014073849" lon="-3.636119971051812">
        <ele>165.47999999999999</ele>
        <time>2023-08-18T15:55:17Z</time>
      </trkpt>
      <trkpt lat="57.499455017969012" lon="-3.636195994913578">
        <ele>165</ele>
        <time>2023-08-18T15:55:18Z</time>
      </trkpt>
      <trkpt lat="57.499369019642472" lon="-3.636339996010065">
        <ele>164.52000000000001</ele>
        <time>2023-08-18T15:55:19Z</time>
      </trkpt>
      <trkpt lat="57.499309005215764" lon="-3.63652003929019">
        <ele>164.03999999999999</ele>
        <time>2023-08-18T15:55:20Z</time>
      </trkpt>
      <trkpt lat="57.499246979132295" lon="-3.636741992086172">
        <ele>163.08000000000001</ele>
        <time>2023-08-18T15:55:21Z</time>
      </trkpt>
      <trkpt lat="57.499177996069193" lon="-3.636989006772637">
        <ele>163.08000000000001</ele>
        <time>2023-08-18T15:55:22Z</time>
      </trkpt>
      <trkpt lat="57.499104989692569" lon="-3.637243984267116">
        <ele>162.59999999999999</ele>
        <time>2023-08-18T15:55:23Z</time>
      </trkpt>
      <trkpt lat="57.499024020507932" lon="-3.637470966205001">
        <ele>162.59999999999999</ele>
        <time>2023-08-18T15:55:24Z</time>
      </trkpt>
      <trkpt lat="57.498938022181392" lon="-3.637674981728196">
        <ele>162.59999999999999</ele>
        <time>2023-08-18T15:55:25Z</time>
      </trkpt>
      <trkpt lat="57.498452961444855" lon="-3.638568995520473">
        <ele>162.12</ele>
        <time>2023-08-18T15:55:32Z</time>
      </trkpt>
      <trkpt lat="57.498383978381753" lon="-3.638615012168884">
        <ele>162.12</ele>
        <time>2023-08-18T15:55:33Z</time>
      </trkpt>
      <trkpt lat="57.498305020853877" lon="-3.638616017997265">
        <ele>161.63999999999999</ele>
        <time>2023-08-18T15:55:34Z</time>
      </trkpt>
      <trkpt lat="57.498214999213815" lon="-3.638556003570557">
        <ele>161.63999999999999</ele>
        <time>2023-08-18T15:55:35Z</time>
      </trkpt>
      <trkpt lat="57.498142998665571" lon="-3.638428011909127">
        <ele>161.63999999999999</ele>
        <time>2023-08-18T15:55:36Z</time>
      </trkpt>
      <trkpt lat="57.498065968975425" lon="-3.638291973620653">
        <ele>161.16</ele>
        <time>2023-08-18T15:55:37Z</time>
      </trkpt>
      <trkpt lat="57.498000003397465" lon="-3.638194995000958">
        <ele>161.16</ele>
        <time>2023-08-18T15:55:38Z</time>
      </trkpt>
      <trkpt lat="57.497915010899305" lon="-3.638127017766237">
        <ele>161.16</ele>
        <time>2023-08-18T15:55:39Z</time>
      </trkpt>
      <trkpt lat="57.497799005359411" lon="-3.63817404024303">
        <ele>160.68000000000001</ele>
        <time>2023-08-18T15:55:40Z</time>
      </trkpt>
      <trkpt lat="57.497675959020853" lon="-3.638225002214313">
        <ele>160.68000000000001</ele>
        <time>2023-08-18T15:55:41Z</time>
      </trkpt>
      <trkpt lat="57.497552996501327" lon="-3.638275964185596">
        <ele>159.72</ele>
        <time>2023-08-18T15:55:42Z</time>
      </trkpt>
      <trkpt lat="57.497480995953083" lon="-3.638390963897109">
        <ele>158.75</ele>
        <time>2023-08-18T15:55:43Z</time>
      </trkpt>
      <trkpt lat="57.497383011505008" lon="-3.638553991913796">
        <ele>157.31</ele>
        <time>2023-08-18T15:55:44Z</time>
      </trkpt>
      <trkpt lat="57.497228030115366" lon="-3.638813998550177">
        <ele>155.87</ele>
        <time>2023-08-18T15:55:45Z</time>
      </trkpt>
      <trkpt lat="57.497182013466954" lon="-3.63895196467638">
        <ele>154.91</ele>
        <time>2023-08-18T15:55:46Z</time>
      </trkpt>
      <trkpt lat="57.496511964127421" lon="-3.64124801941216">
        <ele>149.62</ele>
        <time>2023-08-18T15:55:53Z</time>
      </trkpt>
      <trkpt lat="57.495744014158845" lon="-3.644155031070113">
        <ele>148.66</ele>
        <time>2023-08-18T15:56:00Z</time>
      </trkpt>
      <trkpt lat="57.494928035885096" lon="-3.647017031908035">
        <ele>149.13999999999999</ele>
        <time>2023-08-18T15:56:07Z</time>
      </trkpt>
      <trkpt lat="57.49392899684608" lon="-3.6504449788481">
        <ele>148.18000000000001</ele>
        <time>2023-08-18T15:56:16Z</time>
      </trkpt>
      <trkpt lat="57.492891987785697" lon="-3.653044039383531">
        <ele>147.22</ele>
        <time>2023-08-18T15:56:24Z</time>
      </trkpt>
      <trkpt lat="57.492615971714258" lon="-3.653594981878996">
        <ele>147.22</ele>
        <time>2023-08-18T15:56:26Z</time>
      </trkpt>
      <trkpt lat="57.492457972839475" lon="-3.653789022937417">
        <ele>147.22</ele>
        <time>2023-08-18T15:56:27Z</time>
      </trkpt>
      <trkpt lat="57.492292011156678" lon="-3.653993038460612">
        <ele>147.22</ele>
        <time>2023-08-18T15:56:28Z</time>
      </trkpt>
      <trkpt lat="57.491896972060204" lon="-3.654327979311347">
        <ele>147.22</ele>
        <time>2023-08-18T15:56:30Z</time>
      </trkpt>
      <trkpt lat="57.490422008559108" lon="-3.6549779959023">
        <ele>150.09999999999999</ele>
        <time>2023-08-18T15:56:37Z</time>
      </trkpt>
      <trkpt lat="57.489166986197233" lon="-3.655388038605452">
        <ele>156.83000000000001</ele>
        <time>2023-08-18T15:56:44Z</time>
      </trkpt>
      <trkpt lat="57.488988032564521" lon="-3.655443023890257">
        <ele>157.78999999999999</ele>
        <time>2023-08-18T15:56:45Z</time>
      </trkpt>
      <trkpt lat="57.488822992891073" lon="-3.655396001413465">
        <ele>159.24000000000001</ele>
        <time>2023-08-18T15:56:46Z</time>
      </trkpt>
      <trkpt lat="57.487867958843708" lon="-3.655207995325327">
        <ele>165</ele>
        <time>2023-08-18T15:56:52Z</time>
      </trkpt>
      <trkpt lat="57.487586997449398" lon="-3.655268009752035">
        <ele>168.37</ele>
        <time>2023-08-18T15:56:57Z</time>
      </trkpt>
      <trkpt lat="57.487477026879787" lon="-3.655291981995106">
        <ele>171.72999999999999</ele>
        <time>2023-08-18T15:57:05Z</time>
      </trkpt>
      <trkpt lat="57.487193970009685" lon="-3.65538502112031">
        <ele>174.62</ele>
        <time>2023-08-18T15:57:09Z</time>
      </trkpt>
      <trkpt lat="57.48703496530652" lon="-3.655486023053527">
        <ele>175.58000000000001</ele>
        <time>2023-08-18T15:57:10Z</time>
      </trkpt>
      <trkpt lat="57.48698802664876" lon="-3.65558099001646">
        <ele>176.53999999999999</ele>
        <time>2023-08-18T15:57:11Z</time>
      </trkpt>
      <trkpt lat="57.486878978088498" lon="-3.655832028016448">
        <ele>177.02000000000001</ele>
        <time>2023-08-18T15:57:12Z</time>
      </trkpt>
      <trkpt lat="57.486852994188666" lon="-3.65600997582078">
        <ele>177.97999999999999</ele>
        <time>2023-08-18T15:57:13Z</time>
      </trkpt>
      <trkpt lat="57.486827010288835" lon="-3.656195970252156">
        <ele>178.94</ele>
        <time>2023-08-18T15:57:14Z</time>
      </trkpt>
      <trkpt lat="57.486759033054113" lon="-3.65652403794229">
        <ele>180.38</ele>
        <time>2023-08-18T15:57:16Z</time>
      </trkpt>
      <trkpt lat="57.486702958121896" lon="-3.656711960211396">
        <ele>181.34999999999999</ele>
        <time>2023-08-18T15:57:17Z</time>
      </trkpt>
      <trkpt lat="57.48664696700871" lon="-3.656901977956295">
        <ele>182.78999999999999</ele>
        <time>2023-08-18T15:57:18Z</time>
      </trkpt>
      <trkpt lat="57.486587036401033" lon="-3.657032987102866">
        <ele>184.22999999999999</ele>
        <time>2023-08-18T15:57:19Z</time>
      </trkpt>
      <trkpt lat="57.486485028639436" lon="-3.657197020947933">
        <ele>185.66999999999999</ele>
        <time>2023-08-18T15:57:20Z</time>
      </trkpt>
      <trkpt lat="57.486378997564316" lon="-3.657370023429394">
        <ele>186.63</ele>
        <time>2023-08-18T15:57:21Z</time>
      </trkpt>
      <trkpt lat="57.485601995140314" lon="-3.658338971436024">
        <ele>191.91999999999999</ele>
        <time>2023-08-18T15:57:27Z</time>
      </trkpt>
      <trkpt lat="57.485445002093911" lon="-3.658474003896117">
        <ele>193.36000000000001</ele>
        <time>2023-08-18T15:57:28Z</time>
      </trkpt>
      <trkpt lat="57.485276022925973" lon="-3.658619010820985">
        <ele>194.31999999999999</ele>
        <time>2023-08-18T15:57:29Z</time>
      </trkpt>
      <trkpt lat="57.485131016001105" lon="-3.658675001934171">
        <ele>195.28</ele>
        <time>2023-08-18T15:57:30Z</time>
      </trkpt>
      <trkpt lat="57.484971005469561" lon="-3.65873702801764">
        <ele>196.25</ele>
        <time>2023-08-18T15:57:31Z</time>
      </trkpt>
      <trkpt lat="57.484814012423158" lon="-3.658797964453697">
        <ele>197.21000000000001</ele>
        <time>2023-08-18T15:57:32Z</time>
      </trkpt>
      <trkpt lat="57.483843974769115" lon="-3.659310014918447">
        <ele>202.49000000000001</ele>
        <time>2023-08-18T15:57:37Z</time>
      </trkpt>
      <trkpt lat="57.482702024281025" lon="-3.660148959606886">
        <ele>209.22</ele>
        <time>2023-08-18T15:57:42Z</time>
      </trkpt>
      <trkpt lat="57.482486022636294" lon="-3.660249961540103">
        <ele>210.66999999999999</ele>
        <time>2023-08-18T15:57:43Z</time>
      </trkpt>
      <trkpt lat="57.481051040813327" lon="-3.660600995644927">
        <ele>218.36000000000001</ele>
        <time>2023-08-18T15:57:49Z</time>
      </trkpt>
      <trkpt lat="57.47891197912395" lon="-3.661272972822189">
        <ele>226.53</ele>
        <time>2023-08-18T15:57:58Z</time>
      </trkpt>
      <trkpt lat="57.477219002321362" lon="-3.661946039646864">
        <ele>230.84999999999999</ele>
        <time>2023-08-18T15:58:05Z</time>
      </trkpt>
      <trkpt lat="57.475382024422288" lon="-3.662567976862192">
        <ele>237.58000000000001</ele>
        <time>2023-08-18T15:58:13Z</time>
      </trkpt>
      <trkpt lat="57.473837994039059" lon="-3.663385966792703">
        <ele>243.34999999999999</ele>
        <time>2023-08-18T15:58:20Z</time>
      </trkpt>
      <trkpt lat="57.471625003963709" lon="-3.66479798220098">
        <ele>249.59999999999999</ele>
        <time>2023-08-18T15:58:30Z</time>
      </trkpt>
      <trkpt lat="57.469523996114731" lon="-3.666184013709426">
        <ele>252.96000000000001</ele>
        <time>2023-08-18T15:58:40Z</time>
      </trkpt>
      <trkpt lat="57.468625036999583" lon="-3.666962021961808">
        <ele>254.88999999999999</ele>
        <time>2023-08-18T15:58:45Z</time>
      </trkpt>
      <trkpt lat="57.468452034518123" lon="-3.667076015844941">
        <ele>255.37</ele>
        <time>2023-08-18T15:58:46Z</time>
      </trkpt>
      <trkpt lat="57.468251958489418" lon="-3.667088001966476">
        <ele>255.84999999999999</ele>
        <time>2023-08-18T15:58:47Z</time>
      </trkpt>
      <trkpt lat="57.468036962673068" lon="-3.667099988088012">
        <ele>255.84999999999999</ele>
        <time>2023-08-18T15:58:48Z</time>
      </trkpt>
      <trkpt lat="57.467817021533847" lon="-3.667112980037928">
        <ele>256.32999999999998</ele>
        <time>2023-08-18T15:58:49Z</time>
      </trkpt>
      <trkpt lat="57.466057995334268" lon="-3.667251029983163">
        <ele>257.76999999999998</ele>
        <time>2023-08-18T15:58:57Z</time>
      </trkpt>
      <trkpt lat="57.464821999892592" lon="-3.66756996139884">
        <ele>260.17000000000002</ele>
        <time>2023-08-18T15:59:03Z</time>
      </trkpt>
      <trkpt lat="57.463135980069637" lon="-3.668262977153063">
        <ele>266.42000000000002</ele>
        <time>2023-08-18T15:59:11Z</time>
      </trkpt>
      <trkpt lat="57.461597984656692" lon="-3.668201034888625">
        <ele>270.26999999999998</ele>
        <time>2023-08-18T15:59:18Z</time>
      </trkpt>
      <trkpt lat="57.460436001420021" lon="-3.667704993858933">
        <ele>274.58999999999997</ele>
        <time>2023-08-18T15:59:23Z</time>
      </trkpt>
      <trkpt lat="57.460194015875459" lon="-3.667669035494328">
        <ele>275.56</ele>
        <time>2023-08-18T15:59:24Z</time>
      </trkpt>
      <trkpt lat="57.459308970719576" lon="-3.667566021904349">
        <ele>279.88</ele>
        <time>2023-08-18T15:59:28Z</time>
      </trkpt>
      <trkpt lat="57.458901023492217" lon="-3.667429983615875">
        <ele>281.80000000000001</ele>
        <time>2023-08-18T15:59:30Z</time>
      </trkpt>
      <trkpt lat="57.458685021847486" lon="-3.667439036071301">
        <ele>283.25</ele>
        <time>2023-08-18T15:59:31Z</time>
      </trkpt>
      <trkpt lat="57.458459967747331" lon="-3.667467031627893">
        <ele>284.20999999999998</ele>
        <time>2023-08-18T15:59:32Z</time>
      </trkpt>
      <trkpt lat="57.456920966506004" lon="-3.667491003870964">
        <ele>290.45999999999998</ele>
        <time>2023-08-18T15:59:39Z</time>
      </trkpt>
      <trkpt lat="57.45542898774147" lon="-3.666908964514732">
        <ele>293.33999999999997</ele>
        <time>2023-08-18T15:59:46Z</time>
      </trkpt>
      <trkpt lat="57.452924977988005" lon="-3.665249012410641">
        <ele>298.63</ele>
        <time>2023-08-18T15:59:57Z</time>
      </trkpt>
      <trkpt lat="57.451124964281917" lon="-3.663849988952279">
        <ele>300.55000000000001</ele>
        <time>2023-08-18T16:00:05Z</time>
      </trkpt>
      <trkpt lat="57.449199976399541" lon="-3.66305697709322">
        <ele>300.06999999999999</ele>
        <time>2023-08-18T16:00:13Z</time>
      </trkpt>
      <trkpt lat="57.447386970743537" lon="-3.662291960790753">
        <ele>298.63</ele>
        <time>2023-08-18T16:00:21Z</time>
      </trkpt>
      <trkpt lat="57.445835983380675" lon="-3.661708999425173">
        <ele>294.30000000000001</ele>
        <time>2023-08-18T16:00:28Z</time>
      </trkpt>
      <trkpt lat="57.444444000720978" lon="-3.661169037222862">
        <ele>289.49000000000001</ele>
        <time>2023-08-18T16:00:35Z</time>
      </trkpt>
      <trkpt lat="57.443602960556746" lon="-3.660740973427892">
        <ele>288.05000000000001</ele>
        <time>2023-08-18T16:00:42Z</time>
      </trkpt>
      <trkpt lat="57.442688997834921" lon="-3.659590976312757">
        <ele>286.13</ele>
        <time>2023-08-18T16:00:50Z</time>
      </trkpt>
      <trkpt lat="57.441671015694737" lon="-3.657588958740234">
        <ele>282.76999999999998</ele>
        <time>2023-08-18T16:01:00Z</time>
      </trkpt>
      <trkpt lat="57.441211016848683" lon="-3.656171998009086">
        <ele>279.39999999999998</ele>
        <time>2023-08-18T16:01:06Z</time>
      </trkpt>
      <trkpt lat="57.441114960238338" lon="-3.655991032719612">
        <ele>278.44</ele>
        <time>2023-08-18T16:01:07Z</time>
      </trkpt>
      <trkpt lat="57.441024016588926" lon="-3.655820963904262">
        <ele>277.48000000000002</ele>
        <time>2023-08-18T16:01:08Z</time>
      </trkpt>
      <trkpt lat="57.440600981935859" lon="-3.655272033065558">
        <ele>272.19</ele>
        <time>2023-08-18T16:01:15Z</time>
      </trkpt>
      <trkpt lat="57.440525041893125" lon="-3.655203972011805">
        <ele>271.70999999999998</ele>
        <time>2023-08-18T16:01:16Z</time>
      </trkpt>
      <trkpt lat="57.440513977780938" lon="-3.65519399754703">
        <ele>269.79000000000002</ele>
        <time>2023-08-18T16:01:24Z</time>
      </trkpt>
      <trkpt lat="57.440513977780938" lon="-3.65519399754703">
        <ele>269.31</ele>
        <time>2023-08-18T16:01:38Z</time>
      </trkpt>
      <trkpt lat="57.440424039959908" lon="-3.655114034190774">
        <ele>269.31</ele>
        <time>2023-08-18T16:01:47Z</time>
      </trkpt>
      <trkpt lat="57.440383974462748" lon="-3.655078997835517">
        <ele>269.31</ele>
        <time>2023-08-18T16:01:48Z</time>
      </trkpt>
      <trkpt lat="57.440325971692801" lon="-3.655028035864234">
        <ele>269.31</ele>
        <time>2023-08-18T16:01:49Z</time>
      </trkpt>
      <trkpt lat="57.439655000343919" lon="-3.654649006202817">
        <ele>269.31</ele>
        <time>2023-08-18T16:01:55Z</time>
      </trkpt>
      <trkpt lat="57.438465021550655" lon="-3.653971999883652">
        <ele>270.26999999999998</ele>
        <time>2023-08-18T16:02:02Z</time>
      </trkpt>
      <trkpt lat="57.436924008652568" lon="-3.652639025822282">
        <ele>275.56</ele>
        <time>2023-08-18T16:02:11Z</time>
      </trkpt>
      <trkpt lat="57.436769027262926" lon="-3.652582028880715">
        <ele>276.51999999999998</ele>
        <time>2023-08-18T16:02:12Z</time>
      </trkpt>
      <trkpt lat="57.436604993417859" lon="-3.6525690369308">
        <ele>277</ele>
        <time>2023-08-18T16:02:13Z</time>
      </trkpt>
      <trkpt lat="57.436431990936399" lon="-3.652633996680379">
        <ele>277.48000000000002</ele>
        <time>2023-08-18T16:02:14Z</time>
      </trkpt>
      <trkpt lat="57.436249013990164" lon="-3.652712032198906">
        <ele>277.48000000000002</ele>
        <time>2023-08-18T16:02:15Z</time>
      </trkpt>
      <trkpt lat="57.43497496470809" lon="-3.653262974694371">
        <ele>277.48000000000002</ele>
        <time>2023-08-18T16:02:22Z</time>
      </trkpt>
      <trkpt lat="57.433733018115163" lon="-3.653448969125748">
        <ele>278.92000000000002</ele>
        <time>2023-08-18T16:02:29Z</time>
      </trkpt>
      <trkpt lat="57.432635994628072" lon="-3.653525998815894">
        <ele>280.36000000000001</ele>
        <time>2023-08-18T16:02:34Z</time>
      </trkpt>
      <trkpt lat="57.432402977719903" lon="-3.65360202267766">
        <ele>280.83999999999997</ele>
        <time>2023-08-18T16:02:35Z</time>
      </trkpt>
      <trkpt lat="57.432174989953637" lon="-3.653740994632244">
        <ele>281.31999999999999</ele>
        <time>2023-08-18T16:02:36Z</time>
      </trkpt>
      <trkpt lat="57.431977009400725" lon="-3.653938975185156">
        <ele>281.80000000000001</ele>
        <time>2023-08-18T16:02:37Z</time>
      </trkpt>
      <trkpt lat="57.431786991655827" lon="-3.654128992930055">
        <ele>282.27999999999997</ele>
        <time>2023-08-18T16:02:38Z</time>
      </trkpt>
      <trkpt lat="57.430416969582438" lon="-3.655813001096249">
        <ele>281.31999999999999</ele>
        <time>2023-08-18T16:02:47Z</time>
      </trkpt>
      <trkpt lat="57.429643990471959" lon="-3.657345967367292">
        <ele>280.36000000000001</ele>
        <time>2023-08-18T16:02:55Z</time>
      </trkpt>
      <trkpt lat="57.429250963032246" lon="-3.658126993104816">
        <ele>279.39999999999998</ele>
        <time>2023-08-18T16:02:59Z</time>
      </trkpt>
      <trkpt lat="57.429067986086011" lon="-3.658493030816317">
        <ele>278.92000000000002</ele>
        <time>2023-08-18T16:03:01Z</time>
      </trkpt>
      <trkpt lat="57.428472032770514" lon="-3.659633975476027">
        <ele>277.95999999999998</ele>
        <time>2023-08-18T16:03:07Z</time>
      </trkpt>
      <trkpt lat="57.428372958675027" lon="-3.659805972129107">
        <ele>277.95999999999998</ele>
        <time>2023-08-18T16:03:08Z</time>
      </trkpt>
      <trkpt lat="57.428239015862346" lon="-3.65991996601224">
        <ele>277.48000000000002</ele>
        <time>2023-08-18T16:03:09Z</time>
      </trkpt>
      <trkpt lat="57.428113035857677" lon="-3.659971011802554">
        <ele>277.48000000000002</ele>
        <time>2023-08-18T16:03:10Z</time>
      </trkpt>
      <trkpt lat="57.427986972033978" lon="-3.660020967945457">
        <ele>277.48000000000002</ele>
        <time>2023-08-18T16:03:11Z</time>
      </trkpt>
      <trkpt lat="57.427864009514451" lon="-3.66007000207901">
        <ele>277.48000000000002</ele>
        <time>2023-08-18T16:03:12Z</time>
      </trkpt>
      <trkpt lat="57.426509996876121" lon="-3.660505022853613">
        <ele>277.48000000000002</ele>
        <time>2023-08-18T16:03:22Z</time>
      </trkpt>
      <trkpt lat="57.425083983689547" lon="-3.660785984247923">
        <ele>278.44</ele>
        <time>2023-08-18T16:03:32Z</time>
      </trkpt>
      <trkpt lat="57.423787973821163" lon="-3.660507034510374">
        <ele>278.92000000000002</ele>
        <time>2023-08-18T16:03:40Z</time>
      </trkpt>
      <trkpt lat="57.422623978927732" lon="-3.660539975389838">
        <ele>281.80000000000001</ele>
        <time>2023-08-18T16:03:47Z</time>
      </trkpt>
      <trkpt lat="57.422479977831244" lon="-3.660455988720059">
        <ele>282.27999999999997</ele>
        <time>2023-08-18T16:03:48Z</time>
      </trkpt>
      <trkpt lat="57.422334970906377" lon="-3.6603709962219">
        <ele>282.76999999999998</ele>
        <time>2023-08-18T16:03:49Z</time>
      </trkpt>
      <trkpt lat="57.422195998951793" lon="-3.660245016217232">
        <ele>282.76999999999998</ele>
        <time>2023-08-18T16:03:50Z</time>
      </trkpt>
      <trkpt lat="57.422063983976841" lon="-3.660095985978842">
        <ele>283.25</ele>
        <time>2023-08-18T16:03:51Z</time>
      </trkpt>
      <trkpt lat="57.420291965827346" lon="-3.658095980063081">
        <ele>297.67000000000002</ele>
        <time>2023-08-18T16:04:04Z</time>
      </trkpt>
      <trkpt lat="57.419141968712211" lon="-3.657418973743916">
        <ele>304.88</ele>
        <time>2023-08-18T16:04:12Z</time>
      </trkpt>
      <trkpt lat="57.417402975261211" lon="-3.65661003626883">
        <ele>308.72000000000003</ele>
        <time>2023-08-18T16:04:22Z</time>
      </trkpt>
      <trkpt lat="57.415199959650636" lon="-3.655620971694589">
        <ele>309.68000000000001</ele>
        <time>2023-08-18T16:04:34Z</time>
      </trkpt>
      <trkpt lat="57.413963964208961" lon="-3.655065000057221">
        <ele>309.19999999999999</ele>
        <time>2023-08-18T16:04:39Z</time>
      </trkpt>
      <trkpt lat="57.410775991156697" lon="-3.653633035719395">
        <ele>308.72000000000003</ele>
        <time>2023-08-18T16:04:52Z</time>
      </trkpt>
      <trkpt lat="57.408274998888373" lon="-3.652712032198906">
        <ele>302.47000000000003</ele>
        <time>2023-08-18T16:05:03Z</time>
      </trkpt>
      <trkpt lat="57.40805204026401" lon="-3.652747990563512">
        <ele>301.50999999999999</ele>
        <time>2023-08-18T16:05:04Z</time>
      </trkpt>
      <trkpt lat="57.407822962850332" lon="-3.65278503857553">
        <ele>301.02999999999997</ele>
        <time>2023-08-18T16:05:05Z</time>
      </trkpt>
      <trkpt lat="57.407597992569208" lon="-3.652867013588548">
        <ele>300.55000000000001</ele>
        <time>2023-08-18T16:05:06Z</time>
      </trkpt>
      <trkpt lat="57.407370004802942" lon="-3.6529990285635">
        <ele>300.06999999999999</ele>
        <time>2023-08-18T16:05:07Z</time>
      </trkpt>
      <trkpt lat="57.407145034521818" lon="-3.653168007731438">
        <ele>300.06999999999999</ele>
        <time>2023-08-18T16:05:08Z</time>
      </trkpt>
      <trkpt lat="57.406918974593282" lon="-3.653357019647956">
        <ele>299.58999999999997</ele>
        <time>2023-08-18T16:05:09Z</time>
      </trkpt>
      <trkpt lat="57.406706996262074" lon="-3.653609985485673">
        <ele>299.58999999999997</ele>
        <time>2023-08-18T16:05:10Z</time>
      </trkpt>
      <trkpt lat="57.406504992395639" lon="-3.653854988515377">
        <ele>299.58999999999997</ele>
        <time>2023-08-18T16:05:11Z</time>
      </trkpt>
      <trkpt lat="57.406295025721192" lon="-3.654174003750086">
        <ele>299.11000000000001</ele>
        <time>2023-08-18T16:05:12Z</time>
      </trkpt>
      <trkpt lat="57.404985018074512" lon="-3.655972005799413">
        <ele>297.67000000000002</ele>
        <time>2023-08-18T16:05:19Z</time>
      </trkpt>
      <trkpt lat="57.404771028086543" lon="-3.656110977753997">
        <ele>297.67000000000002</ele>
        <time>2023-08-18T16:05:20Z</time>
      </trkpt>
      <trkpt lat="57.404546979814768" lon="-3.656231006607413">
        <ele>297.67000000000002</ele>
        <time>2023-08-18T16:05:21Z</time>
      </trkpt>
      <trkpt lat="57.404325027018785" lon="-3.656349023804069">
        <ele>297.67000000000002</ele>
        <time>2023-08-18T16:05:22Z</time>
      </trkpt>
      <trkpt lat="57.404105002060533" lon="-3.656377019360662">
        <ele>298.14999999999998</ele>
        <time>2023-08-18T16:05:23Z</time>
      </trkpt>
      <trkpt lat="57.403889000415802" lon="-3.656362015753985">
        <ele>298.14999999999998</ele>
        <time>2023-08-18T16:05:24Z</time>
      </trkpt>
      <trkpt lat="57.403671992942691" lon="-3.656346006318927">
        <ele>298.14999999999998</ele>
        <time>2023-08-18T16:05:25Z</time>
      </trkpt>
      <trkpt lat="57.403465965762734" lon="-3.656251961365342">
        <ele>298.63</ele>
        <time>2023-08-18T16:05:26Z</time>
      </trkpt>
      <trkpt lat="57.403266979381442" lon="-3.656152971088886">
        <ele>299.11000000000001</ele>
        <time>2023-08-18T16:05:27Z</time>
      </trkpt>
      <trkpt lat="57.403081990778446" lon="-3.656017016619444">
        <ele>299.58999999999997</ele>
        <time>2023-08-18T16:05:28Z</time>
      </trkpt>
      <trkpt lat="57.402092004194856" lon="-3.655100958421826">
        <ele>301.02999999999997</ele>
        <time>2023-08-18T16:05:35Z</time>
      </trkpt>
      <trkpt lat="57.400775039568543" lon="-3.653812995180488">
        <ele>304.88</ele>
        <time>2023-08-18T16:05:45Z</time>
      </trkpt>
      <trkpt lat="57.399516999721527" lon="-3.652584040537477">
        <ele>304.88</ele>
        <time>2023-08-18T16:05:51Z</time>
      </trkpt>
      <trkpt lat="57.398243034258485" lon="-3.651630012318492">
        <ele>305.36000000000001</ele>
        <time>2023-08-18T16:05:57Z</time>
      </trkpt>
      <trkpt lat="57.39688097499311" lon="-3.651029029861093">
        <ele>307.27999999999997</ele>
        <time>2023-08-18T16:06:04Z</time>
      </trkpt>
      <trkpt lat="57.396703027188778" lon="-3.650899026542902">
        <ele>307.27999999999997</ele>
        <time>2023-08-18T16:06:05Z</time>
      </trkpt>
      <trkpt lat="57.396523989737034" lon="-3.65076701156795">
        <ele>307.27999999999997</ele>
        <time>2023-08-18T16:06:06Z</time>
      </trkpt>
      <trkpt lat="57.396355010569096" lon="-3.65059400908649">
        <ele>307.27999999999997</ele>
        <time>2023-08-18T16:06:07Z</time>
      </trkpt>
      <trkpt lat="57.396197011694312" lon="-3.650403991341591">
        <ele>307.27999999999997</ele>
        <time>2023-08-18T16:06:08Z</time>
      </trkpt>
      <trkpt lat="57.396035995334387" lon="-3.650211039930582">
        <ele>307.27999999999997</ele>
        <time>2023-08-18T16:06:09Z</time>
      </trkpt>
      <trkpt lat="57.395895011723042" lon="-3.649967964738607">
        <ele>307.75999999999999</ele>
        <time>2023-08-18T16:06:10Z</time>
      </trkpt>
      <trkpt lat="57.395754028111696" lon="-3.649722039699554">
        <ele>308.24000000000001</ele>
        <time>2023-08-18T16:06:11Z</time>
      </trkpt>
      <trkpt lat="57.395626036450267" lon="-3.64949899725616">
        <ele>308.24000000000001</ele>
        <time>2023-08-18T16:06:12Z</time>
      </trkpt>
      <trkpt lat="57.394525995478034" lon="-3.646772028878331">
        <ele>307.27999999999997</ele>
        <time>2023-08-18T16:06:22Z</time>
      </trkpt>
      <trkpt lat="57.393626030534506" lon="-3.644415037706494">
        <ele>308.72000000000003</ele>
        <time>2023-08-18T16:06:30Z</time>
      </trkpt>
      <trkpt lat="57.393512958660722" lon="-3.644211022183299">
        <ele>309.19999999999999</ele>
        <time>2023-08-18T16:06:31Z</time>
      </trkpt>
      <trkpt lat="57.393397958949208" lon="-3.64408596418798">
        <ele>309.19999999999999</ele>
        <time>2023-08-18T16:06:32Z</time>
      </trkpt>
      <trkpt lat="57.393258986994624" lon="-3.6440210044384">
        <ele>309.68000000000001</ele>
        <time>2023-08-18T16:06:33Z</time>
      </trkpt>
      <trkpt lat="57.393107023090124" lon="-3.643950009718537">
        <ele>309.68000000000001</ele>
        <time>2023-08-18T16:06:34Z</time>
      </trkpt>
      <trkpt lat="57.392942989245057" lon="-3.643873985856772">
        <ele>310.16000000000003</ele>
        <time>2023-08-18T16:06:35Z</time>
      </trkpt>
      <trkpt lat="57.391854012385011" lon="-3.643338968977332">
        <ele>311.60000000000002</ele>
        <time>2023-08-18T16:06:41Z</time>
      </trkpt>
      <trkpt lat="57.391709005460143" lon="-3.643167978152633">
        <ele>312.08999999999997</ele>
        <time>2023-08-18T16:06:42Z</time>
      </trkpt>
      <trkpt lat="57.391576990485191" lon="-3.642974020913243">
        <ele>313.05000000000001</ele>
        <time>2023-08-18T16:06:43Z</time>
      </trkpt>
      <trkpt lat="57.391324024647474" lon="-3.64255903288722">
        <ele>313.52999999999997</ele>
        <time>2023-08-18T16:06:45Z</time>
      </trkpt>
      <trkpt lat="57.391180023550987" lon="-3.642401034012437">
        <ele>314.00999999999999</ele>
        <time>2023-08-18T16:06:46Z</time>
      </trkpt>
      <trkpt lat="57.391025964170694" lon="-3.64225803874433">
        <ele>314.00999999999999</ele>
        <time>2023-08-18T16:06:47Z</time>
      </trkpt>
      <trkpt lat="57.390860002487898" lon="-3.642180003225803">
        <ele>314.00999999999999</ele>
        <time>2023-08-18T16:06:48Z</time>
      </trkpt>
      <trkpt lat="57.390685994178057" lon="-3.642118982970715">
        <ele>314.49000000000001</ele>
        <time>2023-08-18T16:06:49Z</time>
      </trkpt>
      <trkpt lat="57.390509974211454" lon="-3.642075983807445">
        <ele>314.97000000000003</ele>
        <time>2023-08-18T16:06:50Z</time>
      </trkpt>
      <trkpt lat="57.390322973951697" lon="-3.642081012949348">
        <ele>315.44999999999999</ele>
        <time>2023-08-18T16:06:51Z</time>
      </trkpt>
      <trkpt lat="57.390131028369069" lon="-3.64208503626287">
        <ele>315.44999999999999</ele>
        <time>2023-08-18T16:06:52Z</time>
      </trkpt>
      <trkpt lat="57.389376992359757" lon="-3.642045976594091">
        <ele>316.88999999999999</ele>
        <time>2023-08-18T16:06:56Z</time>
      </trkpt>
      <trkpt lat="57.387653002515435" lon="-3.641168978065252">
        <ele>320.25999999999999</ele>
        <time>2023-08-18T16:07:05Z</time>
      </trkpt>
      <trkpt lat="57.38495503552258" lon="-3.63931498490274">
        <ele>319.30000000000001</ele>
        <time>2023-08-18T16:07:18Z</time>
      </trkpt>
      <trkpt lat="57.382773980498314" lon="-3.637809008359909">
        <ele>317.37</ele>
        <time>2023-08-18T16:07:27Z</time>
      </trkpt>
      <trkpt lat="57.380753019824624" lon="-3.636413002386689">
        <ele>315.93000000000001</ele>
        <time>2023-08-18T16:07:36Z</time>
      </trkpt>
      <trkpt lat="57.378253033384681" lon="-3.634783979505301">
        <ele>317.85000000000002</ele>
        <time>2023-08-18T16:07:48Z</time>
      </trkpt>
      <trkpt lat="57.376779997721314" lon="-3.633844032883644">
        <ele>320.25999999999999</ele>
        <time>2023-08-18T16:07:55Z</time>
      </trkpt>
      <trkpt lat="57.375435037538409" lon="-3.632796965539455">
        <ele>324.57999999999998</ele>
        <time>2023-08-18T16:08:02Z</time>
      </trkpt>
      <trkpt lat="57.374829025939107" lon="-3.631872022524476">
        <ele>326.99000000000001</ele>
        <time>2023-08-18T16:08:06Z</time>
      </trkpt>
      <trkpt lat="57.374029979109764" lon="-3.630219027400017">
        <ele>327.94999999999999</ele>
        <time>2023-08-18T16:08:12Z</time>
      </trkpt>
      <trkpt lat="57.373914979398251" lon="-3.629956003278494">
        <ele>327.94999999999999</ele>
        <time>2023-08-18T16:08:13Z</time>
      </trkpt>
      <trkpt lat="57.373367976397276" lon="-3.627763967961073">
        <ele>324.57999999999998</ele>
        <time>2023-08-18T16:08:20Z</time>
      </trkpt>
      <trkpt lat="57.372822985053062" lon="-3.625674024224281">
        <ele>320.74000000000001</ele>
        <time>2023-08-18T16:08:27Z</time>
      </trkpt>
      <trkpt lat="57.372715026140213" lon="-3.625365989282727">
        <ele>320.25999999999999</ele>
        <time>2023-08-18T16:08:28Z</time>
      </trkpt>
      <trkpt lat="57.372051011770964" lon="-3.623489029705524">
        <ele>317.85000000000002</ele>
        <time>2023-08-18T16:08:34Z</time>
      </trkpt>
      <trkpt lat="57.371448017656803" lon="-3.621952040120959">
        <ele>315.44999999999999</ele>
        <time>2023-08-18T16:08:39Z</time>
      </trkpt>
      <trkpt lat="57.370449984446168" lon="-3.619813984259963">
        <ele>312.56999999999999</ele>
        <time>2023-08-18T16:08:47Z</time>
      </trkpt>
      <trkpt lat="57.369814971461892" lon="-3.617556989192963">
        <ele>311.60000000000002</ele>
        <time>2023-08-18T16:08:54Z</time>
      </trkpt>
      <trkpt lat="57.369256988167763" lon="-3.615154987201095">
        <ele>311.12</ele>
        <time>2023-08-18T16:09:01Z</time>
      </trkpt>
      <trkpt lat="57.36914299428463" lon="-3.614848963916302">
        <ele>311.12</ele>
        <time>2023-08-18T16:09:02Z</time>
      </trkpt>
      <trkpt lat="57.3690150026232" lon="-3.614555010572076">
        <ele>311.12</ele>
        <time>2023-08-18T16:09:03Z</time>
      </trkpt>
      <trkpt lat="57.367659984156489" lon="-3.61275801435113">
        <ele>311.12</ele>
        <time>2023-08-18T16:09:11Z</time>
      </trkpt>
      <trkpt lat="57.366185020655394" lon="-3.611669959500432">
        <ele>309.68000000000001</ele>
        <time>2023-08-18T16:09:19Z</time>
      </trkpt>
      <trkpt lat="57.364521967247128" lon="-3.610769994556904">
        <ele>306.80000000000001</ele>
        <time>2023-08-18T16:09:27Z</time>
      </trkpt>
      <trkpt lat="57.362638972699642" lon="-3.609702978283167">
        <ele>300.55000000000001</ele>
        <time>2023-08-18T16:09:36Z</time>
      </trkpt>
      <trkpt lat="57.361405994743109" lon="-3.609081963077188">
        <ele>294.30000000000001</ele>
        <time>2023-08-18T16:09:43Z</time>
      </trkpt>
      <trkpt lat="57.361216982826591" lon="-3.609028989449143">
        <ele>293.33999999999997</ele>
        <time>2023-08-18T16:09:44Z</time>
      </trkpt>
      <trkpt lat="57.360993018373847" lon="-3.608966041356325">
        <ele>291.89999999999998</ele>
        <time>2023-08-18T16:09:45Z</time>
      </trkpt>
      <trkpt lat="57.358966022729874" lon="-3.608937961980701">
        <ele>282.76999999999998</ele>
        <time>2023-08-18T16:09:54Z</time>
      </trkpt>
      <trkpt lat="57.357336999848485" lon="-3.609319003298879">
        <ele>277</ele>
        <time>2023-08-18T16:10:01Z</time>
      </trkpt>
      <trkpt lat="57.356889992952347" lon="-3.609458981081843">
        <ele>276.51999999999998</ele>
        <time>2023-08-18T16:10:03Z</time>
      </trkpt>
      <trkpt lat="57.35668396577239" lon="-3.609458981081843">
        <ele>276.51999999999998</ele>
        <time>2023-08-18T16:10:04Z</time>
      </trkpt>
      <trkpt lat="57.354902978986502" lon="-3.609367031604052">
        <ele>274.58999999999997</ele>
        <time>2023-08-18T16:10:12Z</time>
      </trkpt>
      <trkpt lat="57.35292199999094" lon="-3.609210960566998">
        <ele>263.54000000000002</ele>
        <time>2023-08-18T16:10:21Z</time>
      </trkpt>
      <trkpt lat="57.35276903025806" lon="-3.609253959730268">
        <ele>262.10000000000002</ele>
        <time>2023-08-18T16:10:22Z</time>
      </trkpt>
      <trkpt lat="57.352626034989953" lon="-3.609293019399047">
        <ele>260.64999999999998</ele>
        <time>2023-08-18T16:10:23Z</time>
      </trkpt>
      <trkpt lat="57.352278018370271" lon="-3.609389998018742">
        <ele>257.29000000000002</ele>
        <time>2023-08-18T16:10:26Z</time>
      </trkpt>
      <trkpt lat="57.352185985073447" lon="-3.60934498719871">
        <ele>256.32999999999998</ele>
        <time>2023-08-18T16:10:27Z</time>
      </trkpt>
      <trkpt lat="57.35208498314023" lon="-3.609274998307228">
        <ele>254.88999999999999</ele>
        <time>2023-08-18T16:10:28Z</time>
      </trkpt>
      <trkpt lat="57.35195598565042" lon="-3.609185982495546">
        <ele>253.44</ele>
        <time>2023-08-18T16:10:29Z</time>
      </trkpt>
      <trkpt lat="57.351809972897172" lon="-3.609119011089206">
        <ele>252</ele>
        <time>2023-08-18T16:10:30Z</time>
      </trkpt>
      <trkpt lat="57.351691033691168" lon="-3.609075006097555">
        <ele>250.56</ele>
        <time>2023-08-18T16:10:31Z</time>
      </trkpt>
      <trkpt lat="57.351557007059455" lon="-3.609028989449143">
        <ele>248.63999999999999</ele>
        <time>2023-08-18T16:10:32Z</time>
      </trkpt>
      <trkpt lat="57.351406970992684" lon="-3.609014991670847">
        <ele>247.68000000000001</ele>
        <time>2023-08-18T16:10:33Z</time>
      </trkpt>
      <trkpt lat="57.350102998316288" lon="-3.608871996402741">
        <ele>241.91</ele>
        <time>2023-08-18T16:10:40Z</time>
      </trkpt>
      <trkpt lat="57.348498031497002" lon="-3.60872196033597">
        <ele>241.91</ele>
        <time>2023-08-18T16:10:48Z</time>
      </trkpt>
      <trkpt lat="57.346526021137834" lon="-3.60854703001678">
        <ele>239.02000000000001</ele>
        <time>2023-08-18T16:10:57Z</time>
      </trkpt>
      <trkpt lat="57.344058975577354" lon="-3.608175041154027">
        <ele>233.74000000000001</ele>
        <time>2023-08-18T16:11:08Z</time>
      </trkpt>
      <trkpt lat="57.343835011124611" lon="-3.608080996200442">
        <ele>232.78</ele>
        <time>2023-08-18T16:11:09Z</time>
      </trkpt>
      <trkpt lat="57.34211697243154" lon="-3.607627032324672">
        <ele>226.05000000000001</ele>
        <time>2023-08-18T16:11:17Z</time>
      </trkpt>
      <trkpt lat="57.341220024973154" lon="-3.607277004048228">
        <ele>222.19999999999999</ele>
        <time>2023-08-18T16:11:22Z</time>
      </trkpt>
      <trkpt lat="57.340400023385882" lon="-3.606322975829244">
        <ele>218.36000000000001</ele>
        <time>2023-08-18T16:11:27Z</time>
      </trkpt>
      <trkpt lat="57.339205015450716" lon="-3.604569984599948">
        <ele>212.11000000000001</ele>
        <time>2023-08-18T16:11:35Z</time>
      </trkpt>
      <trkpt lat="57.338603027164936" lon="-3.603962967172265">
        <ele>208.74000000000001</ele>
        <time>2023-08-18T16:11:39Z</time>
      </trkpt>
      <trkpt lat="57.33844100497663" lon="-3.603859031572938">
        <ele>207.30000000000001</ele>
        <time>2023-08-18T16:11:40Z</time>
      </trkpt>
      <trkpt lat="57.338262973353267" lon="-3.603793988004327">
        <ele>206.34</ele>
        <time>2023-08-18T16:11:41Z</time>
      </trkpt>
      <trkpt lat="57.337291007861495" lon="-3.603601036593318">
        <ele>198.16999999999999</ele>
        <time>2023-08-18T16:11:47Z</time>
      </trkpt>
      <trkpt lat="57.336333962157369" lon="-3.603686029091477">
        <ele>200.09</ele>
        <time>2023-08-18T16:11:57Z</time>
      </trkpt>
      <trkpt lat="57.335065025836229" lon="-3.603832041844726">
        <ele>206.34</ele>
        <time>2023-08-18T16:12:11Z</time>
      </trkpt>
      <trkpt lat="57.33435801230371" lon="-3.604020969942212">
        <ele>211.15000000000001</ele>
        <time>2023-08-18T16:12:20Z</time>
      </trkpt>
      <trkpt lat="57.334285005927086" lon="-3.604082996025682">
        <ele>211.63</ele>
        <time>2023-08-18T16:12:21Z</time>
      </trkpt>
      <trkpt lat="57.333353022113442" lon="-3.605081029236317">
        <ele>215.47</ele>
        <time>2023-08-18T16:12:35Z</time>
      </trkpt>
      <trkpt lat="57.333028977736831" lon="-3.605457041412592">
        <ele>214.03</ele>
        <time>2023-08-18T16:12:40Z</time>
      </trkpt>
      <trkpt lat="57.332042008638382" lon="-3.606684990227222">
        <ele>213.06999999999999</ele>
        <time>2023-08-18T16:12:54Z</time>
      </trkpt>
      <trkpt lat="57.331172972917557" lon="-3.60775301232934">
        <ele>214.99000000000001</ele>
        <time>2023-08-18T16:13:07Z</time>
      </trkpt>
      <trkpt lat="57.331047998741269" lon="-3.607891984283924">
        <ele>215.94999999999999</ele>
        <time>2023-08-18T16:13:16Z</time>
      </trkpt>
      <trkpt lat="57.330889999866486" lon="-3.60807697288692">
        <ele>216.43000000000001</ele>
        <time>2023-08-18T16:13:27Z</time>
      </trkpt>
      <trkpt lat="57.330525973811746" lon="-3.608532026410103">
        <ele>215.94999999999999</ele>
        <time>2023-08-18T16:13:39Z</time>
      </trkpt>
      <trkpt lat="57.330514993518591" lon="-3.608545018360019">
        <ele>215.94999999999999</ele>
        <time>2023-08-18T16:13:40Z</time>
      </trkpt>
      <trkpt lat="57.330224979668856" lon="-3.608890017494559">
        <ele>215.94999999999999</ele>
        <time>2023-08-18T16:13:52Z</time>
      </trkpt>
      <trkpt lat="57.32974000275135" lon="-3.60947398468852">
        <ele>214.50999999999999</ele>
        <time>2023-08-18T16:14:05Z</time>
      </trkpt>
      <trkpt lat="57.329699015244842" lon="-3.609526958316565">
        <ele>214.50999999999999</ele>
        <time>2023-08-18T16:14:07Z</time>
      </trkpt>
    </trkseg>
  </trk>

</gpx>